<?xml version='1.0' encoding='UTF-8'?><gpx version="1.1" creator="JPX - https://github.com/jenetics/jpx" xmlns="http://www.topografix.com/GPX/1/1"><trk><trkseg><trkpt lat="44.2366932" lon="8.1167232"><ele>646.0</ele><time>2026-05-02T09:35:18.884Z</time></trkpt><trkpt lat="44.2367356" lon="8.1167995"><ele>646.0</ele><time>2026-05-02T09:36:00.27Z</time></trkpt><trkpt lat="44.2367621" lon="8.1166959"><ele>646.0</ele><time>2026-05-02T09:36:03.262Z</time></trkpt><trkpt lat="44.2368116" lon="8.116559"><ele>646.0</ele><time>2026-05-02T09:36:05.269Z</time></trkpt><trkpt lat="44.2368653" lon="8.1164217"><ele>646.0</ele><time>2026-05-02T09:36:07.264Z</time></trkpt><trkpt lat="44.2369222" lon="8.1162808"><ele>645.25</ele><time>2026-05-02T09:36:09.265Z</time></trkpt><trkpt lat="44.2369933" lon="8.1161529"><ele>644.5</ele><time>2026-05-02T09:36:11.266Z</time></trkpt><trkpt lat="44.2370516" lon="8.116037"><ele>643.75</ele><time>2026-05-02T09:36:13.267Z</time></trkpt><trkpt lat="44.2371269" lon="8.1158785"><ele>643.0</ele><time>2026-05-02T09:36:15.27Z</time></trkpt><trkpt lat="44.2371992" lon="8.115781"><ele>642.75</ele><time>2026-05-02T09:36:16.28Z</time></trkpt><trkpt lat="44.2372995" lon="8.1156813"><ele>642.5</ele><time>2026-05-02T09:36:17.26Z</time></trkpt><trkpt lat="44.2374126" lon="8.1155615"><ele>642.25</ele><time>2026-05-02T09:36:18.272Z</time></trkpt><trkpt lat="44.2375396" lon="8.1154153"><ele>642.0</ele><time>2026-05-02T09:36:19.268Z</time></trkpt><trkpt lat="44.2376769" lon="8.1152317"><ele>642.0</ele><time>2026-05-02T09:36:20.272Z</time></trkpt><trkpt lat="44.2378175" lon="8.1150247"><ele>642.0</ele><time>2026-05-02T09:36:21.259Z</time></trkpt><trkpt lat="44.2379657" lon="8.1148329"><ele>642.0</ele><time>2026-05-02T09:36:22.272Z</time></trkpt><trkpt lat="44.2381255" lon="8.1146729"><ele>641.6666666666666</ele><time>2026-05-02T09:36:23.269Z</time></trkpt><trkpt lat="44.2382727" lon="8.1145363"><ele>641.3333333333333</ele><time>2026-05-02T09:36:24.27Z</time></trkpt><trkpt lat="44.2383963" lon="8.1144141"><ele>641.0</ele><time>2026-05-02T09:36:25.26Z</time></trkpt><trkpt lat="44.2385146" lon="8.1143004"><ele>641.0</ele><time>2026-05-02T09:36:26.268Z</time></trkpt><trkpt lat="44.2386312" lon="8.1141995"><ele>641.0</ele><time>2026-05-02T09:36:27.261Z</time></trkpt><trkpt lat="44.2387528" lon="8.1141093"><ele>641.0</ele><time>2026-05-02T09:36:28.265Z</time></trkpt><trkpt lat="44.2388782" lon="8.1140085"><ele>641.0</ele><time>2026-05-02T09:36:29.279Z</time></trkpt><trkpt lat="44.2390137" lon="8.1139246"><ele>641.5</ele><time>2026-05-02T09:36:30.274Z</time></trkpt><trkpt lat="44.2391544" lon="8.1138391"><ele>642.0</ele><time>2026-05-02T09:36:31.272Z</time></trkpt><trkpt lat="44.2392987" lon="8.1137566"><ele>642.5</ele><time>2026-05-02T09:36:32.258Z</time></trkpt><trkpt lat="44.2394278" lon="8.1136851"><ele>643.0</ele><time>2026-05-02T09:36:33.265Z</time></trkpt><trkpt lat="44.2395471" lon="8.1136158"><ele>643.0</ele><time>2026-05-02T09:36:34.264Z</time></trkpt><trkpt lat="44.2396631" lon="8.1135546"><ele>643.0</ele><time>2026-05-02T09:36:35.267Z</time></trkpt><trkpt lat="44.2397855" lon="8.1134986"><ele>643.0</ele><time>2026-05-02T09:36:36.257Z</time></trkpt><trkpt lat="44.2399062" lon="8.1134418"><ele>643.0</ele><time>2026-05-02T09:36:37.27Z</time></trkpt><trkpt lat="44.240034" lon="8.1133933"><ele>642.75</ele><time>2026-05-02T09:36:38.262Z</time></trkpt><trkpt lat="44.2401628" lon="8.1133448"><ele>642.5</ele><time>2026-05-02T09:36:39.265Z</time></trkpt><trkpt lat="44.240298" lon="8.1132954"><ele>642.25</ele><time>2026-05-02T09:36:40.263Z</time></trkpt><trkpt lat="44.2404393" lon="8.1132505"><ele>642.0</ele><time>2026-05-02T09:36:41.274Z</time></trkpt><trkpt lat="44.2405783" lon="8.1132069"><ele>643.0</ele><time>2026-05-02T09:36:42.253Z</time></trkpt><trkpt lat="44.2407242" lon="8.1131655"><ele>644.0</ele><time>2026-05-02T09:36:43.263Z</time></trkpt><trkpt lat="44.240872" lon="8.1131209"><ele>645.0</ele><time>2026-05-02T09:36:44.258Z</time></trkpt><trkpt lat="44.2410234" lon="8.1130807"><ele>645.0</ele><time>2026-05-02T09:36:45.262Z</time></trkpt><trkpt lat="44.2411759" lon="8.1130343"><ele>645.0</ele><time>2026-05-02T09:36:46.258Z</time></trkpt><trkpt lat="44.2413237" lon="8.1129873"><ele>645.0</ele><time>2026-05-02T09:36:47.26Z</time></trkpt><trkpt lat="44.2414677" lon="8.1129371"><ele>644.5</ele><time>2026-05-02T09:36:48.254Z</time></trkpt><trkpt lat="44.2416091" lon="8.1128884"><ele>644.0</ele><time>2026-05-02T09:36:49.261Z</time></trkpt><trkpt lat="44.2417479" lon="8.1128464"><ele>643.5</ele><time>2026-05-02T09:36:50.255Z</time></trkpt><trkpt lat="44.2418815" lon="8.1128054"><ele>643.0</ele><time>2026-05-02T09:36:51.263Z</time></trkpt><trkpt lat="44.242015" lon="8.1127636"><ele>643.0</ele><time>2026-05-02T09:36:52.258Z</time></trkpt><trkpt lat="44.2421584" lon="8.1127193"><ele>643.0</ele><time>2026-05-02T09:36:53.268Z</time></trkpt><trkpt lat="44.2423029" lon="8.1126753"><ele>643.0</ele><time>2026-05-02T09:36:54.256Z</time></trkpt><trkpt lat="44.2424373" lon="8.1126359"><ele>643.0</ele><time>2026-05-02T09:36:55.263Z</time></trkpt><trkpt lat="44.2425681" lon="8.1125982"><ele>642.5</ele><time>2026-05-02T09:36:56.257Z</time></trkpt><trkpt lat="44.242696" lon="8.1125608"><ele>642.0</ele><time>2026-05-02T09:36:57.261Z</time></trkpt><trkpt lat="44.2428195" lon="8.1125275"><ele>641.5</ele><time>2026-05-02T09:36:58.254Z</time></trkpt><trkpt lat="44.2429497" lon="8.112501"><ele>641.0</ele><time>2026-05-02T09:36:59.268Z</time></trkpt><trkpt lat="44.243082" lon="8.1124866"><ele>641.0</ele><time>2026-05-02T09:37:00.25Z</time></trkpt><trkpt lat="44.2432212" lon="8.1124945"><ele>641.0</ele><time>2026-05-02T09:37:01.271Z</time></trkpt><trkpt lat="44.2433595" lon="8.1125141"><ele>641.0</ele><time>2026-05-02T09:37:02.245Z</time></trkpt><trkpt lat="44.243502" lon="8.112552"><ele>641.0</ele><time>2026-05-02T09:37:03.257Z</time></trkpt><trkpt lat="44.2436428" lon="8.1126037"><ele>641.0</ele><time>2026-05-02T09:37:04.25Z</time></trkpt><trkpt lat="44.2437865" lon="8.1126637"><ele>641.0</ele><time>2026-05-02T09:37:05.255Z</time></trkpt><trkpt lat="44.2439308" lon="8.1127274"><ele>641.0</ele><time>2026-05-02T09:37:06.248Z</time></trkpt><trkpt lat="44.2440804" lon="8.1127858"><ele>640.3333333333333</ele><time>2026-05-02T09:37:07.255Z</time></trkpt><trkpt lat="44.2442301" lon="8.1128355"><ele>639.6666666666666</ele><time>2026-05-02T09:37:08.254Z</time></trkpt><trkpt lat="44.2443768" lon="8.1128823"><ele>639.0</ele><time>2026-05-02T09:37:09.256Z</time></trkpt><trkpt lat="44.2445249" lon="8.1129305"><ele>639.0</ele><time>2026-05-02T09:37:10.251Z</time></trkpt><trkpt lat="44.2446742" lon="8.1129809"><ele>639.0</ele><time>2026-05-02T09:37:11.253Z</time></trkpt><trkpt lat="44.2448343" lon="8.1130294"><ele>639.0</ele><time>2026-05-02T09:37:12.246Z</time></trkpt><trkpt lat="44.2449833" lon="8.1130803"><ele>638.75</ele><time>2026-05-02T09:37:13.257Z</time></trkpt><trkpt lat="44.2451252" lon="8.1131274"><ele>638.5</ele><time>2026-05-02T09:37:14.247Z</time></trkpt><trkpt lat="44.2452704" lon="8.1131759"><ele>638.25</ele><time>2026-05-02T09:37:15.251Z</time></trkpt><trkpt lat="44.2454132" lon="8.1132288"><ele>638.0</ele><time>2026-05-02T09:37:16.252Z</time></trkpt><trkpt lat="44.2455441" lon="8.1133053"><ele>637.3333333333333</ele><time>2026-05-02T09:37:17.25Z</time></trkpt><trkpt lat="44.2456717" lon="8.1134029"><ele>636.6666666666666</ele><time>2026-05-02T09:37:18.243Z</time></trkpt><trkpt lat="44.2457999" lon="8.1135175"><ele>636.0</ele><time>2026-05-02T09:37:19.248Z</time></trkpt><trkpt lat="44.2459307" lon="8.1136491"><ele>636.0</ele><time>2026-05-02T09:37:20.249Z</time></trkpt><trkpt lat="44.2460676" lon="8.1137918"><ele>636.0</ele><time>2026-05-02T09:37:21.245Z</time></trkpt><trkpt lat="44.2462039" lon="8.1139348"><ele>636.0</ele><time>2026-05-02T09:37:22.251Z</time></trkpt><trkpt lat="44.2463499" lon="8.114068"><ele>637.0</ele><time>2026-05-02T09:37:23.241Z</time></trkpt><trkpt lat="44.2465032" lon="8.1141998"><ele>638.0</ele><time>2026-05-02T09:37:24.246Z</time></trkpt><trkpt lat="44.2466511" lon="8.1143245"><ele>639.0</ele><time>2026-05-02T09:37:25.248Z</time></trkpt><trkpt lat="44.2467975" lon="8.1144465"><ele>639.0</ele><time>2026-05-02T09:37:26.247Z</time></trkpt><trkpt lat="44.2469342" lon="8.1145618"><ele>639.0</ele><time>2026-05-02T09:37:27.252Z</time></trkpt><trkpt lat="44.2470601" lon="8.1146801"><ele>639.0</ele><time>2026-05-02T09:37:28.252Z</time></trkpt><trkpt lat="44.2471827" lon="8.1147868"><ele>642.6666666666666</ele><time>2026-05-02T09:37:29.255Z</time></trkpt><trkpt lat="44.2473128" lon="8.1149029"><ele>646.3333333333333</ele><time>2026-05-02T09:37:30.248Z</time></trkpt><trkpt lat="44.2474344" lon="8.1150215"><ele>650.0</ele><time>2026-05-02T09:37:31.253Z</time></trkpt><trkpt lat="44.2475548" lon="8.1151398"><ele>650.0</ele><time>2026-05-02T09:37:32.241Z</time></trkpt><trkpt lat="44.2476764" lon="8.1152565"><ele>650.0</ele><time>2026-05-02T09:37:33.245Z</time></trkpt><trkpt lat="44.2478059" lon="8.1153602"><ele>650.0</ele><time>2026-05-02T09:37:34.237Z</time></trkpt><trkpt lat="44.2479424" lon="8.1154545"><ele>650.0</ele><time>2026-05-02T09:37:35.24Z</time></trkpt><trkpt lat="44.2480858" lon="8.1155415"><ele>647.0</ele><time>2026-05-02T09:37:36.232Z</time></trkpt><trkpt lat="44.2482291" lon="8.1156241"><ele>644.0</ele><time>2026-05-02T09:37:37.24Z</time></trkpt><trkpt lat="44.2483736" lon="8.1157031"><ele>641.0</ele><time>2026-05-02T09:37:38.231Z</time></trkpt><trkpt lat="44.2485183" lon="8.1157678"><ele>641.0</ele><time>2026-05-02T09:37:39.238Z</time></trkpt><trkpt lat="44.2486703" lon="8.115807"><ele>641.0</ele><time>2026-05-02T09:37:40.23Z</time></trkpt><trkpt lat="44.2488276" lon="8.115824"><ele>641.0</ele><time>2026-05-02T09:37:41.233Z</time></trkpt><trkpt lat="44.2489876" lon="8.1158047"><ele>641.3333333333333</ele><time>2026-05-02T09:37:42.229Z</time></trkpt><trkpt lat="44.2491569" lon="8.115762"><ele>641.6666666666666</ele><time>2026-05-02T09:37:43.241Z</time></trkpt><trkpt lat="44.2493357" lon="8.1157323"><ele>642.0</ele><time>2026-05-02T09:37:44.233Z</time></trkpt><trkpt lat="44.2495294" lon="8.1156981"><ele>653.0</ele><time>2026-05-02T09:37:45.244Z</time></trkpt><trkpt lat="44.2497232" lon="8.1156683"><ele>664.0</ele><time>2026-05-02T09:37:46.224Z</time></trkpt><trkpt lat="44.2499138" lon="8.1156657"><ele>675.0</ele><time>2026-05-02T09:37:47.234Z</time></trkpt><trkpt lat="44.2500948" lon="8.1156701"><ele>675.0</ele><time>2026-05-02T09:37:48.236Z</time></trkpt><trkpt lat="44.250268" lon="8.1157094"><ele>675.0</ele><time>2026-05-02T09:37:49.241Z</time></trkpt><trkpt lat="44.2504318" lon="8.1157782"><ele>675.0</ele><time>2026-05-02T09:37:50.229Z</time></trkpt><trkpt lat="44.2505939" lon="8.1158615"><ele>667.3333333333334</ele><time>2026-05-02T09:37:51.235Z</time></trkpt><trkpt lat="44.2507528" lon="8.1159728"><ele>659.6666666666667</ele><time>2026-05-02T09:37:52.229Z</time></trkpt><trkpt lat="44.2509024" lon="8.116101"><ele>652.0</ele><time>2026-05-02T09:37:53.234Z</time></trkpt><trkpt lat="44.2510502" lon="8.1162457"><ele>652.0</ele><time>2026-05-02T09:37:54.234Z</time></trkpt><trkpt lat="44.2511949" lon="8.1164032"><ele>652.0</ele><time>2026-05-02T09:37:55.235Z</time></trkpt><trkpt lat="44.2513446" lon="8.1165629"><ele>652.0</ele><time>2026-05-02T09:37:56.229Z</time></trkpt><trkpt lat="44.2514941" lon="8.1167384"><ele>650.3333333333334</ele><time>2026-05-02T09:37:57.242Z</time></trkpt><trkpt lat="44.2516419" lon="8.1169049"><ele>648.6666666666666</ele><time>2026-05-02T09:37:58.234Z</time></trkpt><trkpt lat="44.2517881" lon="8.1170635"><ele>647.0</ele><time>2026-05-02T09:37:59.247Z</time></trkpt><trkpt lat="44.2519276" lon="8.1171979"><ele>647.0</ele><time>2026-05-02T09:38:00.23Z</time></trkpt><trkpt lat="44.2520679" lon="8.1172965"><ele>647.0</ele><time>2026-05-02T09:38:01.247Z</time></trkpt><trkpt lat="44.2522105" lon="8.1173554"><ele>647.0</ele><time>2026-05-02T09:38:02.245Z</time></trkpt><trkpt lat="44.2523426" lon="8.1174036"><ele>647.0</ele><time>2026-05-02T09:38:03.241Z</time></trkpt><trkpt lat="44.2524681" lon="8.117447"><ele>644.5</ele><time>2026-05-02T09:38:04.236Z</time></trkpt><trkpt lat="44.2525925" lon="8.11746"><ele>642.0</ele><time>2026-05-02T09:38:05.24Z</time></trkpt><trkpt lat="44.2527175" lon="8.1174461"><ele>639.5</ele><time>2026-05-02T09:38:06.241Z</time></trkpt><trkpt lat="44.2528356" lon="8.1174148"><ele>637.0</ele><time>2026-05-02T09:38:07.25Z</time></trkpt><trkpt lat="44.2529588" lon="8.1173753"><ele>638.25</ele><time>2026-05-02T09:38:08.242Z</time></trkpt><trkpt lat="44.253099" lon="8.117351"><ele>639.5</ele><time>2026-05-02T09:38:09.242Z</time></trkpt><trkpt lat="44.2532416" lon="8.1173581"><ele>640.75</ele><time>2026-05-02T09:38:10.246Z</time></trkpt><trkpt lat="44.2533801" lon="8.1173914"><ele>642.0</ele><time>2026-05-02T09:38:11.242Z</time></trkpt><trkpt lat="44.2535101" lon="8.1174542"><ele>642.0</ele><time>2026-05-02T09:38:12.24Z</time></trkpt><trkpt lat="44.253632" lon="8.1175444"><ele>642.0</ele><time>2026-05-02T09:38:13.247Z</time></trkpt><trkpt lat="44.2537529" lon="8.1176374"><ele>642.0</ele><time>2026-05-02T09:38:14.238Z</time></trkpt><trkpt lat="44.2538749" lon="8.1177403"><ele>642.0</ele><time>2026-05-02T09:38:15.248Z</time></trkpt><trkpt lat="44.2540008" lon="8.11784"><ele>641.4</ele><time>2026-05-02T09:38:16.242Z</time></trkpt><trkpt lat="44.2541196" lon="8.1179292"><ele>640.8000000000001</ele><time>2026-05-02T09:38:17.248Z</time></trkpt><trkpt lat="44.254227" lon="8.1179884"><ele>640.2</ele><time>2026-05-02T09:38:18.244Z</time></trkpt><trkpt lat="44.2543135" lon="8.1179942"><ele>639.6</ele><time>2026-05-02T09:38:19.252Z</time></trkpt><trkpt lat="44.2544009" lon="8.1179369"><ele>639.0</ele><time>2026-05-02T09:38:20.241Z</time></trkpt><trkpt lat="44.2544559" lon="8.1177967"><ele>639.0</ele><time>2026-05-02T09:38:21.249Z</time></trkpt><trkpt lat="44.2544784" lon="8.1176425"><ele>639.0</ele><time>2026-05-02T09:38:22.249Z</time></trkpt><trkpt lat="44.2544663" lon="8.1174935"><ele>639.0</ele><time>2026-05-02T09:38:23.236Z</time></trkpt><trkpt lat="44.254436" lon="8.1173295"><ele>639.0</ele><time>2026-05-02T09:38:24.243Z</time></trkpt><trkpt lat="44.2543893" lon="8.1171553"><ele>639.5</ele><time>2026-05-02T09:38:25.247Z</time></trkpt><trkpt lat="44.2543432" lon="8.1169769"><ele>640.0</ele><time>2026-05-02T09:38:26.243Z</time></trkpt><trkpt lat="44.2543007" lon="8.1167901"><ele>640.5</ele><time>2026-05-02T09:38:27.247Z</time></trkpt><trkpt lat="44.2542609" lon="8.1166011"><ele>641.0</ele><time>2026-05-02T09:38:28.244Z</time></trkpt><trkpt lat="44.2542308" lon="8.1164141"><ele>642.5</ele><time>2026-05-02T09:38:29.257Z</time></trkpt><trkpt lat="44.2542142" lon="8.1162189"><ele>644.0</ele><time>2026-05-02T09:38:30.245Z</time></trkpt><trkpt lat="44.2542233" lon="8.1160233"><ele>645.5</ele><time>2026-05-02T09:38:31.249Z</time></trkpt><trkpt lat="44.2542653" lon="8.1158386"><ele>647.0</ele><time>2026-05-02T09:38:32.244Z</time></trkpt><trkpt lat="44.2543436" lon="8.1156904"><ele>650.25</ele><time>2026-05-02T09:38:33.251Z</time></trkpt><trkpt lat="44.2544434" lon="8.1155845"><ele>653.5</ele><time>2026-05-02T09:38:34.237Z</time></trkpt><trkpt lat="44.2545704" lon="8.1154933"><ele>656.75</ele><time>2026-05-02T09:38:35.242Z</time></trkpt><trkpt lat="44.254717" lon="8.1154029"><ele>660.0</ele><time>2026-05-02T09:38:36.238Z</time></trkpt><trkpt lat="44.254875" lon="8.1153101"><ele>649.3333333333334</ele><time>2026-05-02T09:38:37.243Z</time></trkpt><trkpt lat="44.2550378" lon="8.1152199"><ele>638.6666666666667</ele><time>2026-05-02T09:38:38.245Z</time></trkpt><trkpt lat="44.2551742" lon="8.1151269"><ele>628.0</ele><time>2026-05-02T09:38:39.242Z</time></trkpt><trkpt lat="44.2553015" lon="8.1150933"><ele>628.0</ele><time>2026-05-02T09:38:40.235Z</time></trkpt><trkpt lat="44.255419" lon="8.1151051"><ele>628.0</ele><time>2026-05-02T09:38:41.229Z</time></trkpt><trkpt lat="44.2555597" lon="8.1151685"><ele>628.0</ele><time>2026-05-02T09:38:42.232Z</time></trkpt><trkpt lat="44.2557029" lon="8.115233"><ele>628.0</ele><time>2026-05-02T09:38:43.228Z</time></trkpt><trkpt lat="44.2558619" lon="8.1153139"><ele>627.6666666666667</ele><time>2026-05-02T09:38:44.236Z</time></trkpt><trkpt lat="44.2560138" lon="8.1153945"><ele>627.3333333333334</ele><time>2026-05-02T09:38:45.234Z</time></trkpt><trkpt lat="44.2561416" lon="8.1155234"><ele>627.0</ele><time>2026-05-02T09:38:46.236Z</time></trkpt><trkpt lat="44.2562768" lon="8.1156695"><ele>627.3333333333334</ele><time>2026-05-02T09:38:47.239Z</time></trkpt><trkpt lat="44.2564067" lon="8.115825"><ele>627.6666666666667</ele><time>2026-05-02T09:38:48.242Z</time></trkpt><trkpt lat="44.2565201" lon="8.1159967"><ele>628.0</ele><time>2026-05-02T09:38:49.25Z</time></trkpt><trkpt lat="44.2566148" lon="8.1161739"><ele>628.0</ele><time>2026-05-02T09:38:50.243Z</time></trkpt><trkpt lat="44.2566998" lon="8.1163447"><ele>628.0</ele><time>2026-05-02T09:38:51.245Z</time></trkpt><trkpt lat="44.2567705" lon="8.1165241"><ele>628.0</ele><time>2026-05-02T09:38:52.24Z</time></trkpt><trkpt lat="44.2568382" lon="8.1167173"><ele>631.25</ele><time>2026-05-02T09:38:53.244Z</time></trkpt><trkpt lat="44.2569299" lon="8.1168964"><ele>634.5</ele><time>2026-05-02T09:38:54.243Z</time></trkpt><trkpt lat="44.2570014" lon="8.1170737"><ele>637.75</ele><time>2026-05-02T09:38:55.242Z</time></trkpt><trkpt lat="44.2570721" lon="8.1172404"><ele>641.0</ele><time>2026-05-02T09:38:56.24Z</time></trkpt><trkpt lat="44.2571526" lon="8.1173967"><ele>644.25</ele><time>2026-05-02T09:38:57.248Z</time></trkpt><trkpt lat="44.257232" lon="8.1175523"><ele>647.5</ele><time>2026-05-02T09:38:58.249Z</time></trkpt><trkpt lat="44.2573003" lon="8.1177133"><ele>650.75</ele><time>2026-05-02T09:38:59.258Z</time></trkpt><trkpt lat="44.2573536" lon="8.1178772"><ele>654.0</ele><time>2026-05-02T09:39:00.248Z</time></trkpt><trkpt lat="44.2573851" lon="8.1180516"><ele>648.25</ele><time>2026-05-02T09:39:01.249Z</time></trkpt><trkpt lat="44.2574033" lon="8.118241"><ele>642.5</ele><time>2026-05-02T09:39:02.251Z</time></trkpt><trkpt lat="44.257424" lon="8.1184342"><ele>636.75</ele><time>2026-05-02T09:39:03.251Z</time></trkpt><trkpt lat="44.2574467" lon="8.1186241"><ele>631.0</ele><time>2026-05-02T09:39:04.263Z</time></trkpt><trkpt lat="44.2574746" lon="8.1187983"><ele>631.0</ele><time>2026-05-02T09:39:05.253Z</time></trkpt><trkpt lat="44.2575329" lon="8.118977"><ele>631.0</ele><time>2026-05-02T09:39:06.275Z</time></trkpt><trkpt lat="44.2576045" lon="8.1191545"><ele>631.0</ele><time>2026-05-02T09:39:07.255Z</time></trkpt><trkpt lat="44.2576836" lon="8.1193415"><ele>631.0</ele><time>2026-05-02T09:39:08.257Z</time></trkpt><trkpt lat="44.257762" lon="8.1195191"><ele>630.75</ele><time>2026-05-02T09:39:09.253Z</time></trkpt><trkpt lat="44.2578241" lon="8.1196787"><ele>630.5</ele><time>2026-05-02T09:39:10.259Z</time></trkpt><trkpt lat="44.2578788" lon="8.1198272"><ele>630.25</ele><time>2026-05-02T09:39:11.257Z</time></trkpt><trkpt lat="44.2579301" lon="8.1199621"><ele>630.0</ele><time>2026-05-02T09:39:12.257Z</time></trkpt><trkpt lat="44.2579917" lon="8.1200842"><ele>629.8</ele><time>2026-05-02T09:39:13.254Z</time></trkpt><trkpt lat="44.2580583" lon="8.1201711"><ele>629.6</ele><time>2026-05-02T09:39:14.259Z</time></trkpt><trkpt lat="44.2581522" lon="8.1202114"><ele>629.4</ele><time>2026-05-02T09:39:15.255Z</time></trkpt><trkpt lat="44.2582692" lon="8.1202195"><ele>629.2</ele><time>2026-05-02T09:39:16.262Z</time></trkpt><trkpt lat="44.2583904" lon="8.1202042"><ele>629.0</ele><time>2026-05-02T09:39:17.251Z</time></trkpt><trkpt lat="44.2585185" lon="8.1201685"><ele>629.5</ele><time>2026-05-02T09:39:18.259Z</time></trkpt><trkpt lat="44.2586548" lon="8.1201373"><ele>630.0</ele><time>2026-05-02T09:39:19.25Z</time></trkpt><trkpt lat="44.2587841" lon="8.120103"><ele>630.5</ele><time>2026-05-02T09:39:20.256Z</time></trkpt><trkpt lat="44.2589037" lon="8.1200805"><ele>631.0</ele><time>2026-05-02T09:39:21.252Z</time></trkpt><trkpt lat="44.2590103" lon="8.1200741"><ele>631.0</ele><time>2026-05-02T09:39:22.262Z</time></trkpt><trkpt lat="44.2591009" lon="8.1201352"><ele>631.0</ele><time>2026-05-02T09:39:23.259Z</time></trkpt><trkpt lat="44.2591938" lon="8.1202558"><ele>631.0</ele><time>2026-05-02T09:39:24.253Z</time></trkpt><trkpt lat="44.2593043" lon="8.1203759"><ele>631.0</ele><time>2026-05-02T09:39:25.251Z</time></trkpt><trkpt lat="44.2594317" lon="8.1204613"><ele>631.0</ele><time>2026-05-02T09:39:26.242Z</time></trkpt><trkpt lat="44.2595593" lon="8.1205061"><ele>631.0</ele><time>2026-05-02T09:39:27.25Z</time></trkpt><trkpt lat="44.2596859" lon="8.1204778"><ele>631.0</ele><time>2026-05-02T09:39:28.255Z</time></trkpt><trkpt lat="44.2598055" lon="8.1203861"><ele>631.0</ele><time>2026-05-02T09:39:29.268Z</time></trkpt><trkpt lat="44.2599216" lon="8.1202668"><ele>631.0</ele><time>2026-05-02T09:39:30.253Z</time></trkpt><trkpt lat="44.2600446" lon="8.1201487"><ele>631.0</ele><time>2026-05-02T09:39:31.257Z</time></trkpt><trkpt lat="44.2601765" lon="8.1200203"><ele>631.0</ele><time>2026-05-02T09:39:32.252Z</time></trkpt><trkpt lat="44.2603229" lon="8.1198918"><ele>632.6666666666667</ele><time>2026-05-02T09:39:33.255Z</time></trkpt><trkpt lat="44.2604802" lon="8.1197632"><ele>634.3333333333334</ele><time>2026-05-02T09:39:34.258Z</time></trkpt><trkpt lat="44.2606326" lon="8.1196474"><ele>636.0</ele><time>2026-05-02T09:39:35.267Z</time></trkpt><trkpt lat="44.260788" lon="8.1195709"><ele>636.0</ele><time>2026-05-02T09:39:36.254Z</time></trkpt><trkpt lat="44.2609247" lon="8.1195107"><ele>636.0</ele><time>2026-05-02T09:39:37.257Z</time></trkpt><trkpt lat="44.2610474" lon="8.1194544"><ele>636.0</ele><time>2026-05-02T09:39:38.252Z</time></trkpt><trkpt lat="44.2611758" lon="8.1194201"><ele>636.0</ele><time>2026-05-02T09:39:39.253Z</time></trkpt><trkpt lat="44.2613045" lon="8.119407"><ele>636.0</ele><time>2026-05-02T09:39:40.254Z</time></trkpt><trkpt lat="44.2614371" lon="8.1194224"><ele>636.0</ele><time>2026-05-02T09:39:41.251Z</time></trkpt><trkpt lat="44.2615739" lon="8.1194297"><ele>636.0</ele><time>2026-05-02T09:39:42.248Z</time></trkpt><trkpt lat="44.2617163" lon="8.1194412"><ele>636.0</ele><time>2026-05-02T09:39:43.258Z</time></trkpt><trkpt lat="44.2618457" lon="8.1194238"><ele>636.25</ele><time>2026-05-02T09:39:44.246Z</time></trkpt><trkpt lat="44.2619681" lon="8.1193797"><ele>636.5</ele><time>2026-05-02T09:39:45.239Z</time></trkpt><trkpt lat="44.2620793" lon="8.119315"><ele>636.75</ele><time>2026-05-02T09:39:46.244Z</time></trkpt><trkpt lat="44.2621922" lon="8.1192469"><ele>637.0</ele><time>2026-05-02T09:39:47.249Z</time></trkpt><trkpt lat="44.2623056" lon="8.1191485"><ele>638.0</ele><time>2026-05-02T09:39:48.249Z</time></trkpt><trkpt lat="44.2624267" lon="8.1190623"><ele>639.0</ele><time>2026-05-02T09:39:49.246Z</time></trkpt><trkpt lat="44.2625347" lon="8.1189946"><ele>640.0</ele><time>2026-05-02T09:39:50.242Z</time></trkpt><trkpt lat="44.2626245" lon="8.1189474"><ele>641.0</ele><time>2026-05-02T09:39:51.25Z</time></trkpt><trkpt lat="44.2627273" lon="8.1189271"><ele>641.0</ele><time>2026-05-02T09:39:52.245Z</time></trkpt><trkpt lat="44.2628263" lon="8.118906"><ele>641.0</ele><time>2026-05-02T09:39:53.243Z</time></trkpt><trkpt lat="44.2629445" lon="8.1188819"><ele>641.0</ele><time>2026-05-02T09:39:54.246Z</time></trkpt><trkpt lat="44.263059" lon="8.1188529"><ele>641.0</ele><time>2026-05-02T09:39:55.252Z</time></trkpt><trkpt lat="44.2631773" lon="8.118815"><ele>638.75</ele><time>2026-05-02T09:39:56.243Z</time></trkpt><trkpt lat="44.2633058" lon="8.1187866"><ele>636.5</ele><time>2026-05-02T09:39:57.249Z</time></trkpt><trkpt lat="44.2634336" lon="8.1187364"><ele>634.25</ele><time>2026-05-02T09:39:58.241Z</time></trkpt><trkpt lat="44.2635613" lon="8.1186758"><ele>632.0</ele><time>2026-05-02T09:39:59.261Z</time></trkpt><trkpt lat="44.2636823" lon="8.1186127"><ele>632.0</ele><time>2026-05-02T09:40:00.242Z</time></trkpt><trkpt lat="44.2638022" lon="8.1185446"><ele>632.0</ele><time>2026-05-02T09:40:01.25Z</time></trkpt><trkpt lat="44.2639234" lon="8.1184729"><ele>632.0</ele><time>2026-05-02T09:40:02.243Z</time></trkpt><trkpt lat="44.2640474" lon="8.1184085"><ele>632.0</ele><time>2026-05-02T09:40:03.246Z</time></trkpt><trkpt lat="44.2641708" lon="8.1183534"><ele>630.0</ele><time>2026-05-02T09:40:04.243Z</time></trkpt><trkpt lat="44.2642936" lon="8.118308"><ele>628.0</ele><time>2026-05-02T09:40:05.25Z</time></trkpt><trkpt lat="44.2644247" lon="8.1182462"><ele>626.0</ele><time>2026-05-02T09:40:06.262Z</time></trkpt><trkpt lat="44.2645558" lon="8.1181816"><ele>624.0</ele><time>2026-05-02T09:40:07.258Z</time></trkpt><trkpt lat="44.2646896" lon="8.1181126"><ele>627.6666666666666</ele><time>2026-05-02T09:40:08.254Z</time></trkpt><trkpt lat="44.2648308" lon="8.1180477"><ele>631.3333333333333</ele><time>2026-05-02T09:40:09.249Z</time></trkpt><trkpt lat="44.2649774" lon="8.1180035"><ele>635.0</ele><time>2026-05-02T09:40:10.255Z</time></trkpt><trkpt lat="44.265138" lon="8.117965"><ele>635.0</ele><time>2026-05-02T09:40:11.247Z</time></trkpt><trkpt lat="44.2653095" lon="8.1179327"><ele>635.0</ele><time>2026-05-02T09:40:12.251Z</time></trkpt><trkpt lat="44.2654738" lon="8.1179065"><ele>635.0</ele><time>2026-05-02T09:40:13.242Z</time></trkpt><trkpt lat="44.265641" lon="8.1178877"><ele>634.0</ele><time>2026-05-02T09:40:14.247Z</time></trkpt><trkpt lat="44.2657949" lon="8.1178721"><ele>633.0</ele><time>2026-05-02T09:40:15.241Z</time></trkpt><trkpt lat="44.2659311" lon="8.1178834"><ele>632.0</ele><time>2026-05-02T09:40:16.246Z</time></trkpt><trkpt lat="44.2660477" lon="8.1178732"><ele>631.0</ele><time>2026-05-02T09:40:17.236Z</time></trkpt><trkpt lat="44.2661582" lon="8.1178308"><ele>631.0</ele><time>2026-05-02T09:40:18.254Z</time></trkpt><trkpt lat="44.2662665" lon="8.1177286"><ele>631.0</ele><time>2026-05-02T09:40:19.237Z</time></trkpt><trkpt lat="44.2663676" lon="8.1176081"><ele>631.0</ele><time>2026-05-02T09:40:20.255Z</time></trkpt><trkpt lat="44.2664262" lon="8.1174319"><ele>631.0</ele><time>2026-05-02T09:40:21.244Z</time></trkpt><trkpt lat="44.2664775" lon="8.1172589"><ele>628.5</ele><time>2026-05-02T09:40:22.247Z</time></trkpt><trkpt lat="44.2665314" lon="8.1170844"><ele>626.0</ele><time>2026-05-02T09:40:23.249Z</time></trkpt><trkpt lat="44.2665948" lon="8.1169103"><ele>623.5</ele><time>2026-05-02T09:40:24.248Z</time></trkpt><trkpt lat="44.2666651" lon="8.1167416"><ele>621.0</ele><time>2026-05-02T09:40:25.242Z</time></trkpt><trkpt lat="44.2667428" lon="8.1165809"><ele>621.75</ele><time>2026-05-02T09:40:26.25Z</time></trkpt><trkpt lat="44.26681" lon="8.1164143"><ele>622.5</ele><time>2026-05-02T09:40:27.252Z</time></trkpt><trkpt lat="44.2668707" lon="8.1162381"><ele>623.25</ele><time>2026-05-02T09:40:28.258Z</time></trkpt><trkpt lat="44.2669348" lon="8.1160618"><ele>624.0</ele><time>2026-05-02T09:40:29.263Z</time></trkpt><trkpt lat="44.2669976" lon="8.115883"><ele>623.5</ele><time>2026-05-02T09:40:30.262Z</time></trkpt><trkpt lat="44.2670526" lon="8.1157035"><ele>623.0</ele><time>2026-05-02T09:40:31.257Z</time></trkpt><trkpt lat="44.2671167" lon="8.1155179"><ele>622.5</ele><time>2026-05-02T09:40:32.256Z</time></trkpt><trkpt lat="44.2671768" lon="8.1153375"><ele>622.0</ele><time>2026-05-02T09:40:33.253Z</time></trkpt><trkpt lat="44.2672247" lon="8.1151593"><ele>623.25</ele><time>2026-05-02T09:40:34.258Z</time></trkpt><trkpt lat="44.2672853" lon="8.1149909"><ele>624.5</ele><time>2026-05-02T09:40:35.255Z</time></trkpt><trkpt lat="44.2673436" lon="8.1148202"><ele>625.75</ele><time>2026-05-02T09:40:36.257Z</time></trkpt><trkpt lat="44.2673881" lon="8.1146521"><ele>627.0</ele><time>2026-05-02T09:40:37.264Z</time></trkpt><trkpt lat="44.2674355" lon="8.1144683"><ele>627.0</ele><time>2026-05-02T09:40:38.253Z</time></trkpt><trkpt lat="44.2674844" lon="8.114285"><ele>627.0</ele><time>2026-05-02T09:40:39.258Z</time></trkpt><trkpt lat="44.2675284" lon="8.1141007"><ele>627.0</ele><time>2026-05-02T09:40:40.249Z</time></trkpt><trkpt lat="44.2675682" lon="8.1139095"><ele>627.0</ele><time>2026-05-02T09:40:41.25Z</time></trkpt><trkpt lat="44.2676173" lon="8.1137283"><ele>627.1666666666666</ele><time>2026-05-02T09:40:42.243Z</time></trkpt><trkpt lat="44.2676616" lon="8.1135647"><ele>627.3333333333334</ele><time>2026-05-02T09:40:43.252Z</time></trkpt><trkpt lat="44.2676945" lon="8.1134578"><ele>627.5</ele><time>2026-05-02T09:40:44.239Z</time></trkpt><trkpt lat="44.2677309" lon="8.1133731"><ele>627.6666666666667</ele><time>2026-05-02T09:40:45.245Z</time></trkpt><trkpt lat="44.2677581" lon="8.1132826"><ele>627.8333333333334</ele><time>2026-05-02T09:40:46.24Z</time></trkpt><trkpt lat="44.26778" lon="8.1131903"><ele>628.0</ele><time>2026-05-02T09:40:47.246Z</time></trkpt><trkpt lat="44.2677952" lon="8.1131016"><ele>628.8</ele><time>2026-05-02T09:40:48.238Z</time></trkpt><trkpt lat="44.267777" lon="8.1129348"><ele>629.5999999999999</ele><time>2026-05-02T09:40:50.248Z</time></trkpt><trkpt lat="44.2677275" lon="8.1127912"><ele>630.4000000000001</ele><time>2026-05-02T09:40:52.239Z</time></trkpt><trkpt lat="44.2676711" lon="8.1126661"><ele>631.2</ele><time>2026-05-02T09:41:02.248Z</time></trkpt><trkpt lat="44.2676354" lon="8.1125418"><ele>632.0</ele><time>2026-05-02T09:41:03.245Z</time></trkpt><trkpt lat="44.2675978" lon="8.1124406"><ele>633.2</ele><time>2026-05-02T09:41:04.241Z</time></trkpt><trkpt lat="44.267542" lon="8.1122873"><ele>634.4000000000001</ele><time>2026-05-02T09:41:06.243Z</time></trkpt><trkpt lat="44.2674979" lon="8.1121973"><ele>635.5999999999999</ele><time>2026-05-02T09:41:07.253Z</time></trkpt><trkpt lat="44.2674358" lon="8.1120962"><ele>636.8</ele><time>2026-05-02T09:41:08.253Z</time></trkpt><trkpt lat="44.2673621" lon="8.1119933"><ele>638.0</ele><time>2026-05-02T09:41:09.247Z</time></trkpt><trkpt lat="44.2673028" lon="8.1119022"><ele>636.5</ele><time>2026-05-02T09:41:10.249Z</time></trkpt><trkpt lat="44.2672585" lon="8.1118244"><ele>635.0</ele><time>2026-05-02T09:41:11.251Z</time></trkpt><trkpt lat="44.2672167" lon="8.1117437"><ele>633.5</ele><time>2026-05-02T09:41:12.247Z</time></trkpt><trkpt lat="44.2671905" lon="8.1116447"><ele>632.0</ele><time>2026-05-02T09:41:13.257Z</time></trkpt><trkpt lat="44.2671756" lon="8.1115012"><ele>630.5</ele><time>2026-05-02T09:41:14.245Z</time></trkpt><trkpt lat="44.2671499" lon="8.1113351"><ele>629.0</ele><time>2026-05-02T09:41:15.251Z</time></trkpt><trkpt lat="44.2671142" lon="8.1111594"><ele>629.0</ele><time>2026-05-02T09:41:16.243Z</time></trkpt><trkpt lat="44.2670774" lon="8.1109689"><ele>629.0</ele><time>2026-05-02T09:41:17.255Z</time></trkpt><trkpt lat="44.2670375" lon="8.1107887"><ele>629.0</ele><time>2026-05-02T09:41:18.245Z</time></trkpt><trkpt lat="44.2669962" lon="8.1106222"><ele>629.0</ele><time>2026-05-02T09:41:19.25Z</time></trkpt><trkpt lat="44.2669597" lon="8.1104633"><ele>630.25</ele><time>2026-05-02T09:41:20.25Z</time></trkpt><trkpt lat="44.2669493" lon="8.1102982"><ele>631.5</ele><time>2026-05-02T09:41:21.253Z</time></trkpt><trkpt lat="44.2669558" lon="8.1101182"><ele>632.75</ele><time>2026-05-02T09:41:22.25Z</time></trkpt><trkpt lat="44.2669727" lon="8.1099091"><ele>634.0</ele><time>2026-05-02T09:41:23.252Z</time></trkpt><trkpt lat="44.2670046" lon="8.109687"><ele>636.5</ele><time>2026-05-02T09:41:24.245Z</time></trkpt><trkpt lat="44.267036" lon="8.1094995"><ele>639.0</ele><time>2026-05-02T09:41:25.252Z</time></trkpt><trkpt lat="44.2670893" lon="8.1093353"><ele>641.5</ele><time>2026-05-02T09:41:26.244Z</time></trkpt><trkpt lat="44.2671545" lon="8.1091843"><ele>644.0</ele><time>2026-05-02T09:41:27.245Z</time></trkpt><trkpt lat="44.2672264" lon="8.1090184"><ele>646.5</ele><time>2026-05-02T09:41:28.236Z</time></trkpt><trkpt lat="44.2673131" lon="8.1088702"><ele>649.0</ele><time>2026-05-02T09:41:29.251Z</time></trkpt><trkpt lat="44.267382" lon="8.1087008"><ele>651.5</ele><time>2026-05-02T09:41:30.238Z</time></trkpt><trkpt lat="44.2674059" lon="8.1085296"><ele>654.0</ele><time>2026-05-02T09:41:31.237Z</time></trkpt><trkpt lat="44.2674122" lon="8.1083628"><ele>657.4000000000001</ele><time>2026-05-02T09:41:32.232Z</time></trkpt><trkpt lat="44.2674033" lon="8.1081985"><ele>660.8</ele><time>2026-05-02T09:41:33.234Z</time></trkpt><trkpt lat="44.267393" lon="8.10804"><ele>664.2</ele><time>2026-05-02T09:41:34.235Z</time></trkpt><trkpt lat="44.2673845" lon="8.1078886"><ele>667.5999999999999</ele><time>2026-05-02T09:41:35.24Z</time></trkpt><trkpt lat="44.2673694" lon="8.107741"><ele>671.0</ele><time>2026-05-02T09:41:36.231Z</time></trkpt><trkpt lat="44.2673432" lon="8.1076036"><ele>671.0</ele><time>2026-05-02T09:41:37.234Z</time></trkpt><trkpt lat="44.267307" lon="8.1074701"><ele>671.0</ele><time>2026-05-02T09:41:38.226Z</time></trkpt><trkpt lat="44.2672594" lon="8.1073463"><ele>671.0</ele><time>2026-05-02T09:41:39.25Z</time></trkpt><trkpt lat="44.2672032" lon="8.1072309"><ele>671.0</ele><time>2026-05-02T09:41:40.227Z</time></trkpt><trkpt lat="44.2671345" lon="8.1071236"><ele>671.0</ele><time>2026-05-02T09:41:41.234Z</time></trkpt><trkpt lat="44.2670642" lon="8.1070167"><ele>669.5999999999999</ele><time>2026-05-02T09:41:42.234Z</time></trkpt><trkpt lat="44.2669977" lon="8.1069206"><ele>668.2</ele><time>2026-05-02T09:41:43.241Z</time></trkpt><trkpt lat="44.2669373" lon="8.1068157"><ele>666.8</ele><time>2026-05-02T09:41:44.234Z</time></trkpt><trkpt lat="44.2668773" lon="8.1067108"><ele>665.4000000000001</ele><time>2026-05-02T09:41:45.239Z</time></trkpt><trkpt lat="44.2668175" lon="8.1066173"><ele>664.0</ele><time>2026-05-02T09:41:46.233Z</time></trkpt><trkpt lat="44.2667712" lon="8.1065175"><ele>664.0</ele><time>2026-05-02T09:41:47.248Z</time></trkpt><trkpt lat="44.2667404" lon="8.1064188"><ele>664.0</ele><time>2026-05-02T09:41:48.235Z</time></trkpt><trkpt lat="44.2667195" lon="8.1063139"><ele>664.0</ele><time>2026-05-02T09:41:49.246Z</time></trkpt><trkpt lat="44.2667255" lon="8.1061981"><ele>664.0</ele><time>2026-05-02T09:41:50.244Z</time></trkpt><trkpt lat="44.2667314" lon="8.1060611"><ele>664.0</ele><time>2026-05-02T09:41:51.247Z</time></trkpt><trkpt lat="44.2667223" lon="8.1059355"><ele>664.0</ele><time>2026-05-02T09:41:52.241Z</time></trkpt><trkpt lat="44.2666998" lon="8.1058024"><ele>664.2</ele><time>2026-05-02T09:41:53.247Z</time></trkpt><trkpt lat="44.2666771" lon="8.1056812"><ele>664.4000000000001</ele><time>2026-05-02T09:41:54.239Z</time></trkpt><trkpt lat="44.2666637" lon="8.1055607"><ele>664.6</ele><time>2026-05-02T09:41:55.248Z</time></trkpt><trkpt lat="44.2666646" lon="8.1054385"><ele>664.8</ele><time>2026-05-02T09:41:56.243Z</time></trkpt><trkpt lat="44.2666834" lon="8.1053089"><ele>665.0</ele><time>2026-05-02T09:41:57.25Z</time></trkpt><trkpt lat="44.2667185" lon="8.1051828"><ele>665.0</ele><time>2026-05-02T09:41:58.248Z</time></trkpt><trkpt lat="44.2667772" lon="8.1050701"><ele>665.0</ele><time>2026-05-02T09:41:59.253Z</time></trkpt><trkpt lat="44.26684" lon="8.1049527"><ele>665.0</ele><time>2026-05-02T09:42:00.244Z</time></trkpt><trkpt lat="44.2668942" lon="8.1048267"><ele>665.0</ele><time>2026-05-02T09:42:01.245Z</time></trkpt><trkpt lat="44.2669381" lon="8.1046823"><ele>665.0</ele><time>2026-05-02T09:42:02.235Z</time></trkpt><trkpt lat="44.2669838" lon="8.1045315"><ele>670.5</ele><time>2026-05-02T09:42:03.241Z</time></trkpt><trkpt lat="44.2670273" lon="8.1043769"><ele>676.0</ele><time>2026-05-02T09:42:04.24Z</time></trkpt><trkpt lat="44.2670809" lon="8.104216"><ele>681.5</ele><time>2026-05-02T09:42:05.241Z</time></trkpt><trkpt lat="44.2671385" lon="8.1040565"><ele>687.0</ele><time>2026-05-02T09:42:06.233Z</time></trkpt><trkpt lat="44.2671936" lon="8.1039061"><ele>687.5</ele><time>2026-05-02T09:42:07.241Z</time></trkpt><trkpt lat="44.2672571" lon="8.1037654"><ele>688.0</ele><time>2026-05-02T09:42:08.232Z</time></trkpt><trkpt lat="44.2673257" lon="8.103628"><ele>688.5</ele><time>2026-05-02T09:42:09.245Z</time></trkpt><trkpt lat="44.2673992" lon="8.1034851"><ele>689.0</ele><time>2026-05-02T09:42:10.236Z</time></trkpt><trkpt lat="44.2674789" lon="8.1033529"><ele>691.25</ele><time>2026-05-02T09:42:11.24Z</time></trkpt><trkpt lat="44.2675584" lon="8.1032178"><ele>693.5</ele><time>2026-05-02T09:42:12.234Z</time></trkpt><trkpt lat="44.2676435" lon="8.1030876"><ele>695.75</ele><time>2026-05-02T09:42:13.246Z</time></trkpt><trkpt lat="44.267719" lon="8.1029502"><ele>698.0</ele><time>2026-05-02T09:42:14.234Z</time></trkpt><trkpt lat="44.2677932" lon="8.102822"><ele>698.0</ele><time>2026-05-02T09:42:15.245Z</time></trkpt><trkpt lat="44.2678619" lon="8.1026862"><ele>698.0</ele><time>2026-05-02T09:42:16.23Z</time></trkpt><trkpt lat="44.2679203" lon="8.1025431"><ele>698.0</ele><time>2026-05-02T09:42:17.235Z</time></trkpt><trkpt lat="44.2679735" lon="8.1023906"><ele>698.0</ele><time>2026-05-02T09:42:18.233Z</time></trkpt><trkpt lat="44.2680283" lon="8.1022414"><ele>700.0</ele><time>2026-05-02T09:42:19.245Z</time></trkpt><trkpt lat="44.2680847" lon="8.1020966"><ele>702.0</ele><time>2026-05-02T09:42:20.232Z</time></trkpt><trkpt lat="44.2681408" lon="8.1019575"><ele>704.0</ele><time>2026-05-02T09:42:21.238Z</time></trkpt><trkpt lat="44.2681947" lon="8.1018049"><ele>706.0</ele><time>2026-05-02T09:42:22.236Z</time></trkpt><trkpt lat="44.2682492" lon="8.1016489"><ele>705.0</ele><time>2026-05-02T09:42:23.24Z</time></trkpt><trkpt lat="44.2682993" lon="8.1014924"><ele>704.0</ele><time>2026-05-02T09:42:24.234Z</time></trkpt><trkpt lat="44.2683484" lon="8.1013355"><ele>703.0</ele><time>2026-05-02T09:42:25.238Z</time></trkpt><trkpt lat="44.2683871" lon="8.1011775"><ele>702.0</ele><time>2026-05-02T09:42:26.229Z</time></trkpt><trkpt lat="44.2684124" lon="8.1010265"><ele>702.0</ele><time>2026-05-02T09:42:27.242Z</time></trkpt><trkpt lat="44.2684228" lon="8.1008824"><ele>702.0</ele><time>2026-05-02T09:42:28.236Z</time></trkpt><trkpt lat="44.2684317" lon="8.1007495"><ele>702.0</ele><time>2026-05-02T09:42:29.249Z</time></trkpt><trkpt lat="44.2684491" lon="8.1006143"><ele>702.0</ele><time>2026-05-02T09:42:30.233Z</time></trkpt><trkpt lat="44.2684751" lon="8.1004788"><ele>702.0</ele><time>2026-05-02T09:42:31.241Z</time></trkpt><trkpt lat="44.2685079" lon="8.1003397"><ele>702.25</ele><time>2026-05-02T09:42:32.233Z</time></trkpt><trkpt lat="44.2685526" lon="8.1001911"><ele>702.5</ele><time>2026-05-02T09:42:33.237Z</time></trkpt><trkpt lat="44.268604" lon="8.1000418"><ele>702.75</ele><time>2026-05-02T09:42:34.23Z</time></trkpt><trkpt lat="44.2686585" lon="8.0998905"><ele>703.0</ele><time>2026-05-02T09:42:35.238Z</time></trkpt><trkpt lat="44.2687072" lon="8.0997564"><ele>702.5</ele><time>2026-05-02T09:42:36.233Z</time></trkpt><trkpt lat="44.2687514" lon="8.0996276"><ele>702.0</ele><time>2026-05-02T09:42:37.237Z</time></trkpt><trkpt lat="44.2687897" lon="8.099518"><ele>701.5</ele><time>2026-05-02T09:42:38.232Z</time></trkpt><trkpt lat="44.2688295" lon="8.0994236"><ele>701.0</ele><time>2026-05-02T09:42:39.239Z</time></trkpt><trkpt lat="44.2688977" lon="8.0993552"><ele>700.5</ele><time>2026-05-02T09:42:40.239Z</time></trkpt><trkpt lat="44.2689803" lon="8.099306"><ele>700.0</ele><time>2026-05-02T09:42:41.233Z</time></trkpt><trkpt lat="44.2690708" lon="8.0992646"><ele>700.0</ele><time>2026-05-02T09:42:42.232Z</time></trkpt><trkpt lat="44.2691657" lon="8.0992321"><ele>700.0</ele><time>2026-05-02T09:42:43.228Z</time></trkpt><trkpt lat="44.2692563" lon="8.0992192"><ele>700.0</ele><time>2026-05-02T09:42:44.238Z</time></trkpt><trkpt lat="44.2693457" lon="8.099225"><ele>700.0</ele><time>2026-05-02T09:42:45.23Z</time></trkpt><trkpt lat="44.269418" lon="8.0992137"><ele>700.0</ele><time>2026-05-02T09:42:46.236Z</time></trkpt><trkpt lat="44.2694849" lon="8.0991858"><ele>700.0</ele><time>2026-05-02T09:42:47.229Z</time></trkpt><trkpt lat="44.2695478" lon="8.0991541"><ele>700.0</ele><time>2026-05-02T09:42:48.234Z</time></trkpt><trkpt lat="44.2696088" lon="8.0991167"><ele>700.0</ele><time>2026-05-02T09:42:49.233Z</time></trkpt><trkpt lat="44.2696765" lon="8.0991027"><ele>700.0</ele><time>2026-05-02T09:42:50.239Z</time></trkpt><trkpt lat="44.2697552" lon="8.0991066"><ele>700.0</ele><time>2026-05-02T09:42:51.238Z</time></trkpt><trkpt lat="44.2698429" lon="8.0990954"><ele>700.0</ele><time>2026-05-02T09:42:52.233Z</time></trkpt><trkpt lat="44.2699358" lon="8.0990764"><ele>700.0</ele><time>2026-05-02T09:42:53.241Z</time></trkpt><trkpt lat="44.2700301" lon="8.09903"><ele>701.1666666666667</ele><time>2026-05-02T09:42:54.235Z</time></trkpt><trkpt lat="44.2701182" lon="8.0989699"><ele>702.3333333333334</ele><time>2026-05-02T09:42:55.24Z</time></trkpt><trkpt lat="44.2702021" lon="8.0989025"><ele>703.5</ele><time>2026-05-02T09:42:56.233Z</time></trkpt><trkpt lat="44.2702705" lon="8.0988352"><ele>704.6666666666666</ele><time>2026-05-02T09:42:57.234Z</time></trkpt><trkpt lat="44.2703226" lon="8.0987575"><ele>705.8333333333333</ele><time>2026-05-02T09:42:58.231Z</time></trkpt><trkpt lat="44.2703733" lon="8.0986979"><ele>707.0</ele><time>2026-05-02T09:42:59.242Z</time></trkpt><trkpt lat="44.2704278" lon="8.0985572"><ele>707.0</ele><time>2026-05-02T09:43:01.238Z</time></trkpt><trkpt lat="44.2704271" lon="8.0984314"><ele>707.0</ele><time>2026-05-02T09:43:03.231Z</time></trkpt><trkpt lat="44.2703958" lon="8.0983405"><ele>707.0</ele><time>2026-05-02T09:43:04.227Z</time></trkpt><trkpt lat="44.2703603" lon="8.0982537"><ele>707.0</ele><time>2026-05-02T09:43:05.237Z</time></trkpt><trkpt lat="44.2703033" lon="8.0981889"><ele>707.0</ele><time>2026-05-02T09:43:06.23Z</time></trkpt><trkpt lat="44.2702222" lon="8.0981363"><ele>707.0</ele><time>2026-05-02T09:43:07.23Z</time></trkpt><trkpt lat="44.2701319" lon="8.0981162"><ele>712.2</ele><time>2026-05-02T09:43:08.227Z</time></trkpt><trkpt lat="44.2700398" lon="8.0981057"><ele>717.4000000000001</ele><time>2026-05-02T09:43:09.23Z</time></trkpt><trkpt lat="44.2699633" lon="8.0980938"><ele>722.5999999999999</ele><time>2026-05-02T09:43:10.232Z</time></trkpt><trkpt lat="44.2699019" lon="8.0980146"><ele>727.8</ele><time>2026-05-02T09:43:12.237Z</time></trkpt><trkpt lat="44.2699946" lon="8.0978914"><ele>733.0</ele><time>2026-05-02T09:43:14.234Z</time></trkpt><trkpt lat="44.2700607" lon="8.0978296"><ele>733.0</ele><time>2026-05-02T09:43:15.229Z</time></trkpt><trkpt lat="44.2701261" lon="8.0977724"><ele>733.0</ele><time>2026-05-02T09:43:16.235Z</time></trkpt><trkpt lat="44.27019" lon="8.0977455"><ele>733.0</ele><time>2026-05-02T09:43:17.234Z</time></trkpt><trkpt lat="44.2703064" lon="8.0977485"><ele>733.0</ele><time>2026-05-02T09:43:19.234Z</time></trkpt><trkpt lat="44.2703734" lon="8.0977418"><ele>733.0</ele><time>2026-05-02T09:43:20.238Z</time></trkpt><trkpt lat="44.2704396" lon="8.0977132"><ele>733.0</ele><time>2026-05-02T09:43:21.24Z</time></trkpt><trkpt lat="44.2705089" lon="8.0976479"><ele>733.0</ele><time>2026-05-02T09:43:22.238Z</time></trkpt><trkpt lat="44.2705762" lon="8.0975609"><ele>733.0</ele><time>2026-05-02T09:43:23.239Z</time></trkpt><trkpt lat="44.2706344" lon="8.0974652"><ele>733.0</ele><time>2026-05-02T09:43:24.24Z</time></trkpt><trkpt lat="44.2706904" lon="8.0973679"><ele>733.0</ele><time>2026-05-02T09:43:25.245Z</time></trkpt><trkpt lat="44.270746" lon="8.097275"><ele>733.0</ele><time>2026-05-02T09:43:26.237Z</time></trkpt><trkpt lat="44.270798" lon="8.0971944"><ele>733.0</ele><time>2026-05-02T09:43:27.243Z</time></trkpt><trkpt lat="44.2708483" lon="8.0971188"><ele>733.0</ele><time>2026-05-02T09:43:28.235Z</time></trkpt><trkpt lat="44.2708944" lon="8.0970426"><ele>733.0</ele><time>2026-05-02T09:43:29.248Z</time></trkpt><trkpt lat="44.2709581" lon="8.0969291"><ele>733.0</ele><time>2026-05-02T09:43:31.266Z</time></trkpt><trkpt lat="44.2710171" lon="8.0968286"><ele>733.0</ele><time>2026-05-02T09:43:33.243Z</time></trkpt><trkpt lat="44.2710747" lon="8.0967659"><ele>733.0</ele><time>2026-05-02T09:43:36.237Z</time></trkpt><trkpt lat="44.2711083" lon="8.0966874"><ele>733.0</ele><time>2026-05-02T09:43:38.264Z</time></trkpt><trkpt lat="44.2711084" lon="8.0965768"><ele>733.0</ele><time>2026-05-02T09:43:40.262Z</time></trkpt><trkpt lat="44.2711183" lon="8.0964552"><ele>733.0</ele><time>2026-05-02T09:43:42.267Z</time></trkpt><trkpt lat="44.2712033" lon="8.0964403"><ele>733.0</ele><time>2026-05-02T09:43:46.244Z</time></trkpt><trkpt lat="44.2712895" lon="8.0965502"><ele>733.0</ele><time>2026-05-02T09:43:48.265Z</time></trkpt><trkpt lat="44.2713855" lon="8.0966729"><ele>733.0</ele><time>2026-05-02T09:43:50.244Z</time></trkpt><trkpt lat="44.2714546" lon="8.0967372"><ele>732.2</ele><time>2026-05-02T09:43:51.237Z</time></trkpt><trkpt lat="44.2715259" lon="8.0968077"><ele>731.4</ele><time>2026-05-02T09:43:52.239Z</time></trkpt><trkpt lat="44.2715954" lon="8.0968817"><ele>730.6</ele><time>2026-05-02T09:43:53.244Z</time></trkpt><trkpt lat="44.2716709" lon="8.0969499"><ele>729.8000000000001</ele><time>2026-05-02T09:43:54.237Z</time></trkpt><trkpt lat="44.2717505" lon="8.0970159"><ele>729.0</ele><time>2026-05-02T09:43:55.237Z</time></trkpt><trkpt lat="44.271838" lon="8.0970668"><ele>729.0</ele><time>2026-05-02T09:43:56.238Z</time></trkpt><trkpt lat="44.2719188" lon="8.0971122"><ele>729.0</ele><time>2026-05-02T09:43:57.242Z</time></trkpt><trkpt lat="44.2719943" lon="8.0971522"><ele>729.0</ele><time>2026-05-02T09:43:58.238Z</time></trkpt><trkpt lat="44.2720705" lon="8.097195"><ele>729.0</ele><time>2026-05-02T09:43:59.239Z</time></trkpt><trkpt lat="44.2721507" lon="8.0972323"><ele>729.0</ele><time>2026-05-02T09:44:00.236Z</time></trkpt><trkpt lat="44.2722328" lon="8.0972634"><ele>729.0</ele><time>2026-05-02T09:44:01.238Z</time></trkpt><trkpt lat="44.2723081" lon="8.0972778"><ele>731.8333333333334</ele><time>2026-05-02T09:44:02.254Z</time></trkpt><trkpt lat="44.2723807" lon="8.097272"><ele>734.6666666666666</ele><time>2026-05-02T09:44:03.251Z</time></trkpt><trkpt lat="44.2724565" lon="8.0972618"><ele>737.5</ele><time>2026-05-02T09:44:04.257Z</time></trkpt><trkpt lat="44.2725204" lon="8.0972423"><ele>740.3333333333333</ele><time>2026-05-02T09:44:05.249Z</time></trkpt><trkpt lat="44.2726181" lon="8.0971681"><ele>743.1666666666666</ele><time>2026-05-02T09:44:07.23Z</time></trkpt><trkpt lat="44.2726664" lon="8.0971097"><ele>746.0</ele><time>2026-05-02T09:44:08.239Z</time></trkpt><trkpt lat="44.2727669" lon="8.0970303"><ele>746.0</ele><time>2026-05-02T09:44:10.236Z</time></trkpt><trkpt lat="44.2728828" lon="8.0969806"><ele>746.0</ele><time>2026-05-02T09:44:12.236Z</time></trkpt><trkpt lat="44.2729434" lon="8.0969518"><ele>746.0</ele><time>2026-05-02T09:44:13.246Z</time></trkpt><trkpt lat="44.2730526" lon="8.0968914"><ele>746.0</ele><time>2026-05-02T09:44:15.235Z</time></trkpt><trkpt lat="44.2731398" lon="8.0968292"><ele>746.0</ele><time>2026-05-02T09:44:17.231Z</time></trkpt><trkpt lat="44.273226" lon="8.0967498"><ele>748.1999999999999</ele><time>2026-05-02T09:44:19.236Z</time></trkpt><trkpt lat="44.2732927" lon="8.0966889"><ele>750.4</ele><time>2026-05-02T09:44:21.233Z</time></trkpt><trkpt lat="44.2733884" lon="8.0966743"><ele>752.6</ele><time>2026-05-02T09:44:24.23Z</time></trkpt><trkpt lat="44.2734973" lon="8.0966748"><ele>754.8</ele><time>2026-05-02T09:44:26.233Z</time></trkpt><trkpt lat="44.2736112" lon="8.0966527"><ele>757.0</ele><time>2026-05-02T09:44:28.228Z</time></trkpt><trkpt lat="44.2737315" lon="8.096622"><ele>761.8</ele><time>2026-05-02T09:44:30.234Z</time></trkpt><trkpt lat="44.2738479" lon="8.0965752"><ele>766.6</ele><time>2026-05-02T09:44:32.23Z</time></trkpt><trkpt lat="44.2739539" lon="8.0965211"><ele>771.4</ele><time>2026-05-02T09:44:34.232Z</time></trkpt><trkpt lat="44.2740417" lon="8.096455"><ele>776.1999999999999</ele><time>2026-05-02T09:44:36.233Z</time></trkpt><trkpt lat="44.274127" lon="8.0964636"><ele>781.0</ele><time>2026-05-02T09:44:38.239Z</time></trkpt><trkpt lat="44.2742126" lon="8.096459"><ele>781.4</ele><time>2026-05-02T09:44:40.239Z</time></trkpt><trkpt lat="44.2742679" lon="8.0963994"><ele>781.8</ele><time>2026-05-02T09:44:42.241Z</time></trkpt><trkpt lat="44.2742481" lon="8.0963157"><ele>782.1999999999999</ele><time>2026-05-02T09:44:44.244Z</time></trkpt><trkpt lat="44.2741687" lon="8.0962165"><ele>782.5999999999999</ele><time>2026-05-02T09:44:46.235Z</time></trkpt><trkpt lat="44.2740796" lon="8.0961461"><ele>783.0</ele><time>2026-05-02T09:44:48.234Z</time></trkpt><trkpt lat="44.2739506" lon="8.0961396"><ele>782.7142857142857</ele><time>2026-05-02T09:44:50.235Z</time></trkpt><trkpt lat="44.2738768" lon="8.0961268"><ele>782.4285714285714</ele><time>2026-05-02T09:44:51.239Z</time></trkpt><trkpt lat="44.2738137" lon="8.0961124"><ele>782.1428571428571</ele><time>2026-05-02T09:44:52.243Z</time></trkpt><trkpt lat="44.273749" lon="8.0961077"><ele>781.8571428571429</ele><time>2026-05-02T09:44:53.238Z</time></trkpt><trkpt lat="44.2736771" lon="8.0961026"><ele>781.5714285714287</ele><time>2026-05-02T09:44:54.238Z</time></trkpt><trkpt lat="44.2736014" lon="8.0960933"><ele>781.2857142857143</ele><time>2026-05-02T09:44:55.24Z</time></trkpt><trkpt lat="44.2735154" lon="8.096084"><ele>781.0</ele><time>2026-05-02T09:44:56.238Z</time></trkpt><trkpt lat="44.2734311" lon="8.0960757"><ele>781.0</ele><time>2026-05-02T09:44:57.241Z</time></trkpt><trkpt lat="44.2733545" lon="8.0960592"><ele>781.0</ele><time>2026-05-02T09:44:58.243Z</time></trkpt><trkpt lat="44.2732821" lon="8.0960396"><ele>781.0</ele><time>2026-05-02T09:44:59.25Z</time></trkpt><trkpt lat="44.27321" lon="8.0960258"><ele>781.0</ele><time>2026-05-02T09:45:00.245Z</time></trkpt><trkpt lat="44.2731366" lon="8.0960135"><ele>781.0</ele><time>2026-05-02T09:45:01.246Z</time></trkpt><trkpt lat="44.2730644" lon="8.096009"><ele>781.0</ele><time>2026-05-02T09:45:02.246Z</time></trkpt><trkpt lat="44.272993" lon="8.0960013"><ele>781.0</ele><time>2026-05-02T09:45:03.249Z</time></trkpt><trkpt lat="44.2729186" lon="8.0959894"><ele>780.5714285714286</ele><time>2026-05-02T09:45:04.242Z</time></trkpt><trkpt lat="44.2728428" lon="8.0959771"><ele>780.1428571428571</ele><time>2026-05-02T09:45:05.242Z</time></trkpt><trkpt lat="44.272772" lon="8.0959604"><ele>779.7142857142858</ele><time>2026-05-02T09:45:06.241Z</time></trkpt><trkpt lat="44.2727056" lon="8.0959495"><ele>779.2857142857142</ele><time>2026-05-02T09:45:07.247Z</time></trkpt><trkpt lat="44.2726382" lon="8.0959353"><ele>778.8571428571428</ele><time>2026-05-02T09:45:08.247Z</time></trkpt><trkpt lat="44.2725735" lon="8.0959233"><ele>778.4285714285714</ele><time>2026-05-02T09:45:09.248Z</time></trkpt><trkpt lat="44.2725106" lon="8.095906"><ele>778.0</ele><time>2026-05-02T09:45:10.241Z</time></trkpt><trkpt lat="44.2724451" lon="8.095895"><ele>777.9999999999999</ele><time>2026-05-02T09:45:11.244Z</time></trkpt><trkpt lat="44.272338" lon="8.0958597"><ele>778.0</ele><time>2026-05-02T09:45:13.251Z</time></trkpt><trkpt lat="44.272274" lon="8.0958558"><ele>778.0</ele><time>2026-05-02T09:45:14.255Z</time></trkpt><trkpt lat="44.272206" lon="8.0958381"><ele>778.0</ele><time>2026-05-02T09:45:15.242Z</time></trkpt><trkpt lat="44.2721287" lon="8.0958372"><ele>777.9999999999999</ele><time>2026-05-02T09:45:16.254Z</time></trkpt><trkpt lat="44.2720575" lon="8.0958284"><ele>778.0</ele><time>2026-05-02T09:45:17.252Z</time></trkpt><trkpt lat="44.2719892" lon="8.0958242"><ele>778.2</ele><time>2026-05-02T09:45:18.249Z</time></trkpt><trkpt lat="44.2718763" lon="8.0957838"><ele>778.4</ele><time>2026-05-02T09:45:20.255Z</time></trkpt><trkpt lat="44.2717987" lon="8.0957327"><ele>778.6</ele><time>2026-05-02T09:45:22.253Z</time></trkpt><trkpt lat="44.2717817" lon="8.0956368"><ele>778.8000000000001</ele><time>2026-05-02T09:45:24.247Z</time></trkpt><trkpt lat="44.2718039" lon="8.0954863"><ele>779.0</ele><time>2026-05-02T09:45:26.25Z</time></trkpt><trkpt lat="44.2718233" lon="8.0953969"><ele>779.0</ele><time>2026-05-02T09:45:27.254Z</time></trkpt><trkpt lat="44.2718366" lon="8.0953095"><ele>779.0</ele><time>2026-05-02T09:45:28.255Z</time></trkpt><trkpt lat="44.2718541" lon="8.0951513"><ele>779.0</ele><time>2026-05-02T09:45:30.247Z</time></trkpt><trkpt lat="44.2718509" lon="8.0950163"><ele>779.0</ele><time>2026-05-02T09:45:32.249Z</time></trkpt><trkpt lat="44.2718358" lon="8.0948477"><ele>779.0</ele><time>2026-05-02T09:45:34.242Z</time></trkpt><trkpt lat="44.2718197" lon="8.0947539"><ele>780.5000000000001</ele><time>2026-05-02T09:45:35.256Z</time></trkpt><trkpt lat="44.2717996" lon="8.0946534"><ele>782.0</ele><time>2026-05-02T09:45:36.246Z</time></trkpt><trkpt lat="44.271783" lon="8.094554"><ele>783.5</ele><time>2026-05-02T09:45:37.247Z</time></trkpt><trkpt lat="44.2717607" lon="8.0944126"><ele>785.0</ele><time>2026-05-02T09:45:39.249Z</time></trkpt><trkpt lat="44.2717359" lon="8.0942844"><ele>786.5000000000001</ele><time>2026-05-02T09:45:41.242Z</time></trkpt><trkpt lat="44.2717356" lon="8.0941707"><ele>788.0</ele><time>2026-05-02T09:45:43.244Z</time></trkpt><trkpt lat="44.2717481" lon="8.0940253"><ele>788.8333333333334</ele><time>2026-05-02T09:45:45.266Z</time></trkpt><trkpt lat="44.2717689" lon="8.0939417"><ele>789.6666666666667</ele><time>2026-05-02T09:45:46.255Z</time></trkpt><trkpt lat="44.2717999" lon="8.0938492"><ele>790.5</ele><time>2026-05-02T09:45:47.258Z</time></trkpt><trkpt lat="44.271827" lon="8.0937695"><ele>791.3333333333333</ele><time>2026-05-02T09:45:48.248Z</time></trkpt><trkpt lat="44.271866" lon="8.0936454"><ele>792.1666666666666</ele><time>2026-05-02T09:45:50.244Z</time></trkpt><trkpt lat="44.2719338" lon="8.0935923"><ele>793.0</ele><time>2026-05-02T09:45:53.256Z</time></trkpt><trkpt lat="44.2719653" lon="8.0937169"><ele>793.0</ele><time>2026-05-02T09:45:56.255Z</time></trkpt><trkpt lat="44.2719417" lon="8.0938255"><ele>793.0</ele><time>2026-05-02T09:45:58.254Z</time></trkpt><trkpt lat="44.2719184" lon="8.0939643"><ele>793.0</ele><time>2026-05-02T09:46:00.249Z</time></trkpt><trkpt lat="44.2719686" lon="8.0941336"><ele>793.0</ele><time>2026-05-02T09:46:02.249Z</time></trkpt><trkpt lat="44.2720058" lon="8.0942122"><ele>793.0</ele><time>2026-05-02T09:46:03.253Z</time></trkpt><trkpt lat="44.272053" lon="8.0942914"><ele>792.1666666666666</ele><time>2026-05-02T09:46:04.247Z</time></trkpt><trkpt lat="44.272105" lon="8.0943601"><ele>791.3333333333333</ele><time>2026-05-02T09:46:05.249Z</time></trkpt><trkpt lat="44.2721599" lon="8.0944156"><ele>790.5</ele><time>2026-05-02T09:46:06.245Z</time></trkpt><trkpt lat="44.2722501" lon="8.0945212"><ele>789.6666666666667</ele><time>2026-05-02T09:46:08.251Z</time></trkpt><trkpt lat="44.2723016" lon="8.094573"><ele>788.8333333333334</ele><time>2026-05-02T09:46:09.25Z</time></trkpt><trkpt lat="44.2723765" lon="8.0946946"><ele>788.0</ele><time>2026-05-02T09:46:11.254Z</time></trkpt><trkpt lat="44.2724078" lon="8.0947814"><ele>791.8333333333334</ele><time>2026-05-02T09:46:12.257Z</time></trkpt><trkpt lat="44.272452" lon="8.0948906"><ele>795.6666666666667</ele><time>2026-05-02T09:46:14.255Z</time></trkpt><trkpt lat="44.2725062" lon="8.0949599"><ele>799.5</ele><time>2026-05-02T09:46:16.25Z</time></trkpt><trkpt lat="44.2725811" lon="8.09499"><ele>803.3333333333333</ele><time>2026-05-02T09:46:18.252Z</time></trkpt><trkpt lat="44.272699" lon="8.0949959"><ele>807.1666666666666</ele><time>2026-05-02T09:46:20.253Z</time></trkpt><trkpt lat="44.2727734" lon="8.0949801"><ele>811.0</ele><time>2026-05-02T09:46:21.255Z</time></trkpt><trkpt lat="44.2728547" lon="8.0949528"><ele>810.9999999999999</ele><time>2026-05-02T09:46:22.254Z</time></trkpt><trkpt lat="44.2729282" lon="8.094934"><ele>811.0</ele><time>2026-05-02T09:46:23.252Z</time></trkpt><trkpt lat="44.2730404" lon="8.0948957"><ele>811.0</ele><time>2026-05-02T09:46:25.249Z</time></trkpt><trkpt lat="44.2731195" lon="8.0948525"><ele>811.0</ele><time>2026-05-02T09:46:27.249Z</time></trkpt><trkpt lat="44.2731883" lon="8.0948135"><ele>810.9999999999999</ele><time>2026-05-02T09:46:54.256Z</time></trkpt><trkpt lat="44.2732446" lon="8.0947682"><ele>811.0</ele><time>2026-05-02T09:51:59.284Z</time></trkpt><trkpt lat="44.2733044" lon="8.0946951"><ele>814.3333333333333</ele><time>2026-05-02T09:52:03.278Z</time></trkpt><trkpt lat="44.2733621" lon="8.0946166"><ele>817.6666666666666</ele><time>2026-05-02T09:52:44.289Z</time></trkpt><trkpt lat="44.2734343" lon="8.0945839"><ele>821.0</ele><time>2026-05-02T10:00:02.278Z</time></trkpt><trkpt lat="44.2733465" lon="8.0945389"><ele>824.3333333333333</ele><time>2026-05-02T10:00:06.277Z</time></trkpt><trkpt lat="44.2732732" lon="8.0945491"><ele>827.6666666666666</ele><time>2026-05-02T10:00:08.282Z</time></trkpt><trkpt lat="44.2733306" lon="8.094466"><ele>831.0</ele><time>2026-05-02T10:00:42.299Z</time></trkpt><trkpt lat="44.2734085" lon="8.0944732"><ele>830.9999999999999</ele><time>2026-05-02T10:07:22.298Z</time></trkpt><trkpt lat="44.2734697" lon="8.0945119"><ele>831.0</ele><time>2026-05-02T10:07:49.29Z</time></trkpt><trkpt lat="44.2734129" lon="8.0945504"><ele>831.0</ele><time>2026-05-02T10:10:37.305Z</time></trkpt><trkpt lat="44.2733768" lon="8.0946475"><ele>831.0</ele><time>2026-05-02T10:11:00.296Z</time></trkpt><trkpt lat="44.2733302" lon="8.0947153"><ele>831.0</ele><time>2026-05-02T10:11:02.287Z</time></trkpt><trkpt lat="44.2732733" lon="8.0947535"><ele>830.9999999999999</ele><time>2026-05-02T10:11:04.282Z</time></trkpt><trkpt lat="44.2732204" lon="8.0948029"><ele>831.0</ele><time>2026-05-02T10:11:17.289Z</time></trkpt><trkpt lat="44.2731397" lon="8.0948596"><ele>829.3333333333334</ele><time>2026-05-02T10:11:19.287Z</time></trkpt><trkpt lat="44.2730328" lon="8.0949151"><ele>827.6666666666667</ele><time>2026-05-02T10:11:21.298Z</time></trkpt><trkpt lat="44.2729672" lon="8.0949445"><ele>826.0</ele><time>2026-05-02T10:11:22.295Z</time></trkpt><trkpt lat="44.2728935" lon="8.0949796"><ele>824.3333333333334</ele><time>2026-05-02T10:11:23.295Z</time></trkpt><trkpt lat="44.2728206" lon="8.095"><ele>822.6666666666667</ele><time>2026-05-02T10:11:24.293Z</time></trkpt><trkpt lat="44.2727473" lon="8.095001"><ele>821.0</ele><time>2026-05-02T10:11:25.292Z</time></trkpt><trkpt lat="44.272677" lon="8.0950126"><ele>821.0000000000001</ele><time>2026-05-02T10:11:26.291Z</time></trkpt><trkpt lat="44.2726029" lon="8.095022"><ele>821.0</ele><time>2026-05-02T10:11:27.298Z</time></trkpt><trkpt lat="44.272539" lon="8.0950182"><ele>821.0</ele><time>2026-05-02T10:11:28.289Z</time></trkpt><trkpt lat="44.2724466" lon="8.0949745"><ele>821.0</ele><time>2026-05-02T10:11:30.299Z</time></trkpt><trkpt lat="44.2723782" lon="8.0949115"><ele>821.0000000000001</ele><time>2026-05-02T10:11:32.299Z</time></trkpt><trkpt lat="44.272341" lon="8.0948002"><ele>821.0</ele><time>2026-05-02T10:11:34.295Z</time></trkpt><trkpt lat="44.2722984" lon="8.0946479"><ele>814.4</ele><time>2026-05-02T10:11:36.29Z</time></trkpt><trkpt lat="44.2722375" lon="8.094549"><ele>807.8</ele><time>2026-05-02T10:11:38.298Z</time></trkpt><trkpt lat="44.2721469" lon="8.0944479"><ele>801.1999999999999</ele><time>2026-05-02T10:11:40.293Z</time></trkpt><trkpt lat="44.2720842" lon="8.0944021"><ele>794.5999999999999</ele><time>2026-05-02T10:11:41.298Z</time></trkpt><trkpt lat="44.2720057" lon="8.094289"><ele>788.0</ele><time>2026-05-02T10:11:43.297Z</time></trkpt><trkpt lat="44.2719444" lon="8.0941362"><ele>789.0</ele><time>2026-05-02T10:11:45.296Z</time></trkpt><trkpt lat="44.2719235" lon="8.0939696"><ele>790.0</ele><time>2026-05-02T10:11:47.298Z</time></trkpt><trkpt lat="44.2719438" lon="8.0938041"><ele>791.0</ele><time>2026-05-02T10:11:49.3Z</time></trkpt><trkpt lat="44.2719548" lon="8.0936726"><ele>792.0</ele><time>2026-05-02T10:11:51.298Z</time></trkpt><trkpt lat="44.271918" lon="8.0936012"><ele>793.0</ele><time>2026-05-02T10:11:53.291Z</time></trkpt><trkpt lat="44.2718426" lon="8.0935906"><ele>792.9999999999999</ele><time>2026-05-02T10:11:55.291Z</time></trkpt><trkpt lat="44.2717991" lon="8.0936631"><ele>793.0</ele><time>2026-05-02T10:11:57.298Z</time></trkpt><trkpt lat="44.2717758" lon="8.0937736"><ele>793.0</ele><time>2026-05-02T10:11:59.289Z</time></trkpt><trkpt lat="44.2717622" lon="8.0938626"><ele>793.0</ele><time>2026-05-02T10:12:00.283Z</time></trkpt><trkpt lat="44.2717478" lon="8.0939534"><ele>792.9999999999999</ele><time>2026-05-02T10:12:01.292Z</time></trkpt><trkpt lat="44.2717234" lon="8.0940345"><ele>793.0</ele><time>2026-05-02T10:12:02.28Z</time></trkpt><trkpt lat="44.271706" lon="8.0941854"><ele>792.0</ele><time>2026-05-02T10:12:04.28Z</time></trkpt><trkpt lat="44.271715" lon="8.0943512"><ele>791.0</ele><time>2026-05-02T10:12:06.291Z</time></trkpt><trkpt lat="44.2717372" lon="8.0944707"><ele>790.0</ele><time>2026-05-02T10:12:08.295Z</time></trkpt><trkpt lat="44.271773" lon="8.0946042"><ele>789.0</ele><time>2026-05-02T10:12:10.292Z</time></trkpt><trkpt lat="44.2718113" lon="8.0947336"><ele>788.0</ele><time>2026-05-02T10:12:12.297Z</time></trkpt><trkpt lat="44.2718354" lon="8.0948671"><ele>786.2</ele><time>2026-05-02T10:12:14.294Z</time></trkpt><trkpt lat="44.2718451" lon="8.0950271"><ele>784.4</ele><time>2026-05-02T10:12:16.292Z</time></trkpt><trkpt lat="44.2718566" lon="8.0952076"><ele>782.6</ele><time>2026-05-02T10:12:18.292Z</time></trkpt><trkpt lat="44.2718654" lon="8.0953019"><ele>780.8000000000001</ele><time>2026-05-02T10:12:19.293Z</time></trkpt><trkpt lat="44.2718704" lon="8.0953922"><ele>779.0</ele><time>2026-05-02T10:12:20.297Z</time></trkpt><trkpt lat="44.2718636" lon="8.0955381"><ele>779.0000000000001</ele><time>2026-05-02T10:12:22.301Z</time></trkpt><trkpt lat="44.271881" lon="8.0956571"><ele>779.0</ele><time>2026-05-02T10:12:24.295Z</time></trkpt><trkpt lat="44.2719063" lon="8.0957475"><ele>779.0</ele><time>2026-05-02T10:12:26.301Z</time></trkpt><trkpt lat="44.2719764" lon="8.0958196"><ele>779.0</ele><time>2026-05-02T10:12:28.296Z</time></trkpt><trkpt lat="44.2720404" lon="8.0958333"><ele>779.0</ele><time>2026-05-02T10:12:29.291Z</time></trkpt><trkpt lat="44.2721076" lon="8.0958334"><ele>779.0000000000001</ele><time>2026-05-02T10:12:30.304Z</time></trkpt><trkpt lat="44.2721771" lon="8.0958368"><ele>779.0</ele><time>2026-05-02T10:12:31.287Z</time></trkpt><trkpt lat="44.2722467" lon="8.0958452"><ele>778.8333333333334</ele><time>2026-05-02T10:12:32.295Z</time></trkpt><trkpt lat="44.2723169" lon="8.0958566"><ele>778.6666666666667</ele><time>2026-05-02T10:12:33.286Z</time></trkpt><trkpt lat="44.2723805" lon="8.0958596"><ele>778.5</ele><time>2026-05-02T10:12:34.292Z</time></trkpt><trkpt lat="44.2724895" lon="8.0958761"><ele>778.3333333333333</ele><time>2026-05-02T10:12:36.297Z</time></trkpt><trkpt lat="44.2725766" lon="8.0959045"><ele>778.1666666666666</ele><time>2026-05-02T10:12:38.293Z</time></trkpt><trkpt lat="44.2726612" lon="8.0959396"><ele>778.0</ele><time>2026-05-02T10:12:40.284Z</time></trkpt><trkpt lat="44.2727725" lon="8.0959598"><ele>777.9999999999999</ele><time>2026-05-02T10:12:42.292Z</time></trkpt><trkpt lat="44.2728402" lon="8.0959742"><ele>778.0</ele><time>2026-05-02T10:12:43.287Z</time></trkpt><trkpt lat="44.2729021" lon="8.095996"><ele>778.0</ele><time>2026-05-02T10:12:44.293Z</time></trkpt><trkpt lat="44.272974" lon="8.0960035"><ele>778.0</ele><time>2026-05-02T10:12:45.283Z</time></trkpt><trkpt lat="44.2730452" lon="8.0960148"><ele>777.9999999999999</ele><time>2026-05-02T10:12:46.289Z</time></trkpt><trkpt lat="44.27311" lon="8.0960395"><ele>778.0</ele><time>2026-05-02T10:12:47.284Z</time></trkpt><trkpt lat="44.2732295" lon="8.0960491"><ele>778.5999999999999</ele><time>2026-05-02T10:12:49.286Z</time></trkpt><trkpt lat="44.2733348" lon="8.0960568"><ele>779.1999999999999</ele><time>2026-05-02T10:12:51.294Z</time></trkpt><trkpt lat="44.2734469" lon="8.096062"><ele>779.8</ele><time>2026-05-02T10:12:53.286Z</time></trkpt><trkpt lat="44.2735565" lon="8.096082"><ele>780.4</ele><time>2026-05-02T10:12:55.286Z</time></trkpt><trkpt lat="44.273654" lon="8.0961155"><ele>781.0</ele><time>2026-05-02T10:12:57.286Z</time></trkpt><trkpt lat="44.2737686" lon="8.0961291"><ele>780.9999999999999</ele><time>2026-05-02T10:12:59.289Z</time></trkpt><trkpt lat="44.273836" lon="8.0961413"><ele>781.0</ele><time>2026-05-02T10:13:00.285Z</time></trkpt><trkpt lat="44.2739125" lon="8.0961577"><ele>781.0</ele><time>2026-05-02T10:13:01.283Z</time></trkpt><trkpt lat="44.2739903" lon="8.0961523"><ele>781.0</ele><time>2026-05-02T10:13:02.273Z</time></trkpt><trkpt lat="44.2740535" lon="8.0961449"><ele>780.9999999999999</ele><time>2026-05-02T10:13:03.29Z</time></trkpt><trkpt lat="44.2741515" lon="8.0961494"><ele>781.0</ele><time>2026-05-02T10:13:05.282Z</time></trkpt><trkpt lat="44.2742215" lon="8.0962119"><ele>780.9999999999999</ele><time>2026-05-02T10:13:07.281Z</time></trkpt><trkpt lat="44.274275" lon="8.0963368"><ele>781.0</ele><time>2026-05-02T10:13:09.28Z</time></trkpt><trkpt lat="44.2742301" lon="8.0964331"><ele>781.0</ele><time>2026-05-02T10:13:11.282Z</time></trkpt><trkpt lat="44.2741477" lon="8.0964724"><ele>781.0</ele><time>2026-05-02T10:13:13.279Z</time></trkpt><trkpt lat="44.2740546" lon="8.0964668"><ele>780.9999999999999</ele><time>2026-05-02T10:13:15.279Z</time></trkpt><trkpt lat="44.2739876" lon="8.09647"><ele>781.0</ele><time>2026-05-02T10:13:16.277Z</time></trkpt><trkpt lat="44.2739125" lon="8.0964875"><ele>780.9999999999999</ele><time>2026-05-02T10:13:17.277Z</time></trkpt><trkpt lat="44.2737917" lon="8.0965328"><ele>781.0</ele><time>2026-05-02T10:13:19.282Z</time></trkpt><trkpt lat="44.2737223" lon="8.0965616"><ele>781.0</ele><time>2026-05-02T10:13:20.282Z</time></trkpt><trkpt lat="44.2736489" lon="8.0965846"><ele>781.0</ele><time>2026-05-02T10:13:21.286Z</time></trkpt><trkpt lat="44.2735892" lon="8.0966148"><ele>780.9999999999999</ele><time>2026-05-02T10:13:22.274Z</time></trkpt><trkpt lat="44.2734818" lon="8.0966532"><ele>781.0</ele><time>2026-05-02T10:13:24.281Z</time></trkpt><trkpt lat="44.2733731" lon="8.0966514"><ele>776.1999999999999</ele><time>2026-05-02T10:13:26.28Z</time></trkpt><trkpt lat="44.2732606" lon="8.096668"><ele>771.4</ele><time>2026-05-02T10:13:28.279Z</time></trkpt><trkpt lat="44.2731537" lon="8.096701"><ele>766.6</ele><time>2026-05-02T10:13:30.284Z</time></trkpt><trkpt lat="44.2730554" lon="8.0967419"><ele>761.8</ele><time>2026-05-02T10:13:32.277Z</time></trkpt><trkpt lat="44.2729653" lon="8.0967983"><ele>757.0</ele><time>2026-05-02T10:13:34.284Z</time></trkpt><trkpt lat="44.2728849" lon="8.0968543"><ele>754.8</ele><time>2026-05-02T10:13:36.286Z</time></trkpt><trkpt lat="44.2727765" lon="8.0969204"><ele>752.6</ele><time>2026-05-02T10:13:38.288Z</time></trkpt><trkpt lat="44.272667" lon="8.0969817"><ele>750.4</ele><time>2026-05-02T10:13:40.29Z</time></trkpt><trkpt lat="44.2725871" lon="8.0970661"><ele>748.1999999999999</ele><time>2026-05-02T10:13:42.284Z</time></trkpt><trkpt lat="44.2725043" lon="8.0971396"><ele>746.0</ele><time>2026-05-02T10:13:44.282Z</time></trkpt><trkpt lat="44.2723973" lon="8.0971808"><ele>746.0</ele><time>2026-05-02T10:13:46.287Z</time></trkpt><trkpt lat="44.2723333" lon="8.097188"><ele>746.0</ele><time>2026-05-02T10:13:47.29Z</time></trkpt><trkpt lat="44.2722578" lon="8.0971901"><ele>746.0</ele><time>2026-05-02T10:13:48.29Z</time></trkpt><trkpt lat="44.2721747" lon="8.0971971"><ele>746.0</ele><time>2026-05-02T10:13:49.289Z</time></trkpt><trkpt lat="44.2720977" lon="8.0971794"><ele>746.0</ele><time>2026-05-02T10:13:50.281Z</time></trkpt><trkpt lat="44.2720151" lon="8.0971449"><ele>746.0</ele><time>2026-05-02T10:13:51.288Z</time></trkpt><trkpt lat="44.271923" lon="8.0970828"><ele>742.5999999999999</ele><time>2026-05-02T10:13:52.285Z</time></trkpt><trkpt lat="44.2718291" lon="8.0970266"><ele>739.2</ele><time>2026-05-02T10:13:53.29Z</time></trkpt><trkpt lat="44.271736" lon="8.0969605"><ele>735.8</ele><time>2026-05-02T10:13:54.293Z</time></trkpt><trkpt lat="44.2716453" lon="8.0968873"><ele>732.4000000000001</ele><time>2026-05-02T10:13:55.288Z</time></trkpt><trkpt lat="44.2715628" lon="8.0968175"><ele>729.0</ele><time>2026-05-02T10:13:56.292Z</time></trkpt><trkpt lat="44.2714845" lon="8.0967392"><ele>729.6666666666666</ele><time>2026-05-02T10:13:57.29Z</time></trkpt><trkpt lat="44.2714104" lon="8.0966564"><ele>730.3333333333334</ele><time>2026-05-02T10:13:58.29Z</time></trkpt><trkpt lat="44.2713395" lon="8.0965745"><ele>731.0</ele><time>2026-05-02T10:13:59.288Z</time></trkpt><trkpt lat="44.2712757" lon="8.0965046"><ele>731.6666666666667</ele><time>2026-05-02T10:14:00.291Z</time></trkpt><trkpt lat="44.2712268" lon="8.096443"><ele>732.3333333333334</ele><time>2026-05-02T10:14:01.282Z</time></trkpt><trkpt lat="44.2711369" lon="8.0963687"><ele>733.0</ele><time>2026-05-02T10:14:03.28Z</time></trkpt><trkpt lat="44.2710704" lon="8.0963895"><ele>733.0</ele><time>2026-05-02T10:14:05.288Z</time></trkpt><trkpt lat="44.271031" lon="8.0965246"><ele>733.0</ele><time>2026-05-02T10:14:07.285Z</time></trkpt><trkpt lat="44.2710471" lon="8.0966179"><ele>733.0</ele><time>2026-05-02T10:14:08.283Z</time></trkpt><trkpt lat="44.2710332" lon="8.0967519"><ele>733.0</ele><time>2026-05-02T10:14:10.286Z</time></trkpt><trkpt lat="44.2709538" lon="8.0968883"><ele>733.0</ele><time>2026-05-02T10:14:12.289Z</time></trkpt><trkpt lat="44.2709017" lon="8.0969706"><ele>733.0</ele><time>2026-05-02T10:14:13.28Z</time></trkpt><trkpt lat="44.2708541" lon="8.0970753"><ele>733.0</ele><time>2026-05-02T10:14:14.291Z</time></trkpt><trkpt lat="44.2707846" lon="8.0971929"><ele>733.0</ele><time>2026-05-02T10:14:15.282Z</time></trkpt><trkpt lat="44.2706991" lon="8.0973149"><ele>733.0</ele><time>2026-05-02T10:14:16.288Z</time></trkpt><trkpt lat="44.2706168" lon="8.0974306"><ele>733.0</ele><time>2026-05-02T10:14:17.291Z</time></trkpt><trkpt lat="44.2705454" lon="8.09754"><ele>733.0</ele><time>2026-05-02T10:14:18.297Z</time></trkpt><trkpt lat="44.2704769" lon="8.097645"><ele>733.0</ele><time>2026-05-02T10:14:19.293Z</time></trkpt><trkpt lat="44.2704227" lon="8.0977169"><ele>733.0</ele><time>2026-05-02T10:14:20.294Z</time></trkpt><trkpt lat="44.2703443" lon="8.0977844"><ele>733.0</ele><time>2026-05-02T10:14:22.294Z</time></trkpt><trkpt lat="44.2702814" lon="8.0978188"><ele>733.0</ele><time>2026-05-02T10:15:12.287Z</time></trkpt><trkpt lat="44.2701739" lon="8.0978387"><ele>733.0</ele><time>2026-05-02T10:15:14.283Z</time></trkpt><trkpt lat="44.2700611" lon="8.0978735"><ele>733.0</ele><time>2026-05-02T10:15:16.281Z</time></trkpt><trkpt lat="44.2699598" lon="8.0979597"><ele>733.0</ele><time>2026-05-02T10:15:18.28Z</time></trkpt><trkpt lat="44.2699161" lon="8.0980243"><ele>733.0</ele><time>2026-05-02T10:15:19.273Z</time></trkpt><trkpt lat="44.2698799" lon="8.0981582"><ele>733.0</ele><time>2026-05-02T10:15:21.283Z</time></trkpt><trkpt lat="44.2699944" lon="8.0982167"><ele>733.0</ele><time>2026-05-02T10:15:23.285Z</time></trkpt><trkpt lat="44.2700975" lon="8.098234"><ele>727.8</ele><time>2026-05-02T10:15:24.28Z</time></trkpt><trkpt lat="44.2701979" lon="8.098272"><ele>722.5999999999999</ele><time>2026-05-02T10:15:25.281Z</time></trkpt><trkpt lat="44.2702783" lon="8.0983176"><ele>717.4000000000001</ele><time>2026-05-02T10:15:26.273Z</time></trkpt><trkpt lat="44.2703339" lon="8.0983699"><ele>712.2</ele><time>2026-05-02T10:15:27.284Z</time></trkpt><trkpt lat="44.270384" lon="8.0985405"><ele>707.0</ele><time>2026-05-02T10:15:29.279Z</time></trkpt><trkpt lat="44.2704017" lon="8.0986434"><ele>707.0</ele><time>2026-05-02T10:15:30.285Z</time></trkpt><trkpt lat="44.2703765" lon="8.0988017"><ele>707.0</ele><time>2026-05-02T10:15:32.281Z</time></trkpt><trkpt lat="44.2703124" lon="8.0988919"><ele>707.0</ele><time>2026-05-02T10:15:33.278Z</time></trkpt><trkpt lat="44.2702346" lon="8.0990118"><ele>707.0</ele><time>2026-05-02T10:15:34.273Z</time></trkpt><trkpt lat="44.2701373" lon="8.0991129"><ele>707.0</ele><time>2026-05-02T10:15:35.278Z</time></trkpt><trkpt lat="44.2700561" lon="8.0992076"><ele>707.0</ele><time>2026-05-02T10:15:36.267Z</time></trkpt><trkpt lat="44.2699714" lon="8.0992635"><ele>707.0</ele><time>2026-05-02T10:15:37.275Z</time></trkpt><trkpt lat="44.2698857" lon="8.0992985"><ele>707.0</ele><time>2026-05-02T10:15:38.279Z</time></trkpt><trkpt lat="44.2698009" lon="8.0993142"><ele>707.0</ele><time>2026-05-02T10:15:39.277Z</time></trkpt><trkpt lat="44.2697229" lon="8.0993154"><ele>707.0</ele><time>2026-05-02T10:15:40.281Z</time></trkpt><trkpt lat="44.2696472" lon="8.0993153"><ele>707.0</ele><time>2026-05-02T10:15:41.285Z</time></trkpt><trkpt lat="44.2695614" lon="8.0993209"><ele>705.6</ele><time>2026-05-02T10:15:42.277Z</time></trkpt><trkpt lat="44.2694713" lon="8.0993426"><ele>704.2</ele><time>2026-05-02T10:15:43.282Z</time></trkpt><trkpt lat="44.2693836" lon="8.0993764"><ele>702.8</ele><time>2026-05-02T10:15:44.281Z</time></trkpt><trkpt lat="44.2692892" lon="8.0994164"><ele>701.4</ele><time>2026-05-02T10:15:45.281Z</time></trkpt><trkpt lat="44.2691856" lon="8.0994371"><ele>700.0</ele><time>2026-05-02T10:15:46.281Z</time></trkpt><trkpt lat="44.2690681" lon="8.0994518"><ele>701.8</ele><time>2026-05-02T10:15:47.278Z</time></trkpt><trkpt lat="44.2689415" lon="8.0994784"><ele>703.6</ele><time>2026-05-02T10:15:48.281Z</time></trkpt><trkpt lat="44.2688365" lon="8.0995118"><ele>705.4000000000001</ele><time>2026-05-02T10:15:49.286Z</time></trkpt><trkpt lat="44.2687448" lon="8.099557"><ele>707.2</ele><time>2026-05-02T10:15:50.274Z</time></trkpt><trkpt lat="44.2686644" lon="8.0996183"><ele>709.0</ele><time>2026-05-02T10:15:51.282Z</time></trkpt><trkpt lat="44.2686065" lon="8.0997205"><ele>709.0</ele><time>2026-05-02T10:15:52.278Z</time></trkpt><trkpt lat="44.2685611" lon="8.0998804"><ele>709.0</ele><time>2026-05-02T10:15:53.271Z</time></trkpt><trkpt lat="44.2685135" lon="8.1000637"><ele>709.0</ele><time>2026-05-02T10:15:54.277Z</time></trkpt><trkpt lat="44.2684558" lon="8.1002583"><ele>709.0</ele><time>2026-05-02T10:15:55.268Z</time></trkpt><trkpt lat="44.2684022" lon="8.1004615"><ele>707.5</ele><time>2026-05-02T10:15:56.271Z</time></trkpt><trkpt lat="44.2683624" lon="8.1006697"><ele>706.0</ele><time>2026-05-02T10:15:57.269Z</time></trkpt><trkpt lat="44.2683428" lon="8.1008619"><ele>704.5</ele><time>2026-05-02T10:15:58.276Z</time></trkpt><trkpt lat="44.2683351" lon="8.101059"><ele>703.0</ele><time>2026-05-02T10:15:59.283Z</time></trkpt><trkpt lat="44.2683237" lon="8.1012642"><ele>702.75</ele><time>2026-05-02T10:16:00.286Z</time></trkpt><trkpt lat="44.26831" lon="8.101444"><ele>702.5</ele><time>2026-05-02T10:16:01.272Z</time></trkpt><trkpt lat="44.268282" lon="8.1016101"><ele>702.25</ele><time>2026-05-02T10:16:02.275Z</time></trkpt><trkpt lat="44.2682511" lon="8.1017771"><ele>702.0</ele><time>2026-05-02T10:16:03.272Z</time></trkpt><trkpt lat="44.2681924" lon="8.1019216"><ele>703.0</ele><time>2026-05-02T10:16:04.272Z</time></trkpt><trkpt lat="44.2681333" lon="8.1020631"><ele>704.0</ele><time>2026-05-02T10:16:05.276Z</time></trkpt><trkpt lat="44.2680757" lon="8.1021917"><ele>705.0</ele><time>2026-05-02T10:16:06.272Z</time></trkpt><trkpt lat="44.2680096" lon="8.1023252"><ele>706.0</ele><time>2026-05-02T10:16:07.276Z</time></trkpt><trkpt lat="44.2679429" lon="8.1024656"><ele>704.0</ele><time>2026-05-02T10:16:08.275Z</time></trkpt><trkpt lat="44.2678914" lon="8.1026074"><ele>702.0</ele><time>2026-05-02T10:16:09.28Z</time></trkpt><trkpt lat="44.2678386" lon="8.1027548"><ele>700.0</ele><time>2026-05-02T10:16:10.268Z</time></trkpt><trkpt lat="44.2677863" lon="8.1029014"><ele>698.0</ele><time>2026-05-02T10:16:11.271Z</time></trkpt><trkpt lat="44.2677353" lon="8.1030493"><ele>698.0</ele><time>2026-05-02T10:16:12.268Z</time></trkpt><trkpt lat="44.2676809" lon="8.1031923"><ele>698.0</ele><time>2026-05-02T10:16:13.271Z</time></trkpt><trkpt lat="44.2676123" lon="8.1033288"><ele>698.0</ele><time>2026-05-02T10:16:14.269Z</time></trkpt><trkpt lat="44.2675396" lon="8.1034594"><ele>698.0</ele><time>2026-05-02T10:16:15.271Z</time></trkpt><trkpt lat="44.2674635" lon="8.1035931"><ele>696.2</ele><time>2026-05-02T10:16:16.263Z</time></trkpt><trkpt lat="44.2673886" lon="8.103716"><ele>694.4</ele><time>2026-05-02T10:16:17.269Z</time></trkpt><trkpt lat="44.2673147" lon="8.1038374"><ele>692.6</ele><time>2026-05-02T10:16:18.266Z</time></trkpt><trkpt lat="44.2672473" lon="8.1039559"><ele>690.8000000000001</ele><time>2026-05-02T10:16:19.271Z</time></trkpt><trkpt lat="44.2671763" lon="8.1040603"><ele>689.0</ele><time>2026-05-02T10:16:20.274Z</time></trkpt><trkpt lat="44.267117" lon="8.1041754"><ele>688.6</ele><time>2026-05-02T10:16:21.275Z</time></trkpt><trkpt lat="44.2670662" lon="8.1042962"><ele>688.2</ele><time>2026-05-02T10:16:22.28Z</time></trkpt><trkpt lat="44.2670179" lon="8.1044255"><ele>687.8000000000001</ele><time>2026-05-02T10:16:23.28Z</time></trkpt><trkpt lat="44.2669756" lon="8.1045589"><ele>687.4000000000001</ele><time>2026-05-02T10:16:24.276Z</time></trkpt><trkpt lat="44.2669327" lon="8.1046899"><ele>687.0</ele><time>2026-05-02T10:16:25.28Z</time></trkpt><trkpt lat="44.2668901" lon="8.1048266"><ele>682.6</ele><time>2026-05-02T10:16:26.28Z</time></trkpt><trkpt lat="44.2668562" lon="8.1049619"><ele>678.2</ele><time>2026-05-02T10:16:27.283Z</time></trkpt><trkpt lat="44.2668197" lon="8.1050931"><ele>673.8</ele><time>2026-05-02T10:16:28.28Z</time></trkpt><trkpt lat="44.2667768" lon="8.1052202"><ele>669.4</ele><time>2026-05-02T10:16:29.273Z</time></trkpt><trkpt lat="44.2667284" lon="8.1053311"><ele>665.0</ele><time>2026-05-02T10:16:30.285Z</time></trkpt><trkpt lat="44.2666894" lon="8.1054464"><ele>665.0</ele><time>2026-05-02T10:16:31.274Z</time></trkpt><trkpt lat="44.2666584" lon="8.1055621"><ele>665.0</ele><time>2026-05-02T10:16:32.276Z</time></trkpt><trkpt lat="44.26665" lon="8.1056938"><ele>665.0</ele><time>2026-05-02T10:16:33.283Z</time></trkpt><trkpt lat="44.2666579" lon="8.1058297"><ele>665.0</ele><time>2026-05-02T10:16:34.285Z</time></trkpt><trkpt lat="44.2666964" lon="8.1059751"><ele>665.0</ele><time>2026-05-02T10:16:35.275Z</time></trkpt><trkpt lat="44.2667421" lon="8.1061215"><ele>664.8</ele><time>2026-05-02T10:16:36.279Z</time></trkpt><trkpt lat="44.266767" lon="8.1062705"><ele>664.6</ele><time>2026-05-02T10:16:37.28Z</time></trkpt><trkpt lat="44.2667732" lon="8.1064225"><ele>664.4000000000001</ele><time>2026-05-02T10:16:38.27Z</time></trkpt><trkpt lat="44.2667745" lon="8.106564"><ele>664.2</ele><time>2026-05-02T10:16:39.275Z</time></trkpt><trkpt lat="44.2667972" lon="8.1067062"><ele>664.0</ele><time>2026-05-02T10:16:40.28Z</time></trkpt><trkpt lat="44.2668369" lon="8.106849"><ele>662.0</ele><time>2026-05-02T10:16:41.276Z</time></trkpt><trkpt lat="44.2669083" lon="8.1070152"><ele>660.0</ele><time>2026-05-02T10:16:42.272Z</time></trkpt><trkpt lat="44.2670023" lon="8.107185"><ele>658.0</ele><time>2026-05-02T10:16:43.274Z</time></trkpt><trkpt lat="44.2671069" lon="8.1073407"><ele>656.0</ele><time>2026-05-02T10:16:44.27Z</time></trkpt><trkpt lat="44.2672069" lon="8.1074803"><ele>659.75</ele><time>2026-05-02T10:16:45.262Z</time></trkpt><trkpt lat="44.2672863" lon="8.1076198"><ele>663.5</ele><time>2026-05-02T10:16:46.27Z</time></trkpt><trkpt lat="44.2673331" lon="8.1077692"><ele>667.25</ele><time>2026-05-02T10:16:47.271Z</time></trkpt><trkpt lat="44.2673565" lon="8.1079247"><ele>671.0</ele><time>2026-05-02T10:16:48.266Z</time></trkpt><trkpt lat="44.2673825" lon="8.1080704"><ele>671.0</ele><time>2026-05-02T10:16:49.264Z</time></trkpt><trkpt lat="44.2673847" lon="8.1082193"><ele>671.0</ele><time>2026-05-02T10:16:50.269Z</time></trkpt><trkpt lat="44.267372" lon="8.10837"><ele>671.0</ele><time>2026-05-02T10:16:51.274Z</time></trkpt><trkpt lat="44.2673681" lon="8.1085418"><ele>671.0</ele><time>2026-05-02T10:16:52.268Z</time></trkpt><trkpt lat="44.2673605" lon="8.108718"><ele>666.75</ele><time>2026-05-02T10:16:53.269Z</time></trkpt><trkpt lat="44.2673484" lon="8.1088961"><ele>662.5</ele><time>2026-05-02T10:16:54.265Z</time></trkpt><trkpt lat="44.2673134" lon="8.1090743"><ele>658.25</ele><time>2026-05-02T10:16:55.274Z</time></trkpt><trkpt lat="44.2672576" lon="8.109246"><ele>654.0</ele><time>2026-05-02T10:16:56.272Z</time></trkpt><trkpt lat="44.2671735" lon="8.1094168"><ele>651.5</ele><time>2026-05-02T10:16:57.274Z</time></trkpt><trkpt lat="44.2670891" lon="8.1095874"><ele>649.0</ele><time>2026-05-02T10:16:58.279Z</time></trkpt><trkpt lat="44.2670245" lon="8.1097798"><ele>646.5</ele><time>2026-05-02T10:16:59.273Z</time></trkpt><trkpt lat="44.2670021" lon="8.1099802"><ele>644.0</ele><time>2026-05-02T10:17:00.283Z</time></trkpt><trkpt lat="44.2669927" lon="8.110184"><ele>641.5</ele><time>2026-05-02T10:17:01.284Z</time></trkpt><trkpt lat="44.2669845" lon="8.1103579"><ele>639.0</ele><time>2026-05-02T10:17:02.28Z</time></trkpt><trkpt lat="44.2669699" lon="8.1105168"><ele>636.5</ele><time>2026-05-02T10:17:03.281Z</time></trkpt><trkpt lat="44.2669743" lon="8.1106684"><ele>634.0</ele><time>2026-05-02T10:17:04.286Z</time></trkpt><trkpt lat="44.2669973" lon="8.1108118"><ele>632.75</ele><time>2026-05-02T10:17:05.291Z</time></trkpt><trkpt lat="44.2670388" lon="8.1109604"><ele>631.5</ele><time>2026-05-02T10:17:06.286Z</time></trkpt><trkpt lat="44.2670831" lon="8.1111221"><ele>630.25</ele><time>2026-05-02T10:17:07.285Z</time></trkpt><trkpt lat="44.2671234" lon="8.1112882"><ele>629.0</ele><time>2026-05-02T10:17:08.287Z</time></trkpt><trkpt lat="44.2671523" lon="8.1114383"><ele>628.3333333333333</ele><time>2026-05-02T10:17:09.291Z</time></trkpt><trkpt lat="44.2671717" lon="8.111581"><ele>627.6666666666666</ele><time>2026-05-02T10:17:10.291Z</time></trkpt><trkpt lat="44.2671907" lon="8.1117048"><ele>627.0</ele><time>2026-05-02T10:17:11.296Z</time></trkpt><trkpt lat="44.2672034" lon="8.11182"><ele>626.3333333333334</ele><time>2026-05-02T10:17:12.296Z</time></trkpt><trkpt lat="44.2672254" lon="8.1119255"><ele>625.6666666666667</ele><time>2026-05-02T10:17:13.288Z</time></trkpt><trkpt lat="44.2672554" lon="8.1120237"><ele>625.0</ele><time>2026-05-02T10:17:14.29Z</time></trkpt><trkpt lat="44.2673094" lon="8.1121038"><ele>626.1666666666667</ele><time>2026-05-02T10:17:15.288Z</time></trkpt><trkpt lat="44.2673718" lon="8.1121748"><ele>627.3333333333334</ele><time>2026-05-02T10:17:16.287Z</time></trkpt><trkpt lat="44.2674414" lon="8.1122379"><ele>628.5</ele><time>2026-05-02T10:17:17.29Z</time></trkpt><trkpt lat="44.2675105" lon="8.1123146"><ele>629.6666666666666</ele><time>2026-05-02T10:17:18.287Z</time></trkpt><trkpt lat="44.2675696" lon="8.1124106"><ele>630.8333333333333</ele><time>2026-05-02T10:17:19.282Z</time></trkpt><trkpt lat="44.2676174" lon="8.1125224"><ele>632.0</ele><time>2026-05-02T10:17:20.286Z</time></trkpt><trkpt lat="44.267651" lon="8.1126387"><ele>632.0</ele><time>2026-05-02T10:17:21.291Z</time></trkpt><trkpt lat="44.2676713" lon="8.1127442"><ele>632.0</ele><time>2026-05-02T10:17:22.284Z</time></trkpt><trkpt lat="44.2676884" lon="8.112829"><ele>632.0</ele><time>2026-05-02T10:17:23.29Z</time></trkpt><trkpt lat="44.2677135" lon="8.1129404"><ele>632.0</ele><time>2026-05-02T10:17:25.287Z</time></trkpt><trkpt lat="44.267755" lon="8.1130189"><ele>632.0</ele><time>2026-05-02T10:17:33.282Z</time></trkpt><trkpt lat="44.2678004" lon="8.1129123"><ele>632.0</ele><time>2026-05-02T10:17:35.292Z</time></trkpt><trkpt lat="44.2678177" lon="8.1127954"><ele>632.0</ele><time>2026-05-02T10:17:36.285Z</time></trkpt><trkpt lat="44.2678366" lon="8.1126413"><ele>632.0</ele><time>2026-05-02T10:17:37.287Z</time></trkpt><trkpt lat="44.2678603" lon="8.1124603"><ele>632.0</ele><time>2026-05-02T10:17:38.29Z</time></trkpt><trkpt lat="44.2678824" lon="8.112271"><ele>632.0</ele><time>2026-05-02T10:17:39.287Z</time></trkpt><trkpt lat="44.267893" lon="8.1120808"><ele>633.5</ele><time>2026-05-02T10:17:40.283Z</time></trkpt><trkpt lat="44.267871" lon="8.1118909"><ele>635.0</ele><time>2026-05-02T10:17:41.285Z</time></trkpt><trkpt lat="44.2678256" lon="8.1116995"><ele>636.5</ele><time>2026-05-02T10:17:42.292Z</time></trkpt><trkpt lat="44.2677623" lon="8.1115009"><ele>638.0</ele><time>2026-05-02T10:17:43.287Z</time></trkpt><trkpt lat="44.2676787" lon="8.1112894"><ele>639.0</ele><time>2026-05-02T10:17:44.283Z</time></trkpt><trkpt lat="44.2676197" lon="8.1111084"><ele>640.0</ele><time>2026-05-02T10:17:45.287Z</time></trkpt><trkpt lat="44.2675708" lon="8.1109504"><ele>641.0</ele><time>2026-05-02T10:17:46.286Z</time></trkpt><trkpt lat="44.2675327" lon="8.1108214"><ele>642.0</ele><time>2026-05-02T10:17:47.289Z</time></trkpt><trkpt lat="44.2674906" lon="8.1106992"><ele>643.0</ele><time>2026-05-02T10:17:48.287Z</time></trkpt><trkpt lat="44.2674678" lon="8.1105915"><ele>644.0</ele><time>2026-05-02T10:17:49.285Z</time></trkpt><trkpt lat="44.2674405" lon="8.1105052"><ele>645.0</ele><time>2026-05-02T10:17:50.284Z</time></trkpt><trkpt lat="44.2674517" lon="8.1103665"><ele>646.0</ele><time>2026-05-02T10:17:52.288Z</time></trkpt><trkpt lat="44.2675425" lon="8.1103617"><ele>647.0</ele><time>2026-05-02T10:17:54.289Z</time></trkpt><trkpt lat="44.2675959" lon="8.1104562"><ele>648.0</ele><time>2026-05-02T10:17:55.288Z</time></trkpt><trkpt lat="44.2676502" lon="8.1105856"><ele>648.0</ele><time>2026-05-02T10:17:56.278Z</time></trkpt><trkpt lat="44.2677126" lon="8.1107334"><ele>648.0</ele><time>2026-05-02T10:17:57.281Z</time></trkpt><trkpt lat="44.267782" lon="8.1109008"><ele>648.0</ele><time>2026-05-02T10:17:58.283Z</time></trkpt><trkpt lat="44.2678649" lon="8.1110816"><ele>648.0</ele><time>2026-05-02T10:17:59.293Z</time></trkpt><trkpt lat="44.2679527" lon="8.111278"><ele>646.0</ele><time>2026-05-02T10:18:00.294Z</time></trkpt><trkpt lat="44.2680566" lon="8.1114818"><ele>644.0</ele><time>2026-05-02T10:18:01.286Z</time></trkpt><trkpt lat="44.2681605" lon="8.1116437"><ele>642.0</ele><time>2026-05-02T10:18:02.287Z</time></trkpt><trkpt lat="44.2682493" lon="8.1117696"><ele>645.8</ele><time>2026-05-02T10:18:03.28Z</time></trkpt><trkpt lat="44.2683221" lon="8.1118827"><ele>649.6</ele><time>2026-05-02T10:18:04.284Z</time></trkpt><trkpt lat="44.2683655" lon="8.1120126"><ele>653.4</ele><time>2026-05-02T10:18:05.276Z</time></trkpt><trkpt lat="44.2683663" lon="8.1121437"><ele>657.1999999999999</ele><time>2026-05-02T10:18:06.27Z</time></trkpt><trkpt lat="44.2683515" lon="8.1123242"><ele>661.0</ele><time>2026-05-02T10:18:07.276Z</time></trkpt><trkpt lat="44.2683551" lon="8.1125092"><ele>661.0</ele><time>2026-05-02T10:18:08.27Z</time></trkpt><trkpt lat="44.268384" lon="8.1127109"><ele>661.0</ele><time>2026-05-02T10:18:09.27Z</time></trkpt><trkpt lat="44.2684408" lon="8.112919"><ele>661.0</ele><time>2026-05-02T10:18:10.285Z</time></trkpt><trkpt lat="44.2685288" lon="8.1131215"><ele>658.6666666666667</ele><time>2026-05-02T10:18:11.283Z</time></trkpt><trkpt lat="44.2686345" lon="8.1133154"><ele>656.3333333333334</ele><time>2026-05-02T10:18:12.287Z</time></trkpt><trkpt lat="44.2687426" lon="8.1134891"><ele>654.0</ele><time>2026-05-02T10:18:13.293Z</time></trkpt><trkpt lat="44.2688491" lon="8.1136919"><ele>659.3333333333334</ele><time>2026-05-02T10:18:14.29Z</time></trkpt><trkpt lat="44.2689569" lon="8.1138824"><ele>664.6666666666667</ele><time>2026-05-02T10:18:15.286Z</time></trkpt><trkpt lat="44.269054" lon="8.1140667"><ele>670.0</ele><time>2026-05-02T10:18:16.281Z</time></trkpt><trkpt lat="44.2691452" lon="8.1142553"><ele>670.0</ele><time>2026-05-02T10:18:17.285Z</time></trkpt><trkpt lat="44.2692265" lon="8.1144461"><ele>670.0</ele><time>2026-05-02T10:18:18.291Z</time></trkpt><trkpt lat="44.2693112" lon="8.1146117"><ele>670.0</ele><time>2026-05-02T10:18:19.29Z</time></trkpt><trkpt lat="44.2694139" lon="8.1147614"><ele>670.0</ele><time>2026-05-02T10:18:20.286Z</time></trkpt><trkpt lat="44.2695298" lon="8.1148867"><ele>670.0</ele><time>2026-05-02T10:18:21.288Z</time></trkpt><trkpt lat="44.2696554" lon="8.1149993"><ele>670.0</ele><time>2026-05-02T10:18:22.29Z</time></trkpt><trkpt lat="44.269764" lon="8.1151087"><ele>670.0</ele><time>2026-05-02T10:18:23.284Z</time></trkpt><trkpt lat="44.269843" lon="8.1151963"><ele>671.6666666666667</ele><time>2026-05-02T10:18:24.287Z</time></trkpt><trkpt lat="44.2698994" lon="8.1152435"><ele>673.3333333333334</ele><time>2026-05-02T10:18:25.289Z</time></trkpt><trkpt lat="44.2699878" lon="8.1151751"><ele>675.0</ele><time>2026-05-02T10:18:27.287Z</time></trkpt><trkpt lat="44.2699781" lon="8.1150813"><ele>676.6666666666666</ele><time>2026-05-02T10:18:28.29Z</time></trkpt><trkpt lat="44.2699503" lon="8.1149832"><ele>678.3333333333333</ele><time>2026-05-02T10:18:29.286Z</time></trkpt><trkpt lat="44.2698985" lon="8.1148681"><ele>680.0</ele><time>2026-05-02T10:18:30.294Z</time></trkpt><trkpt lat="44.2698301" lon="8.1147328"><ele>680.0</ele><time>2026-05-02T10:18:31.28Z</time></trkpt><trkpt lat="44.2697631" lon="8.1145753"><ele>680.0</ele><time>2026-05-02T10:18:32.279Z</time></trkpt><trkpt lat="44.2697074" lon="8.1144027"><ele>680.0</ele><time>2026-05-02T10:18:33.279Z</time></trkpt><trkpt lat="44.2696915" lon="8.1142106"><ele>680.0</ele><time>2026-05-02T10:18:34.28Z</time></trkpt><trkpt lat="44.2697195" lon="8.11399"><ele>687.3333333333333</ele><time>2026-05-02T10:18:35.284Z</time></trkpt><trkpt lat="44.2697788" lon="8.1137628"><ele>694.6666666666666</ele><time>2026-05-02T10:18:36.273Z</time></trkpt><trkpt lat="44.2698167" lon="8.1135369"><ele>702.0</ele><time>2026-05-02T10:18:37.272Z</time></trkpt><trkpt lat="44.269822" lon="8.113343"><ele>700.5</ele><time>2026-05-02T10:18:38.283Z</time></trkpt><trkpt lat="44.2697987" lon="8.1131817"><ele>699.0</ele><time>2026-05-02T10:18:39.276Z</time></trkpt><trkpt lat="44.269722" lon="8.1130992"><ele>697.5</ele><time>2026-05-02T10:18:40.266Z</time></trkpt><trkpt lat="44.2696061" lon="8.1130133"><ele>696.0</ele><time>2026-05-02T10:18:41.274Z</time></trkpt><trkpt lat="44.2694551" lon="8.1129346"><ele>696.0</ele><time>2026-05-02T10:18:42.271Z</time></trkpt><trkpt lat="44.2693111" lon="8.1128546"><ele>696.0</ele><time>2026-05-02T10:18:43.266Z</time></trkpt><trkpt lat="44.2691595" lon="8.1127388"><ele>696.0</ele><time>2026-05-02T10:18:44.274Z</time></trkpt><trkpt lat="44.2690342" lon="8.1126303"><ele>698.8</ele><time>2026-05-02T10:18:45.271Z</time></trkpt><trkpt lat="44.2689373" lon="8.11253"><ele>701.5999999999999</ele><time>2026-05-02T10:18:46.278Z</time></trkpt><trkpt lat="44.2688837" lon="8.1124371"><ele>704.4</ele><time>2026-05-02T10:18:47.281Z</time></trkpt><trkpt lat="44.2688827" lon="8.112288"><ele>707.2</ele><time>2026-05-02T10:18:48.283Z</time></trkpt><trkpt lat="44.268918" lon="8.1121179"><ele>710.0</ele><time>2026-05-02T10:18:49.284Z</time></trkpt><trkpt lat="44.2689794" lon="8.1119237"><ele>710.0</ele><time>2026-05-02T10:18:50.284Z</time></trkpt><trkpt lat="44.2690251" lon="8.1117286"><ele>710.0</ele><time>2026-05-02T10:18:51.281Z</time></trkpt><trkpt lat="44.2690512" lon="8.1115419"><ele>710.0</ele><time>2026-05-02T10:18:52.279Z</time></trkpt><trkpt lat="44.2690283" lon="8.1113723"><ele>710.0</ele><time>2026-05-02T10:18:53.283Z</time></trkpt><trkpt lat="44.2689801" lon="8.1112117"><ele>705.2</ele><time>2026-05-02T10:18:54.282Z</time></trkpt><trkpt lat="44.2689244" lon="8.1110653"><ele>700.4</ele><time>2026-05-02T10:18:55.28Z</time></trkpt><trkpt lat="44.2688984" lon="8.1109227"><ele>695.5999999999999</ele><time>2026-05-02T10:18:56.276Z</time></trkpt><trkpt lat="44.2688965" lon="8.1107608"><ele>690.8</ele><time>2026-05-02T10:18:57.277Z</time></trkpt><trkpt lat="44.2688956" lon="8.110617"><ele>686.0</ele><time>2026-05-02T10:18:58.28Z</time></trkpt><trkpt lat="44.2688994" lon="8.1105048"><ele>686.0</ele><time>2026-05-02T10:18:59.283Z</time></trkpt><trkpt lat="44.2689353" lon="8.1106006"><ele>686.0</ele><time>2026-05-02T10:19:03.282Z</time></trkpt><trkpt lat="44.2689142" lon="8.1107396"><ele>686.0</ele><time>2026-05-02T10:19:04.28Z</time></trkpt><trkpt lat="44.2688942" lon="8.1109437"><ele>686.0</ele><time>2026-05-02T10:19:05.278Z</time></trkpt><trkpt lat="44.2689198" lon="8.1111422"><ele>692.0</ele><time>2026-05-02T10:19:06.281Z</time></trkpt><trkpt lat="44.2689838" lon="8.1113157"><ele>698.0</ele><time>2026-05-02T10:19:07.283Z</time></trkpt><trkpt lat="44.2690791" lon="8.111477"><ele>704.0</ele><time>2026-05-02T10:19:08.278Z</time></trkpt><trkpt lat="44.2691484" lon="8.1116374"><ele>710.0</ele><time>2026-05-02T10:19:09.282Z</time></trkpt><trkpt lat="44.2691894" lon="8.1118353"><ele>710.0</ele><time>2026-05-02T10:19:10.28Z</time></trkpt><trkpt lat="44.2692055" lon="8.1120498"><ele>710.0</ele><time>2026-05-02T10:19:11.283Z</time></trkpt><trkpt lat="44.2692178" lon="8.1122492"><ele>710.0</ele><time>2026-05-02T10:19:12.286Z</time></trkpt><trkpt lat="44.2692398" lon="8.1123912"><ele>710.0</ele><time>2026-05-02T10:19:13.281Z</time></trkpt><trkpt lat="44.2693046" lon="8.1124869"><ele>712.75</ele><time>2026-05-02T10:19:14.283Z</time></trkpt><trkpt lat="44.2694056" lon="8.1125739"><ele>715.5</ele><time>2026-05-02T10:19:15.277Z</time></trkpt><trkpt lat="44.2695343" lon="8.1126501"><ele>718.25</ele><time>2026-05-02T10:19:16.276Z</time></trkpt><trkpt lat="44.2696673" lon="8.1126992"><ele>721.0</ele><time>2026-05-02T10:19:17.274Z</time></trkpt><trkpt lat="44.2697864" lon="8.1127365"><ele>721.0</ele><time>2026-05-02T10:19:18.278Z</time></trkpt><trkpt lat="44.2698888" lon="8.112741"><ele>721.0</ele><time>2026-05-02T10:19:19.279Z</time></trkpt><trkpt lat="44.2699885" lon="8.1126995"><ele>721.0</ele><time>2026-05-02T10:19:20.273Z</time></trkpt><trkpt lat="44.2700947" lon="8.1126084"><ele>721.0</ele><time>2026-05-02T10:19:21.274Z</time></trkpt><trkpt lat="44.2702019" lon="8.1125054"><ele>721.0</ele><time>2026-05-02T10:19:22.275Z</time></trkpt><trkpt lat="44.270289" lon="8.1124342"><ele>721.0</ele><time>2026-05-02T10:19:23.273Z</time></trkpt><trkpt lat="44.2703649" lon="8.1124301"><ele>721.0</ele><time>2026-05-02T10:19:24.271Z</time></trkpt><trkpt lat="44.2704156" lon="8.1125001"><ele>721.0</ele><time>2026-05-02T10:19:25.271Z</time></trkpt><trkpt lat="44.2704538" lon="8.1126215"><ele>721.0</ele><time>2026-05-02T10:19:26.276Z</time></trkpt><trkpt lat="44.2704713" lon="8.1127865"><ele>721.0</ele><time>2026-05-02T10:19:27.271Z</time></trkpt><trkpt lat="44.2704875" lon="8.1129602"><ele>721.0</ele><time>2026-05-02T10:19:28.276Z</time></trkpt><trkpt lat="44.2705063" lon="8.1131424"><ele>721.0</ele><time>2026-05-02T10:19:29.274Z</time></trkpt><trkpt lat="44.2705264" lon="8.1133252"><ele>721.0</ele><time>2026-05-02T10:19:30.284Z</time></trkpt><trkpt lat="44.2705431" lon="8.1135035"><ele>721.0</ele><time>2026-05-02T10:19:31.283Z</time></trkpt><trkpt lat="44.2705525" lon="8.1136556"><ele>721.0</ele><time>2026-05-02T10:19:32.274Z</time></trkpt><trkpt lat="44.2705601" lon="8.1137728"><ele>721.0</ele><time>2026-05-02T10:19:33.285Z</time></trkpt><trkpt lat="44.2706264" lon="8.1138468"><ele>721.0</ele><time>2026-05-02T10:19:35.284Z</time></trkpt><trkpt lat="44.2706757" lon="8.1136794"><ele>721.0</ele><time>2026-05-02T10:19:37.286Z</time></trkpt><trkpt lat="44.2706435" lon="8.1135394"><ele>721.0</ele><time>2026-05-02T10:19:38.278Z</time></trkpt><trkpt lat="44.2706061" lon="8.1133589"><ele>721.0</ele><time>2026-05-02T10:19:39.279Z</time></trkpt><trkpt lat="44.2705793" lon="8.1131527"><ele>721.0</ele><time>2026-05-02T10:19:40.278Z</time></trkpt><trkpt lat="44.2705692" lon="8.1129399"><ele>721.0</ele><time>2026-05-02T10:19:41.28Z</time></trkpt><trkpt lat="44.2705763" lon="8.1127246"><ele>721.0</ele><time>2026-05-02T10:19:42.274Z</time></trkpt><trkpt lat="44.2705995" lon="8.1125093"><ele>721.0</ele><time>2026-05-02T10:19:43.268Z</time></trkpt><trkpt lat="44.2706094" lon="8.1122832"><ele>721.0</ele><time>2026-05-02T10:19:44.273Z</time></trkpt><trkpt lat="44.2705933" lon="8.1121042"><ele>721.0</ele><time>2026-05-02T10:19:45.272Z</time></trkpt><trkpt lat="44.2705324" lon="8.1119873"><ele>726.5999999999999</ele><time>2026-05-02T10:19:46.278Z</time></trkpt><trkpt lat="44.2704455" lon="8.1119158"><ele>732.2</ele><time>2026-05-02T10:19:47.269Z</time></trkpt><trkpt lat="44.2703576" lon="8.1119096"><ele>737.8</ele><time>2026-05-02T10:19:48.271Z</time></trkpt><trkpt lat="44.2702625" lon="8.1119729"><ele>743.4000000000001</ele><time>2026-05-02T10:19:49.274Z</time></trkpt><trkpt lat="44.2701351" lon="8.1120477"><ele>749.0</ele><time>2026-05-02T10:19:50.264Z</time></trkpt><trkpt lat="44.2700117" lon="8.1121125"><ele>749.0</ele><time>2026-05-02T10:19:51.271Z</time></trkpt><trkpt lat="44.2699055" lon="8.1121339"><ele>749.0</ele><time>2026-05-02T10:19:52.263Z</time></trkpt><trkpt lat="44.269815" lon="8.1121522"><ele>749.0</ele><time>2026-05-02T10:19:53.284Z</time></trkpt><trkpt lat="44.2697473" lon="8.1121266"><ele>749.0</ele><time>2026-05-02T10:19:54.263Z</time></trkpt><trkpt lat="44.2696995" lon="8.1120175"><ele>749.0</ele><time>2026-05-02T10:19:55.277Z</time></trkpt><trkpt lat="44.269656" lon="8.1118502"><ele>738.3333333333333</ele><time>2026-05-02T10:19:56.276Z</time></trkpt><trkpt lat="44.2696087" lon="8.1116601"><ele>727.6666666666666</ele><time>2026-05-02T10:19:57.278Z</time></trkpt><trkpt lat="44.2695689" lon="8.1114584"><ele>717.0</ele><time>2026-05-02T10:19:58.285Z</time></trkpt><trkpt lat="44.2695467" lon="8.1112313"><ele>717.0</ele><time>2026-05-02T10:19:59.281Z</time></trkpt><trkpt lat="44.269555" lon="8.1109828"><ele>717.0</ele><time>2026-05-02T10:20:00.275Z</time></trkpt><trkpt lat="44.2695773" lon="8.1107371"><ele>717.0</ele><time>2026-05-02T10:20:01.274Z</time></trkpt><trkpt lat="44.2695921" lon="8.1105189"><ele>717.4000000000001</ele><time>2026-05-02T10:20:02.269Z</time></trkpt><trkpt lat="44.2696237" lon="8.110328"><ele>717.8000000000001</ele><time>2026-05-02T10:20:03.27Z</time></trkpt><trkpt lat="44.2696652" lon="8.1101798"><ele>718.2</ele><time>2026-05-02T10:20:04.272Z</time></trkpt><trkpt lat="44.2696832" lon="8.110065"><ele>718.6</ele><time>2026-05-02T10:20:05.27Z</time></trkpt><trkpt lat="44.2696218" lon="8.109954"><ele>719.0</ele><time>2026-05-02T10:20:06.271Z</time></trkpt><trkpt lat="44.2695462" lon="8.1098414"><ele>719.0</ele><time>2026-05-02T10:20:07.27Z</time></trkpt><trkpt lat="44.2694697" lon="8.1097248"><ele>719.0</ele><time>2026-05-02T10:20:08.276Z</time></trkpt><trkpt lat="44.2694324" lon="8.1096231"><ele>719.0</ele><time>2026-05-02T10:20:09.279Z</time></trkpt><trkpt lat="44.2694548" lon="8.1095343"><ele>719.0</ele><time>2026-05-02T10:20:10.278Z</time></trkpt><trkpt lat="44.2695212" lon="8.109454"><ele>719.0</ele><time>2026-05-02T10:20:11.281Z</time></trkpt><trkpt lat="44.2696338" lon="8.1093918"><ele>719.0</ele><time>2026-05-02T10:20:12.28Z</time></trkpt><trkpt lat="44.2697668" lon="8.109324"><ele>719.0</ele><time>2026-05-02T10:20:13.277Z</time></trkpt><trkpt lat="44.2699072" lon="8.1092537"><ele>719.0</ele><time>2026-05-02T10:20:14.281Z</time></trkpt><trkpt lat="44.2700603" lon="8.1091634"><ele>722.6666666666666</ele><time>2026-05-02T10:20:15.278Z</time></trkpt><trkpt lat="44.2702544" lon="8.1090625"><ele>726.3333333333334</ele><time>2026-05-02T10:20:16.271Z</time></trkpt><trkpt lat="44.270435" lon="8.1089552"><ele>730.0</ele><time>2026-05-02T10:20:17.272Z</time></trkpt><trkpt lat="44.2705862" lon="8.1088563"><ele>739.0</ele><time>2026-05-02T10:20:18.266Z</time></trkpt><trkpt lat="44.2707012" lon="8.1087718"><ele>748.0</ele><time>2026-05-02T10:20:19.269Z</time></trkpt><trkpt lat="44.2708014" lon="8.1086743"><ele>757.0</ele><time>2026-05-02T10:20:20.265Z</time></trkpt><trkpt lat="44.2708754" lon="8.1085187"><ele>766.0</ele><time>2026-05-02T10:20:21.269Z</time></trkpt><trkpt lat="44.2709111" lon="8.1083091"><ele>768.0</ele><time>2026-05-02T10:20:22.269Z</time></trkpt><trkpt lat="44.2709283" lon="8.1080894"><ele>770.0</ele><time>2026-05-02T10:20:23.266Z</time></trkpt><trkpt lat="44.2709125" lon="8.1078851"><ele>772.0</ele><time>2026-05-02T10:20:24.271Z</time></trkpt><trkpt lat="44.2708442" lon="8.1077411"><ele>774.0</ele><time>2026-05-02T10:20:25.274Z</time></trkpt><trkpt lat="44.2707449" lon="8.1076622"><ele>774.0</ele><time>2026-05-02T10:20:26.274Z</time></trkpt><trkpt lat="44.2706296" lon="8.1075873"><ele>774.0</ele><time>2026-05-02T10:20:27.274Z</time></trkpt><trkpt lat="44.2705276" lon="8.1074982"><ele>774.0</ele><time>2026-05-02T10:20:28.282Z</time></trkpt><trkpt lat="44.2704434" lon="8.107419"><ele>774.0</ele><time>2026-05-02T10:20:29.277Z</time></trkpt><trkpt lat="44.2703862" lon="8.107346"><ele>774.0</ele><time>2026-05-02T10:20:30.288Z</time></trkpt><trkpt lat="44.270384" lon="8.1072132"><ele>774.0</ele><time>2026-05-02T10:20:32.285Z</time></trkpt><trkpt lat="44.2705358" lon="8.1072028"><ele>774.0</ele><time>2026-05-02T10:20:34.284Z</time></trkpt><trkpt lat="44.2706441" lon="8.1072725"><ele>774.0</ele><time>2026-05-02T10:20:35.281Z</time></trkpt><trkpt lat="44.2707597" lon="8.1073813"><ele>774.0</ele><time>2026-05-02T10:20:36.283Z</time></trkpt><trkpt lat="44.2708701" lon="8.1075093"><ele>774.0</ele><time>2026-05-02T10:20:37.278Z</time></trkpt><trkpt lat="44.2709746" lon="8.1076413"><ele>774.0</ele><time>2026-05-02T10:20:38.276Z</time></trkpt><trkpt lat="44.2710678" lon="8.1077773"><ele>774.0</ele><time>2026-05-02T10:20:39.271Z</time></trkpt><trkpt lat="44.2711338" lon="8.1079146"><ele>774.0</ele><time>2026-05-02T10:20:40.273Z</time></trkpt><trkpt lat="44.2711638" lon="8.1080778"><ele>772.0</ele><time>2026-05-02T10:20:41.273Z</time></trkpt><trkpt lat="44.2711765" lon="8.1082769"><ele>770.0</ele><time>2026-05-02T10:20:42.269Z</time></trkpt><trkpt lat="44.2711727" lon="8.1084671"><ele>768.0</ele><time>2026-05-02T10:20:43.27Z</time></trkpt><trkpt lat="44.2711645" lon="8.1086776"><ele>766.0</ele><time>2026-05-02T10:20:44.271Z</time></trkpt><trkpt lat="44.2711373" lon="8.1088774"><ele>766.0</ele><time>2026-05-02T10:20:45.275Z</time></trkpt><trkpt lat="44.2711126" lon="8.10903"><ele>766.0</ele><time>2026-05-02T10:20:46.272Z</time></trkpt><trkpt lat="44.2710699" lon="8.1091452"><ele>766.0</ele><time>2026-05-02T10:20:47.273Z</time></trkpt><trkpt lat="44.270974" lon="8.1092376"><ele>766.0</ele><time>2026-05-02T10:20:48.276Z</time></trkpt><trkpt lat="44.2708352" lon="8.1092947"><ele>768.75</ele><time>2026-05-02T10:20:49.27Z</time></trkpt><trkpt lat="44.2707236" lon="8.1093668"><ele>771.5</ele><time>2026-05-02T10:20:50.273Z</time></trkpt><trkpt lat="44.2706198" lon="8.1094824"><ele>774.25</ele><time>2026-05-02T10:20:51.273Z</time></trkpt><trkpt lat="44.2705356" lon="8.1096357"><ele>777.0</ele><time>2026-05-02T10:20:52.271Z</time></trkpt><trkpt lat="44.2704671" lon="8.109766"><ele>773.5</ele><time>2026-05-02T10:20:53.274Z</time></trkpt><trkpt lat="44.2704346" lon="8.1099033"><ele>770.0</ele><time>2026-05-02T10:20:54.279Z</time></trkpt><trkpt lat="44.2704301" lon="8.110094"><ele>766.5</ele><time>2026-05-02T10:20:55.276Z</time></trkpt><trkpt lat="44.2704372" lon="8.1103205"><ele>763.0</ele><time>2026-05-02T10:20:56.279Z</time></trkpt><trkpt lat="44.2704576" lon="8.11051"><ele>763.0</ele><time>2026-05-02T10:20:57.276Z</time></trkpt><trkpt lat="44.2704843" lon="8.1106458"><ele>763.0</ele><time>2026-05-02T10:20:58.292Z</time></trkpt><trkpt lat="44.2705244" lon="8.1107367"><ele>763.0</ele><time>2026-05-02T10:20:59.28Z</time></trkpt><trkpt lat="44.2706153" lon="8.1108067"><ele>763.0</ele><time>2026-05-02T10:21:01.286Z</time></trkpt><trkpt lat="44.270674" lon="8.1107371"><ele>763.0</ele><time>2026-05-02T10:21:02.281Z</time></trkpt><trkpt lat="44.2707193" lon="8.1106166"><ele>766.5</ele><time>2026-05-02T10:21:03.273Z</time></trkpt><trkpt lat="44.2707306" lon="8.1104596"><ele>770.0</ele><time>2026-05-02T10:21:04.279Z</time></trkpt><trkpt lat="44.2707378" lon="8.1102742"><ele>773.5</ele><time>2026-05-02T10:21:05.273Z</time></trkpt><trkpt lat="44.2707604" lon="8.1100725"><ele>777.0</ele><time>2026-05-02T10:21:06.277Z</time></trkpt><trkpt lat="44.2707984" lon="8.1098786"><ele>777.0</ele><time>2026-05-02T10:21:07.275Z</time></trkpt><trkpt lat="44.2708631" lon="8.109682"><ele>777.0</ele><time>2026-05-02T10:21:08.275Z</time></trkpt><trkpt lat="44.2709581" lon="8.1095088"><ele>777.0</ele><time>2026-05-02T10:21:09.274Z</time></trkpt><trkpt lat="44.2711034" lon="8.1094413"><ele>777.0</ele><time>2026-05-02T10:21:10.269Z</time></trkpt><trkpt lat="44.2712556" lon="8.1093979"><ele>777.0</ele><time>2026-05-02T10:21:11.269Z</time></trkpt><trkpt lat="44.2713921" lon="8.109373"><ele>777.0</ele><time>2026-05-02T10:21:12.265Z</time></trkpt><trkpt lat="44.2715074" lon="8.1093259"><ele>777.0</ele><time>2026-05-02T10:21:13.27Z</time></trkpt><trkpt lat="44.271597" lon="8.1092287"><ele>783.75</ele><time>2026-05-02T10:21:14.272Z</time></trkpt><trkpt lat="44.2716445" lon="8.1090963"><ele>790.5</ele><time>2026-05-02T10:21:15.274Z</time></trkpt><trkpt lat="44.2716383" lon="8.1089337"><ele>797.25</ele><time>2026-05-02T10:21:16.27Z</time></trkpt><trkpt lat="44.2716271" lon="8.1087757"><ele>804.0</ele><time>2026-05-02T10:21:17.268Z</time></trkpt><trkpt lat="44.2716309" lon="8.1086136"><ele>804.0</ele><time>2026-05-02T10:21:18.278Z</time></trkpt><trkpt lat="44.2716737" lon="8.1084397"><ele>804.0</ele><time>2026-05-02T10:21:19.28Z</time></trkpt><trkpt lat="44.2717586" lon="8.1082802"><ele>804.0</ele><time>2026-05-02T10:21:20.272Z</time></trkpt><trkpt lat="44.2718547" lon="8.1081351"><ele>804.0</ele><time>2026-05-02T10:21:21.276Z</time></trkpt><trkpt lat="44.2719458" lon="8.1079948"><ele>803.5</ele><time>2026-05-02T10:21:22.272Z</time></trkpt><trkpt lat="44.2720404" lon="8.1078635"><ele>803.0</ele><time>2026-05-02T10:21:23.269Z</time></trkpt><trkpt lat="44.272115" lon="8.1077208"><ele>802.5</ele><time>2026-05-02T10:21:24.275Z</time></trkpt><trkpt lat="44.2721769" lon="8.1075666"><ele>802.0</ele><time>2026-05-02T10:21:25.278Z</time></trkpt><trkpt lat="44.272216" lon="8.107391"><ele>800.3333333333333</ele><time>2026-05-02T10:21:26.282Z</time></trkpt><trkpt lat="44.2722409" lon="8.1071988"><ele>798.6666666666667</ele><time>2026-05-02T10:21:27.278Z</time></trkpt><trkpt lat="44.2722647" lon="8.1069621"><ele>797.0</ele><time>2026-05-02T10:21:28.274Z</time></trkpt><trkpt lat="44.2723104" lon="8.1067491"><ele>807.3333333333334</ele><time>2026-05-02T10:21:29.278Z</time></trkpt><trkpt lat="44.2723584" lon="8.1065579"><ele>817.6666666666667</ele><time>2026-05-02T10:21:30.291Z</time></trkpt><trkpt lat="44.2723795" lon="8.1063634"><ele>828.0</ele><time>2026-05-02T10:21:31.28Z</time></trkpt><trkpt lat="44.272363" lon="8.1061271"><ele>828.0</ele><time>2026-05-02T10:21:32.273Z</time></trkpt><trkpt lat="44.2723338" lon="8.1059087"><ele>828.0</ele><time>2026-05-02T10:21:33.267Z</time></trkpt><trkpt lat="44.2723092" lon="8.1056842"><ele>828.0</ele><time>2026-05-02T10:21:34.269Z</time></trkpt><trkpt lat="44.2722801" lon="8.1054616"><ele>827.6666666666667</ele><time>2026-05-02T10:21:35.263Z</time></trkpt><trkpt lat="44.272261" lon="8.1052314"><ele>827.3333333333334</ele><time>2026-05-02T10:21:36.265Z</time></trkpt><trkpt lat="44.2722414" lon="8.1049917"><ele>827.0</ele><time>2026-05-02T10:21:37.262Z</time></trkpt><trkpt lat="44.2722156" lon="8.104761"><ele>827.0</ele><time>2026-05-02T10:21:38.264Z</time></trkpt><trkpt lat="44.2721627" lon="8.1045478"><ele>827.0</ele><time>2026-05-02T10:21:39.264Z</time></trkpt><trkpt lat="44.2720887" lon="8.104354"><ele>827.0</ele><time>2026-05-02T10:21:40.266Z</time></trkpt><trkpt lat="44.2719793" lon="8.104173"><ele>829.0</ele><time>2026-05-02T10:21:41.262Z</time></trkpt><trkpt lat="44.2718364" lon="8.1039784"><ele>831.0</ele><time>2026-05-02T10:21:42.269Z</time></trkpt><trkpt lat="44.2716863" lon="8.1037982"><ele>833.0</ele><time>2026-05-02T10:21:43.275Z</time></trkpt><trkpt lat="44.2715501" lon="8.1036339"><ele>833.0</ele><time>2026-05-02T10:21:44.263Z</time></trkpt><trkpt lat="44.2714574" lon="8.1035005"><ele>833.0</ele><time>2026-05-02T10:21:45.264Z</time></trkpt><trkpt lat="44.2714071" lon="8.1033894"><ele>833.0</ele><time>2026-05-02T10:21:46.273Z</time></trkpt><trkpt lat="44.2713733" lon="8.1032871"><ele>833.0</ele><time>2026-05-02T10:21:47.282Z</time></trkpt><trkpt lat="44.2714135" lon="8.103198"><ele>833.0</ele><time>2026-05-02T10:21:48.284Z</time></trkpt><trkpt lat="44.2714871" lon="8.1031454"><ele>833.0</ele><time>2026-05-02T10:21:49.277Z</time></trkpt><trkpt lat="44.2715635" lon="8.1031308"><ele>833.0</ele><time>2026-05-02T10:21:50.287Z</time></trkpt><trkpt lat="44.2716373" lon="8.1031779"><ele>833.0</ele><time>2026-05-02T10:21:51.289Z</time></trkpt><trkpt lat="44.2716993" lon="8.1032808"><ele>833.0</ele><time>2026-05-02T10:21:52.28Z</time></trkpt><trkpt lat="44.2717463" lon="8.1034362"><ele>833.0</ele><time>2026-05-02T10:21:53.274Z</time></trkpt><trkpt lat="44.2717928" lon="8.1036178"><ele>833.0</ele><time>2026-05-02T10:21:54.272Z</time></trkpt><trkpt lat="44.2718841" lon="8.1038016"><ele>833.0</ele><time>2026-05-02T10:21:55.277Z</time></trkpt><trkpt lat="44.272007" lon="8.1039936"><ele>833.0</ele><time>2026-05-02T10:21:56.27Z</time></trkpt><trkpt lat="44.2721465" lon="8.1041559"><ele>837.0</ele><time>2026-05-02T10:21:57.272Z</time></trkpt><trkpt lat="44.2723005" lon="8.1043095"><ele>841.0</ele><time>2026-05-02T10:21:58.277Z</time></trkpt><trkpt lat="44.2724293" lon="8.1044433"><ele>845.0</ele><time>2026-05-02T10:21:59.277Z</time></trkpt><trkpt lat="44.2725412" lon="8.1045773"><ele>845.0</ele><time>2026-05-02T10:22:00.289Z</time></trkpt><trkpt lat="44.2726203" lon="8.1047225"><ele>845.0</ele><time>2026-05-02T10:22:01.285Z</time></trkpt><trkpt lat="44.2726759" lon="8.1049207"><ele>845.0</ele><time>2026-05-02T10:22:02.285Z</time></trkpt><trkpt lat="44.2727207" lon="8.1051286"><ele>845.0</ele><time>2026-05-02T10:22:03.291Z</time></trkpt><trkpt lat="44.2727657" lon="8.1053223"><ele>843.4</ele><time>2026-05-02T10:22:04.279Z</time></trkpt><trkpt lat="44.272795" lon="8.1054825"><ele>841.8</ele><time>2026-05-02T10:22:05.285Z</time></trkpt><trkpt lat="44.2728369" lon="8.1055976"><ele>840.2</ele><time>2026-05-02T10:22:06.29Z</time></trkpt><trkpt lat="44.2729558" lon="8.1056058"><ele>838.6</ele><time>2026-05-02T10:22:08.282Z</time></trkpt><trkpt lat="44.2729772" lon="8.1055061"><ele>837.0</ele><time>2026-05-02T10:22:09.287Z</time></trkpt><trkpt lat="44.2729567" lon="8.1053845"><ele>837.0</ele><time>2026-05-02T10:22:10.281Z</time></trkpt><trkpt lat="44.2729014" lon="8.1052553"><ele>837.0</ele><time>2026-05-02T10:22:11.283Z</time></trkpt><trkpt lat="44.2728502" lon="8.1050965"><ele>837.0</ele><time>2026-05-02T10:22:12.288Z</time></trkpt><trkpt lat="44.272834" lon="8.1049023"><ele>837.0</ele><time>2026-05-02T10:22:13.279Z</time></trkpt><trkpt lat="44.2728349" lon="8.1046855"><ele>839.0</ele><time>2026-05-02T10:22:14.273Z</time></trkpt><trkpt lat="44.272845" lon="8.1044671"><ele>841.0</ele><time>2026-05-02T10:22:15.272Z</time></trkpt><trkpt lat="44.2728332" lon="8.1042583"><ele>843.0</ele><time>2026-05-02T10:22:16.28Z</time></trkpt><trkpt lat="44.2727749" lon="8.1040763"><ele>845.0</ele><time>2026-05-02T10:22:17.282Z</time></trkpt><trkpt lat="44.2726837" lon="8.1039206"><ele>847.0</ele><time>2026-05-02T10:22:18.278Z</time></trkpt><trkpt lat="44.2725658" lon="8.103765"><ele>849.0</ele><time>2026-05-02T10:22:19.281Z</time></trkpt><trkpt lat="44.2724539" lon="8.1036189"><ele>851.0</ele><time>2026-05-02T10:22:20.281Z</time></trkpt><trkpt lat="44.2723854" lon="8.103481"><ele>853.0</ele><time>2026-05-02T10:22:21.295Z</time></trkpt><trkpt lat="44.272353" lon="8.1033405"><ele>852.25</ele><time>2026-05-02T10:22:22.284Z</time></trkpt><trkpt lat="44.2723654" lon="8.1031929"><ele>851.5</ele><time>2026-05-02T10:22:23.28Z</time></trkpt><trkpt lat="44.272443" lon="8.1030297"><ele>850.75</ele><time>2026-05-02T10:22:24.276Z</time></trkpt><trkpt lat="44.2725337" lon="8.1028966"><ele>850.0</ele><time>2026-05-02T10:22:25.277Z</time></trkpt><trkpt lat="44.272616" lon="8.1027369"><ele>850.0</ele><time>2026-05-02T10:22:26.275Z</time></trkpt><trkpt lat="44.2727066" lon="8.1025558"><ele>850.0</ele><time>2026-05-02T10:22:27.278Z</time></trkpt><trkpt lat="44.2727979" lon="8.1023694"><ele>850.0</ele><time>2026-05-02T10:22:28.277Z</time></trkpt><trkpt lat="44.27288" lon="8.1022695"><ele>850.0</ele><time>2026-05-02T10:22:29.278Z</time></trkpt><trkpt lat="44.2729387" lon="8.1022074"><ele>847.8333333333333</ele><time>2026-05-02T10:22:30.284Z</time></trkpt><trkpt lat="44.2730072" lon="8.1021871"><ele>845.6666666666666</ele><time>2026-05-02T10:22:31.277Z</time></trkpt><trkpt lat="44.2730919" lon="8.1021499"><ele>843.5</ele><time>2026-05-02T10:22:32.274Z</time></trkpt><trkpt lat="44.2731679" lon="8.1020823"><ele>841.3333333333333</ele><time>2026-05-02T10:22:33.283Z</time></trkpt><trkpt lat="44.2732079" lon="8.101978"><ele>839.1666666666666</ele><time>2026-05-02T10:22:34.276Z</time></trkpt><trkpt lat="44.2732232" lon="8.1018385"><ele>837.0</ele><time>2026-05-02T10:22:35.277Z</time></trkpt><trkpt lat="44.2732471" lon="8.1016553"><ele>846.3333333333333</ele><time>2026-05-02T10:22:36.278Z</time></trkpt><trkpt lat="44.2733018" lon="8.1014524"><ele>855.6666666666666</ele><time>2026-05-02T10:22:37.279Z</time></trkpt><trkpt lat="44.2733621" lon="8.1012314"><ele>865.0</ele><time>2026-05-02T10:22:38.274Z</time></trkpt><trkpt lat="44.2734314" lon="8.1010025"><ele>865.0</ele><time>2026-05-02T10:22:39.275Z</time></trkpt><trkpt lat="44.2734866" lon="8.1007637"><ele>865.0</ele><time>2026-05-02T10:22:40.275Z</time></trkpt><trkpt lat="44.2735295" lon="8.1005453"><ele>865.0</ele><time>2026-05-02T10:22:41.269Z</time></trkpt><trkpt lat="44.2735503" lon="8.1003724"><ele>862.25</ele><time>2026-05-02T10:22:42.27Z</time></trkpt><trkpt lat="44.2735676" lon="8.1002132"><ele>859.5</ele><time>2026-05-02T10:22:43.269Z</time></trkpt><trkpt lat="44.2736104" lon="8.1000847"><ele>856.75</ele><time>2026-05-02T10:22:44.269Z</time></trkpt><trkpt lat="44.2736902" lon="8.099973"><ele>854.0</ele><time>2026-05-02T10:22:45.273Z</time></trkpt><trkpt lat="44.2738034" lon="8.0998723"><ele>859.0</ele><time>2026-05-02T10:22:46.272Z</time></trkpt><trkpt lat="44.2739259" lon="8.0997489"><ele>864.0</ele><time>2026-05-02T10:22:47.269Z</time></trkpt><trkpt lat="44.2740524" lon="8.0996022"><ele>869.0</ele><time>2026-05-02T10:22:48.271Z</time></trkpt><trkpt lat="44.2741768" lon="8.0994683"><ele>869.0</ele><time>2026-05-02T10:22:49.264Z</time></trkpt><trkpt lat="44.2742867" lon="8.0993553"><ele>869.0</ele><time>2026-05-02T10:22:50.268Z</time></trkpt><trkpt lat="44.2743858" lon="8.0992688"><ele>869.0</ele><time>2026-05-02T10:22:51.265Z</time></trkpt><trkpt lat="44.2745108" lon="8.0992326"><ele>869.0</ele><time>2026-05-02T10:22:52.277Z</time></trkpt><trkpt lat="44.2746745" lon="8.099221"><ele>865.6666666666667</ele><time>2026-05-02T10:22:53.267Z</time></trkpt><trkpt lat="44.2748634" lon="8.0991911"><ele>862.3333333333333</ele><time>2026-05-02T10:22:54.261Z</time></trkpt><trkpt lat="44.2750408" lon="8.0991218"><ele>859.0</ele><time>2026-05-02T10:22:55.261Z</time></trkpt><trkpt lat="44.275211" lon="8.0990336"><ele>859.0</ele><time>2026-05-02T10:22:56.26Z</time></trkpt><trkpt lat="44.275385" lon="8.0989459"><ele>859.0</ele><time>2026-05-02T10:22:57.26Z</time></trkpt><trkpt lat="44.2755526" lon="8.0988629"><ele>859.0</ele><time>2026-05-02T10:22:58.264Z</time></trkpt><trkpt lat="44.2757261" lon="8.0987965"><ele>864.6666666666666</ele><time>2026-05-02T10:22:59.259Z</time></trkpt><trkpt lat="44.2759032" lon="8.0987493"><ele>870.3333333333333</ele><time>2026-05-02T10:23:00.266Z</time></trkpt><trkpt lat="44.2760761" lon="8.0987282"><ele>876.0</ele><time>2026-05-02T10:23:01.264Z</time></trkpt><trkpt lat="44.2762194" lon="8.0986748"><ele>876.0</ele><time>2026-05-02T10:23:02.266Z</time></trkpt><trkpt lat="44.2763667" lon="8.0986667"><ele>876.0</ele><time>2026-05-02T10:23:03.26Z</time></trkpt><trkpt lat="44.2765061" lon="8.0986765"><ele>876.0</ele><time>2026-05-02T10:23:04.262Z</time></trkpt><trkpt lat="44.2766486" lon="8.0987106"><ele>876.0</ele><time>2026-05-02T10:23:05.262Z</time></trkpt><trkpt lat="44.2767776" lon="8.0986845"><ele>874.4</ele><time>2026-05-02T10:23:06.263Z</time></trkpt><trkpt lat="44.2768908" lon="8.0986054"><ele>872.8</ele><time>2026-05-02T10:23:07.258Z</time></trkpt><trkpt lat="44.2769616" lon="8.0984974"><ele>871.1999999999999</ele><time>2026-05-02T10:23:08.264Z</time></trkpt><trkpt lat="44.2769976" lon="8.0983596"><ele>869.5999999999999</ele><time>2026-05-02T10:23:09.26Z</time></trkpt><trkpt lat="44.2770716" lon="8.0982636"><ele>868.0</ele><time>2026-05-02T10:23:10.265Z</time></trkpt><trkpt lat="44.2771816" lon="8.0982236"><ele>875.0</ele><time>2026-05-02T10:23:11.264Z</time></trkpt><trkpt lat="44.2772926" lon="8.0981993"><ele>882.0</ele><time>2026-05-02T10:23:12.266Z</time></trkpt><trkpt lat="44.277383" lon="8.0981541"><ele>889.0</ele><time>2026-05-02T10:23:13.259Z</time></trkpt><trkpt lat="44.2774534" lon="8.0980855"><ele>896.0</ele><time>2026-05-02T10:23:14.269Z</time></trkpt><trkpt lat="44.2774926" lon="8.0979781"><ele>903.0</ele><time>2026-05-02T10:23:15.26Z</time></trkpt><trkpt lat="44.277522" lon="8.0978466"><ele>903.0</ele><time>2026-05-02T10:23:16.266Z</time></trkpt><trkpt lat="44.2775508" lon="8.0976997"><ele>903.0</ele><time>2026-05-02T10:23:17.258Z</time></trkpt><trkpt lat="44.2775901" lon="8.097565"><ele>903.0</ele><time>2026-05-02T10:23:18.264Z</time></trkpt><trkpt lat="44.2776578" lon="8.0974355"><ele>903.0</ele><time>2026-05-02T10:23:19.275Z</time></trkpt><trkpt lat="44.2777583" lon="8.0973092"><ele>903.3333333333333</ele><time>2026-05-02T10:23:20.27Z</time></trkpt><trkpt lat="44.2778848" lon="8.0971886"><ele>903.6666666666666</ele><time>2026-05-02T10:23:21.269Z</time></trkpt><trkpt lat="44.2780218" lon="8.0970793"><ele>904.0</ele><time>2026-05-02T10:23:22.276Z</time></trkpt><trkpt lat="44.2781765" lon="8.0969914"><ele>904.0</ele><time>2026-05-02T10:23:23.268Z</time></trkpt><trkpt lat="44.2783476" lon="8.0969313"><ele>904.0</ele><time>2026-05-02T10:23:24.264Z</time></trkpt><trkpt lat="44.2784925" lon="8.0968739"><ele>904.0</ele><time>2026-05-02T10:23:25.27Z</time></trkpt><trkpt lat="44.278621" lon="8.096818"><ele>904.0</ele><time>2026-05-02T10:23:26.266Z</time></trkpt><trkpt lat="44.2787511" lon="8.0967669"><ele>904.0000000000001</ele><time>2026-05-02T10:23:27.26Z</time></trkpt><trkpt lat="44.2788705" lon="8.0967222"><ele>904.0000000000001</ele><time>2026-05-02T10:23:28.263Z</time></trkpt><trkpt lat="44.2789523" lon="8.0966582"><ele>904.0</ele><time>2026-05-02T10:23:29.267Z</time></trkpt><trkpt lat="44.2790149" lon="8.0966079"><ele>904.0</ele><time>2026-05-02T10:23:30.275Z</time></trkpt><trkpt lat="44.2790857" lon="8.0965299"><ele>906.9999999999999</ele><time>2026-05-02T10:23:32.27Z</time></trkpt><trkpt lat="44.2791001" lon="8.0964323"><ele>910.0</ele><time>2026-05-02T10:23:38.28Z</time></trkpt><trkpt lat="44.2790509" lon="8.0963525"><ele>913.0</ele><time>2026-05-02T10:24:29.257Z</time></trkpt><trkpt lat="44.2791374" lon="8.0963604"><ele>916.0</ele><time>2026-05-02T10:35:56.276Z</time></trkpt><trkpt lat="44.2792196" lon="8.0963256"><ele>918.9999999999999</ele><time>2026-05-02T10:35:58.277Z</time></trkpt><trkpt lat="44.2793227" lon="8.0962687"><ele>922.0</ele><time>2026-05-02T10:36:00.274Z</time></trkpt><trkpt lat="44.2794197" lon="8.0962155"><ele>922.0</ele><time>2026-05-02T10:36:02.268Z</time></trkpt><trkpt lat="44.2795099" lon="8.0961817"><ele>922.0</ele><time>2026-05-02T10:36:04.285Z</time></trkpt><trkpt lat="44.2795736" lon="8.0961399"><ele>922.0</ele><time>2026-05-02T10:36:06.285Z</time></trkpt><trkpt lat="44.2796631" lon="8.0961026"><ele>922.0</ele><time>2026-05-02T10:36:08.284Z</time></trkpt><trkpt lat="44.2797481" lon="8.0960545"><ele>922.0</ele><time>2026-05-02T10:36:10.279Z</time></trkpt><trkpt lat="44.279861" lon="8.0960083"><ele>923.4999999999999</ele><time>2026-05-02T10:36:12.276Z</time></trkpt><trkpt lat="44.2799302" lon="8.0959762"><ele>925.0</ele><time>2026-05-02T10:36:13.281Z</time></trkpt><trkpt lat="44.279995" lon="8.0959375"><ele>926.5</ele><time>2026-05-02T10:36:14.278Z</time></trkpt><trkpt lat="44.2800557" lon="8.0959016"><ele>928.0</ele><time>2026-05-02T10:36:15.275Z</time></trkpt><trkpt lat="44.2801721" lon="8.0958449"><ele>929.4999999999999</ele><time>2026-05-02T10:36:17.28Z</time></trkpt><trkpt lat="44.2802419" lon="8.0958047"><ele>931.0</ele><time>2026-05-02T10:36:18.275Z</time></trkpt><trkpt lat="44.2803131" lon="8.0957751"><ele>931.0</ele><time>2026-05-02T10:36:19.267Z</time></trkpt><trkpt lat="44.2803834" lon="8.0957611"><ele>930.9999999999999</ele><time>2026-05-02T10:36:20.271Z</time></trkpt><trkpt lat="44.2805033" lon="8.0957162"><ele>930.9999999999999</ele><time>2026-05-02T10:36:22.272Z</time></trkpt><trkpt lat="44.280637" lon="8.095714"><ele>931.0</ele><time>2026-05-02T10:36:24.264Z</time></trkpt><trkpt lat="44.2807124" lon="8.0957161"><ele>931.0</ele><time>2026-05-02T10:36:25.268Z</time></trkpt><trkpt lat="44.2807882" lon="8.0957218"><ele>935.1666666666666</ele><time>2026-05-02T10:36:26.269Z</time></trkpt><trkpt lat="44.2808755" lon="8.0957287"><ele>939.3333333333333</ele><time>2026-05-02T10:36:27.265Z</time></trkpt><trkpt lat="44.2809566" lon="8.0957425"><ele>943.5</ele><time>2026-05-02T10:36:28.273Z</time></trkpt><trkpt lat="44.2810454" lon="8.0957476"><ele>947.6666666666667</ele><time>2026-05-02T10:36:29.271Z</time></trkpt><trkpt lat="44.28113" lon="8.0957449"><ele>951.8333333333334</ele><time>2026-05-02T10:36:30.28Z</time></trkpt><trkpt lat="44.2812107" lon="8.0957438"><ele>956.0</ele><time>2026-05-02T10:36:31.272Z</time></trkpt><trkpt lat="44.2812788" lon="8.0957335"><ele>956.0000000000001</ele><time>2026-05-02T10:36:32.271Z</time></trkpt><trkpt lat="44.2813574" lon="8.0957212"><ele>956.0</ele><time>2026-05-02T10:36:33.278Z</time></trkpt><trkpt lat="44.2814437" lon="8.0957124"><ele>956.0</ele><time>2026-05-02T10:36:34.274Z</time></trkpt><trkpt lat="44.2815297" lon="8.0957012"><ele>956.0</ele><time>2026-05-02T10:36:35.278Z</time></trkpt><trkpt lat="44.281621" lon="8.0956968"><ele>956.0000000000001</ele><time>2026-05-02T10:36:36.272Z</time></trkpt><trkpt lat="44.2817143" lon="8.095683"><ele>956.0</ele><time>2026-05-02T10:36:37.274Z</time></trkpt><trkpt lat="44.2818149" lon="8.0956719"><ele>954.75</ele><time>2026-05-02T10:36:38.273Z</time></trkpt><trkpt lat="44.2819271" lon="8.095675"><ele>953.5</ele><time>2026-05-02T10:36:39.278Z</time></trkpt><trkpt lat="44.2820419" lon="8.0956791"><ele>952.25</ele><time>2026-05-02T10:36:40.275Z</time></trkpt><trkpt lat="44.2821643" lon="8.0956661"><ele>951.0</ele><time>2026-05-02T10:36:41.272Z</time></trkpt><trkpt lat="44.2822933" lon="8.0956487"><ele>949.75</ele><time>2026-05-02T10:36:42.271Z</time></trkpt><trkpt lat="44.2824279" lon="8.0956399"><ele>948.5</ele><time>2026-05-02T10:36:43.278Z</time></trkpt><trkpt lat="44.282567" lon="8.0956552"><ele>947.25</ele><time>2026-05-02T10:36:44.27Z</time></trkpt><trkpt lat="44.2827089" lon="8.0956873"><ele>946.0</ele><time>2026-05-02T10:36:45.275Z</time></trkpt><trkpt lat="44.2828457" lon="8.0957216"><ele>937.75</ele><time>2026-05-02T10:36:46.269Z</time></trkpt><trkpt lat="44.2829715" lon="8.0957708"><ele>929.5</ele><time>2026-05-02T10:36:47.271Z</time></trkpt><trkpt lat="44.2830881" lon="8.0958178"><ele>921.25</ele><time>2026-05-02T10:36:48.283Z</time></trkpt><trkpt lat="44.2831966" lon="8.0958556"><ele>913.0</ele><time>2026-05-02T10:36:49.27Z</time></trkpt><trkpt lat="44.2833052" lon="8.0958823"><ele>913.0</ele><time>2026-05-02T10:36:50.271Z</time></trkpt><trkpt lat="44.2834208" lon="8.0959076"><ele>913.0</ele><time>2026-05-02T10:36:51.274Z</time></trkpt><trkpt lat="44.2835286" lon="8.0959271"><ele>913.0</ele><time>2026-05-02T10:36:52.281Z</time></trkpt><trkpt lat="44.2836324" lon="8.0959442"><ele>913.0</ele><time>2026-05-02T10:36:53.285Z</time></trkpt><trkpt lat="44.2837378" lon="8.0959646"><ele>913.0</ele><time>2026-05-02T10:36:54.28Z</time></trkpt><trkpt lat="44.2838446" lon="8.095983"><ele>913.4</ele><time>2026-05-02T10:36:55.287Z</time></trkpt><trkpt lat="44.2839525" lon="8.0960059"><ele>913.8</ele><time>2026-05-02T10:36:56.288Z</time></trkpt><trkpt lat="44.2840607" lon="8.0960143"><ele>914.2</ele><time>2026-05-02T10:36:57.286Z</time></trkpt><trkpt lat="44.2841678" lon="8.0960217"><ele>914.6</ele><time>2026-05-02T10:36:58.292Z</time></trkpt><trkpt lat="44.284278" lon="8.0960346"><ele>915.0</ele><time>2026-05-02T10:36:59.286Z</time></trkpt><trkpt lat="44.2843923" lon="8.0960341"><ele>915.0</ele><time>2026-05-02T10:37:00.293Z</time></trkpt><trkpt lat="44.2845013" lon="8.0960348"><ele>915.0</ele><time>2026-05-02T10:37:01.285Z</time></trkpt><trkpt lat="44.2846027" lon="8.096027"><ele>915.0</ele><time>2026-05-02T10:37:02.286Z</time></trkpt><trkpt lat="44.2847035" lon="8.0960134"><ele>915.0</ele><time>2026-05-02T10:37:03.282Z</time></trkpt><trkpt lat="44.2847937" lon="8.0960037"><ele>915.0</ele><time>2026-05-02T10:37:04.278Z</time></trkpt><trkpt lat="44.2848782" lon="8.0960092"><ele>914.6</ele><time>2026-05-02T10:37:05.281Z</time></trkpt><trkpt lat="44.2849669" lon="8.0960043"><ele>914.2</ele><time>2026-05-02T10:37:06.285Z</time></trkpt><trkpt lat="44.2850566" lon="8.0959911"><ele>913.8</ele><time>2026-05-02T10:37:07.281Z</time></trkpt><trkpt lat="44.2851571" lon="8.0959694"><ele>913.4</ele><time>2026-05-02T10:37:08.286Z</time></trkpt><trkpt lat="44.2852606" lon="8.0959635"><ele>913.0</ele><time>2026-05-02T10:37:09.275Z</time></trkpt><trkpt lat="44.2853633" lon="8.0959617"><ele>913.0</ele><time>2026-05-02T10:37:10.278Z</time></trkpt><trkpt lat="44.285462" lon="8.0959555"><ele>913.0</ele><time>2026-05-02T10:37:11.286Z</time></trkpt><trkpt lat="44.2855532" lon="8.0959555"><ele>913.0</ele><time>2026-05-02T10:37:12.282Z</time></trkpt><trkpt lat="44.2856436" lon="8.0959546"><ele>913.0</ele><time>2026-05-02T10:37:13.282Z</time></trkpt><trkpt lat="44.2857356" lon="8.0959585"><ele>913.0</ele><time>2026-05-02T10:37:14.281Z</time></trkpt><trkpt lat="44.2858278" lon="8.0959661"><ele>911.5714285714284</ele><time>2026-05-02T10:37:15.288Z</time></trkpt><trkpt lat="44.2859064" lon="8.0959802"><ele>910.1428571428571</ele><time>2026-05-02T10:37:16.286Z</time></trkpt><trkpt lat="44.2859749" lon="8.095999"><ele>908.7142857142857</ele><time>2026-05-02T10:37:17.283Z</time></trkpt><trkpt lat="44.2860377" lon="8.0960222"><ele>907.2857142857142</ele><time>2026-05-02T10:37:18.294Z</time></trkpt><trkpt lat="44.2860998" lon="8.0960655"><ele>905.8571428571429</ele><time>2026-05-02T10:37:19.282Z</time></trkpt><trkpt lat="44.2861644" lon="8.0961098"><ele>904.4285714285714</ele><time>2026-05-02T10:37:20.297Z</time></trkpt><trkpt lat="44.2862303" lon="8.0961646"><ele>903.0</ele><time>2026-05-02T10:37:21.292Z</time></trkpt><trkpt lat="44.2863001" lon="8.0962122"><ele>903.0</ele><time>2026-05-02T10:37:22.289Z</time></trkpt><trkpt lat="44.2863683" lon="8.0962514"><ele>903.0</ele><time>2026-05-02T10:37:23.283Z</time></trkpt><trkpt lat="44.2864369" lon="8.0962864"><ele>903.0</ele><time>2026-05-02T10:37:24.287Z</time></trkpt><trkpt lat="44.2865015" lon="8.0963209"><ele>903.0</ele><time>2026-05-02T10:37:25.284Z</time></trkpt><trkpt lat="44.2865646" lon="8.0963616"><ele>903.0</ele><time>2026-05-02T10:37:26.287Z</time></trkpt><trkpt lat="44.2866373" lon="8.0964132"><ele>903.0</ele><time>2026-05-02T10:37:27.284Z</time></trkpt><trkpt lat="44.2867159" lon="8.0964669"><ele>900.5999999999999</ele><time>2026-05-02T10:37:28.286Z</time></trkpt><trkpt lat="44.2867898" lon="8.096532"><ele>898.1999999999999</ele><time>2026-05-02T10:37:29.282Z</time></trkpt><trkpt lat="44.2868671" lon="8.0965992"><ele>895.8</ele><time>2026-05-02T10:37:30.29Z</time></trkpt><trkpt lat="44.2869532" lon="8.0966648"><ele>893.4</ele><time>2026-05-02T10:37:31.278Z</time></trkpt><trkpt lat="44.2870368" lon="8.0967371"><ele>891.0</ele><time>2026-05-02T10:37:32.277Z</time></trkpt><trkpt lat="44.287118" lon="8.0968063"><ele>891.0</ele><time>2026-05-02T10:37:33.274Z</time></trkpt><trkpt lat="44.2872051" lon="8.0968693"><ele>890.9999999999999</ele><time>2026-05-02T10:37:34.275Z</time></trkpt><trkpt lat="44.2872927" lon="8.0969277"><ele>890.9999999999999</ele><time>2026-05-02T10:37:35.269Z</time></trkpt><trkpt lat="44.2873785" lon="8.0969839"><ele>891.0</ele><time>2026-05-02T10:37:36.273Z</time></trkpt><trkpt lat="44.2874583" lon="8.0970331"><ele>891.0</ele><time>2026-05-02T10:37:37.278Z</time></trkpt><trkpt lat="44.2875303" lon="8.0970805"><ele>889.8333333333334</ele><time>2026-05-02T10:37:38.284Z</time></trkpt><trkpt lat="44.2875991" lon="8.0971418"><ele>888.6666666666667</ele><time>2026-05-02T10:37:39.282Z</time></trkpt><trkpt lat="44.2876674" lon="8.0972218"><ele>887.5</ele><time>2026-05-02T10:37:40.28Z</time></trkpt><trkpt lat="44.287743" lon="8.0972987"><ele>886.3333333333334</ele><time>2026-05-02T10:37:41.278Z</time></trkpt><trkpt lat="44.2878225" lon="8.0973619"><ele>885.1666666666667</ele><time>2026-05-02T10:37:42.278Z</time></trkpt><trkpt lat="44.2878975" lon="8.0974142"><ele>884.0</ele><time>2026-05-02T10:37:43.281Z</time></trkpt><trkpt lat="44.2879623" lon="8.0974662"><ele>885.3333333333334</ele><time>2026-05-02T10:37:44.279Z</time></trkpt><trkpt lat="44.2880391" lon="8.0975108"><ele>886.6666666666667</ele><time>2026-05-02T10:37:45.282Z</time></trkpt><trkpt lat="44.2881207" lon="8.097541"><ele>888.0</ele><time>2026-05-02T10:37:46.277Z</time></trkpt><trkpt lat="44.2882037" lon="8.0975565"><ele>889.3333333333333</ele><time>2026-05-02T10:37:47.273Z</time></trkpt><trkpt lat="44.288289" lon="8.0975685"><ele>890.6666666666666</ele><time>2026-05-02T10:37:48.276Z</time></trkpt><trkpt lat="44.2883768" lon="8.0975945"><ele>892.0</ele><time>2026-05-02T10:37:49.29Z</time></trkpt><trkpt lat="44.2884576" lon="8.0976423"><ele>891.9999999999999</ele><time>2026-05-02T10:37:50.275Z</time></trkpt><trkpt lat="44.2885312" lon="8.0977134"><ele>892.0</ele><time>2026-05-02T10:37:51.287Z</time></trkpt><trkpt lat="44.288608" lon="8.0977943"><ele>892.0</ele><time>2026-05-02T10:37:52.279Z</time></trkpt><trkpt lat="44.2886766" lon="8.0978772"><ele>892.0</ele><time>2026-05-02T10:37:53.285Z</time></trkpt><trkpt lat="44.2887388" lon="8.0979459"><ele>891.9999999999999</ele><time>2026-05-02T10:37:54.273Z</time></trkpt><trkpt lat="44.2888007" lon="8.0979887"><ele>892.0</ele><time>2026-05-02T10:37:55.277Z</time></trkpt><trkpt lat="44.2888669" lon="8.0980155"><ele>892.1666666666666</ele><time>2026-05-02T10:37:56.278Z</time></trkpt><trkpt lat="44.2889382" lon="8.0980413"><ele>892.3333333333333</ele><time>2026-05-02T10:37:57.29Z</time></trkpt><trkpt lat="44.289017" lon="8.0980666"><ele>892.5</ele><time>2026-05-02T10:37:58.287Z</time></trkpt><trkpt lat="44.2890967" lon="8.0981014"><ele>892.6666666666667</ele><time>2026-05-02T10:37:59.286Z</time></trkpt><trkpt lat="44.2891805" lon="8.0981457"><ele>892.8333333333334</ele><time>2026-05-02T10:38:00.291Z</time></trkpt><trkpt lat="44.2892664" lon="8.0981986"><ele>893.0</ele><time>2026-05-02T10:38:01.286Z</time></trkpt><trkpt lat="44.2893453" lon="8.0982569"><ele>893.0000000000001</ele><time>2026-05-02T10:38:02.287Z</time></trkpt><trkpt lat="44.2894293" lon="8.0983144"><ele>893.0</ele><time>2026-05-02T10:38:03.284Z</time></trkpt><trkpt lat="44.2895158" lon="8.098372"><ele>893.0</ele><time>2026-05-02T10:38:04.284Z</time></trkpt><trkpt lat="44.2895984" lon="8.0984275"><ele>893.0</ele><time>2026-05-02T10:38:05.285Z</time></trkpt><trkpt lat="44.2896739" lon="8.098481"><ele>893.0000000000001</ele><time>2026-05-02T10:38:06.282Z</time></trkpt><trkpt lat="44.2897392" lon="8.0985352"><ele>893.0</ele><time>2026-05-02T10:38:07.281Z</time></trkpt><trkpt lat="44.2897984" lon="8.098585"><ele>891.5999999999999</ele><time>2026-05-02T10:38:08.279Z</time></trkpt><trkpt lat="44.2899036" lon="8.0986595"><ele>890.1999999999999</ele><time>2026-05-02T10:38:10.284Z</time></trkpt><trkpt lat="44.2899987" lon="8.0987247"><ele>888.8</ele><time>2026-05-02T10:38:12.281Z</time></trkpt><trkpt lat="44.2900899" lon="8.0988258"><ele>887.4</ele><time>2026-05-02T10:38:14.278Z</time></trkpt><trkpt lat="44.2901411" lon="8.0988774"><ele>886.0</ele><time>2026-05-02T10:38:15.283Z</time></trkpt><trkpt lat="44.2901967" lon="8.0989234"><ele>885.9999999999999</ele><time>2026-05-02T10:38:16.276Z</time></trkpt><trkpt lat="44.2902591" lon="8.0989588"><ele>886.0</ele><time>2026-05-02T10:38:17.282Z</time></trkpt><trkpt lat="44.2903218" lon="8.0989871"><ele>886.0</ele><time>2026-05-02T10:38:18.28Z</time></trkpt><trkpt lat="44.2904386" lon="8.0990293"><ele>886.0</ele><time>2026-05-02T10:38:20.29Z</time></trkpt><trkpt lat="44.2905524" lon="8.0990862"><ele>885.9999999999999</ele><time>2026-05-02T10:38:22.278Z</time></trkpt><trkpt lat="44.2906094" lon="8.0991254"><ele>886.0</ele><time>2026-05-02T10:38:23.278Z</time></trkpt><trkpt lat="44.2906677" lon="8.0991785"><ele>886.6666666666666</ele><time>2026-05-02T10:38:24.281Z</time></trkpt><trkpt lat="44.290723" lon="8.0992445"><ele>887.3333333333333</ele><time>2026-05-02T10:38:25.281Z</time></trkpt><trkpt lat="44.290772" lon="8.0993283"><ele>888.0</ele><time>2026-05-02T10:38:26.283Z</time></trkpt><trkpt lat="44.2908303" lon="8.0994242"><ele>888.6666666666667</ele><time>2026-05-02T10:38:27.286Z</time></trkpt><trkpt lat="44.2908925" lon="8.099512"><ele>889.3333333333334</ele><time>2026-05-02T10:38:28.286Z</time></trkpt><trkpt lat="44.2909608" lon="8.0995896"><ele>890.0</ele><time>2026-05-02T10:38:29.279Z</time></trkpt><trkpt lat="44.2910374" lon="8.099655"><ele>890.0000000000001</ele><time>2026-05-02T10:38:30.288Z</time></trkpt><trkpt lat="44.2911161" lon="8.0997259"><ele>890.0</ele><time>2026-05-02T10:38:31.278Z</time></trkpt><trkpt lat="44.2911859" lon="8.0998031"><ele>890.0</ele><time>2026-05-02T10:38:32.28Z</time></trkpt><trkpt lat="44.2912485" lon="8.0998713"><ele>890.0</ele><time>2026-05-02T10:38:33.281Z</time></trkpt><trkpt lat="44.2912966" lon="8.0999404"><ele>890.0000000000001</ele><time>2026-05-02T10:38:34.279Z</time></trkpt><trkpt lat="44.2913447" lon="8.1000163"><ele>890.0</ele><time>2026-05-02T10:38:35.295Z</time></trkpt><trkpt lat="44.2913863" lon="8.1000874"><ele>889.0</ele><time>2026-05-02T10:38:36.286Z</time></trkpt><trkpt lat="44.2914715" lon="8.1002106"><ele>888.0</ele><time>2026-05-02T10:38:38.282Z</time></trkpt><trkpt lat="44.2915724" lon="8.1003309"><ele>887.0</ele><time>2026-05-02T10:38:40.29Z</time></trkpt><trkpt lat="44.2916382" lon="8.1003892"><ele>886.0</ele><time>2026-05-02T10:38:41.289Z</time></trkpt><trkpt lat="44.2917104" lon="8.1004471"><ele>885.0</ele><time>2026-05-02T10:38:42.29Z</time></trkpt><trkpt lat="44.2917794" lon="8.1004856"><ele>885.0</ele><time>2026-05-02T10:38:43.281Z</time></trkpt><trkpt lat="44.2918523" lon="8.1005277"><ele>885.0</ele><time>2026-05-02T10:38:44.291Z</time></trkpt><trkpt lat="44.2919377" lon="8.1005709"><ele>885.0</ele><time>2026-05-02T10:38:45.277Z</time></trkpt><trkpt lat="44.292029" lon="8.1006059"><ele>885.0</ele><time>2026-05-02T10:38:46.276Z</time></trkpt><trkpt lat="44.2921235" lon="8.100632"><ele>885.0</ele><time>2026-05-02T10:38:47.283Z</time></trkpt><trkpt lat="44.2922138" lon="8.1006632"><ele>883.8</ele><time>2026-05-02T10:38:48.285Z</time></trkpt><trkpt lat="44.2923014" lon="8.1007172"><ele>882.6</ele><time>2026-05-02T10:38:49.287Z</time></trkpt><trkpt lat="44.2923879" lon="8.1007599"><ele>881.4000000000001</ele><time>2026-05-02T10:38:50.282Z</time></trkpt><trkpt lat="44.2924834" lon="8.1007961"><ele>880.2</ele><time>2026-05-02T10:38:51.294Z</time></trkpt><trkpt lat="44.2925862" lon="8.1008252"><ele>879.0</ele><time>2026-05-02T10:38:52.281Z</time></trkpt><trkpt lat="44.2926853" lon="8.1008517"><ele>879.0</ele><time>2026-05-02T10:38:53.285Z</time></trkpt><trkpt lat="44.2927701" lon="8.1008668"><ele>879.0</ele><time>2026-05-02T10:38:54.278Z</time></trkpt><trkpt lat="44.2928576" lon="8.1008844"><ele>879.0</ele><time>2026-05-02T10:38:55.279Z</time></trkpt><trkpt lat="44.2929415" lon="8.1009022"><ele>879.0</ele><time>2026-05-02T10:38:56.282Z</time></trkpt><trkpt lat="44.2930192" lon="8.1009407"><ele>879.0</ele><time>2026-05-02T10:38:57.278Z</time></trkpt><trkpt lat="44.2931026" lon="8.1010057"><ele>879.0</ele><time>2026-05-02T10:38:58.283Z</time></trkpt><trkpt lat="44.2931642" lon="8.101071"><ele>880.1666666666666</ele><time>2026-05-02T10:38:59.279Z</time></trkpt><trkpt lat="44.2932124" lon="8.1011358"><ele>881.3333333333333</ele><time>2026-05-02T10:39:00.281Z</time></trkpt><trkpt lat="44.2932653" lon="8.1012014"><ele>882.5</ele><time>2026-05-02T10:39:01.279Z</time></trkpt><trkpt lat="44.2933186" lon="8.1012651"><ele>883.6666666666666</ele><time>2026-05-02T10:39:02.277Z</time></trkpt><trkpt lat="44.2933857" lon="8.1013184"><ele>884.8333333333333</ele><time>2026-05-02T10:39:03.279Z</time></trkpt><trkpt lat="44.2934642" lon="8.1013384"><ele>886.0</ele><time>2026-05-02T10:39:04.283Z</time></trkpt><trkpt lat="44.2935524" lon="8.1013535"><ele>885.9999999999999</ele><time>2026-05-02T10:39:05.281Z</time></trkpt><trkpt lat="44.2936314" lon="8.1013639"><ele>886.0</ele><time>2026-05-02T10:39:06.28Z</time></trkpt><trkpt lat="44.2937122" lon="8.1013702"><ele>886.0</ele><time>2026-05-02T10:39:07.283Z</time></trkpt><trkpt lat="44.293807" lon="8.101376"><ele>886.0</ele><time>2026-05-02T10:39:08.284Z</time></trkpt><trkpt lat="44.293901" lon="8.1014135"><ele>885.9999999999999</ele><time>2026-05-02T10:39:09.281Z</time></trkpt><trkpt lat="44.293988" lon="8.1014712"><ele>886.0</ele><time>2026-05-02T10:39:10.283Z</time></trkpt><trkpt lat="44.2940708" lon="8.101526"><ele>886.9999999999999</ele><time>2026-05-02T10:39:11.278Z</time></trkpt><trkpt lat="44.2941506" lon="8.1015594"><ele>888.0</ele><time>2026-05-02T10:39:12.279Z</time></trkpt><trkpt lat="44.2942397" lon="8.1015998"><ele>889.0</ele><time>2026-05-02T10:39:13.274Z</time></trkpt><trkpt lat="44.294322" lon="8.1016299"><ele>890.0</ele><time>2026-05-02T10:39:14.288Z</time></trkpt><trkpt lat="44.2944057" lon="8.1016403"><ele>890.9999999999999</ele><time>2026-05-02T10:39:15.27Z</time></trkpt><trkpt lat="44.2944856" lon="8.101658"><ele>892.0</ele><time>2026-05-02T10:39:16.28Z</time></trkpt><trkpt lat="44.2945561" lon="8.1016857"><ele>891.3333333333333</ele><time>2026-05-02T10:39:17.275Z</time></trkpt><trkpt lat="44.2946208" lon="8.101732"><ele>890.6666666666666</ele><time>2026-05-02T10:39:18.286Z</time></trkpt><trkpt lat="44.2946951" lon="8.1017919"><ele>890.0</ele><time>2026-05-02T10:39:19.27Z</time></trkpt><trkpt lat="44.2947703" lon="8.1018596"><ele>889.3333333333333</ele><time>2026-05-02T10:39:20.277Z</time></trkpt><trkpt lat="44.2948476" lon="8.1019315"><ele>888.6666666666666</ele><time>2026-05-02T10:39:21.274Z</time></trkpt><trkpt lat="44.2949191" lon="8.1020193"><ele>888.0</ele><time>2026-05-02T10:39:22.288Z</time></trkpt><trkpt lat="44.2949953" lon="8.1021143"><ele>888.0</ele><time>2026-05-02T10:39:23.28Z</time></trkpt><trkpt lat="44.2950741" lon="8.1022077"><ele>888.0</ele><time>2026-05-02T10:39:24.281Z</time></trkpt><trkpt lat="44.2951365" lon="8.1023153"><ele>888.0</ele><time>2026-05-02T10:39:25.281Z</time></trkpt><trkpt lat="44.2952044" lon="8.102434"><ele>888.0</ele><time>2026-05-02T10:39:26.288Z</time></trkpt><trkpt lat="44.2952642" lon="8.1025536"><ele>888.0</ele><time>2026-05-02T10:39:27.288Z</time></trkpt><trkpt lat="44.2953116" lon="8.1026549"><ele>889.1666666666666</ele><time>2026-05-02T10:39:28.295Z</time></trkpt><trkpt lat="44.2953621" lon="8.1027424"><ele>890.3333333333333</ele><time>2026-05-02T10:39:29.289Z</time></trkpt><trkpt lat="44.2954144" lon="8.1028227"><ele>891.5</ele><time>2026-05-02T10:39:30.293Z</time></trkpt><trkpt lat="44.2954792" lon="8.102901"><ele>892.6666666666666</ele><time>2026-05-02T10:39:31.285Z</time></trkpt><trkpt lat="44.295556" lon="8.1029727"><ele>893.8333333333333</ele><time>2026-05-02T10:39:32.283Z</time></trkpt><trkpt lat="44.2956379" lon="8.1030485"><ele>895.0</ele><time>2026-05-02T10:39:33.288Z</time></trkpt><trkpt lat="44.2957131" lon="8.1031269"><ele>894.9999999999999</ele><time>2026-05-02T10:39:34.287Z</time></trkpt><trkpt lat="44.2957887" lon="8.103211"><ele>895.0</ele><time>2026-05-02T10:39:35.284Z</time></trkpt><trkpt lat="44.2958595" lon="8.1032901"><ele>895.0</ele><time>2026-05-02T10:39:36.281Z</time></trkpt><trkpt lat="44.2959191" lon="8.1033765"><ele>895.0</ele><time>2026-05-02T10:39:37.287Z</time></trkpt><trkpt lat="44.2959688" lon="8.1034509"><ele>894.9999999999999</ele><time>2026-05-02T10:39:38.288Z</time></trkpt><trkpt lat="44.2960001" lon="8.1035329"><ele>895.0</ele><time>2026-05-02T10:39:39.282Z</time></trkpt><trkpt lat="44.2960221" lon="8.1036298"><ele>892.4999999999999</ele><time>2026-05-02T10:39:40.284Z</time></trkpt><trkpt lat="44.2960566" lon="8.1037376"><ele>890.0</ele><time>2026-05-02T10:39:41.287Z</time></trkpt><trkpt lat="44.296094" lon="8.1038387"><ele>887.5</ele><time>2026-05-02T10:39:42.292Z</time></trkpt><trkpt lat="44.2961475" lon="8.1039314"><ele>885.0</ele><time>2026-05-02T10:39:43.289Z</time></trkpt><trkpt lat="44.2962093" lon="8.1040112"><ele>882.4999999999999</ele><time>2026-05-02T10:39:44.288Z</time></trkpt><trkpt lat="44.2962741" lon="8.1040796"><ele>880.0</ele><time>2026-05-02T10:39:45.286Z</time></trkpt><trkpt lat="44.2963421" lon="8.1041344"><ele>880.8333333333333</ele><time>2026-05-02T10:39:46.294Z</time></trkpt><trkpt lat="44.2964151" lon="8.1041831"><ele>881.6666666666666</ele><time>2026-05-02T10:39:47.286Z</time></trkpt><trkpt lat="44.2964842" lon="8.1042022"><ele>882.5</ele><time>2026-05-02T10:39:48.29Z</time></trkpt><trkpt lat="44.296568" lon="8.104203"><ele>883.3333333333333</ele><time>2026-05-02T10:39:49.282Z</time></trkpt><trkpt lat="44.2966527" lon="8.1041966"><ele>884.1666666666666</ele><time>2026-05-02T10:39:50.285Z</time></trkpt><trkpt lat="44.2967322" lon="8.1041883"><ele>885.0</ele><time>2026-05-02T10:39:51.287Z</time></trkpt><trkpt lat="44.2968098" lon="8.1041784"><ele>885.0</ele><time>2026-05-02T10:39:52.281Z</time></trkpt><trkpt lat="44.2968885" lon="8.1041571"><ele>885.0</ele><time>2026-05-02T10:39:53.286Z</time></trkpt><trkpt lat="44.296982" lon="8.1041827"><ele>885.0</ele><time>2026-05-02T10:39:55.29Z</time></trkpt><trkpt lat="44.2969749" lon="8.1042894"><ele>885.0</ele><time>2026-05-02T10:39:57.279Z</time></trkpt><trkpt lat="44.2969433" lon="8.1043685"><ele>885.0</ele><time>2026-05-02T10:39:58.283Z</time></trkpt><trkpt lat="44.2968944" lon="8.1044646"><ele>885.0</ele><time>2026-05-02T10:39:59.274Z</time></trkpt><trkpt lat="44.2968356" lon="8.104572"><ele>885.0</ele><time>2026-05-02T10:40:00.281Z</time></trkpt><trkpt lat="44.2967976" lon="8.1046874"><ele>885.0</ele><time>2026-05-02T10:40:01.278Z</time></trkpt><trkpt lat="44.2967792" lon="8.1048294"><ele>885.0</ele><time>2026-05-02T10:40:02.276Z</time></trkpt><trkpt lat="44.2967843" lon="8.1049746"><ele>885.0</ele><time>2026-05-02T10:40:03.272Z</time></trkpt><trkpt lat="44.2968015" lon="8.1051055"><ele>885.0</ele><time>2026-05-02T10:40:04.284Z</time></trkpt><trkpt lat="44.2968373" lon="8.1052054"><ele>882.8</ele><time>2026-05-02T10:40:05.281Z</time></trkpt><trkpt lat="44.2968906" lon="8.1052997"><ele>880.6</ele><time>2026-05-02T10:40:06.283Z</time></trkpt><trkpt lat="44.2969528" lon="8.1053822"><ele>878.4000000000001</ele><time>2026-05-02T10:40:07.282Z</time></trkpt><trkpt lat="44.2970117" lon="8.1054484"><ele>876.2</ele><time>2026-05-02T10:40:08.284Z</time></trkpt><trkpt lat="44.2970938" lon="8.1055398"><ele>874.0</ele><time>2026-05-02T10:40:10.289Z</time></trkpt><trkpt lat="44.2971666" lon="8.1056348"><ele>873.9999999999999</ele><time>2026-05-02T10:40:12.287Z</time></trkpt><trkpt lat="44.2972241" lon="8.1056975"><ele>874.0</ele><time>2026-05-02T10:40:13.289Z</time></trkpt><trkpt lat="44.2972944" lon="8.1057681"><ele>874.0</ele><time>2026-05-02T10:40:14.29Z</time></trkpt><trkpt lat="44.2973756" lon="8.1058389"><ele>874.0</ele><time>2026-05-02T10:40:15.285Z</time></trkpt><trkpt lat="44.2974564" lon="8.1059067"><ele>873.9999999999999</ele><time>2026-05-02T10:40:16.285Z</time></trkpt><trkpt lat="44.2975271" lon="8.1059626"><ele>874.0</ele><time>2026-05-02T10:40:17.282Z</time></trkpt><trkpt lat="44.2975885" lon="8.1060225"><ele>874.4999999999999</ele><time>2026-05-02T10:40:18.289Z</time></trkpt><trkpt lat="44.2976501" lon="8.106078"><ele>875.0</ele><time>2026-05-02T10:40:19.282Z</time></trkpt><trkpt lat="44.2977159" lon="8.1061307"><ele>875.5</ele><time>2026-05-02T10:40:20.289Z</time></trkpt><trkpt lat="44.2977885" lon="8.106172"><ele>876.0</ele><time>2026-05-02T10:40:21.287Z</time></trkpt><trkpt lat="44.2978642" lon="8.1062054"><ele>876.4999999999999</ele><time>2026-05-02T10:40:22.284Z</time></trkpt><trkpt lat="44.2979461" lon="8.1062215"><ele>877.0</ele><time>2026-05-02T10:40:23.278Z</time></trkpt><trkpt lat="44.2980289" lon="8.1062288"><ele>877.9999999999999</ele><time>2026-05-02T10:40:24.288Z</time></trkpt><trkpt lat="44.2981093" lon="8.1062274"><ele>879.0</ele><time>2026-05-02T10:40:25.276Z</time></trkpt><trkpt lat="44.2981886" lon="8.1062188"><ele>880.0</ele><time>2026-05-02T10:40:26.283Z</time></trkpt><trkpt lat="44.2982623" lon="8.1062114"><ele>881.0</ele><time>2026-05-02T10:40:27.283Z</time></trkpt><trkpt lat="44.298334" lon="8.1062112"><ele>881.9999999999999</ele><time>2026-05-02T10:40:28.285Z</time></trkpt><trkpt lat="44.2984544" lon="8.1062514"><ele>883.0</ele><time>2026-05-02T10:40:30.291Z</time></trkpt><trkpt lat="44.2985191" lon="8.1062852"><ele>882.9999999999999</ele><time>2026-05-02T10:40:31.281Z</time></trkpt><trkpt lat="44.2985996" lon="8.1063252"><ele>883.0</ele><time>2026-05-02T10:40:32.283Z</time></trkpt><trkpt lat="44.2986741" lon="8.1063495"><ele>883.0</ele><time>2026-05-02T10:40:33.286Z</time></trkpt><trkpt lat="44.2987481" lon="8.1063768"><ele>883.0</ele><time>2026-05-02T10:40:34.281Z</time></trkpt><trkpt lat="44.2988138" lon="8.1064132"><ele>882.9999999999999</ele><time>2026-05-02T10:40:35.284Z</time></trkpt><trkpt lat="44.2988856" lon="8.1064587"><ele>883.0</ele><time>2026-05-02T10:40:36.284Z</time></trkpt><trkpt lat="44.2989585" lon="8.1065254"><ele>880.1666666666666</ele><time>2026-05-02T10:40:37.282Z</time></trkpt><trkpt lat="44.2990288" lon="8.1066224"><ele>877.3333333333333</ele><time>2026-05-02T10:40:38.272Z</time></trkpt><trkpt lat="44.2990908" lon="8.1067087"><ele>874.5</ele><time>2026-05-02T10:40:39.281Z</time></trkpt><trkpt lat="44.2991461" lon="8.1067827"><ele>871.6666666666667</ele><time>2026-05-02T10:40:40.284Z</time></trkpt><trkpt lat="44.299212" lon="8.106834"><ele>868.8333333333334</ele><time>2026-05-02T10:40:41.275Z</time></trkpt><trkpt lat="44.2992847" lon="8.1068797"><ele>866.0</ele><time>2026-05-02T10:40:42.281Z</time></trkpt><trkpt lat="44.2993584" lon="8.1068974"><ele>866.0000000000001</ele><time>2026-05-02T10:40:43.277Z</time></trkpt><trkpt lat="44.2994326" lon="8.1069065"><ele>866.0</ele><time>2026-05-02T10:40:44.282Z</time></trkpt><trkpt lat="44.2994985" lon="8.1069085"><ele>866.0</ele><time>2026-05-02T10:40:45.268Z</time></trkpt><trkpt lat="44.2995664" lon="8.1069096"><ele>866.0</ele><time>2026-05-02T10:40:46.273Z</time></trkpt><trkpt lat="44.2996297" lon="8.1069031"><ele>866.0000000000001</ele><time>2026-05-02T10:40:47.271Z</time></trkpt><trkpt lat="44.2997317" lon="8.1069488"><ele>866.0</ele><time>2026-05-02T10:40:49.266Z</time></trkpt><trkpt lat="44.2998342" lon="8.107062"><ele>868.1666666666667</ele><time>2026-05-02T10:40:51.27Z</time></trkpt><trkpt lat="44.2999313" lon="8.107173"><ele>870.3333333333334</ele><time>2026-05-02T10:40:53.271Z</time></trkpt><trkpt lat="44.299992" lon="8.1072266"><ele>872.5</ele><time>2026-05-02T10:40:54.271Z</time></trkpt><trkpt lat="44.3000619" lon="8.1072596"><ele>874.6666666666667</ele><time>2026-05-02T10:40:55.276Z</time></trkpt><trkpt lat="44.300149" lon="8.1072802"><ele>876.8333333333334</ele><time>2026-05-02T10:40:56.268Z</time></trkpt><trkpt lat="44.3002313" lon="8.1073035"><ele>879.0</ele><time>2026-05-02T10:40:57.274Z</time></trkpt><trkpt lat="44.3003177" lon="8.1073308"><ele>879.0</ele><time>2026-05-02T10:40:58.267Z</time></trkpt><trkpt lat="44.300395" lon="8.1073602"><ele>879.0</ele><time>2026-05-02T10:40:59.276Z</time></trkpt><trkpt lat="44.300481" lon="8.1073902"><ele>879.0</ele><time>2026-05-02T10:41:00.269Z</time></trkpt><trkpt lat="44.3005629" lon="8.1074066"><ele>879.0</ele><time>2026-05-02T10:41:01.273Z</time></trkpt><trkpt lat="44.3006336" lon="8.1074263"><ele>879.0</ele><time>2026-05-02T10:41:02.272Z</time></trkpt><trkpt lat="44.3007519" lon="8.1074782"><ele>879.0</ele><time>2026-05-02T10:41:04.272Z</time></trkpt><trkpt lat="44.3008421" lon="8.107571"><ele>877.0</ele><time>2026-05-02T10:41:06.272Z</time></trkpt><trkpt lat="44.3009333" lon="8.1076718"><ele>875.0</ele><time>2026-05-02T10:41:08.28Z</time></trkpt><trkpt lat="44.3009889" lon="8.1077169"><ele>873.0</ele><time>2026-05-02T10:41:09.275Z</time></trkpt><trkpt lat="44.3010508" lon="8.107763"><ele>871.0</ele><time>2026-05-02T10:41:10.27Z</time></trkpt><trkpt lat="44.3011254" lon="8.1077987"><ele>869.0</ele><time>2026-05-02T10:41:11.272Z</time></trkpt><trkpt lat="44.301206" lon="8.107811"><ele>867.0</ele><time>2026-05-02T10:41:12.28Z</time></trkpt><trkpt lat="44.3012962" lon="8.1078011"><ele>867.0</ele><time>2026-05-02T10:41:13.279Z</time></trkpt><trkpt lat="44.3013855" lon="8.1077777"><ele>867.0</ele><time>2026-05-02T10:41:14.274Z</time></trkpt><trkpt lat="44.3014742" lon="8.1077406"><ele>867.0</ele><time>2026-05-02T10:41:15.273Z</time></trkpt><trkpt lat="44.3015624" lon="8.1076955"><ele>867.0</ele><time>2026-05-02T10:41:16.275Z</time></trkpt><trkpt lat="44.3016586" lon="8.1076511"><ele>867.0</ele><time>2026-05-02T10:41:17.278Z</time></trkpt><trkpt lat="44.301755" lon="8.1076111"><ele>867.0</ele><time>2026-05-02T10:41:18.268Z</time></trkpt><trkpt lat="44.3018472" lon="8.1075835"><ele>867.0</ele><time>2026-05-02T10:41:19.267Z</time></trkpt><trkpt lat="44.3019414" lon="8.1075692"><ele>867.0</ele><time>2026-05-02T10:41:20.263Z</time></trkpt><trkpt lat="44.3020186" lon="8.1075706"><ele>867.0</ele><time>2026-05-02T10:41:21.267Z</time></trkpt><trkpt lat="44.302095" lon="8.1075967"><ele>867.0</ele><time>2026-05-02T10:41:22.265Z</time></trkpt><trkpt lat="44.3021704" lon="8.1076401"><ele>867.0</ele><time>2026-05-02T10:41:23.274Z</time></trkpt><trkpt lat="44.3022359" lon="8.1076994"><ele>867.5</ele><time>2026-05-02T10:41:24.271Z</time></trkpt><trkpt lat="44.3022954" lon="8.107764"><ele>868.0</ele><time>2026-05-02T10:41:25.287Z</time></trkpt><trkpt lat="44.3023383" lon="8.1078525"><ele>868.5</ele><time>2026-05-02T10:41:26.278Z</time></trkpt><trkpt lat="44.302366" lon="8.1079598"><ele>869.0</ele><time>2026-05-02T10:41:27.283Z</time></trkpt><trkpt lat="44.302399" lon="8.1080794"><ele>869.5</ele><time>2026-05-02T10:41:28.283Z</time></trkpt><trkpt lat="44.3024371" lon="8.108201"><ele>870.0</ele><time>2026-05-02T10:41:29.29Z</time></trkpt><trkpt lat="44.3024918" lon="8.1083115"><ele>866.4</ele><time>2026-05-02T10:41:30.288Z</time></trkpt><trkpt lat="44.3025599" lon="8.108419"><ele>862.8</ele><time>2026-05-02T10:41:31.293Z</time></trkpt><trkpt lat="44.3026234" lon="8.1085162"><ele>859.2</ele><time>2026-05-02T10:41:32.29Z</time></trkpt><trkpt lat="44.3026807" lon="8.1086077"><ele>855.6</ele><time>2026-05-02T10:41:33.29Z</time></trkpt><trkpt lat="44.3027412" lon="8.1086846"><ele>852.0</ele><time>2026-05-02T10:41:34.286Z</time></trkpt><trkpt lat="44.3028101" lon="8.1087529"><ele>852.0</ele><time>2026-05-02T10:41:35.283Z</time></trkpt><trkpt lat="44.3028855" lon="8.1088098"><ele>852.0</ele><time>2026-05-02T10:41:36.282Z</time></trkpt><trkpt lat="44.3029596" lon="8.1088501"><ele>852.0</ele><time>2026-05-02T10:41:37.281Z</time></trkpt><trkpt lat="44.3030298" lon="8.1088681"><ele>852.0</ele><time>2026-05-02T10:41:38.287Z</time></trkpt><trkpt lat="44.3031046" lon="8.1088645"><ele>852.0</ele><time>2026-05-02T10:41:39.279Z</time></trkpt><trkpt lat="44.3032036" lon="8.1088462"><ele>852.0</ele><time>2026-05-02T10:41:40.283Z</time></trkpt><trkpt lat="44.303307" lon="8.1088004"><ele>853.4000000000001</ele><time>2026-05-02T10:41:41.282Z</time></trkpt><trkpt lat="44.3034123" lon="8.1087689"><ele>854.8000000000001</ele><time>2026-05-02T10:41:42.291Z</time></trkpt><trkpt lat="44.3035241" lon="8.1087333"><ele>856.2</ele><time>2026-05-02T10:41:43.274Z</time></trkpt><trkpt lat="44.3036213" lon="8.1086954"><ele>857.6</ele><time>2026-05-02T10:41:44.28Z</time></trkpt><trkpt lat="44.3037088" lon="8.1086693"><ele>859.0</ele><time>2026-05-02T10:41:45.276Z</time></trkpt><trkpt lat="44.3037883" lon="8.1086332"><ele>858.9999999999999</ele><time>2026-05-02T10:41:46.283Z</time></trkpt><trkpt lat="44.3038628" lon="8.1085803"><ele>859.0</ele><time>2026-05-02T10:41:47.277Z</time></trkpt><trkpt lat="44.303934" lon="8.108512"><ele>859.0</ele><time>2026-05-02T10:41:48.276Z</time></trkpt><trkpt lat="44.304008" lon="8.1084489"><ele>859.0</ele><time>2026-05-02T10:41:49.28Z</time></trkpt><trkpt lat="44.3040747" lon="8.1083992"><ele>858.9999999999999</ele><time>2026-05-02T10:41:50.279Z</time></trkpt><trkpt lat="44.3041454" lon="8.1083594"><ele>859.0</ele><time>2026-05-02T10:41:51.283Z</time></trkpt><trkpt lat="44.3042269" lon="8.1083454"><ele>858.1666666666666</ele><time>2026-05-02T10:41:52.273Z</time></trkpt><trkpt lat="44.3043078" lon="8.1083484"><ele>857.3333333333333</ele><time>2026-05-02T10:41:53.282Z</time></trkpt><trkpt lat="44.3043949" lon="8.1083526"><ele>856.5</ele><time>2026-05-02T10:41:54.277Z</time></trkpt><trkpt lat="44.3044762" lon="8.108347"><ele>855.6666666666667</ele><time>2026-05-02T10:41:55.276Z</time></trkpt><trkpt lat="44.3045581" lon="8.1083349"><ele>854.8333333333334</ele><time>2026-05-02T10:41:56.278Z</time></trkpt><trkpt lat="44.3046282" lon="8.1083056"><ele>854.0</ele><time>2026-05-02T10:41:57.276Z</time></trkpt><trkpt lat="44.3046928" lon="8.1082594"><ele>856.4000000000001</ele><time>2026-05-02T10:41:58.279Z</time></trkpt><trkpt lat="44.3047541" lon="8.1082124"><ele>858.8000000000001</ele><time>2026-05-02T10:41:59.284Z</time></trkpt><trkpt lat="44.3048106" lon="8.1081644"><ele>861.1999999999999</ele><time>2026-05-02T10:42:00.278Z</time></trkpt><trkpt lat="44.3049246" lon="8.1080808"><ele>863.5999999999999</ele><time>2026-05-02T10:42:02.283Z</time></trkpt><trkpt lat="44.3050437" lon="8.108016"><ele>866.0</ele><time>2026-05-02T10:42:04.274Z</time></trkpt><trkpt lat="44.3051155" lon="8.107993"><ele>865.9999999999999</ele><time>2026-05-02T10:42:05.275Z</time></trkpt><trkpt lat="44.305182" lon="8.1079572"><ele>866.0</ele><time>2026-05-02T10:42:06.274Z</time></trkpt><trkpt lat="44.3052642" lon="8.1079117"><ele>866.0</ele><time>2026-05-02T10:42:07.27Z</time></trkpt><trkpt lat="44.3053397" lon="8.1078713"><ele>866.0</ele><time>2026-05-02T10:42:08.278Z</time></trkpt><trkpt lat="44.3054064" lon="8.1078495"><ele>866.0</ele><time>2026-05-02T10:42:09.274Z</time></trkpt><trkpt lat="44.3054724" lon="8.1078497"><ele>865.9999999999999</ele><time>2026-05-02T10:42:10.275Z</time></trkpt><trkpt lat="44.3055417" lon="8.1078776"><ele>866.0</ele><time>2026-05-02T10:42:11.274Z</time></trkpt><trkpt lat="44.3056195" lon="8.1079144"><ele>865.1666666666667</ele><time>2026-05-02T10:42:12.271Z</time></trkpt><trkpt lat="44.3056934" lon="8.1079369"><ele>864.3333333333334</ele><time>2026-05-02T10:42:13.274Z</time></trkpt><trkpt lat="44.3058136" lon="8.1079529"><ele>863.5</ele><time>2026-05-02T10:42:15.275Z</time></trkpt><trkpt lat="44.3058836" lon="8.1079437"><ele>862.6666666666667</ele><time>2026-05-02T10:42:16.27Z</time></trkpt><trkpt lat="44.3059515" lon="8.10794"><ele>861.8333333333334</ele><time>2026-05-02T10:42:17.274Z</time></trkpt><trkpt lat="44.3060142" lon="8.1079282"><ele>861.0</ele><time>2026-05-02T10:42:18.275Z</time></trkpt><trkpt lat="44.3061378" lon="8.1079185"><ele>861.0</ele><time>2026-05-02T10:42:20.271Z</time></trkpt><trkpt lat="44.3062004" lon="8.1078931"><ele>860.9999999999999</ele><time>2026-05-02T10:42:21.273Z</time></trkpt><trkpt lat="44.3063266" lon="8.1079"><ele>860.9999999999999</ele><time>2026-05-02T10:42:23.274Z</time></trkpt><trkpt lat="44.3064178" lon="8.1079379"><ele>861.0</ele><time>2026-05-02T10:42:24.272Z</time></trkpt><trkpt lat="44.3064962" lon="8.1079848"><ele>861.0</ele><time>2026-05-02T10:42:25.279Z</time></trkpt><trkpt lat="44.3065666" lon="8.1080316"><ele>861.8333333333334</ele><time>2026-05-02T10:42:26.28Z</time></trkpt><trkpt lat="44.3066389" lon="8.108038"><ele>862.6666666666667</ele><time>2026-05-02T10:42:27.286Z</time></trkpt><trkpt lat="44.3067107" lon="8.1080216"><ele>863.5</ele><time>2026-05-02T10:42:28.277Z</time></trkpt><trkpt lat="44.3067845" lon="8.1080077"><ele>864.3333333333334</ele><time>2026-05-02T10:42:29.283Z</time></trkpt><trkpt lat="44.3068632" lon="8.1079863"><ele>865.1666666666667</ele><time>2026-05-02T10:42:30.273Z</time></trkpt><trkpt lat="44.3069436" lon="8.1079677"><ele>866.0</ele><time>2026-05-02T10:42:31.279Z</time></trkpt><trkpt lat="44.3070184" lon="8.1079445"><ele>866.0</ele><time>2026-05-02T10:42:32.282Z</time></trkpt><trkpt lat="44.3071201" lon="8.107876"><ele>865.9999999999999</ele><time>2026-05-02T10:42:34.271Z</time></trkpt><trkpt lat="44.3072344" lon="8.1078823"><ele>865.9999999999999</ele><time>2026-05-02T10:42:36.27Z</time></trkpt><trkpt lat="44.3072957" lon="8.1079064"><ele>866.0</ele><time>2026-05-02T10:42:37.269Z</time></trkpt><trkpt lat="44.3073705" lon="8.1079466"><ele>866.0</ele><time>2026-05-02T10:42:38.286Z</time></trkpt><trkpt lat="44.307439" lon="8.1080126"><ele>867.4</ele><time>2026-05-02T10:42:39.278Z</time></trkpt><trkpt lat="44.3075023" lon="8.1080623"><ele>868.8</ele><time>2026-05-02T10:42:40.278Z</time></trkpt><trkpt lat="44.3076091" lon="8.108111"><ele>870.1999999999999</ele><time>2026-05-02T10:42:42.275Z</time></trkpt><trkpt lat="44.3076724" lon="8.1081317"><ele>871.5999999999999</ele><time>2026-05-02T10:42:43.276Z</time></trkpt><trkpt lat="44.3077934" lon="8.108139"><ele>873.0</ele><time>2026-05-02T10:42:45.277Z</time></trkpt><trkpt lat="44.3079115" lon="8.1080908"><ele>873.0</ele><time>2026-05-02T10:42:47.273Z</time></trkpt><trkpt lat="44.3079749" lon="8.1080555"><ele>873.0</ele><time>2026-05-02T10:42:48.28Z</time></trkpt><trkpt lat="44.3080494" lon="8.1080277"><ele>873.0</ele><time>2026-05-02T10:42:49.272Z</time></trkpt><trkpt lat="44.3081385" lon="8.108"><ele>873.0</ele><time>2026-05-02T10:42:50.276Z</time></trkpt><trkpt lat="44.3082259" lon="8.1079558"><ele>873.0</ele><time>2026-05-02T10:42:51.274Z</time></trkpt><trkpt lat="44.3083133" lon="8.1079147"><ele>873.0</ele><time>2026-05-02T10:42:52.278Z</time></trkpt><trkpt lat="44.3084113" lon="8.1078799"><ele>873.6666666666666</ele><time>2026-05-02T10:42:53.274Z</time></trkpt><trkpt lat="44.3085013" lon="8.1078517"><ele>874.3333333333333</ele><time>2026-05-02T10:42:54.273Z</time></trkpt><trkpt lat="44.3085893" lon="8.107816"><ele>875.0</ele><time>2026-05-02T10:42:55.275Z</time></trkpt><trkpt lat="44.3086777" lon="8.1077865"><ele>875.6666666666666</ele><time>2026-05-02T10:42:56.276Z</time></trkpt><trkpt lat="44.3087458" lon="8.1077759"><ele>876.3333333333333</ele><time>2026-05-02T10:42:57.278Z</time></trkpt><trkpt lat="44.3088106" lon="8.1077847"><ele>877.0</ele><time>2026-05-02T10:42:58.279Z</time></trkpt><trkpt lat="44.3088733" lon="8.1078017"><ele>877.8333333333333</ele><time>2026-05-02T10:42:59.276Z</time></trkpt><trkpt lat="44.3090007" lon="8.1078475"><ele>878.6666666666666</ele><time>2026-05-02T10:43:01.274Z</time></trkpt><trkpt lat="44.3090644" lon="8.1078634"><ele>879.5</ele><time>2026-05-02T10:43:02.272Z</time></trkpt><trkpt lat="44.3091361" lon="8.107873"><ele>880.3333333333333</ele><time>2026-05-02T10:43:03.274Z</time></trkpt><trkpt lat="44.3092085" lon="8.1078839"><ele>881.1666666666666</ele><time>2026-05-02T10:43:04.274Z</time></trkpt><trkpt lat="44.3092906" lon="8.1078936"><ele>882.0</ele><time>2026-05-02T10:43:05.279Z</time></trkpt><trkpt lat="44.3093701" lon="8.1079091"><ele>882.0</ele><time>2026-05-02T10:43:06.273Z</time></trkpt><trkpt lat="44.3094424" lon="8.1079081"><ele>882.0</ele><time>2026-05-02T10:43:07.284Z</time></trkpt><trkpt lat="44.3095185" lon="8.1079"><ele>882.0</ele><time>2026-05-02T10:43:08.278Z</time></trkpt><trkpt lat="44.3095982" lon="8.107894"><ele>882.0</ele><time>2026-05-02T10:43:09.278Z</time></trkpt><trkpt lat="44.30968" lon="8.1078827"><ele>882.0</ele><time>2026-05-02T10:43:10.275Z</time></trkpt><trkpt lat="44.3097686" lon="8.1078688"><ele>882.0</ele><time>2026-05-02T10:43:11.283Z</time></trkpt><trkpt lat="44.3098449" lon="8.1078431"><ele>882.6666666666666</ele><time>2026-05-02T10:43:12.277Z</time></trkpt><trkpt lat="44.3099223" lon="8.1078232"><ele>883.3333333333333</ele><time>2026-05-02T10:43:13.276Z</time></trkpt><trkpt lat="44.3099972" lon="8.1078043"><ele>884.0</ele><time>2026-05-02T10:43:14.276Z</time></trkpt><trkpt lat="44.3100671" lon="8.1077982"><ele>884.6666666666666</ele><time>2026-05-02T10:43:15.279Z</time></trkpt><trkpt lat="44.3101336" lon="8.107806"><ele>885.3333333333333</ele><time>2026-05-02T10:43:16.281Z</time></trkpt><trkpt lat="44.3101971" lon="8.1078211"><ele>886.0</ele><time>2026-05-02T10:43:17.28Z</time></trkpt><trkpt lat="44.3103064" lon="8.1078275"><ele>885.9999999999999</ele><time>2026-05-02T10:43:19.276Z</time></trkpt><trkpt lat="44.3104164" lon="8.1078569"><ele>886.0</ele><time>2026-05-02T10:43:21.279Z</time></trkpt><trkpt lat="44.3104826" lon="8.1078642"><ele>886.0</ele><time>2026-05-02T10:43:22.279Z</time></trkpt><trkpt lat="44.3105548" lon="8.1078746"><ele>886.0</ele><time>2026-05-02T10:43:23.274Z</time></trkpt><trkpt lat="44.3106403" lon="8.1078956"><ele>885.9999999999999</ele><time>2026-05-02T10:43:24.278Z</time></trkpt><trkpt lat="44.3107198" lon="8.107917"><ele>886.0</ele><time>2026-05-02T10:43:25.274Z</time></trkpt><trkpt lat="44.310803" lon="8.1079381"><ele>887.3333333333333</ele><time>2026-05-02T10:43:26.273Z</time></trkpt><trkpt lat="44.3108876" lon="8.1079582"><ele>888.6666666666666</ele><time>2026-05-02T10:43:27.271Z</time></trkpt><trkpt lat="44.3109735" lon="8.1079842"><ele>890.0</ele><time>2026-05-02T10:43:28.274Z</time></trkpt><trkpt lat="44.3110536" lon="8.1080205"><ele>891.3333333333333</ele><time>2026-05-02T10:43:29.287Z</time></trkpt><trkpt lat="44.3111276" lon="8.1080395"><ele>892.6666666666666</ele><time>2026-05-02T10:43:30.282Z</time></trkpt><trkpt lat="44.3111924" lon="8.1080578"><ele>894.0</ele><time>2026-05-02T10:43:31.284Z</time></trkpt><trkpt lat="44.3112935" lon="8.1080182"><ele>894.0</ele><time>2026-05-02T10:43:33.282Z</time></trkpt><trkpt lat="44.3113728" lon="8.1079973"><ele>894.0</ele><time>2026-05-02T10:43:35.286Z</time></trkpt><trkpt lat="44.3114376" lon="8.1079924"><ele>894.0</ele><time>2026-05-02T10:43:37.28Z</time></trkpt><trkpt lat="44.3115021" lon="8.1080398"><ele>894.0</ele><time>2026-05-02T10:43:51.275Z</time></trkpt><trkpt lat="44.3116001" lon="8.1080775"><ele>894.0</ele><time>2026-05-02T10:43:53.268Z</time></trkpt><trkpt lat="44.3117051" lon="8.1081176"><ele>894.0</ele><time>2026-05-02T10:43:55.274Z</time></trkpt><trkpt lat="44.3118039" lon="8.1081382"><ele>893.5</ele><time>2026-05-02T10:43:57.279Z</time></trkpt><trkpt lat="44.3119152" lon="8.1081763"><ele>893.0</ele><time>2026-05-02T10:43:59.279Z</time></trkpt><trkpt lat="44.3119777" lon="8.1082095"><ele>892.5</ele><time>2026-05-02T10:44:00.277Z</time></trkpt><trkpt lat="44.312037" lon="8.1082469"><ele>892.0</ele><time>2026-05-02T10:44:01.275Z</time></trkpt><trkpt lat="44.3121007" lon="8.1082959"><ele>891.5</ele><time>2026-05-02T10:44:02.271Z</time></trkpt><trkpt lat="44.3121652" lon="8.108357"><ele>891.0</ele><time>2026-05-02T10:44:03.275Z</time></trkpt><trkpt lat="44.3122321" lon="8.1084131"><ele>890.7142857142858</ele><time>2026-05-02T10:44:04.272Z</time></trkpt><trkpt lat="44.3122916" lon="8.1084588"><ele>890.4285714285714</ele><time>2026-05-02T10:44:05.268Z</time></trkpt><trkpt lat="44.3123633" lon="8.1084966"><ele>890.1428571428571</ele><time>2026-05-02T10:44:06.276Z</time></trkpt><trkpt lat="44.3124336" lon="8.1085339"><ele>889.8571428571429</ele><time>2026-05-02T10:44:07.272Z</time></trkpt><trkpt lat="44.3125024" lon="8.1085778"><ele>889.5714285714286</ele><time>2026-05-02T10:44:08.272Z</time></trkpt><trkpt lat="44.3125765" lon="8.1086156"><ele>889.2857142857143</ele><time>2026-05-02T10:44:09.272Z</time></trkpt><trkpt lat="44.3126484" lon="8.1086435"><ele>889.0</ele><time>2026-05-02T10:44:10.273Z</time></trkpt><trkpt lat="44.3127167" lon="8.1086734"><ele>888.9999999999999</ele><time>2026-05-02T10:44:11.273Z</time></trkpt><trkpt lat="44.3127856" lon="8.1087315"><ele>889.0</ele><time>2026-05-02T10:44:12.275Z</time></trkpt><trkpt lat="44.3128612" lon="8.1087861"><ele>889.0</ele><time>2026-05-02T10:44:13.27Z</time></trkpt><trkpt lat="44.3129259" lon="8.1088309"><ele>889.0</ele><time>2026-05-02T10:44:14.266Z</time></trkpt><trkpt lat="44.31298" lon="8.1088827"><ele>888.9999999999999</ele><time>2026-05-02T10:44:15.267Z</time></trkpt><trkpt lat="44.3130376" lon="8.1089305"><ele>889.0</ele><time>2026-05-02T10:44:16.274Z</time></trkpt><trkpt lat="44.3131567" lon="8.1089964"><ele>890.2</ele><time>2026-05-02T10:44:18.273Z</time></trkpt><trkpt lat="44.3132663" lon="8.109022"><ele>891.4000000000001</ele><time>2026-05-02T10:44:20.273Z</time></trkpt><trkpt lat="44.3133748" lon="8.109047"><ele>892.6</ele><time>2026-05-02T10:44:22.274Z</time></trkpt><trkpt lat="44.3134929" lon="8.1091272"><ele>893.8</ele><time>2026-05-02T10:44:24.27Z</time></trkpt><trkpt lat="44.3135575" lon="8.1091751"><ele>895.0</ele><time>2026-05-02T10:44:25.268Z</time></trkpt><trkpt lat="44.313626" lon="8.1092255"><ele>894.9999999999999</ele><time>2026-05-02T10:44:26.27Z</time></trkpt><trkpt lat="44.313695" lon="8.1092754"><ele>895.0</ele><time>2026-05-02T10:44:27.267Z</time></trkpt><trkpt lat="44.3137798" lon="8.1093141"><ele>895.0</ele><time>2026-05-02T10:44:28.279Z</time></trkpt><trkpt lat="44.3138611" lon="8.1093512"><ele>895.0</ele><time>2026-05-02T10:44:29.274Z</time></trkpt><trkpt lat="44.313932" lon="8.1093881"><ele>894.9999999999999</ele><time>2026-05-02T10:44:30.275Z</time></trkpt><trkpt lat="44.3140087" lon="8.1094203"><ele>895.0</ele><time>2026-05-02T10:44:31.281Z</time></trkpt><trkpt lat="44.3140808" lon="8.1094471"><ele>894.8333333333333</ele><time>2026-05-02T10:44:32.276Z</time></trkpt><trkpt lat="44.3141551" lon="8.1094727"><ele>894.6666666666666</ele><time>2026-05-02T10:44:33.284Z</time></trkpt><trkpt lat="44.3142333" lon="8.1094999"><ele>894.5</ele><time>2026-05-02T10:44:34.274Z</time></trkpt><trkpt lat="44.3143178" lon="8.1095242"><ele>894.3333333333333</ele><time>2026-05-02T10:44:35.276Z</time></trkpt><trkpt lat="44.3144034" lon="8.1095497"><ele>894.1666666666666</ele><time>2026-05-02T10:44:36.274Z</time></trkpt><trkpt lat="44.3144837" lon="8.10958"><ele>894.0</ele><time>2026-05-02T10:44:37.273Z</time></trkpt><trkpt lat="44.3145555" lon="8.1096144"><ele>894.0</ele><time>2026-05-02T10:44:38.272Z</time></trkpt><trkpt lat="44.3146244" lon="8.1096457"><ele>894.0</ele><time>2026-05-02T10:44:39.274Z</time></trkpt><trkpt lat="44.3146942" lon="8.1096593"><ele>894.0</ele><time>2026-05-02T10:44:40.273Z</time></trkpt><trkpt lat="44.3148003" lon="8.1096954"><ele>894.0</ele><time>2026-05-02T10:44:42.278Z</time></trkpt><trkpt lat="44.3149087" lon="8.1097588"><ele>894.0</ele><time>2026-05-02T10:44:44.279Z</time></trkpt><trkpt lat="44.3149703" lon="8.1098056"><ele>894.0</ele><time>2026-05-02T10:44:45.277Z</time></trkpt><trkpt lat="44.315023" lon="8.1098675"><ele>896.5</ele><time>2026-05-02T10:44:46.277Z</time></trkpt><trkpt lat="44.3151031" lon="8.1100026"><ele>899.0</ele><time>2026-05-02T10:44:48.282Z</time></trkpt><trkpt lat="44.3151512" lon="8.1100736"><ele>901.5</ele><time>2026-05-02T10:44:49.281Z</time></trkpt><trkpt lat="44.315202" lon="8.1101374"><ele>904.0</ele><time>2026-05-02T10:44:50.281Z</time></trkpt><trkpt lat="44.31526" lon="8.1101865"><ele>906.5</ele><time>2026-05-02T10:44:51.279Z</time></trkpt><trkpt lat="44.3153203" lon="8.11023"><ele>909.0</ele><time>2026-05-02T10:44:52.28Z</time></trkpt><trkpt lat="44.3153938" lon="8.110268"><ele>909.0</ele><time>2026-05-02T10:44:53.281Z</time></trkpt><trkpt lat="44.3154603" lon="8.1103182"><ele>909.0</ele><time>2026-05-02T10:44:54.273Z</time></trkpt><trkpt lat="44.3155248" lon="8.1103756"><ele>909.0</ele><time>2026-05-02T10:44:55.276Z</time></trkpt><trkpt lat="44.3155946" lon="8.1104242"><ele>909.0</ele><time>2026-05-02T10:44:56.279Z</time></trkpt><trkpt lat="44.315653" lon="8.1104715"><ele>909.0</ele><time>2026-05-02T10:44:57.274Z</time></trkpt><trkpt lat="44.3157234" lon="8.1105058"><ele>909.0</ele><time>2026-05-02T10:44:58.274Z</time></trkpt><trkpt lat="44.3157953" lon="8.1105303"><ele>909.0</ele><time>2026-05-02T10:44:59.278Z</time></trkpt><trkpt lat="44.3158627" lon="8.1105465"><ele>913.2</ele><time>2026-05-02T10:45:00.256Z</time></trkpt><trkpt lat="44.3159277" lon="8.1105654"><ele>917.4000000000001</ele><time>2026-05-02T10:45:01.26Z</time></trkpt><trkpt lat="44.3160447" lon="8.1105921"><ele>921.6</ele><time>2026-05-02T10:45:03.25Z</time></trkpt><trkpt lat="44.3161656" lon="8.110646"><ele>925.8</ele><time>2026-05-02T10:45:05.257Z</time></trkpt><trkpt lat="44.3162347" lon="8.1106387"><ele>930.0</ele><time>2026-05-02T10:45:06.254Z</time></trkpt><trkpt lat="44.3163093" lon="8.1106225"><ele>930.0</ele><time>2026-05-02T10:45:07.257Z</time></trkpt><trkpt lat="44.3163872" lon="8.1106299"><ele>930.0</ele><time>2026-05-02T10:45:08.255Z</time></trkpt><trkpt lat="44.3164499" lon="8.1106424"><ele>930.0</ele><time>2026-05-02T10:45:09.254Z</time></trkpt><trkpt lat="44.316563" lon="8.1107304"><ele>930.0</ele><time>2026-05-02T10:45:11.25Z</time></trkpt><trkpt lat="44.3166191" lon="8.1107911"><ele>930.0</ele><time>2026-05-02T10:45:12.25Z</time></trkpt><trkpt lat="44.3166876" lon="8.1108613"><ele>930.0</ele><time>2026-05-02T10:45:13.251Z</time></trkpt><trkpt lat="44.3167565" lon="8.1109364"><ele>929.3333333333334</ele><time>2026-05-02T10:45:14.251Z</time></trkpt><trkpt lat="44.3168153" lon="8.1110185"><ele>928.6666666666667</ele><time>2026-05-02T10:45:15.255Z</time></trkpt><trkpt lat="44.3168681" lon="8.1111113"><ele>928.0</ele><time>2026-05-02T10:45:16.253Z</time></trkpt><trkpt lat="44.3169181" lon="8.1112062"><ele>927.3333333333334</ele><time>2026-05-02T10:45:17.256Z</time></trkpt><trkpt lat="44.3169495" lon="8.1113038"><ele>926.6666666666667</ele><time>2026-05-02T10:45:18.252Z</time></trkpt><trkpt lat="44.3169777" lon="8.1113988"><ele>926.0</ele><time>2026-05-02T10:45:19.26Z</time></trkpt><trkpt lat="44.3170249" lon="8.1115548"><ele>923.5999999999999</ele><time>2026-05-02T10:45:21.256Z</time></trkpt><trkpt lat="44.317082" lon="8.1117178"><ele>921.1999999999999</ele><time>2026-05-02T10:45:23.258Z</time></trkpt><trkpt lat="44.3171186" lon="8.1118068"><ele>918.8000000000001</ele><time>2026-05-02T10:45:24.259Z</time></trkpt><trkpt lat="44.317145" lon="8.1118994"><ele>916.4000000000001</ele><time>2026-05-02T10:45:25.261Z</time></trkpt><trkpt lat="44.317176" lon="8.1120326"><ele>914.0</ele><time>2026-05-02T10:45:27.268Z</time></trkpt><trkpt lat="44.3172016" lon="8.1121318"><ele>914.0000000000001</ele><time>2026-05-02T10:45:30.263Z</time></trkpt><trkpt lat="44.317212" lon="8.1122594"><ele>914.0</ele><time>2026-05-02T10:45:33.268Z</time></trkpt><trkpt lat="44.3172398" lon="8.112395"><ele>914.0</ele><time>2026-05-02T10:45:35.266Z</time></trkpt><trkpt lat="44.3172587" lon="8.112481"><ele>914.0</ele><time>2026-05-02T10:45:36.268Z</time></trkpt><trkpt lat="44.3172755" lon="8.1125679"><ele>914.0000000000001</ele><time>2026-05-02T10:45:37.263Z</time></trkpt><trkpt lat="44.317294" lon="8.1126528"><ele>914.0</ele><time>2026-05-02T10:45:38.261Z</time></trkpt><trkpt lat="44.317344" lon="8.1128209"><ele>915.6</ele><time>2026-05-02T10:45:40.261Z</time></trkpt><trkpt lat="44.3173783" lon="8.1129913"><ele>917.2</ele><time>2026-05-02T10:45:42.258Z</time></trkpt><trkpt lat="44.3174083" lon="8.1130918"><ele>918.8000000000001</ele><time>2026-05-02T10:45:43.258Z</time></trkpt><trkpt lat="44.3174377" lon="8.1132028"><ele>920.4000000000001</ele><time>2026-05-02T10:45:44.26Z</time></trkpt><trkpt lat="44.3174736" lon="8.1133237"><ele>922.0</ele><time>2026-05-02T10:45:45.256Z</time></trkpt><trkpt lat="44.3175088" lon="8.1134292"><ele>921.9999999999999</ele><time>2026-05-02T10:45:46.261Z</time></trkpt><trkpt lat="44.3175487" lon="8.1135348"><ele>922.0</ele><time>2026-05-02T10:45:47.256Z</time></trkpt><trkpt lat="44.3175815" lon="8.1136488"><ele>922.0</ele><time>2026-05-02T10:45:48.26Z</time></trkpt><trkpt lat="44.3176163" lon="8.1137558"><ele>922.0</ele><time>2026-05-02T10:45:49.263Z</time></trkpt><trkpt lat="44.3176474" lon="8.113852"><ele>921.9999999999999</ele><time>2026-05-02T10:45:50.261Z</time></trkpt><trkpt lat="44.3176905" lon="8.1139438"><ele>922.0</ele><time>2026-05-02T10:45:51.262Z</time></trkpt><trkpt lat="44.3177473" lon="8.1140343"><ele>920.8333333333333</ele><time>2026-05-02T10:45:52.262Z</time></trkpt><trkpt lat="44.3178013" lon="8.1141179"><ele>919.6666666666666</ele><time>2026-05-02T10:45:53.263Z</time></trkpt><trkpt lat="44.3178528" lon="8.1142015"><ele>918.5</ele><time>2026-05-02T10:45:54.261Z</time></trkpt><trkpt lat="44.3179223" lon="8.1143004"><ele>917.3333333333333</ele><time>2026-05-02T10:45:56.269Z</time></trkpt><trkpt lat="44.3179773" lon="8.1144134"><ele>916.1666666666666</ele><time>2026-05-02T10:45:58.266Z</time></trkpt><trkpt lat="44.3179969" lon="8.1145227"><ele>915.0</ele><time>2026-05-02T10:46:00.266Z</time></trkpt><trkpt lat="44.3179989" lon="8.1146328"><ele>915.0</ele><time>2026-05-02T10:46:03.267Z</time></trkpt><trkpt lat="44.318029" lon="8.1147355"><ele>915.0000000000001</ele><time>2026-05-02T10:46:21.28Z</time></trkpt><trkpt lat="44.3180753" lon="8.1148613"><ele>915.0</ele><time>2026-05-02T10:46:23.271Z</time></trkpt><trkpt lat="44.3181123" lon="8.1149382"><ele>915.0</ele><time>2026-05-02T10:46:24.27Z</time></trkpt><trkpt lat="44.3181516" lon="8.1150126"><ele>915.0000000000001</ele><time>2026-05-02T10:46:25.268Z</time></trkpt><trkpt lat="44.3181967" lon="8.1150886"><ele>915.0</ele><time>2026-05-02T10:46:26.268Z</time></trkpt><trkpt lat="44.3182396" lon="8.1151573"><ele>915.0</ele><time>2026-05-02T10:46:27.258Z</time></trkpt><trkpt lat="44.3183179" lon="8.1152581"><ele>915.6666666666666</ele><time>2026-05-02T10:46:29.269Z</time></trkpt><trkpt lat="44.318391" lon="8.1154148"><ele>916.3333333333333</ele><time>2026-05-02T10:46:31.267Z</time></trkpt><trkpt lat="44.3184385" lon="8.1155007"><ele>917.0</ele><time>2026-05-02T10:46:32.265Z</time></trkpt><trkpt lat="44.3184922" lon="8.1155753"><ele>917.6666666666666</ele><time>2026-05-02T10:46:33.263Z</time></trkpt><trkpt lat="44.3185553" lon="8.1156537"><ele>918.3333333333333</ele><time>2026-05-02T10:46:34.267Z</time></trkpt><trkpt lat="44.3186121" lon="8.1157196"><ele>919.0</ele><time>2026-05-02T10:46:35.271Z</time></trkpt><trkpt lat="44.3186683" lon="8.1157836"><ele>919.1666666666666</ele><time>2026-05-02T10:46:36.262Z</time></trkpt><trkpt lat="44.3187168" lon="8.1158723"><ele>919.3333333333333</ele><time>2026-05-02T10:46:37.27Z</time></trkpt><trkpt lat="44.3187724" lon="8.1159774"><ele>919.5</ele><time>2026-05-02T10:46:38.264Z</time></trkpt><trkpt lat="44.3188219" lon="8.1160787"><ele>919.6666666666667</ele><time>2026-05-02T10:46:39.266Z</time></trkpt><trkpt lat="44.3188591" lon="8.1161797"><ele>919.8333333333334</ele><time>2026-05-02T10:46:40.264Z</time></trkpt><trkpt lat="44.3188781" lon="8.116293"><ele>920.0</ele><time>2026-05-02T10:46:41.265Z</time></trkpt><trkpt lat="44.318882" lon="8.1164116"><ele>920.0000000000001</ele><time>2026-05-02T10:46:42.258Z</time></trkpt><trkpt lat="44.3188683" lon="8.1165158"><ele>920.0</ele><time>2026-05-02T10:46:43.261Z</time></trkpt><trkpt lat="44.3188445" lon="8.1166142"><ele>920.0</ele><time>2026-05-02T10:46:44.257Z</time></trkpt><trkpt lat="44.3188121" lon="8.1167074"><ele>920.0</ele><time>2026-05-02T10:46:45.261Z</time></trkpt><trkpt lat="44.3187765" lon="8.1168"><ele>920.0000000000001</ele><time>2026-05-02T10:46:46.262Z</time></trkpt><trkpt lat="44.3187401" lon="8.1169092"><ele>920.0</ele><time>2026-05-02T10:46:47.261Z</time></trkpt><trkpt lat="44.3187205" lon="8.1170217"><ele>920.0000000000001</ele><time>2026-05-02T10:46:48.271Z</time></trkpt><trkpt lat="44.3187066" lon="8.1171416"><ele>920.0</ele><time>2026-05-02T10:46:49.264Z</time></trkpt><trkpt lat="44.3186948" lon="8.1172499"><ele>920.0</ele><time>2026-05-02T10:46:50.269Z</time></trkpt><trkpt lat="44.3186985" lon="8.117345"><ele>920.0</ele><time>2026-05-02T10:46:51.268Z</time></trkpt><trkpt lat="44.3187052" lon="8.1175149"><ele>920.0000000000001</ele><time>2026-05-02T10:46:53.266Z</time></trkpt><trkpt lat="44.318721" lon="8.1176179"><ele>920.0</ele><time>2026-05-02T10:46:54.265Z</time></trkpt><trkpt lat="44.318733" lon="8.1177264"><ele>920.0000000000001</ele><time>2026-05-02T10:46:55.269Z</time></trkpt><trkpt lat="44.3187374" lon="8.1178345"><ele>920.0</ele><time>2026-05-02T10:46:56.269Z</time></trkpt><trkpt lat="44.3187426" lon="8.1179374"><ele>920.0</ele><time>2026-05-02T10:46:57.273Z</time></trkpt><trkpt lat="44.3187518" lon="8.118047"><ele>920.0</ele><time>2026-05-02T10:46:58.27Z</time></trkpt><trkpt lat="44.3187601" lon="8.1181397"><ele>920.0000000000001</ele><time>2026-05-02T10:46:59.272Z</time></trkpt><trkpt lat="44.3188024" lon="8.118272"><ele>920.0</ele><time>2026-05-02T10:47:01.268Z</time></trkpt><trkpt lat="44.3188813" lon="8.1184227"><ele>921.8333333333334</ele><time>2026-05-02T10:47:03.262Z</time></trkpt><trkpt lat="44.3189332" lon="8.1185074"><ele>923.6666666666667</ele><time>2026-05-02T10:47:04.267Z</time></trkpt><trkpt lat="44.3189927" lon="8.1185857"><ele>925.5</ele><time>2026-05-02T10:47:05.265Z</time></trkpt><trkpt lat="44.3190446" lon="8.1186677"><ele>927.3333333333333</ele><time>2026-05-02T10:47:06.27Z</time></trkpt><trkpt lat="44.3190863" lon="8.1187528"><ele>929.1666666666666</ele><time>2026-05-02T10:47:07.267Z</time></trkpt><trkpt lat="44.3191283" lon="8.118843"><ele>931.0</ele><time>2026-05-02T10:47:08.257Z</time></trkpt><trkpt lat="44.3191675" lon="8.1189414"><ele>930.9999999999999</ele><time>2026-05-02T10:47:09.256Z</time></trkpt><trkpt lat="44.319201" lon="8.119049"><ele>931.0</ele><time>2026-05-02T10:47:10.259Z</time></trkpt><trkpt lat="44.3192265" lon="8.1191614"><ele>931.0</ele><time>2026-05-02T10:47:11.261Z</time></trkpt><trkpt lat="44.3192441" lon="8.1192747"><ele>931.0</ele><time>2026-05-02T10:47:12.26Z</time></trkpt><trkpt lat="44.3192546" lon="8.1193836"><ele>930.9999999999999</ele><time>2026-05-02T10:47:13.263Z</time></trkpt><trkpt lat="44.3192579" lon="8.1194745"><ele>931.0</ele><time>2026-05-02T10:47:14.263Z</time></trkpt><trkpt lat="44.3192883" lon="8.1196246"><ele>931.5999999999999</ele><time>2026-05-02T10:47:16.26Z</time></trkpt><trkpt lat="44.3193066" lon="8.1197149"><ele>932.1999999999999</ele><time>2026-05-02T10:47:17.261Z</time></trkpt><trkpt lat="44.3193274" lon="8.1198104"><ele>932.8000000000001</ele><time>2026-05-02T10:47:18.26Z</time></trkpt><trkpt lat="44.3193494" lon="8.1199735"><ele>933.4000000000001</ele><time>2026-05-02T10:47:20.256Z</time></trkpt><trkpt lat="44.3193424" lon="8.1201078"><ele>934.0</ele><time>2026-05-02T10:47:22.259Z</time></trkpt><trkpt lat="44.3193272" lon="8.1202563"><ele>934.3333333333333</ele><time>2026-05-02T10:47:24.257Z</time></trkpt><trkpt lat="44.3193205" lon="8.1204015"><ele>934.6666666666666</ele><time>2026-05-02T10:47:26.262Z</time></trkpt><trkpt lat="44.3193399" lon="8.120497"><ele>935.0</ele><time>2026-05-02T10:47:27.267Z</time></trkpt><trkpt lat="44.3193733" lon="8.1205984"><ele>935.3333333333333</ele><time>2026-05-02T10:47:28.261Z</time></trkpt><trkpt lat="44.3194059" lon="8.1206841"><ele>935.6666666666666</ele><time>2026-05-02T10:47:29.267Z</time></trkpt><trkpt lat="44.3194594" lon="8.1208113"><ele>936.0</ele><time>2026-05-02T10:47:31.266Z</time></trkpt><trkpt lat="44.3195243" lon="8.120903"><ele>934.5</ele><time>2026-05-02T10:47:33.263Z</time></trkpt><trkpt lat="44.3196375" lon="8.1209728"><ele>933.0</ele><time>2026-05-02T10:47:35.261Z</time></trkpt><trkpt lat="44.3196925" lon="8.1210205"><ele>931.5</ele><time>2026-05-02T10:47:36.259Z</time></trkpt><trkpt lat="44.3197492" lon="8.1210824"><ele>930.0</ele><time>2026-05-02T10:47:37.262Z</time></trkpt><trkpt lat="44.3198122" lon="8.1211426"><ele>928.5</ele><time>2026-05-02T10:47:38.253Z</time></trkpt><trkpt lat="44.3198729" lon="8.1212169"><ele>927.0</ele><time>2026-05-02T10:47:39.255Z</time></trkpt><trkpt lat="44.3199237" lon="8.1212956"><ele>928.8333333333334</ele><time>2026-05-02T10:47:40.253Z</time></trkpt><trkpt lat="44.3199762" lon="8.1213766"><ele>930.6666666666667</ele><time>2026-05-02T10:47:41.251Z</time></trkpt><trkpt lat="44.3200324" lon="8.1214618"><ele>932.5</ele><time>2026-05-02T10:47:42.25Z</time></trkpt><trkpt lat="44.3200944" lon="8.1215473"><ele>934.3333333333334</ele><time>2026-05-02T10:47:43.255Z</time></trkpt><trkpt lat="44.320159" lon="8.1216327"><ele>936.1666666666667</ele><time>2026-05-02T10:47:44.25Z</time></trkpt><trkpt lat="44.32021" lon="8.1217322"><ele>938.0</ele><time>2026-05-02T10:47:45.251Z</time></trkpt><trkpt lat="44.320261" lon="8.1218231"><ele>938.0</ele><time>2026-05-02T10:47:46.251Z</time></trkpt><trkpt lat="44.3203254" lon="8.1219425"><ele>938.0</ele><time>2026-05-02T10:47:48.254Z</time></trkpt><trkpt lat="44.3203931" lon="8.1220919"><ele>938.0</ele><time>2026-05-02T10:47:50.258Z</time></trkpt><trkpt lat="44.3204404" lon="8.1221687"><ele>938.0</ele><time>2026-05-02T10:47:51.258Z</time></trkpt><trkpt lat="44.3204987" lon="8.1222505"><ele>938.0</ele><time>2026-05-02T10:47:52.256Z</time></trkpt><trkpt lat="44.3205565" lon="8.1223424"><ele>938.8333333333334</ele><time>2026-05-02T10:47:53.256Z</time></trkpt><trkpt lat="44.3206229" lon="8.1224166"><ele>939.6666666666667</ele><time>2026-05-02T10:47:54.262Z</time></trkpt><trkpt lat="44.3206942" lon="8.1225035"><ele>940.5</ele><time>2026-05-02T10:47:55.26Z</time></trkpt><trkpt lat="44.3207625" lon="8.1225874"><ele>941.3333333333333</ele><time>2026-05-02T10:47:56.266Z</time></trkpt><trkpt lat="44.320831" lon="8.1226671"><ele>942.1666666666666</ele><time>2026-05-02T10:47:57.258Z</time></trkpt><trkpt lat="44.3208819" lon="8.1227547"><ele>943.0</ele><time>2026-05-02T10:47:58.258Z</time></trkpt><trkpt lat="44.3209267" lon="8.1228547"><ele>943.0</ele><time>2026-05-02T10:47:59.261Z</time></trkpt><trkpt lat="44.3209608" lon="8.1229497"><ele>943.0</ele><time>2026-05-02T10:48:00.258Z</time></trkpt><trkpt lat="44.3209882" lon="8.1230457"><ele>943.0</ele><time>2026-05-02T10:48:01.263Z</time></trkpt><trkpt lat="44.3210436" lon="8.1231885"><ele>943.0</ele><time>2026-05-02T10:48:03.26Z</time></trkpt><trkpt lat="44.3211117" lon="8.1232819"><ele>943.0</ele><time>2026-05-02T10:48:05.262Z</time></trkpt><trkpt lat="44.3211946" lon="8.1233366"><ele>941.1666666666666</ele><time>2026-05-02T10:48:07.261Z</time></trkpt><trkpt lat="44.3212701" lon="8.1233983"><ele>939.3333333333333</ele><time>2026-05-02T10:48:09.258Z</time></trkpt><trkpt lat="44.3213348" lon="8.1234898"><ele>937.5</ele><time>2026-05-02T10:48:11.257Z</time></trkpt><trkpt lat="44.3213709" lon="8.1235852"><ele>935.6666666666667</ele><time>2026-05-02T10:48:13.256Z</time></trkpt><trkpt lat="44.3214051" lon="8.123687"><ele>933.8333333333334</ele><time>2026-05-02T10:48:15.256Z</time></trkpt><trkpt lat="44.3214316" lon="8.1238311"><ele>932.0</ele><time>2026-05-02T10:48:17.254Z</time></trkpt><trkpt lat="44.321447" lon="8.1239188"><ele>931.6666666666667</ele><time>2026-05-02T10:48:18.263Z</time></trkpt><trkpt lat="44.3214655" lon="8.124021"><ele>931.3333333333334</ele><time>2026-05-02T10:48:19.259Z</time></trkpt><trkpt lat="44.3214826" lon="8.1241345"><ele>931.0</ele><time>2026-05-02T10:48:20.261Z</time></trkpt><trkpt lat="44.3215014" lon="8.1242571"><ele>930.6666666666667</ele><time>2026-05-02T10:48:21.262Z</time></trkpt><trkpt lat="44.3215197" lon="8.124384"><ele>930.3333333333334</ele><time>2026-05-02T10:48:22.261Z</time></trkpt><trkpt lat="44.3215357" lon="8.1245012"><ele>930.0</ele><time>2026-05-02T10:48:23.26Z</time></trkpt><trkpt lat="44.321554" lon="8.1246073"><ele>928.8</ele><time>2026-05-02T10:48:24.261Z</time></trkpt><trkpt lat="44.321568" lon="8.1246983"><ele>927.6</ele><time>2026-05-02T10:48:25.255Z</time></trkpt><trkpt lat="44.3216006" lon="8.1248456"><ele>926.4000000000001</ele><time>2026-05-02T10:48:27.258Z</time></trkpt><trkpt lat="44.32167" lon="8.1249365"><ele>925.2</ele><time>2026-05-02T10:48:29.264Z</time></trkpt><trkpt lat="44.3217558" lon="8.1250265"><ele>924.0</ele><time>2026-05-02T10:48:31.266Z</time></trkpt><trkpt lat="44.3218139" lon="8.125097"><ele>924.0</ele><time>2026-05-02T10:48:32.253Z</time></trkpt><trkpt lat="44.3218575" lon="8.1251813"><ele>924.0</ele><time>2026-05-02T10:48:33.259Z</time></trkpt><trkpt lat="44.321897" lon="8.1252693"><ele>924.0</ele><time>2026-05-02T10:48:34.254Z</time></trkpt><trkpt lat="44.3219377" lon="8.1253577"><ele>924.0</ele><time>2026-05-02T10:48:35.258Z</time></trkpt><trkpt lat="44.3219868" lon="8.1254392"><ele>924.0</ele><time>2026-05-02T10:48:36.256Z</time></trkpt><trkpt lat="44.3220355" lon="8.1255263"><ele>924.0</ele><time>2026-05-02T10:48:37.255Z</time></trkpt><trkpt lat="44.3220986" lon="8.1256196"><ele>924.0</ele><time>2026-05-02T10:48:38.253Z</time></trkpt><trkpt lat="44.3221616" lon="8.1257022"><ele>924.0</ele><time>2026-05-02T10:48:39.263Z</time></trkpt><trkpt lat="44.3222169" lon="8.1257773"><ele>924.0</ele><time>2026-05-02T10:48:40.254Z</time></trkpt><trkpt lat="44.3222754" lon="8.1258498"><ele>924.0</ele><time>2026-05-02T10:48:41.257Z</time></trkpt><trkpt lat="44.3223425" lon="8.1259089"><ele>924.0</ele><time>2026-05-02T10:48:42.251Z</time></trkpt><trkpt lat="44.3223998" lon="8.1259616"><ele>924.0</ele><time>2026-05-02T10:48:43.251Z</time></trkpt><trkpt lat="44.3224939" lon="8.1260464"><ele>924.2</ele><time>2026-05-02T10:48:45.254Z</time></trkpt><trkpt lat="44.3225955" lon="8.1261504"><ele>924.4000000000001</ele><time>2026-05-02T10:48:47.258Z</time></trkpt><trkpt lat="44.3226448" lon="8.1262195"><ele>924.6</ele><time>2026-05-02T10:48:48.255Z</time></trkpt><trkpt lat="44.322725" lon="8.1263494"><ele>924.8</ele><time>2026-05-02T10:48:50.258Z</time></trkpt><trkpt lat="44.3227504" lon="8.1264517"><ele>925.0</ele><time>2026-05-02T10:48:52.269Z</time></trkpt><trkpt lat="44.322791" lon="8.126584"><ele>927.1428571428571</ele><time>2026-05-02T10:49:05.258Z</time></trkpt><trkpt lat="44.3228165" lon="8.1266747"><ele>929.2857142857142</ele><time>2026-05-02T10:49:06.255Z</time></trkpt><trkpt lat="44.3228523" lon="8.1267695"><ele>931.4285714285713</ele><time>2026-05-02T10:49:07.246Z</time></trkpt><trkpt lat="44.3229096" lon="8.1268655"><ele>933.5714285714286</ele><time>2026-05-02T10:49:08.251Z</time></trkpt><trkpt lat="44.3229498" lon="8.1269442"><ele>935.7142857142856</ele><time>2026-05-02T10:49:09.251Z</time></trkpt><trkpt lat="44.3229722" lon="8.1270389"><ele>937.8571428571428</ele><time>2026-05-02T10:49:10.257Z</time></trkpt><trkpt lat="44.3229933" lon="8.1271343"><ele>940.0</ele><time>2026-05-02T10:49:11.248Z</time></trkpt><trkpt lat="44.3230057" lon="8.1272636"><ele>941.1666666666666</ele><time>2026-05-02T10:49:12.263Z</time></trkpt><trkpt lat="44.3230236" lon="8.1273994"><ele>942.3333333333333</ele><time>2026-05-02T10:49:13.261Z</time></trkpt><trkpt lat="44.3230332" lon="8.1275286"><ele>943.5</ele><time>2026-05-02T10:49:14.261Z</time></trkpt><trkpt lat="44.3230449" lon="8.127645"><ele>944.6666666666667</ele><time>2026-05-02T10:49:15.258Z</time></trkpt><trkpt lat="44.3230633" lon="8.1277338"><ele>945.8333333333334</ele><time>2026-05-02T10:49:16.259Z</time></trkpt><trkpt lat="44.323096" lon="8.127824"><ele>947.0</ele><time>2026-05-02T10:49:17.257Z</time></trkpt><trkpt lat="44.3231457" lon="8.1278921"><ele>945.5000000000001</ele><time>2026-05-02T10:49:18.257Z</time></trkpt><trkpt lat="44.3231959" lon="8.127959"><ele>944.0</ele><time>2026-05-02T10:49:19.26Z</time></trkpt><trkpt lat="44.3232572" lon="8.1280271"><ele>942.5</ele><time>2026-05-02T10:49:20.267Z</time></trkpt><trkpt lat="44.3233122" lon="8.1281056"><ele>941.0</ele><time>2026-05-02T10:49:21.261Z</time></trkpt><trkpt lat="44.3233737" lon="8.1281799"><ele>939.5000000000001</ele><time>2026-05-02T10:49:22.266Z</time></trkpt><trkpt lat="44.3234372" lon="8.1282528"><ele>938.0</ele><time>2026-05-02T10:49:23.263Z</time></trkpt><trkpt lat="44.3235001" lon="8.1283199"><ele>938.0000000000001</ele><time>2026-05-02T10:49:24.265Z</time></trkpt><trkpt lat="44.3235572" lon="8.1283842"><ele>938.0</ele><time>2026-05-02T10:49:25.261Z</time></trkpt><trkpt lat="44.3236059" lon="8.1284607"><ele>938.0</ele><time>2026-05-02T10:49:26.261Z</time></trkpt><trkpt lat="44.3236436" lon="8.1285486"><ele>938.0</ele><time>2026-05-02T10:49:27.257Z</time></trkpt><trkpt lat="44.3236808" lon="8.1286508"><ele>938.0000000000001</ele><time>2026-05-02T10:49:28.258Z</time></trkpt><trkpt lat="44.3237149" lon="8.128761"><ele>938.0</ele><time>2026-05-02T10:49:29.265Z</time></trkpt><trkpt lat="44.3237341" lon="8.1288787"><ele>938.0000000000001</ele><time>2026-05-02T10:49:30.254Z</time></trkpt><trkpt lat="44.3237501" lon="8.1290033"><ele>938.0</ele><time>2026-05-02T10:49:31.257Z</time></trkpt><trkpt lat="44.323763" lon="8.1291142"><ele>938.0</ele><time>2026-05-02T10:49:32.253Z</time></trkpt><trkpt lat="44.3237774" lon="8.1292001"><ele>938.0</ele><time>2026-05-02T10:49:33.254Z</time></trkpt><trkpt lat="44.3238196" lon="8.1293363"><ele>938.0000000000001</ele><time>2026-05-02T10:49:35.248Z</time></trkpt><trkpt lat="44.3238561" lon="8.1294526"><ele>938.0</ele><time>2026-05-02T10:49:37.257Z</time></trkpt><trkpt lat="44.3238914" lon="8.1295841"><ele>937.4</ele><time>2026-05-02T10:49:39.257Z</time></trkpt><trkpt lat="44.3239212" lon="8.1297678"><ele>936.8</ele><time>2026-05-02T10:49:41.263Z</time></trkpt><trkpt lat="44.3239402" lon="8.1298831"><ele>936.2</ele><time>2026-05-02T10:49:42.265Z</time></trkpt><trkpt lat="44.3239563" lon="8.129986"><ele>935.6</ele><time>2026-05-02T10:49:43.262Z</time></trkpt><trkpt lat="44.3239734" lon="8.1301329"><ele>935.0</ele><time>2026-05-02T10:49:45.26Z</time></trkpt><trkpt lat="44.3239905" lon="8.1302374"><ele>935.0</ele><time>2026-05-02T10:49:47.257Z</time></trkpt><trkpt lat="44.3240325" lon="8.1303135"><ele>935.0</ele><time>2026-05-02T10:49:49.26Z</time></trkpt><trkpt lat="44.324098" lon="8.130401"><ele>935.0</ele><time>2026-05-02T10:49:51.26Z</time></trkpt><trkpt lat="44.3241684" lon="8.1305106"><ele>935.0</ele><time>2026-05-02T10:49:53.262Z</time></trkpt><trkpt lat="44.3242366" lon="8.1306105"><ele>935.0</ele><time>2026-05-02T10:49:55.256Z</time></trkpt><trkpt lat="44.3243083" lon="8.130681"><ele>932.8</ele><time>2026-05-02T10:49:57.262Z</time></trkpt><trkpt lat="44.3244279" lon="8.130734"><ele>930.6</ele><time>2026-05-02T10:49:59.264Z</time></trkpt><trkpt lat="44.3244834" lon="8.1307829"><ele>928.4000000000001</ele><time>2026-05-02T10:50:00.263Z</time></trkpt><trkpt lat="44.3245528" lon="8.1308965"><ele>926.2</ele><time>2026-05-02T10:50:02.261Z</time></trkpt><trkpt lat="44.3246015" lon="8.1310175"><ele>924.0</ele><time>2026-05-02T10:50:04.26Z</time></trkpt><trkpt lat="44.3246436" lon="8.1311511"><ele>924.0</ele><time>2026-05-02T10:50:06.263Z</time></trkpt><trkpt lat="44.3246813" lon="8.1313023"><ele>924.0</ele><time>2026-05-02T10:50:08.264Z</time></trkpt><trkpt lat="44.3246781" lon="8.1314253"><ele>924.0</ele><time>2026-05-02T10:50:10.26Z</time></trkpt><trkpt lat="44.3246496" lon="8.1315398"><ele>924.0</ele><time>2026-05-02T10:50:12.265Z</time></trkpt><trkpt lat="44.3246213" lon="8.1316387"><ele>924.0</ele><time>2026-05-02T10:50:14.263Z</time></trkpt><trkpt lat="44.3245993" lon="8.131727"><ele>924.0</ele><time>2026-05-02T10:50:21.271Z</time></trkpt><trkpt lat="44.3245374" lon="8.1316488"><ele>924.0</ele><time>2026-05-02T10:53:32.284Z</time></trkpt><trkpt lat="44.3244673" lon="8.131518"><ele>924.0</ele><time>2026-05-02T10:53:34.28Z</time></trkpt><trkpt lat="44.3244281" lon="8.1314384"><ele>924.0</ele><time>2026-05-02T10:53:35.282Z</time></trkpt><trkpt lat="44.3243801" lon="8.1313666"><ele>924.0</ele><time>2026-05-02T10:53:36.278Z</time></trkpt><trkpt lat="44.32433" lon="8.1313062"><ele>924.0</ele><time>2026-05-02T10:53:37.271Z</time></trkpt><trkpt lat="44.3242802" lon="8.131251"><ele>924.0</ele><time>2026-05-02T10:53:38.279Z</time></trkpt><trkpt lat="44.3241886" lon="8.1311741"><ele>924.0</ele><time>2026-05-02T10:53:40.281Z</time></trkpt><trkpt lat="44.3241194" lon="8.1311347"><ele>924.0</ele><time>2026-05-02T10:53:42.275Z</time></trkpt><trkpt lat="44.324057" lon="8.1311745"><ele>924.0</ele><time>2026-05-02T10:53:44.281Z</time></trkpt><trkpt lat="44.3240588" lon="8.1313025"><ele>924.0</ele><time>2026-05-02T10:53:46.28Z</time></trkpt><trkpt lat="44.3241632" lon="8.1314359"><ele>924.0</ele><time>2026-05-02T10:53:48.28Z</time></trkpt><trkpt lat="44.3242088" lon="8.1315138"><ele>924.0</ele><time>2026-05-02T10:53:49.285Z</time></trkpt><trkpt lat="44.3242399" lon="8.1315921"><ele>920.6</ele><time>2026-05-02T10:53:50.275Z</time></trkpt><trkpt lat="44.3242663" lon="8.1317496"><ele>917.2</ele><time>2026-05-02T10:53:52.271Z</time></trkpt><trkpt lat="44.3242182" lon="8.131907"><ele>913.8000000000001</ele><time>2026-05-02T10:53:54.271Z</time></trkpt><trkpt lat="44.3241786" lon="8.132003"><ele>910.4000000000001</ele><time>2026-05-02T10:53:55.273Z</time></trkpt><trkpt lat="44.3241275" lon="8.1321025"><ele>907.0</ele><time>2026-05-02T10:53:56.275Z</time></trkpt><trkpt lat="44.3240786" lon="8.1322068"><ele>906.9999999999999</ele><time>2026-05-02T10:53:57.277Z</time></trkpt><trkpt lat="44.3240373" lon="8.1323147"><ele>907.0</ele><time>2026-05-02T10:53:58.278Z</time></trkpt><trkpt lat="44.3240092" lon="8.1324258"><ele>907.0</ele><time>2026-05-02T10:53:59.274Z</time></trkpt><trkpt lat="44.3239849" lon="8.132535"><ele>907.0</ele><time>2026-05-02T10:54:00.28Z</time></trkpt><trkpt lat="44.323961" lon="8.1326272"><ele>906.9999999999999</ele><time>2026-05-02T10:54:01.283Z</time></trkpt><trkpt lat="44.3239274" lon="8.1327164"><ele>907.0</ele><time>2026-05-02T10:54:02.274Z</time></trkpt><trkpt lat="44.3238804" lon="8.1327976"><ele>900.8</ele><time>2026-05-02T10:54:03.274Z</time></trkpt><trkpt lat="44.3238238" lon="8.1328785"><ele>894.6</ele><time>2026-05-02T10:54:04.268Z</time></trkpt><trkpt lat="44.3237631" lon="8.1329618"><ele>888.3999999999999</ele><time>2026-05-02T10:54:05.283Z</time></trkpt><trkpt lat="44.3236806" lon="8.1330489"><ele>882.1999999999999</ele><time>2026-05-02T10:54:06.27Z</time></trkpt><trkpt lat="44.3235932" lon="8.1331399"><ele>876.0</ele><time>2026-05-02T10:54:07.272Z</time></trkpt><trkpt lat="44.3235187" lon="8.1332354"><ele>876.0</ele><time>2026-05-02T10:54:08.272Z</time></trkpt><trkpt lat="44.323455" lon="8.1333321"><ele>876.0</ele><time>2026-05-02T10:54:09.271Z</time></trkpt><trkpt lat="44.3234062" lon="8.1334295"><ele>876.0</ele><time>2026-05-02T10:54:10.271Z</time></trkpt><trkpt lat="44.3233731" lon="8.1335267"><ele>876.0</ele><time>2026-05-02T10:54:11.271Z</time></trkpt><trkpt lat="44.3233501" lon="8.1336273"><ele>876.0</ele><time>2026-05-02T10:54:12.267Z</time></trkpt><trkpt lat="44.3233308" lon="8.1337437"><ele>876.0</ele><time>2026-05-02T10:54:13.27Z</time></trkpt><trkpt lat="44.3233117" lon="8.1338657"><ele>876.0</ele><time>2026-05-02T10:54:14.271Z</time></trkpt><trkpt lat="44.3232866" lon="8.1339832"><ele>876.0</ele><time>2026-05-02T10:54:15.268Z</time></trkpt><trkpt lat="44.3232583" lon="8.1340932"><ele>876.0</ele><time>2026-05-02T10:54:16.266Z</time></trkpt><trkpt lat="44.3232222" lon="8.1341907"><ele>876.0</ele><time>2026-05-02T10:54:17.271Z</time></trkpt><trkpt lat="44.3231795" lon="8.1342814"><ele>876.0</ele><time>2026-05-02T10:54:18.267Z</time></trkpt><trkpt lat="44.323127" lon="8.1343662"><ele>876.0</ele><time>2026-05-02T10:54:19.271Z</time></trkpt><trkpt lat="44.3230717" lon="8.134452"><ele>873.1666666666666</ele><time>2026-05-02T10:54:20.27Z</time></trkpt><trkpt lat="44.3230054" lon="8.1345393"><ele>870.3333333333333</ele><time>2026-05-02T10:54:21.278Z</time></trkpt><trkpt lat="44.32294" lon="8.1346349"><ele>867.5</ele><time>2026-05-02T10:54:22.269Z</time></trkpt><trkpt lat="44.3228766" lon="8.134727"><ele>864.6666666666666</ele><time>2026-05-02T10:54:23.273Z</time></trkpt><trkpt lat="44.3228236" lon="8.1348126"><ele>861.8333333333333</ele><time>2026-05-02T10:54:24.268Z</time></trkpt><trkpt lat="44.3227807" lon="8.1348927"><ele>859.0</ele><time>2026-05-02T10:54:25.275Z</time></trkpt><trkpt lat="44.322748" lon="8.1349729"><ele>858.9999999999999</ele><time>2026-05-02T10:54:26.269Z</time></trkpt><trkpt lat="44.3227169" lon="8.1351336"><ele>859.0</ele><time>2026-05-02T10:54:28.275Z</time></trkpt><trkpt lat="44.3227034" lon="8.1352222"><ele>859.0</ele><time>2026-05-02T10:54:29.279Z</time></trkpt><trkpt lat="44.3226863" lon="8.1353234"><ele>859.0</ele><time>2026-05-02T10:54:30.275Z</time></trkpt><trkpt lat="44.3226641" lon="8.1354399"><ele>858.9999999999999</ele><time>2026-05-02T10:54:31.27Z</time></trkpt><trkpt lat="44.322635" lon="8.1355663"><ele>859.0</ele><time>2026-05-02T10:54:32.27Z</time></trkpt><trkpt lat="44.3226037" lon="8.1356919"><ele>860.4000000000001</ele><time>2026-05-02T10:54:33.265Z</time></trkpt><trkpt lat="44.3225679" lon="8.1358126"><ele>861.8000000000001</ele><time>2026-05-02T10:54:34.272Z</time></trkpt><trkpt lat="44.3225285" lon="8.1359236"><ele>863.1999999999999</ele><time>2026-05-02T10:54:35.265Z</time></trkpt><trkpt lat="44.3224917" lon="8.1360289"><ele>864.5999999999999</ele><time>2026-05-02T10:54:36.28Z</time></trkpt><trkpt lat="44.3224594" lon="8.1361622"><ele>866.0</ele><time>2026-05-02T10:54:38.282Z</time></trkpt><trkpt lat="44.3224497" lon="8.1363138"><ele>866.0</ele><time>2026-05-02T10:54:49.284Z</time></trkpt><trkpt lat="44.3224551" lon="8.1364399"><ele>865.9999999999999</ele><time>2026-05-02T10:54:50.286Z</time></trkpt><trkpt lat="44.3224668" lon="8.1365805"><ele>865.9999999999999</ele><time>2026-05-02T10:54:51.287Z</time></trkpt><trkpt lat="44.3224895" lon="8.1367339"><ele>866.0</ele><time>2026-05-02T10:54:52.281Z</time></trkpt><trkpt lat="44.32252" lon="8.1368827"><ele>866.0</ele><time>2026-05-02T10:54:53.283Z</time></trkpt><trkpt lat="44.3225582" lon="8.1370256"><ele>865.5000000000001</ele><time>2026-05-02T10:54:54.281Z</time></trkpt><trkpt lat="44.3225951" lon="8.1371499"><ele>865.0</ele><time>2026-05-02T10:54:55.283Z</time></trkpt><trkpt lat="44.3226438" lon="8.1372647"><ele>864.5</ele><time>2026-05-02T10:54:56.285Z</time></trkpt><trkpt lat="44.3226973" lon="8.1373657"><ele>864.0</ele><time>2026-05-02T10:54:57.289Z</time></trkpt><trkpt lat="44.3227485" lon="8.1374621"><ele>863.5000000000001</ele><time>2026-05-02T10:54:58.279Z</time></trkpt><trkpt lat="44.3227911" lon="8.1375574"><ele>863.0</ele><time>2026-05-02T10:54:59.291Z</time></trkpt><trkpt lat="44.3228149" lon="8.1376561"><ele>861.0000000000001</ele><time>2026-05-02T10:55:00.283Z</time></trkpt><trkpt lat="44.3228103" lon="8.1377494"><ele>859.0</ele><time>2026-05-02T10:55:01.296Z</time></trkpt><trkpt lat="44.3227859" lon="8.1378555"><ele>857.0</ele><time>2026-05-02T10:55:02.279Z</time></trkpt><trkpt lat="44.3227424" lon="8.137964"><ele>855.0</ele><time>2026-05-02T10:55:03.282Z</time></trkpt><trkpt lat="44.322698" lon="8.1380683"><ele>853.0000000000001</ele><time>2026-05-02T10:55:04.276Z</time></trkpt><trkpt lat="44.322663" lon="8.1381417"><ele>851.0</ele><time>2026-05-02T10:55:05.274Z</time></trkpt><trkpt lat="44.3225877" lon="8.1382382"><ele>851.0000000000001</ele><time>2026-05-02T10:55:07.276Z</time></trkpt><trkpt lat="44.3225373" lon="8.1383021"><ele>851.0</ele><time>2026-05-02T10:55:08.277Z</time></trkpt><trkpt lat="44.3224648" lon="8.1383799"><ele>851.0</ele><time>2026-05-02T10:55:09.27Z</time></trkpt><trkpt lat="44.3224006" lon="8.1384549"><ele>851.0</ele><time>2026-05-02T10:55:10.265Z</time></trkpt><trkpt lat="44.3223449" lon="8.1385393"><ele>851.0000000000001</ele><time>2026-05-02T10:55:11.269Z</time></trkpt><trkpt lat="44.3223072" lon="8.1386172"><ele>851.0</ele><time>2026-05-02T10:55:12.269Z</time></trkpt><trkpt lat="44.3222731" lon="8.1386942"><ele>848.1999999999999</ele><time>2026-05-02T10:55:13.275Z</time></trkpt><trkpt lat="44.3222126" lon="8.1388156"><ele>845.4</ele><time>2026-05-02T10:55:15.268Z</time></trkpt><trkpt lat="44.3221027" lon="8.138907"><ele>842.6</ele><time>2026-05-02T10:55:17.264Z</time></trkpt><trkpt lat="44.3220155" lon="8.1389621"><ele>839.8</ele><time>2026-05-02T10:55:18.271Z</time></trkpt><trkpt lat="44.3219105" lon="8.1390115"><ele>837.0</ele><time>2026-05-02T10:55:19.27Z</time></trkpt><trkpt lat="44.321815" lon="8.1390656"><ele>837.0</ele><time>2026-05-02T10:55:20.275Z</time></trkpt><trkpt lat="44.321734" lon="8.139117"><ele>837.0</ele><time>2026-05-02T10:55:21.267Z</time></trkpt><trkpt lat="44.32166" lon="8.1391839"><ele>837.0</ele><time>2026-05-02T10:55:22.287Z</time></trkpt><trkpt lat="44.3215903" lon="8.1392665"><ele>837.0</ele><time>2026-05-02T10:55:23.269Z</time></trkpt><trkpt lat="44.321533" lon="8.1393805"><ele>837.0</ele><time>2026-05-02T10:55:24.274Z</time></trkpt><trkpt lat="44.3214813" lon="8.1394962"><ele>837.0</ele><time>2026-05-02T10:55:25.269Z</time></trkpt><trkpt lat="44.3214275" lon="8.1395996"><ele>837.0</ele><time>2026-05-02T10:55:26.277Z</time></trkpt><trkpt lat="44.3213814" lon="8.1396698"><ele>837.0</ele><time>2026-05-02T10:55:27.273Z</time></trkpt><trkpt lat="44.3213207" lon="8.1397163"><ele>837.0</ele><time>2026-05-02T10:55:29.27Z</time></trkpt><trkpt lat="44.32122" lon="8.1397284"><ele>837.0</ele><time>2026-05-02T10:55:31.262Z</time></trkpt><trkpt lat="44.3211358" lon="8.1397308"><ele>837.0</ele><time>2026-05-02T10:55:32.282Z</time></trkpt><trkpt lat="44.3210488" lon="8.1397136"><ele>832.3333333333334</ele><time>2026-05-02T10:55:33.271Z</time></trkpt><trkpt lat="44.3209675" lon="8.1396903"><ele>827.6666666666667</ele><time>2026-05-02T10:55:34.28Z</time></trkpt><trkpt lat="44.3208887" lon="8.1396467"><ele>823.0</ele><time>2026-05-02T10:55:35.275Z</time></trkpt><trkpt lat="44.3208201" lon="8.139592"><ele>818.3333333333334</ele><time>2026-05-02T10:55:36.277Z</time></trkpt><trkpt lat="44.320763" lon="8.139541"><ele>813.6666666666667</ele><time>2026-05-02T10:55:37.277Z</time></trkpt><trkpt lat="44.3206767" lon="8.1394771"><ele>809.0</ele><time>2026-05-02T10:55:39.285Z</time></trkpt><trkpt lat="44.3206125" lon="8.1395165"><ele>809.0000000000001</ele><time>2026-05-02T10:55:44.297Z</time></trkpt><trkpt lat="44.3206415" lon="8.1395997"><ele>809.0</ele><time>2026-05-02T11:01:06.286Z</time></trkpt><trkpt lat="44.32068" lon="8.139766"><ele>809.0</ele><time>2026-05-02T11:01:08.273Z</time></trkpt><trkpt lat="44.3206905" lon="8.1398612"><ele>809.0</ele><time>2026-05-02T11:01:09.282Z</time></trkpt><trkpt lat="44.320695" lon="8.1399513"><ele>809.0000000000001</ele><time>2026-05-02T11:01:10.269Z</time></trkpt><trkpt lat="44.3207005" lon="8.1400435"><ele>809.0</ele><time>2026-05-02T11:01:11.269Z</time></trkpt><trkpt lat="44.3206804" lon="8.1401781"><ele>806.3333333333334</ele><time>2026-05-02T11:01:13.272Z</time></trkpt><trkpt lat="44.320619" lon="8.1402997"><ele>803.6666666666667</ele><time>2026-05-02T11:01:15.267Z</time></trkpt><trkpt lat="44.3205662" lon="8.1403681"><ele>801.0</ele><time>2026-05-02T11:01:16.264Z</time></trkpt><trkpt lat="44.3205189" lon="8.1404388"><ele>798.3333333333333</ele><time>2026-05-02T11:01:17.274Z</time></trkpt><trkpt lat="44.3204589" lon="8.1405212"><ele>795.6666666666666</ele><time>2026-05-02T11:01:18.27Z</time></trkpt><trkpt lat="44.3204012" lon="8.1406145"><ele>793.0</ele><time>2026-05-02T11:01:19.27Z</time></trkpt><trkpt lat="44.320352" lon="8.140709"><ele>794.8333333333333</ele><time>2026-05-02T11:01:20.263Z</time></trkpt><trkpt lat="44.3203049" lon="8.1407996"><ele>796.6666666666666</ele><time>2026-05-02T11:01:21.276Z</time></trkpt><trkpt lat="44.3202455" lon="8.140867"><ele>798.5</ele><time>2026-05-02T11:01:22.271Z</time></trkpt><trkpt lat="44.3201772" lon="8.1409181"><ele>800.3333333333333</ele><time>2026-05-02T11:01:23.273Z</time></trkpt><trkpt lat="44.3201014" lon="8.1409664"><ele>802.1666666666666</ele><time>2026-05-02T11:01:24.277Z</time></trkpt><trkpt lat="44.3200231" lon="8.1410221"><ele>804.0</ele><time>2026-05-02T11:01:25.265Z</time></trkpt><trkpt lat="44.3199577" lon="8.1410949"><ele>804.0</ele><time>2026-05-02T11:01:26.27Z</time></trkpt><trkpt lat="44.3199027" lon="8.1411827"><ele>804.0</ele><time>2026-05-02T11:01:27.275Z</time></trkpt><trkpt lat="44.3198467" lon="8.1412944"><ele>804.0</ele><time>2026-05-02T11:01:28.274Z</time></trkpt><trkpt lat="44.3197842" lon="8.1414111"><ele>804.0</ele><time>2026-05-02T11:01:29.271Z</time></trkpt><trkpt lat="44.3197201" lon="8.1415022"><ele>804.0</ele><time>2026-05-02T11:01:30.267Z</time></trkpt><trkpt lat="44.3196562" lon="8.1415759"><ele>801.6666666666666</ele><time>2026-05-02T11:01:31.276Z</time></trkpt><trkpt lat="44.319589" lon="8.1416345"><ele>799.3333333333333</ele><time>2026-05-02T11:01:32.279Z</time></trkpt><trkpt lat="44.3195258" lon="8.1416846"><ele>797.0</ele><time>2026-05-02T11:01:33.279Z</time></trkpt><trkpt lat="44.3194603" lon="8.1417321"><ele>794.6666666666666</ele><time>2026-05-02T11:01:34.28Z</time></trkpt><trkpt lat="44.3193947" lon="8.141775"><ele>792.3333333333333</ele><time>2026-05-02T11:01:35.28Z</time></trkpt><trkpt lat="44.3193217" lon="8.1418114"><ele>790.0</ele><time>2026-05-02T11:01:36.284Z</time></trkpt><trkpt lat="44.3192529" lon="8.1418507"><ele>790.0</ele><time>2026-05-02T11:01:37.287Z</time></trkpt><trkpt lat="44.3191802" lon="8.1418833"><ele>790.0</ele><time>2026-05-02T11:01:38.281Z</time></trkpt><trkpt lat="44.3191088" lon="8.1418939"><ele>790.0</ele><time>2026-05-02T11:01:39.276Z</time></trkpt><trkpt lat="44.3190428" lon="8.1418927"><ele>790.0</ele><time>2026-05-02T11:01:40.274Z</time></trkpt><trkpt lat="44.3189799" lon="8.1418866"><ele>790.0</ele><time>2026-05-02T11:01:41.28Z</time></trkpt><trkpt lat="44.3189022" lon="8.1418605"><ele>790.0</ele><time>2026-05-02T11:01:43.282Z</time></trkpt><trkpt lat="44.3188348" lon="8.141834"><ele>790.0</ele><time>2026-05-02T11:01:56.289Z</time></trkpt><trkpt lat="44.3187099" lon="8.1417995"><ele>788.8333333333333</ele><time>2026-05-02T11:01:58.28Z</time></trkpt><trkpt lat="44.3186419" lon="8.1417984"><ele>787.6666666666666</ele><time>2026-05-02T11:01:59.277Z</time></trkpt><trkpt lat="44.3185632" lon="8.1418009"><ele>786.5</ele><time>2026-05-02T11:02:00.278Z</time></trkpt><trkpt lat="44.318474" lon="8.1417919"><ele>785.3333333333333</ele><time>2026-05-02T11:02:01.278Z</time></trkpt><trkpt lat="44.3183762" lon="8.1417675"><ele>784.1666666666666</ele><time>2026-05-02T11:02:02.27Z</time></trkpt><trkpt lat="44.318274" lon="8.1417447"><ele>783.0</ele><time>2026-05-02T11:02:03.27Z</time></trkpt><trkpt lat="44.3181794" lon="8.1417194"><ele>783.0</ele><time>2026-05-02T11:02:04.27Z</time></trkpt><trkpt lat="44.3180988" lon="8.1416887"><ele>783.0</ele><time>2026-05-02T11:02:05.268Z</time></trkpt><trkpt lat="44.3180171" lon="8.1416663"><ele>783.0</ele><time>2026-05-02T11:02:06.273Z</time></trkpt><trkpt lat="44.3179457" lon="8.14164"><ele>783.0</ele><time>2026-05-02T11:02:07.26Z</time></trkpt><trkpt lat="44.3178218" lon="8.1415972"><ele>783.0</ele><time>2026-05-02T11:02:09.265Z</time></trkpt><trkpt lat="44.3177011" lon="8.1415569"><ele>779.1666666666666</ele><time>2026-05-02T11:02:11.261Z</time></trkpt><trkpt lat="44.3176328" lon="8.1415271"><ele>775.3333333333334</ele><time>2026-05-02T11:02:12.267Z</time></trkpt><trkpt lat="44.3175688" lon="8.1415159"><ele>771.5</ele><time>2026-05-02T11:02:13.271Z</time></trkpt><trkpt lat="44.3174649" lon="8.1414945"><ele>767.6666666666667</ele><time>2026-05-02T11:02:15.278Z</time></trkpt><trkpt lat="44.3174017" lon="8.1415003"><ele>763.8333333333334</ele><time>2026-05-02T11:02:17.277Z</time></trkpt><trkpt lat="44.3173507" lon="8.1414115"><ele>760.0</ele><time>2026-05-02T11:02:20.269Z</time></trkpt><trkpt lat="44.3174131" lon="8.1413359"><ele>760.0</ele><time>2026-05-02T11:02:23.281Z</time></trkpt><trkpt lat="44.3174888" lon="8.1413444"><ele>760.0</ele><time>2026-05-02T11:02:25.272Z</time></trkpt><trkpt lat="44.3175701" lon="8.1413184"><ele>760.0</ele><time>2026-05-02T11:02:27.269Z</time></trkpt><trkpt lat="44.3175455" lon="8.1411931"><ele>760.0</ele><time>2026-05-02T11:02:30.277Z</time></trkpt><trkpt lat="44.3174376" lon="8.1411317"><ele>760.0</ele><time>2026-05-02T11:02:32.264Z</time></trkpt><trkpt lat="44.3173589" lon="8.1411189"><ele>760.0</ele><time>2026-05-02T11:02:33.276Z</time></trkpt><trkpt lat="44.3172862" lon="8.141129"><ele>758.2</ele><time>2026-05-02T11:02:34.275Z</time></trkpt><trkpt lat="44.3172233" lon="8.1411554"><ele>756.4</ele><time>2026-05-02T11:02:35.281Z</time></trkpt><trkpt lat="44.3171404" lon="8.1412414"><ele>754.5999999999999</ele><time>2026-05-02T11:02:37.273Z</time></trkpt><trkpt lat="44.3170793" lon="8.1414116"><ele>752.8</ele><time>2026-05-02T11:02:39.274Z</time></trkpt><trkpt lat="44.3170512" lon="8.1415066"><ele>751.0</ele><time>2026-05-02T11:02:40.272Z</time></trkpt><trkpt lat="44.3170158" lon="8.1416027"><ele>751.0</ele><time>2026-05-02T11:02:41.26Z</time></trkpt><trkpt lat="44.316975" lon="8.1417078"><ele>751.0</ele><time>2026-05-02T11:02:42.264Z</time></trkpt><trkpt lat="44.3169243" lon="8.1418168"><ele>751.0</ele><time>2026-05-02T11:02:43.263Z</time></trkpt><trkpt lat="44.3168696" lon="8.1419256"><ele>751.0</ele><time>2026-05-02T11:02:44.272Z</time></trkpt><trkpt lat="44.3168235" lon="8.1420392"><ele>751.0</ele><time>2026-05-02T11:02:45.265Z</time></trkpt><trkpt lat="44.3167817" lon="8.1421566"><ele>751.0</ele><time>2026-05-02T11:02:46.267Z</time></trkpt><trkpt lat="44.3167438" lon="8.1422723"><ele>751.0</ele><time>2026-05-02T11:02:47.27Z</time></trkpt><trkpt lat="44.3167061" lon="8.1423766"><ele>751.0</ele><time>2026-05-02T11:02:48.261Z</time></trkpt><trkpt lat="44.3166601" lon="8.1424711"><ele>751.0</ele><time>2026-05-02T11:02:49.265Z</time></trkpt><trkpt lat="44.3166252" lon="8.1425692"><ele>751.0</ele><time>2026-05-02T11:02:50.271Z</time></trkpt><trkpt lat="44.3165976" lon="8.1426658"><ele>751.0</ele><time>2026-05-02T11:02:51.27Z</time></trkpt><trkpt lat="44.3165643" lon="8.1427677"><ele>752.8333333333334</ele><time>2026-05-02T11:02:52.275Z</time></trkpt><trkpt lat="44.3165377" lon="8.1428671"><ele>754.6666666666667</ele><time>2026-05-02T11:02:53.272Z</time></trkpt><trkpt lat="44.3165091" lon="8.142975"><ele>756.5</ele><time>2026-05-02T11:02:54.272Z</time></trkpt><trkpt lat="44.3164758" lon="8.1430731"><ele>758.3333333333334</ele><time>2026-05-02T11:02:55.267Z</time></trkpt><trkpt lat="44.3164298" lon="8.1431621"><ele>760.1666666666666</ele><time>2026-05-02T11:02:56.271Z</time></trkpt><trkpt lat="44.3163781" lon="8.1432458"><ele>762.0</ele><time>2026-05-02T11:02:57.261Z</time></trkpt><trkpt lat="44.316316" lon="8.1433093"><ele>758.3333333333334</ele><time>2026-05-02T11:02:58.265Z</time></trkpt><trkpt lat="44.3162531" lon="8.1433726"><ele>754.6666666666666</ele><time>2026-05-02T11:02:59.256Z</time></trkpt><trkpt lat="44.3161772" lon="8.1434356"><ele>751.0</ele><time>2026-05-02T11:03:00.261Z</time></trkpt><trkpt lat="44.3160866" lon="8.1434847"><ele>747.3333333333333</ele><time>2026-05-02T11:03:01.266Z</time></trkpt><trkpt lat="44.3159982" lon="8.1435445"><ele>743.6666666666666</ele><time>2026-05-02T11:03:02.253Z</time></trkpt><trkpt lat="44.3159191" lon="8.1435835"><ele>740.0</ele><time>2026-05-02T11:03:03.261Z</time></trkpt><trkpt lat="44.3158493" lon="8.1436204"><ele>739.9999999999999</ele><time>2026-05-02T11:03:04.268Z</time></trkpt><trkpt lat="44.3157889" lon="8.1436526"><ele>740.0</ele><time>2026-05-02T11:03:05.259Z</time></trkpt><trkpt lat="44.315721" lon="8.14369"><ele>740.0</ele><time>2026-05-02T11:03:06.264Z</time></trkpt><trkpt lat="44.3156594" lon="8.1437443"><ele>740.0</ele><time>2026-05-02T11:03:07.26Z</time></trkpt><trkpt lat="44.3156038" lon="8.1438033"><ele>740.0</ele><time>2026-05-02T11:03:08.256Z</time></trkpt><trkpt lat="44.3155596" lon="8.1438787"><ele>739.9999999999999</ele><time>2026-05-02T11:03:09.266Z</time></trkpt><trkpt lat="44.3155241" lon="8.1439526"><ele>740.0</ele><time>2026-05-02T11:03:10.269Z</time></trkpt><trkpt lat="44.3154826" lon="8.1440214"><ele>737.4</ele><time>2026-05-02T11:03:11.27Z</time></trkpt><trkpt lat="44.3154233" lon="8.1441587"><ele>734.8</ele><time>2026-05-02T11:03:13.275Z</time></trkpt><trkpt lat="44.315374" lon="8.1443098"><ele>732.2</ele><time>2026-05-02T11:03:15.275Z</time></trkpt><trkpt lat="44.3153512" lon="8.1444048"><ele>729.6</ele><time>2026-05-02T11:03:16.271Z</time></trkpt><trkpt lat="44.3153294" lon="8.1445056"><ele>727.0</ele><time>2026-05-02T11:03:17.271Z</time></trkpt><trkpt lat="44.3153078" lon="8.1446138"><ele>727.0</ele><time>2026-05-02T11:03:18.277Z</time></trkpt><trkpt lat="44.3152583" lon="8.1447143"><ele>727.0</ele><time>2026-05-02T11:03:19.264Z</time></trkpt><trkpt lat="44.3151985" lon="8.1448122"><ele>727.0</ele><time>2026-05-02T11:03:20.272Z</time></trkpt><trkpt lat="44.3151405" lon="8.1448998"><ele>727.0</ele><time>2026-05-02T11:03:21.261Z</time></trkpt><trkpt lat="44.3150813" lon="8.1449946"><ele>727.0</ele><time>2026-05-02T11:03:22.267Z</time></trkpt><trkpt lat="44.3150225" lon="8.1450992"><ele>727.4285714285714</ele><time>2026-05-02T11:03:23.264Z</time></trkpt><trkpt lat="44.3149708" lon="8.1452051"><ele>727.8571428571429</ele><time>2026-05-02T11:03:24.263Z</time></trkpt><trkpt lat="44.3149299" lon="8.1452866"><ele>728.2857142857143</ele><time>2026-05-02T11:03:25.266Z</time></trkpt><trkpt lat="44.3148891" lon="8.1453625"><ele>728.7142857142858</ele><time>2026-05-02T11:03:26.268Z</time></trkpt><trkpt lat="44.3148511" lon="8.145437"><ele>729.1428571428571</ele><time>2026-05-02T11:03:27.281Z</time></trkpt><trkpt lat="44.3148208" lon="8.1455246"><ele>729.5714285714287</ele><time>2026-05-02T11:03:28.274Z</time></trkpt><trkpt lat="44.3147898" lon="8.1456059"><ele>730.0</ele><time>2026-05-02T11:03:29.272Z</time></trkpt><trkpt lat="44.3147085" lon="8.1457147"><ele>731.8333333333334</ele><time>2026-05-02T11:03:31.274Z</time></trkpt><trkpt lat="44.3147557" lon="8.1455908"><ele>733.6666666666667</ele><time>2026-05-02T11:03:36.256Z</time></trkpt><trkpt lat="44.3147634" lon="8.145485"><ele>735.5</ele><time>2026-05-02T11:03:37.262Z</time></trkpt><trkpt lat="44.3147659" lon="8.1453338"><ele>737.3333333333334</ele><time>2026-05-02T11:03:38.265Z</time></trkpt><trkpt lat="44.3147602" lon="8.1452167"><ele>739.1666666666666</ele><time>2026-05-02T11:03:39.266Z</time></trkpt><trkpt lat="44.314779" lon="8.1451123"><ele>741.0</ele><time>2026-05-02T11:03:40.259Z</time></trkpt><trkpt lat="44.3148097" lon="8.1450009"><ele>741.0</ele><time>2026-05-02T11:03:42.269Z</time></trkpt><trkpt lat="44.3148461" lon="8.1448962"><ele>741.0</ele><time>2026-05-02T11:04:00.29Z</time></trkpt><trkpt lat="44.3148822" lon="8.1448079"><ele>741.0</ele><time>2026-05-02T11:04:01.278Z</time></trkpt><trkpt lat="44.3149265" lon="8.1447191"><ele>741.0</ele><time>2026-05-02T11:04:02.279Z</time></trkpt><trkpt lat="44.3149629" lon="8.1446399"><ele>741.0</ele><time>2026-05-02T11:04:03.276Z</time></trkpt><trkpt lat="44.3149998" lon="8.1444992"><ele>741.0</ele><time>2026-05-02T11:04:05.272Z</time></trkpt><trkpt lat="44.3149457" lon="8.1446286"><ele>741.0</ele><time>2026-05-02T11:04:21.264Z</time></trkpt><trkpt lat="44.3148805" lon="8.1447384"><ele>741.0</ele><time>2026-05-02T11:04:22.263Z</time></trkpt><trkpt lat="44.3148276" lon="8.1448506"><ele>741.0</ele><time>2026-05-02T11:04:23.276Z</time></trkpt><trkpt lat="44.3147924" lon="8.1449512"><ele>741.0</ele><time>2026-05-02T11:04:24.275Z</time></trkpt><trkpt lat="44.314766" lon="8.1450662"><ele>741.0</ele><time>2026-05-02T11:04:25.268Z</time></trkpt><trkpt lat="44.3147493" lon="8.1451729"><ele>741.0</ele><time>2026-05-02T11:04:26.266Z</time></trkpt><trkpt lat="44.3147389" lon="8.1452719"><ele>741.0</ele><time>2026-05-02T11:04:27.272Z</time></trkpt><trkpt lat="44.3147372" lon="8.1453734"><ele>741.0</ele><time>2026-05-02T11:04:28.282Z</time></trkpt><trkpt lat="44.3147419" lon="8.14547"><ele>741.0</ele><time>2026-05-02T11:04:29.274Z</time></trkpt><trkpt lat="44.3147371" lon="8.1455616"><ele>741.0</ele><time>2026-05-02T11:04:30.277Z</time></trkpt><trkpt lat="44.3147312" lon="8.1456974"><ele>741.0</ele><time>2026-05-02T11:04:32.277Z</time></trkpt><trkpt lat="44.3146315" lon="8.145782"><ele>741.0</ele><time>2026-05-02T11:06:08.264Z</time></trkpt><trkpt lat="44.3145453" lon="8.145838"><ele>738.25</ele><time>2026-05-02T11:06:09.268Z</time></trkpt><trkpt lat="44.3144447" lon="8.1459083"><ele>735.5</ele><time>2026-05-02T11:06:10.266Z</time></trkpt><trkpt lat="44.3143413" lon="8.146008"><ele>732.75</ele><time>2026-05-02T11:06:11.263Z</time></trkpt><trkpt lat="44.3142424" lon="8.1461293"><ele>730.0</ele><time>2026-05-02T11:06:12.266Z</time></trkpt><trkpt lat="44.3141493" lon="8.1462473"><ele>730.0</ele><time>2026-05-02T11:06:13.264Z</time></trkpt><trkpt lat="44.3140675" lon="8.1463798"><ele>730.0</ele><time>2026-05-02T11:06:14.267Z</time></trkpt><trkpt lat="44.3139885" lon="8.1464926"><ele>730.0</ele><time>2026-05-02T11:06:15.263Z</time></trkpt><trkpt lat="44.3139204" lon="8.146595"><ele>730.0</ele><time>2026-05-02T11:06:16.266Z</time></trkpt><trkpt lat="44.3138611" lon="8.146705"><ele>730.0</ele><time>2026-05-02T11:06:17.268Z</time></trkpt><trkpt lat="44.313814" lon="8.1468259"><ele>727.8</ele><time>2026-05-02T11:06:18.268Z</time></trkpt><trkpt lat="44.313782" lon="8.146959"><ele>725.6</ele><time>2026-05-02T11:06:19.268Z</time></trkpt><trkpt lat="44.313762" lon="8.1471023"><ele>723.4000000000001</ele><time>2026-05-02T11:06:20.263Z</time></trkpt><trkpt lat="44.3137388" lon="8.1472332"><ele>721.2</ele><time>2026-05-02T11:06:21.264Z</time></trkpt><trkpt lat="44.3137081" lon="8.1473543"><ele>719.0</ele><time>2026-05-02T11:06:22.266Z</time></trkpt><trkpt lat="44.3136725" lon="8.1474641"><ele>719.0</ele><time>2026-05-02T11:06:23.266Z</time></trkpt><trkpt lat="44.3136286" lon="8.1475721"><ele>719.0</ele><time>2026-05-02T11:06:24.265Z</time></trkpt><trkpt lat="44.3135859" lon="8.1476736"><ele>719.0</ele><time>2026-05-02T11:06:25.259Z</time></trkpt><trkpt lat="44.3135445" lon="8.1477769"><ele>719.0</ele><time>2026-05-02T11:06:26.261Z</time></trkpt><trkpt lat="44.3135019" lon="8.1478645"><ele>719.0</ele><time>2026-05-02T11:06:27.258Z</time></trkpt><trkpt lat="44.3134583" lon="8.1479403"><ele>719.0</ele><time>2026-05-02T11:06:28.26Z</time></trkpt><trkpt lat="44.3134015" lon="8.1479799"><ele>719.0</ele><time>2026-05-02T11:06:29.256Z</time></trkpt><trkpt lat="44.313344" lon="8.1478637"><ele>719.0</ele><time>2026-05-02T11:06:31.258Z</time></trkpt><trkpt lat="44.3133669" lon="8.1477408"><ele>719.0</ele><time>2026-05-02T11:06:32.251Z</time></trkpt><trkpt lat="44.3134024" lon="8.1475973"><ele>719.0</ele><time>2026-05-02T11:06:33.254Z</time></trkpt><trkpt lat="44.3134471" lon="8.1474105"><ele>719.0</ele><time>2026-05-02T11:06:34.254Z</time></trkpt><trkpt lat="44.3134846" lon="8.1472255"><ele>717.4000000000001</ele><time>2026-05-02T11:06:35.262Z</time></trkpt><trkpt lat="44.3135029" lon="8.1470733"><ele>715.8</ele><time>2026-05-02T11:06:36.261Z</time></trkpt><trkpt lat="44.313459" lon="8.1469545"><ele>714.2</ele><time>2026-05-02T11:06:38.268Z</time></trkpt><trkpt lat="44.3133706" lon="8.1470485"><ele>712.5999999999999</ele><time>2026-05-02T11:06:40.28Z</time></trkpt><trkpt lat="44.313347" lon="8.147171"><ele>711.0</ele><time>2026-05-02T11:06:41.278Z</time></trkpt><trkpt lat="44.3133108" lon="8.1473257"><ele>712.5999999999999</ele><time>2026-05-02T11:06:42.278Z</time></trkpt><trkpt lat="44.3132527" lon="8.1474785"><ele>714.2</ele><time>2026-05-02T11:06:43.273Z</time></trkpt><trkpt lat="44.3131884" lon="8.1476225"><ele>715.8</ele><time>2026-05-02T11:06:44.272Z</time></trkpt><trkpt lat="44.3131278" lon="8.147735"><ele>717.4000000000001</ele><time>2026-05-02T11:06:45.268Z</time></trkpt><trkpt lat="44.3130621" lon="8.1478415"><ele>719.0</ele><time>2026-05-02T11:06:46.266Z</time></trkpt><trkpt lat="44.3130015" lon="8.1479487"><ele>712.2</ele><time>2026-05-02T11:06:47.268Z</time></trkpt><trkpt lat="44.3129422" lon="8.1480693"><ele>705.4000000000001</ele><time>2026-05-02T11:06:48.271Z</time></trkpt><trkpt lat="44.3128813" lon="8.1481906"><ele>698.6</ele><time>2026-05-02T11:06:49.266Z</time></trkpt><trkpt lat="44.3128271" lon="8.1483212"><ele>691.8</ele><time>2026-05-02T11:06:50.272Z</time></trkpt><trkpt lat="44.3127821" lon="8.1484494"><ele>685.0</ele><time>2026-05-02T11:06:51.264Z</time></trkpt><trkpt lat="44.3127492" lon="8.1485734"><ele>685.0</ele><time>2026-05-02T11:06:52.266Z</time></trkpt><trkpt lat="44.312725" lon="8.148699"><ele>685.0</ele><time>2026-05-02T11:06:53.269Z</time></trkpt><trkpt lat="44.3127079" lon="8.1488224"><ele>685.0</ele><time>2026-05-02T11:06:54.264Z</time></trkpt><trkpt lat="44.3127017" lon="8.1489749"><ele>685.0</ele><time>2026-05-02T11:06:55.264Z</time></trkpt><trkpt lat="44.3126976" lon="8.1491348"><ele>685.0</ele><time>2026-05-02T11:06:56.262Z</time></trkpt><trkpt lat="44.3126986" lon="8.1492828"><ele>684.8</ele><time>2026-05-02T11:06:57.267Z</time></trkpt><trkpt lat="44.3127009" lon="8.1494311"><ele>684.6</ele><time>2026-05-02T11:06:58.262Z</time></trkpt><trkpt lat="44.3127088" lon="8.1495733"><ele>684.4000000000001</ele><time>2026-05-02T11:06:59.269Z</time></trkpt><trkpt lat="44.3127194" lon="8.1497194"><ele>684.2</ele><time>2026-05-02T11:07:00.263Z</time></trkpt><trkpt lat="44.312736" lon="8.1498543"><ele>684.0</ele><time>2026-05-02T11:07:01.272Z</time></trkpt><trkpt lat="44.3127542" lon="8.1499923"><ele>684.0</ele><time>2026-05-02T11:07:02.267Z</time></trkpt><trkpt lat="44.3127774" lon="8.1501225"><ele>684.0</ele><time>2026-05-02T11:07:03.267Z</time></trkpt><trkpt lat="44.3128145" lon="8.1502541"><ele>684.0</ele><time>2026-05-02T11:07:04.268Z</time></trkpt><trkpt lat="44.3128534" lon="8.1503923"><ele>684.0</ele><time>2026-05-02T11:07:05.269Z</time></trkpt><trkpt lat="44.3128891" lon="8.1505552"><ele>684.0</ele><time>2026-05-02T11:07:06.27Z</time></trkpt><trkpt lat="44.3129154" lon="8.1507186"><ele>682.4000000000001</ele><time>2026-05-02T11:07:07.266Z</time></trkpt><trkpt lat="44.312919" lon="8.1508666"><ele>680.8</ele><time>2026-05-02T11:07:08.267Z</time></trkpt><trkpt lat="44.3129122" lon="8.1510145"><ele>679.2</ele><time>2026-05-02T11:07:09.26Z</time></trkpt><trkpt lat="44.3128946" lon="8.1511462"><ele>677.5999999999999</ele><time>2026-05-02T11:07:10.267Z</time></trkpt><trkpt lat="44.3128619" lon="8.1512698"><ele>676.0</ele><time>2026-05-02T11:07:11.267Z</time></trkpt><trkpt lat="44.3128263" lon="8.1513959"><ele>676.0</ele><time>2026-05-02T11:07:12.267Z</time></trkpt><trkpt lat="44.3127782" lon="8.1515257"><ele>676.0</ele><time>2026-05-02T11:07:13.266Z</time></trkpt><trkpt lat="44.3127252" lon="8.1516524"><ele>676.0</ele><time>2026-05-02T11:07:14.258Z</time></trkpt><trkpt lat="44.3126672" lon="8.1517878"><ele>676.0</ele><time>2026-05-02T11:07:15.263Z</time></trkpt><trkpt lat="44.3126045" lon="8.1519209"><ele>676.0</ele><time>2026-05-02T11:07:16.259Z</time></trkpt><trkpt lat="44.3125259" lon="8.152045"><ele>676.8</ele><time>2026-05-02T11:07:17.26Z</time></trkpt><trkpt lat="44.3124436" lon="8.152168"><ele>677.5999999999999</ele><time>2026-05-02T11:07:18.255Z</time></trkpt><trkpt lat="44.3123709" lon="8.1522735"><ele>678.4</ele><time>2026-05-02T11:07:19.262Z</time></trkpt><trkpt lat="44.3123025" lon="8.1523623"><ele>679.2</ele><time>2026-05-02T11:07:20.27Z</time></trkpt><trkpt lat="44.3122502" lon="8.152446"><ele>680.0</ele><time>2026-05-02T11:07:21.26Z</time></trkpt><trkpt lat="44.3121973" lon="8.1525447"><ele>671.2</ele><time>2026-05-02T11:07:22.265Z</time></trkpt><trkpt lat="44.3121619" lon="8.1526732"><ele>662.4</ele><time>2026-05-02T11:07:23.265Z</time></trkpt><trkpt lat="44.3121363" lon="8.1528096"><ele>653.6</ele><time>2026-05-02T11:07:24.263Z</time></trkpt><trkpt lat="44.3121238" lon="8.1529704"><ele>644.8</ele><time>2026-05-02T11:07:25.266Z</time></trkpt><trkpt lat="44.312126" lon="8.1531379"><ele>636.0</ele><time>2026-05-02T11:07:26.268Z</time></trkpt><trkpt lat="44.3121394" lon="8.1533129"><ele>636.0</ele><time>2026-05-02T11:07:27.265Z</time></trkpt><trkpt lat="44.3121588" lon="8.1534844"><ele>636.0</ele><time>2026-05-02T11:07:28.264Z</time></trkpt><trkpt lat="44.3121795" lon="8.1536415"><ele>636.0</ele><time>2026-05-02T11:07:29.267Z</time></trkpt><trkpt lat="44.3121973" lon="8.1537895"><ele>636.0</ele><time>2026-05-02T11:07:30.264Z</time></trkpt><trkpt lat="44.3122026" lon="8.1539235"><ele>636.0</ele><time>2026-05-02T11:07:31.272Z</time></trkpt><trkpt lat="44.3122103" lon="8.1540587"><ele>634.6</ele><time>2026-05-02T11:07:32.268Z</time></trkpt><trkpt lat="44.3122284" lon="8.1541784"><ele>633.2</ele><time>2026-05-02T11:07:33.282Z</time></trkpt><trkpt lat="44.3122597" lon="8.1542724"><ele>631.8</ele><time>2026-05-02T11:07:34.277Z</time></trkpt><trkpt lat="44.3123189" lon="8.1543496"><ele>630.4</ele><time>2026-05-02T11:07:35.277Z</time></trkpt><trkpt lat="44.3124043" lon="8.1544168"><ele>629.0</ele><time>2026-05-02T11:07:36.271Z</time></trkpt><trkpt lat="44.3125139" lon="8.1544731"><ele>638.4</ele><time>2026-05-02T11:07:37.273Z</time></trkpt><trkpt lat="44.3126318" lon="8.1545392"><ele>647.8</ele><time>2026-05-02T11:07:38.268Z</time></trkpt><trkpt lat="44.3127426" lon="8.1545877"><ele>657.1999999999999</ele><time>2026-05-02T11:07:39.262Z</time></trkpt><trkpt lat="44.3128467" lon="8.154632"><ele>666.5999999999999</ele><time>2026-05-02T11:07:40.26Z</time></trkpt><trkpt lat="44.3129395" lon="8.1546729"><ele>676.0</ele><time>2026-05-02T11:07:41.262Z</time></trkpt><trkpt lat="44.3130238" lon="8.154702"><ele>677.0</ele><time>2026-05-02T11:07:42.25Z</time></trkpt><trkpt lat="44.3131077" lon="8.1546916"><ele>678.0</ele><time>2026-05-02T11:07:43.274Z</time></trkpt><trkpt lat="44.3132105" lon="8.1546472"><ele>679.0</ele><time>2026-05-02T11:07:44.273Z</time></trkpt><trkpt lat="44.3133188" lon="8.1545963"><ele>680.0</ele><time>2026-05-02T11:07:45.273Z</time></trkpt><trkpt lat="44.313426" lon="8.154552"><ele>681.0</ele><time>2026-05-02T11:07:46.27Z</time></trkpt><trkpt lat="44.3135309" lon="8.1545312"><ele>681.0</ele><time>2026-05-02T11:07:47.276Z</time></trkpt><trkpt lat="44.3136323" lon="8.1545158"><ele>681.0</ele><time>2026-05-02T11:07:48.27Z</time></trkpt><trkpt lat="44.3137239" lon="8.1544878"><ele>681.0</ele><time>2026-05-02T11:07:49.278Z</time></trkpt><trkpt lat="44.3138077" lon="8.154442"><ele>681.0</ele><time>2026-05-02T11:07:50.271Z</time></trkpt><trkpt lat="44.3138853" lon="8.1543717"><ele>681.0</ele><time>2026-05-02T11:07:51.273Z</time></trkpt><trkpt lat="44.3139605" lon="8.1542969"><ele>678.1999999999999</ele><time>2026-05-02T11:07:52.269Z</time></trkpt><trkpt lat="44.31403" lon="8.1542177"><ele>675.4</ele><time>2026-05-02T11:07:53.267Z</time></trkpt><trkpt lat="44.3140832" lon="8.1541252"><ele>672.6</ele><time>2026-05-02T11:07:54.269Z</time></trkpt><trkpt lat="44.3141169" lon="8.1540179"><ele>669.8</ele><time>2026-05-02T11:07:55.277Z</time></trkpt><trkpt lat="44.3141359" lon="8.1538824"><ele>667.0</ele><time>2026-05-02T11:07:56.268Z</time></trkpt><trkpt lat="44.3141565" lon="8.1537336"><ele>667.0</ele><time>2026-05-02T11:07:57.27Z</time></trkpt><trkpt lat="44.3141687" lon="8.1535853"><ele>667.0</ele><time>2026-05-02T11:07:58.259Z</time></trkpt><trkpt lat="44.3141879" lon="8.1534467"><ele>667.0</ele><time>2026-05-02T11:07:59.262Z</time></trkpt><trkpt lat="44.3142246" lon="8.1533219"><ele>667.0</ele><time>2026-05-02T11:08:00.261Z</time></trkpt><trkpt lat="44.3142785" lon="8.1532158"><ele>667.0</ele><time>2026-05-02T11:08:01.263Z</time></trkpt><trkpt lat="44.314328" lon="8.1531279"><ele>665.4000000000001</ele><time>2026-05-02T11:08:02.258Z</time></trkpt><trkpt lat="44.3144018" lon="8.1530593"><ele>663.8000000000001</ele><time>2026-05-02T11:08:03.255Z</time></trkpt><trkpt lat="44.3145118" lon="8.1529944"><ele>662.2</ele><time>2026-05-02T11:08:04.265Z</time></trkpt><trkpt lat="44.3146127" lon="8.1529247"><ele>660.6</ele><time>2026-05-02T11:08:05.256Z</time></trkpt><trkpt lat="44.314703" lon="8.152851"><ele>659.0</ele><time>2026-05-02T11:08:06.25Z</time></trkpt><trkpt lat="44.3147859" lon="8.1527611"><ele>659.0</ele><time>2026-05-02T11:08:07.26Z</time></trkpt><trkpt lat="44.3148565" lon="8.1526346"><ele>659.0</ele><time>2026-05-02T11:08:08.259Z</time></trkpt><trkpt lat="44.3149249" lon="8.1525215"><ele>659.0</ele><time>2026-05-02T11:08:09.256Z</time></trkpt><trkpt lat="44.3150013" lon="8.1524316"><ele>659.0</ele><time>2026-05-02T11:08:10.25Z</time></trkpt><trkpt lat="44.315074" lon="8.1523521"><ele>659.0</ele><time>2026-05-02T11:08:11.263Z</time></trkpt><trkpt lat="44.3151506" lon="8.1522872"><ele>659.0</ele><time>2026-05-02T11:08:12.262Z</time></trkpt><trkpt lat="44.3152304" lon="8.1522515"><ele>659.0</ele><time>2026-05-02T11:08:13.266Z</time></trkpt><trkpt lat="44.3152972" lon="8.1522669"><ele>659.0</ele><time>2026-05-02T11:08:14.263Z</time></trkpt><trkpt lat="44.3153682" lon="8.152348"><ele>659.0</ele><time>2026-05-02T11:08:15.259Z</time></trkpt><trkpt lat="44.3154483" lon="8.1524418"><ele>659.0</ele><time>2026-05-02T11:08:16.26Z</time></trkpt><trkpt lat="44.3155491" lon="8.1524991"><ele>657.25</ele><time>2026-05-02T11:08:17.262Z</time></trkpt><trkpt lat="44.315672" lon="8.1525165"><ele>655.5</ele><time>2026-05-02T11:08:18.26Z</time></trkpt><trkpt lat="44.3157939" lon="8.1525177"><ele>653.75</ele><time>2026-05-02T11:08:19.257Z</time></trkpt><trkpt lat="44.3159135" lon="8.1525156"><ele>652.0</ele><time>2026-05-02T11:08:20.26Z</time></trkpt><trkpt lat="44.3160241" lon="8.1525025"><ele>652.0</ele><time>2026-05-02T11:08:21.259Z</time></trkpt><trkpt lat="44.316132" lon="8.1524784"><ele>652.0</ele><time>2026-05-02T11:08:22.266Z</time></trkpt><trkpt lat="44.3162146" lon="8.1524476"><ele>652.0</ele><time>2026-05-02T11:08:23.266Z</time></trkpt><trkpt lat="44.3162752" lon="8.1524076"><ele>652.0</ele><time>2026-05-02T11:08:24.261Z</time></trkpt><trkpt lat="44.3163444" lon="8.1524199"><ele>652.0</ele><time>2026-05-02T11:08:26.255Z</time></trkpt><trkpt lat="44.3163437" lon="8.1525217"><ele>652.0</ele><time>2026-05-02T11:08:28.269Z</time></trkpt><trkpt lat="44.3162883" lon="8.1526265"><ele>652.0</ele><time>2026-05-02T11:08:29.26Z</time></trkpt><trkpt lat="44.3162067" lon="8.1527299"><ele>652.0</ele><time>2026-05-02T11:08:30.267Z</time></trkpt><trkpt lat="44.316112" lon="8.152839"><ele>652.0</ele><time>2026-05-02T11:08:31.271Z</time></trkpt><trkpt lat="44.3160152" lon="8.1528907"><ele>652.0</ele><time>2026-05-02T11:08:32.27Z</time></trkpt><trkpt lat="44.3159233" lon="8.1528675"><ele>652.0</ele><time>2026-05-02T11:08:33.264Z</time></trkpt><trkpt lat="44.3158311" lon="8.1528415"><ele>652.0</ele><time>2026-05-02T11:08:34.262Z</time></trkpt><trkpt lat="44.3157391" lon="8.1528361"><ele>652.0</ele><time>2026-05-02T11:08:35.266Z</time></trkpt><trkpt lat="44.3156447" lon="8.1528591"><ele>652.0</ele><time>2026-05-02T11:08:36.254Z</time></trkpt><trkpt lat="44.3155497" lon="8.1529246"><ele>652.0</ele><time>2026-05-02T11:08:37.268Z</time></trkpt><trkpt lat="44.3154641" lon="8.1530444"><ele>652.0</ele><time>2026-05-02T11:08:38.265Z</time></trkpt><trkpt lat="44.3153954" lon="8.1531966"><ele>651.0</ele><time>2026-05-02T11:08:39.258Z</time></trkpt><trkpt lat="44.315343" lon="8.1534224"><ele>650.0</ele><time>2026-05-02T11:08:40.261Z</time></trkpt><trkpt lat="44.3152976" lon="8.1536512"><ele>649.0</ele><time>2026-05-02T11:08:41.258Z</time></trkpt><trkpt lat="44.3152585" lon="8.1538457"><ele>649.0</ele><time>2026-05-02T11:08:42.262Z</time></trkpt><trkpt lat="44.3152192" lon="8.1540338"><ele>649.0</ele><time>2026-05-02T11:08:43.26Z</time></trkpt><trkpt lat="44.3151715" lon="8.1541778"><ele>649.0</ele><time>2026-05-02T11:08:44.267Z</time></trkpt><trkpt lat="44.3151426" lon="8.1543151"><ele>649.0</ele><time>2026-05-02T11:08:45.261Z</time></trkpt><trkpt lat="44.3151296" lon="8.1544542"><ele>647.4000000000001</ele><time>2026-05-02T11:08:46.263Z</time></trkpt><trkpt lat="44.3151235" lon="8.1545744"><ele>645.8</ele><time>2026-05-02T11:08:47.262Z</time></trkpt><trkpt lat="44.315098" lon="8.1547257"><ele>644.2</ele><time>2026-05-02T11:08:49.259Z</time></trkpt><trkpt lat="44.3150954" lon="8.1548879"><ele>642.5999999999999</ele><time>2026-05-02T11:08:51.26Z</time></trkpt><trkpt lat="44.315129" lon="8.1549967"><ele>641.0</ele><time>2026-05-02T11:08:53.267Z</time></trkpt><trkpt lat="44.3152164" lon="8.1549382"><ele>641.0</ele><time>2026-05-02T11:08:55.262Z</time></trkpt><trkpt lat="44.3152594" lon="8.1548478"><ele>641.0</ele><time>2026-05-02T11:08:56.258Z</time></trkpt><trkpt lat="44.3153124" lon="8.1547073"><ele>641.0</ele><time>2026-05-02T11:08:57.258Z</time></trkpt><trkpt lat="44.3153471" lon="8.1545825"><ele>641.0</ele><time>2026-05-02T11:08:58.261Z</time></trkpt><trkpt lat="44.315384" lon="8.1544718"><ele>641.0</ele><time>2026-05-02T11:08:59.267Z</time></trkpt><trkpt lat="44.3154925" lon="8.1543992"><ele>637.3333333333333</ele><time>2026-05-02T11:09:01.278Z</time></trkpt><trkpt lat="44.3155852" lon="8.1544145"><ele>633.6666666666666</ele><time>2026-05-02T11:09:02.259Z</time></trkpt><trkpt lat="44.3156865" lon="8.1544107"><ele>630.0</ele><time>2026-05-02T11:09:03.264Z</time></trkpt><trkpt lat="44.3157645" lon="8.1543884"><ele>626.3333333333334</ele><time>2026-05-02T11:09:04.258Z</time></trkpt><trkpt lat="44.3158487" lon="8.1544463"><ele>622.6666666666667</ele><time>2026-05-02T11:09:06.265Z</time></trkpt><trkpt lat="44.3158488" lon="8.1545568"><ele>619.0</ele><time>2026-05-02T11:09:07.269Z</time></trkpt><trkpt lat="44.315837" lon="8.1547049"><ele>619.0</ele><time>2026-05-02T11:09:08.26Z</time></trkpt><trkpt lat="44.3158162" lon="8.154869"><ele>619.0</ele><time>2026-05-02T11:09:09.259Z</time></trkpt><trkpt lat="44.3157913" lon="8.1550233"><ele>619.0</ele><time>2026-05-02T11:09:10.259Z</time></trkpt><trkpt lat="44.3157571" lon="8.15516"><ele>619.0</ele><time>2026-05-02T11:09:11.258Z</time></trkpt><trkpt lat="44.3157471" lon="8.1552829"><ele>619.0</ele><time>2026-05-02T11:09:12.257Z</time></trkpt><trkpt lat="44.3157352" lon="8.1554032"><ele>618.3333333333334</ele><time>2026-05-02T11:09:13.255Z</time></trkpt><trkpt lat="44.3157196" lon="8.155521"><ele>617.6666666666667</ele><time>2026-05-02T11:09:14.255Z</time></trkpt><trkpt lat="44.3156914" lon="8.155624"><ele>617.0</ele><time>2026-05-02T11:09:15.262Z</time></trkpt><trkpt lat="44.3156436" lon="8.1557087"><ele>616.3333333333334</ele><time>2026-05-02T11:09:16.255Z</time></trkpt><trkpt lat="44.3155868" lon="8.1557903"><ele>615.6666666666666</ele><time>2026-05-02T11:09:17.258Z</time></trkpt><trkpt lat="44.3155208" lon="8.155894"><ele>615.0</ele><time>2026-05-02T11:09:18.258Z</time></trkpt><trkpt lat="44.315468" lon="8.1560289"><ele>615.0</ele><time>2026-05-02T11:09:19.259Z</time></trkpt><trkpt lat="44.3154144" lon="8.1561701"><ele>615.0</ele><time>2026-05-02T11:09:20.255Z</time></trkpt><trkpt lat="44.3153664" lon="8.1563122"><ele>615.0</ele><time>2026-05-02T11:09:21.26Z</time></trkpt><trkpt lat="44.3153177" lon="8.1564536"><ele>615.0</ele><time>2026-05-02T11:09:22.261Z</time></trkpt><trkpt lat="44.3152777" lon="8.1565882"><ele>615.0</ele><time>2026-05-02T11:09:23.264Z</time></trkpt><trkpt lat="44.315246" lon="8.1567229"><ele>611.6</ele><time>2026-05-02T11:09:24.263Z</time></trkpt><trkpt lat="44.3151957" lon="8.1568515"><ele>608.2</ele><time>2026-05-02T11:09:25.263Z</time></trkpt><trkpt lat="44.3151416" lon="8.1569733"><ele>604.8</ele><time>2026-05-02T11:09:26.266Z</time></trkpt><trkpt lat="44.3150954" lon="8.1570919"><ele>601.4</ele><time>2026-05-02T11:09:27.269Z</time></trkpt><trkpt lat="44.3150553" lon="8.1571975"><ele>598.0</ele><time>2026-05-02T11:09:28.269Z</time></trkpt><trkpt lat="44.3150113" lon="8.1572967"><ele>598.0</ele><time>2026-05-02T11:09:29.266Z</time></trkpt><trkpt lat="44.3149563" lon="8.1573713"><ele>598.0</ele><time>2026-05-02T11:09:30.277Z</time></trkpt><trkpt lat="44.3148937" lon="8.1574096"><ele>598.0</ele><time>2026-05-02T11:09:31.268Z</time></trkpt><trkpt lat="44.3148446" lon="8.1574676"><ele>598.0</ele><time>2026-05-02T11:09:33.27Z</time></trkpt><trkpt lat="44.3149333" lon="8.1574585"><ele>598.0</ele><time>2026-05-02T11:09:35.273Z</time></trkpt><trkpt lat="44.3150239" lon="8.157393"><ele>598.0</ele><time>2026-05-02T11:09:36.271Z</time></trkpt><trkpt lat="44.3151378" lon="8.1572868"><ele>598.0</ele><time>2026-05-02T11:09:37.267Z</time></trkpt><trkpt lat="44.3152434" lon="8.1571807"><ele>598.0</ele><time>2026-05-02T11:09:38.266Z</time></trkpt><trkpt lat="44.3153419" lon="8.1570903"><ele>598.0</ele><time>2026-05-02T11:09:39.264Z</time></trkpt><trkpt lat="44.3154378" lon="8.1570325"><ele>598.0</ele><time>2026-05-02T11:09:40.266Z</time></trkpt><trkpt lat="44.3155303" lon="8.1569867"><ele>594.0</ele><time>2026-05-02T11:09:41.263Z</time></trkpt><trkpt lat="44.3155956" lon="8.1569325"><ele>590.0</ele><time>2026-05-02T11:09:42.264Z</time></trkpt><trkpt lat="44.3156401" lon="8.156857"><ele>586.0</ele><time>2026-05-02T11:09:43.259Z</time></trkpt><trkpt lat="44.315666" lon="8.1567687"><ele>582.0</ele><time>2026-05-02T11:09:44.261Z</time></trkpt><trkpt lat="44.3156911" lon="8.1566436"><ele>578.0</ele><time>2026-05-02T11:09:46.265Z</time></trkpt><trkpt lat="44.3157301" lon="8.1567599"><ele>574.0</ele><time>2026-05-02T11:09:49.255Z</time></trkpt><trkpt lat="44.315719" lon="8.1568609"><ele>574.0</ele><time>2026-05-02T11:09:50.265Z</time></trkpt><trkpt lat="44.3157062" lon="8.1569657"><ele>574.0</ele><time>2026-05-02T11:09:51.261Z</time></trkpt><trkpt lat="44.3157357" lon="8.1570698"><ele>574.0</ele><time>2026-05-02T11:09:53.264Z</time></trkpt><trkpt lat="44.3158049" lon="8.1569734"><ele>574.0</ele><time>2026-05-02T11:09:55.263Z</time></trkpt><trkpt lat="44.3158393" lon="8.1568359"><ele>574.0</ele><time>2026-05-02T11:09:56.26Z</time></trkpt><trkpt lat="44.3158778" lon="8.1566807"><ele>574.0</ele><time>2026-05-02T11:09:57.258Z</time></trkpt><trkpt lat="44.3159267" lon="8.1565374"><ele>574.0</ele><time>2026-05-02T11:09:58.261Z</time></trkpt><trkpt lat="44.3159913" lon="8.1564022"><ele>574.0</ele><time>2026-05-02T11:09:59.258Z</time></trkpt><trkpt lat="44.3160507" lon="8.1562868"><ele>574.0</ele><time>2026-05-02T11:10:00.25Z</time></trkpt><trkpt lat="44.3161238" lon="8.1561806"><ele>574.0</ele><time>2026-05-02T11:10:01.265Z</time></trkpt><trkpt lat="44.3162007" lon="8.1560955"><ele>577.4</ele><time>2026-05-02T11:10:02.255Z</time></trkpt><trkpt lat="44.3162678" lon="8.1560329"><ele>580.8</ele><time>2026-05-02T11:10:03.257Z</time></trkpt><trkpt lat="44.3163612" lon="8.1560321"><ele>584.2</ele><time>2026-05-02T11:10:05.262Z</time></trkpt><trkpt lat="44.3163669" lon="8.1561922"><ele>587.6</ele><time>2026-05-02T11:10:07.269Z</time></trkpt><trkpt lat="44.3163278" lon="8.1563233"><ele>591.0</ele><time>2026-05-02T11:10:08.263Z</time></trkpt><trkpt lat="44.3162606" lon="8.1564806"><ele>587.6</ele><time>2026-05-02T11:10:09.254Z</time></trkpt><trkpt lat="44.3161886" lon="8.1566364"><ele>584.2</ele><time>2026-05-02T11:10:10.255Z</time></trkpt><trkpt lat="44.31613" lon="8.1567798"><ele>580.8</ele><time>2026-05-02T11:10:11.256Z</time></trkpt><trkpt lat="44.3160921" lon="8.1569142"><ele>577.4</ele><time>2026-05-02T11:10:12.253Z</time></trkpt><trkpt lat="44.3160714" lon="8.1570412"><ele>574.0</ele><time>2026-05-02T11:10:13.249Z</time></trkpt><trkpt lat="44.3160658" lon="8.1571559"><ele>574.0</ele><time>2026-05-02T11:10:14.25Z</time></trkpt><trkpt lat="44.3160719" lon="8.1572751"><ele>574.0</ele><time>2026-05-02T11:10:15.257Z</time></trkpt><trkpt lat="44.3160815" lon="8.157365"><ele>574.0</ele><time>2026-05-02T11:10:16.255Z</time></trkpt><trkpt lat="44.3160618" lon="8.1574737"><ele>574.0</ele><time>2026-05-02T11:10:18.254Z</time></trkpt><trkpt lat="44.3159971" lon="8.15753"><ele>574.0</ele><time>2026-05-02T11:10:19.255Z</time></trkpt><trkpt lat="44.3159059" lon="8.1576087"><ele>574.0</ele><time>2026-05-02T11:10:20.253Z</time></trkpt><trkpt lat="44.3158037" lon="8.1576981"><ele>571.4</ele><time>2026-05-02T11:10:21.252Z</time></trkpt><trkpt lat="44.3157032" lon="8.1578019"><ele>568.8</ele><time>2026-05-02T11:10:22.254Z</time></trkpt><trkpt lat="44.3156327" lon="8.1579128"><ele>566.2</ele><time>2026-05-02T11:10:23.259Z</time></trkpt><trkpt lat="44.3155902" lon="8.1580079"><ele>563.6</ele><time>2026-05-02T11:10:24.255Z</time></trkpt><trkpt lat="44.315587" lon="8.1581127"><ele>561.0</ele><time>2026-05-02T11:10:25.264Z</time></trkpt><trkpt lat="44.3156074" lon="8.1582271"><ele>560.6</ele><time>2026-05-02T11:10:26.262Z</time></trkpt><trkpt lat="44.3156214" lon="8.1583296"><ele>560.2</ele><time>2026-05-02T11:10:27.261Z</time></trkpt><trkpt lat="44.3155971" lon="8.1584812"><ele>559.8</ele><time>2026-05-02T11:10:29.269Z</time></trkpt><trkpt lat="44.3155365" lon="8.1585434"><ele>559.4</ele><time>2026-05-02T11:10:30.267Z</time></trkpt><trkpt lat="44.3154413" lon="8.1586161"><ele>559.0</ele><time>2026-05-02T11:10:31.267Z</time></trkpt><trkpt lat="44.3153319" lon="8.158702"><ele>559.0</ele><time>2026-05-02T11:10:32.263Z</time></trkpt><trkpt lat="44.3152314" lon="8.1587773"><ele>559.0</ele><time>2026-05-02T11:10:33.261Z</time></trkpt><trkpt lat="44.3151318" lon="8.1588602"><ele>559.0</ele><time>2026-05-02T11:10:34.258Z</time></trkpt><trkpt lat="44.3150378" lon="8.1589615"><ele>559.0</ele><time>2026-05-02T11:10:35.259Z</time></trkpt><trkpt lat="44.3149584" lon="8.1590884"><ele>553.25</ele><time>2026-05-02T11:10:36.253Z</time></trkpt><trkpt lat="44.3148938" lon="8.1592213"><ele>547.5</ele><time>2026-05-02T11:10:37.25Z</time></trkpt><trkpt lat="44.3148577" lon="8.1593734"><ele>541.75</ele><time>2026-05-02T11:10:38.251Z</time></trkpt><trkpt lat="44.3148079" lon="8.159536"><ele>536.0</ele><time>2026-05-02T11:10:39.255Z</time></trkpt><trkpt lat="44.3147613" lon="8.1596865"><ele>535.5</ele><time>2026-05-02T11:10:40.252Z</time></trkpt><trkpt lat="44.3147063" lon="8.1597974"><ele>535.0</ele><time>2026-05-02T11:10:41.255Z</time></trkpt><trkpt lat="44.3146582" lon="8.1598902"><ele>534.5</ele><time>2026-05-02T11:10:42.255Z</time></trkpt><trkpt lat="44.3146203" lon="8.1599649"><ele>534.0</ele><time>2026-05-02T11:10:43.257Z</time></trkpt><trkpt lat="44.314569" lon="8.160023"><ele>533.5</ele><time>2026-05-02T11:10:48.271Z</time></trkpt><trkpt lat="44.3146363" lon="8.1601182"><ele>533.0</ele><time>2026-05-02T11:10:50.282Z</time></trkpt><trkpt lat="44.3146999" lon="8.1601804"><ele>531.6</ele><time>2026-05-02T11:10:51.271Z</time></trkpt><trkpt lat="44.3147749" lon="8.1602667"><ele>530.1999999999999</ele><time>2026-05-02T11:10:52.305Z</time></trkpt><trkpt lat="44.31486" lon="8.1603665"><ele>528.8</ele><time>2026-05-02T11:10:53.274Z</time></trkpt><trkpt lat="44.3149397" lon="8.1604661"><ele>527.4</ele><time>2026-05-02T11:10:54.27Z</time></trkpt><trkpt lat="44.3150112" lon="8.1605637"><ele>526.0</ele><time>2026-05-02T11:10:55.266Z</time></trkpt><trkpt lat="44.3150762" lon="8.1606367"><ele>526.0</ele><time>2026-05-02T11:10:56.273Z</time></trkpt><trkpt lat="44.3151524" lon="8.1607046"><ele>522.0</ele><time>2026-05-02T11:10:58.27Z</time></trkpt><trkpt lat="44.31522" lon="8.1607803"><ele>522.0</ele><time>2026-05-02T11:11:15.271Z</time></trkpt></trkseg><trkseg><trkpt lat="44.3152239" lon="8.1609212"><ele>522.0</ele><time>2026-05-02T11:36:05.397Z</time></trkpt><trkpt lat="44.3151634" lon="8.1608135"><ele>522.0</ele><time>2026-05-02T11:38:42.271Z</time></trkpt><trkpt lat="44.3150998" lon="8.1607594"><ele>522.0</ele><time>2026-05-02T11:38:44.269Z</time></trkpt><trkpt lat="44.3150477" lon="8.1606892"><ele>522.0</ele><time>2026-05-02T11:38:46.272Z</time></trkpt><trkpt lat="44.3149643" lon="8.1605881"><ele>522.0</ele><time>2026-05-02T11:38:48.268Z</time></trkpt><trkpt lat="44.3149222" lon="8.1605153"><ele>522.0</ele><time>2026-05-02T11:38:49.274Z</time></trkpt><trkpt lat="44.314876" lon="8.1604311"><ele>521.5</ele><time>2026-05-02T11:38:50.274Z</time></trkpt><trkpt lat="44.3148318" lon="8.1603402"><ele>521.0</ele><time>2026-05-02T11:38:51.278Z</time></trkpt><trkpt lat="44.3147722" lon="8.1602611"><ele>520.5</ele><time>2026-05-02T11:38:52.278Z</time></trkpt><trkpt lat="44.3147037" lon="8.160172"><ele>520.0</ele><time>2026-05-02T11:38:53.273Z</time></trkpt><trkpt lat="44.3146349" lon="8.1600752"><ele>519.5</ele><time>2026-05-02T11:38:54.278Z</time></trkpt><trkpt lat="44.3145637" lon="8.1599822"><ele>519.0</ele><time>2026-05-02T11:38:55.282Z</time></trkpt><trkpt lat="44.3144865" lon="8.1598945"><ele>521.8</ele><time>2026-05-02T11:38:56.279Z</time></trkpt><trkpt lat="44.3144061" lon="8.159801"><ele>524.5999999999999</ele><time>2026-05-02T11:38:57.281Z</time></trkpt><trkpt lat="44.3143264" lon="8.1596992"><ele>527.4</ele><time>2026-05-02T11:38:58.286Z</time></trkpt><trkpt lat="44.3142446" lon="8.1595975"><ele>530.1999999999999</ele><time>2026-05-02T11:38:59.277Z</time></trkpt><trkpt lat="44.314153" lon="8.1594885"><ele>533.0</ele><time>2026-05-02T11:39:00.267Z</time></trkpt><trkpt lat="44.314056" lon="8.1593776"><ele>533.0</ele><time>2026-05-02T11:39:01.268Z</time></trkpt><trkpt lat="44.3139556" lon="8.159268"><ele>533.0</ele><time>2026-05-02T11:39:02.267Z</time></trkpt><trkpt lat="44.313864" lon="8.159158"><ele>533.0</ele><time>2026-05-02T11:39:03.279Z</time></trkpt><trkpt lat="44.3137697" lon="8.1590497"><ele>533.0</ele><time>2026-05-02T11:39:04.261Z</time></trkpt><trkpt lat="44.3136791" lon="8.1589396"><ele>533.75</ele><time>2026-05-02T11:39:05.267Z</time></trkpt><trkpt lat="44.3135778" lon="8.1588345"><ele>534.5</ele><time>2026-05-02T11:39:06.261Z</time></trkpt><trkpt lat="44.3134706" lon="8.158732"><ele>535.25</ele><time>2026-05-02T11:39:07.275Z</time></trkpt><trkpt lat="44.3133698" lon="8.1586268"><ele>536.0</ele><time>2026-05-02T11:39:08.266Z</time></trkpt><trkpt lat="44.3132713" lon="8.1585105"><ele>536.0</ele><time>2026-05-02T11:39:09.267Z</time></trkpt><trkpt lat="44.3131726" lon="8.1583909"><ele>536.0</ele><time>2026-05-02T11:39:10.272Z</time></trkpt><trkpt lat="44.313083" lon="8.1582694"><ele>536.0</ele><time>2026-05-02T11:39:11.257Z</time></trkpt><trkpt lat="44.313002" lon="8.1581439"><ele>536.0</ele><time>2026-05-02T11:39:12.271Z</time></trkpt><trkpt lat="44.3129233" lon="8.1580192"><ele>536.0</ele><time>2026-05-02T11:39:13.264Z</time></trkpt><trkpt lat="44.3128449" lon="8.1578858"><ele>536.0</ele><time>2026-05-02T11:39:14.264Z</time></trkpt><trkpt lat="44.3127627" lon="8.1577558"><ele>536.0</ele><time>2026-05-02T11:39:15.261Z</time></trkpt><trkpt lat="44.3126757" lon="8.1576194"><ele>536.0</ele><time>2026-05-02T11:39:16.256Z</time></trkpt><trkpt lat="44.3125893" lon="8.1574869"><ele>537.25</ele><time>2026-05-02T11:39:17.26Z</time></trkpt><trkpt lat="44.312503" lon="8.1573556"><ele>538.5</ele><time>2026-05-02T11:39:18.256Z</time></trkpt><trkpt lat="44.3124108" lon="8.1572223"><ele>539.75</ele><time>2026-05-02T11:39:19.269Z</time></trkpt><trkpt lat="44.3123081" lon="8.1571091"><ele>541.0</ele><time>2026-05-02T11:39:20.258Z</time></trkpt><trkpt lat="44.3121965" lon="8.1570113"><ele>541.0</ele><time>2026-05-02T11:39:21.263Z</time></trkpt><trkpt lat="44.3120764" lon="8.1569241"><ele>541.0</ele><time>2026-05-02T11:39:22.251Z</time></trkpt><trkpt lat="44.3119437" lon="8.1568623"><ele>541.0</ele><time>2026-05-02T11:39:23.254Z</time></trkpt><trkpt lat="44.3118066" lon="8.1568052"><ele>541.0</ele><time>2026-05-02T11:39:24.259Z</time></trkpt><trkpt lat="44.3116838" lon="8.1567468"><ele>541.0</ele><time>2026-05-02T11:39:25.254Z</time></trkpt><trkpt lat="44.3115821" lon="8.1566829"><ele>541.0</ele><time>2026-05-02T11:39:26.251Z</time></trkpt><trkpt lat="44.3115099" lon="8.1565583"><ele>541.0</ele><time>2026-05-02T11:39:27.252Z</time></trkpt><trkpt lat="44.3114465" lon="8.1564107"><ele>541.0</ele><time>2026-05-02T11:39:28.261Z</time></trkpt><trkpt lat="44.3113683" lon="8.1562418"><ele>540.3333333333334</ele><time>2026-05-02T11:39:29.257Z</time></trkpt><trkpt lat="44.3112764" lon="8.1560705"><ele>539.6666666666666</ele><time>2026-05-02T11:39:30.263Z</time></trkpt><trkpt lat="44.3111762" lon="8.1559043"><ele>539.0</ele><time>2026-05-02T11:39:31.248Z</time></trkpt><trkpt lat="44.3110586" lon="8.1557592"><ele>546.3333333333333</ele><time>2026-05-02T11:39:32.251Z</time></trkpt><trkpt lat="44.310921" lon="8.1556304"><ele>553.6666666666666</ele><time>2026-05-02T11:39:33.252Z</time></trkpt><trkpt lat="44.3107913" lon="8.1555246"><ele>561.0</ele><time>2026-05-02T11:39:34.284Z</time></trkpt><trkpt lat="44.3106609" lon="8.155475"><ele>552.75</ele><time>2026-05-02T11:39:35.253Z</time></trkpt><trkpt lat="44.3105281" lon="8.1554366"><ele>544.5</ele><time>2026-05-02T11:39:36.26Z</time></trkpt><trkpt lat="44.3103987" lon="8.1553852"><ele>536.25</ele><time>2026-05-02T11:39:37.266Z</time></trkpt><trkpt lat="44.3102727" lon="8.1553485"><ele>528.0</ele><time>2026-05-02T11:39:38.263Z</time></trkpt><trkpt lat="44.3101725" lon="8.1553091"><ele>528.0</ele><time>2026-05-02T11:39:39.263Z</time></trkpt><trkpt lat="44.3100937" lon="8.1552194"><ele>528.0</ele><time>2026-05-02T11:39:40.276Z</time></trkpt><trkpt lat="44.3100557" lon="8.1550679"><ele>528.0</ele><time>2026-05-02T11:39:41.267Z</time></trkpt><trkpt lat="44.3100647" lon="8.1548922"><ele>528.0</ele><time>2026-05-02T11:39:42.273Z</time></trkpt><trkpt lat="44.3100802" lon="8.1546937"><ele>528.3333333333334</ele><time>2026-05-02T11:39:43.265Z</time></trkpt><trkpt lat="44.3100877" lon="8.1544895"><ele>528.6666666666667</ele><time>2026-05-02T11:39:44.272Z</time></trkpt><trkpt lat="44.3100966" lon="8.1542807"><ele>529.0</ele><time>2026-05-02T11:39:45.268Z</time></trkpt><trkpt lat="44.3101121" lon="8.1540527"><ele>530.0</ele><time>2026-05-02T11:39:46.266Z</time></trkpt><trkpt lat="44.3101241" lon="8.153831"><ele>531.0</ele><time>2026-05-02T11:39:47.266Z</time></trkpt><trkpt lat="44.3101256" lon="8.1536034"><ele>532.0</ele><time>2026-05-02T11:39:48.276Z</time></trkpt><trkpt lat="44.3101179" lon="8.1533789"><ele>532.75</ele><time>2026-05-02T11:39:49.275Z</time></trkpt><trkpt lat="44.3101047" lon="8.1531731"><ele>533.5</ele><time>2026-05-02T11:39:50.267Z</time></trkpt><trkpt lat="44.3100811" lon="8.1529749"><ele>534.25</ele><time>2026-05-02T11:39:51.273Z</time></trkpt><trkpt lat="44.3100324" lon="8.152791"><ele>535.0</ele><time>2026-05-02T11:39:52.271Z</time></trkpt><trkpt lat="44.3099706" lon="8.1526004"><ele>535.0</ele><time>2026-05-02T11:39:53.269Z</time></trkpt><trkpt lat="44.3099228" lon="8.1524095"><ele>535.0</ele><time>2026-05-02T11:39:54.267Z</time></trkpt><trkpt lat="44.3098959" lon="8.1522263"><ele>535.0</ele><time>2026-05-02T11:39:55.268Z</time></trkpt><trkpt lat="44.3098554" lon="8.1520445"><ele>535.0</ele><time>2026-05-02T11:39:56.279Z</time></trkpt><trkpt lat="44.3098161" lon="8.1518577"><ele>535.5</ele><time>2026-05-02T11:39:57.276Z</time></trkpt><trkpt lat="44.30978" lon="8.1516583"><ele>536.0</ele><time>2026-05-02T11:39:58.296Z</time></trkpt><trkpt lat="44.3097471" lon="8.1514641"><ele>536.5</ele><time>2026-05-02T11:39:59.273Z</time></trkpt><trkpt lat="44.3097173" lon="8.1512852"><ele>537.0</ele><time>2026-05-02T11:40:00.278Z</time></trkpt><trkpt lat="44.3096756" lon="8.1511144"><ele>535.0</ele><time>2026-05-02T11:40:01.286Z</time></trkpt><trkpt lat="44.3096484" lon="8.1509324"><ele>533.0</ele><time>2026-05-02T11:40:02.283Z</time></trkpt><trkpt lat="44.3096131" lon="8.1507345"><ele>531.0</ele><time>2026-05-02T11:40:03.275Z</time></trkpt><trkpt lat="44.3095749" lon="8.1505284"><ele>529.0</ele><time>2026-05-02T11:40:04.286Z</time></trkpt><trkpt lat="44.3095417" lon="8.1503178"><ele>529.0</ele><time>2026-05-02T11:40:05.281Z</time></trkpt><trkpt lat="44.3095442" lon="8.1501145"><ele>529.0</ele><time>2026-05-02T11:40:06.28Z</time></trkpt><trkpt lat="44.3095689" lon="8.1499263"><ele>529.0</ele><time>2026-05-02T11:40:07.271Z</time></trkpt><trkpt lat="44.3096189" lon="8.149744"><ele>529.0</ele><time>2026-05-02T11:40:08.278Z</time></trkpt><trkpt lat="44.3096841" lon="8.1495507"><ele>533.0</ele><time>2026-05-02T11:40:09.271Z</time></trkpt><trkpt lat="44.3097686" lon="8.1493581"><ele>537.0</ele><time>2026-05-02T11:40:10.275Z</time></trkpt><trkpt lat="44.3098675" lon="8.1491722"><ele>541.0</ele><time>2026-05-02T11:40:11.266Z</time></trkpt><trkpt lat="44.3099726" lon="8.1489885"><ele>541.3333333333334</ele><time>2026-05-02T11:40:12.264Z</time></trkpt><trkpt lat="44.3100783" lon="8.1488083"><ele>541.6666666666666</ele><time>2026-05-02T11:40:13.267Z</time></trkpt><trkpt lat="44.3101495" lon="8.148626"><ele>542.0</ele><time>2026-05-02T11:40:14.262Z</time></trkpt><trkpt lat="44.3101854" lon="8.1484239"><ele>543.3333333333333</ele><time>2026-05-02T11:40:15.259Z</time></trkpt><trkpt lat="44.3101883" lon="8.1481931"><ele>544.6666666666666</ele><time>2026-05-02T11:40:16.261Z</time></trkpt><trkpt lat="44.3102033" lon="8.1479384"><ele>546.0</ele><time>2026-05-02T11:40:17.262Z</time></trkpt><trkpt lat="44.3102116" lon="8.1476667"><ele>546.0</ele><time>2026-05-02T11:40:18.264Z</time></trkpt><trkpt lat="44.3102183" lon="8.1474077"><ele>546.0</ele><time>2026-05-02T11:40:19.265Z</time></trkpt><trkpt lat="44.3102139" lon="8.147167"><ele>546.0</ele><time>2026-05-02T11:40:20.262Z</time></trkpt><trkpt lat="44.3101992" lon="8.1469523"><ele>545.25</ele><time>2026-05-02T11:40:21.267Z</time></trkpt><trkpt lat="44.3101775" lon="8.1467478"><ele>544.5</ele><time>2026-05-02T11:40:22.256Z</time></trkpt><trkpt lat="44.3101614" lon="8.1465588"><ele>543.75</ele><time>2026-05-02T11:40:23.264Z</time></trkpt><trkpt lat="44.3101364" lon="8.1463652"><ele>543.0</ele><time>2026-05-02T11:40:24.256Z</time></trkpt><trkpt lat="44.3100952" lon="8.1461868"><ele>543.0</ele><time>2026-05-02T11:40:25.255Z</time></trkpt><trkpt lat="44.3100508" lon="8.1460197"><ele>543.0</ele><time>2026-05-02T11:40:26.259Z</time></trkpt><trkpt lat="44.3100226" lon="8.1458474"><ele>543.0</ele><time>2026-05-02T11:40:27.276Z</time></trkpt><trkpt lat="44.3100023" lon="8.1456587"><ele>543.0</ele><time>2026-05-02T11:40:28.284Z</time></trkpt><trkpt lat="44.3100039" lon="8.1454547"><ele>542.0</ele><time>2026-05-02T11:40:29.269Z</time></trkpt><trkpt lat="44.3100382" lon="8.1452463"><ele>541.0</ele><time>2026-05-02T11:40:30.278Z</time></trkpt><trkpt lat="44.3100779" lon="8.1450572"><ele>540.0</ele><time>2026-05-02T11:40:31.257Z</time></trkpt><trkpt lat="44.3101581" lon="8.1448612"><ele>540.0</ele><time>2026-05-02T11:40:32.268Z</time></trkpt><trkpt lat="44.3102431" lon="8.1446875"><ele>540.0</ele><time>2026-05-02T11:40:33.273Z</time></trkpt><trkpt lat="44.3103582" lon="8.1445435"><ele>540.0</ele><time>2026-05-02T11:40:34.275Z</time></trkpt><trkpt lat="44.3104819" lon="8.1444126"><ele>539.75</ele><time>2026-05-02T11:40:35.275Z</time></trkpt><trkpt lat="44.3105912" lon="8.1442861"><ele>539.5</ele><time>2026-05-02T11:40:36.263Z</time></trkpt><trkpt lat="44.3106926" lon="8.1441313"><ele>539.25</ele><time>2026-05-02T11:40:37.267Z</time></trkpt><trkpt lat="44.3108004" lon="8.1439909"><ele>539.0</ele><time>2026-05-02T11:40:38.257Z</time></trkpt><trkpt lat="44.3109149" lon="8.1438497"><ele>539.0</ele><time>2026-05-02T11:40:39.272Z</time></trkpt><trkpt lat="44.3110044" lon="8.1436635"><ele>539.0</ele><time>2026-05-02T11:40:40.259Z</time></trkpt><trkpt lat="44.3110866" lon="8.1434817"><ele>539.0</ele><time>2026-05-02T11:40:41.261Z</time></trkpt><trkpt lat="44.3111422" lon="8.143285"><ele>539.5</ele><time>2026-05-02T11:40:42.263Z</time></trkpt><trkpt lat="44.3111841" lon="8.1430923"><ele>540.0</ele><time>2026-05-02T11:40:43.27Z</time></trkpt><trkpt lat="44.3112214" lon="8.1428981"><ele>540.5</ele><time>2026-05-02T11:40:44.269Z</time></trkpt><trkpt lat="44.3112574" lon="8.1427048"><ele>541.0</ele><time>2026-05-02T11:40:45.271Z</time></trkpt><trkpt lat="44.3112808" lon="8.1424966"><ele>542.6666666666667</ele><time>2026-05-02T11:40:46.263Z</time></trkpt><trkpt lat="44.311303" lon="8.1422676"><ele>544.3333333333334</ele><time>2026-05-02T11:40:47.272Z</time></trkpt><trkpt lat="44.3113318" lon="8.1420493"><ele>546.0</ele><time>2026-05-02T11:40:48.267Z</time></trkpt><trkpt lat="44.3113454" lon="8.1418141"><ele>546.0</ele><time>2026-05-02T11:40:49.259Z</time></trkpt><trkpt lat="44.3113675" lon="8.1416091"><ele>546.0</ele><time>2026-05-02T11:40:50.271Z</time></trkpt><trkpt lat="44.3113956" lon="8.1414093"><ele>546.0</ele><time>2026-05-02T11:40:51.267Z</time></trkpt><trkpt lat="44.3114184" lon="8.1412059"><ele>546.0</ele><time>2026-05-02T11:40:52.267Z</time></trkpt><trkpt lat="44.3114318" lon="8.1410016"><ele>548.25</ele><time>2026-05-02T11:40:53.256Z</time></trkpt><trkpt lat="44.3114395" lon="8.1407963"><ele>550.5</ele><time>2026-05-02T11:40:54.26Z</time></trkpt><trkpt lat="44.3114488" lon="8.1405922"><ele>552.75</ele><time>2026-05-02T11:40:55.266Z</time></trkpt><trkpt lat="44.3114572" lon="8.1403844"><ele>555.0</ele><time>2026-05-02T11:40:56.273Z</time></trkpt><trkpt lat="44.3114542" lon="8.140169"><ele>556.0</ele><time>2026-05-02T11:40:57.271Z</time></trkpt><trkpt lat="44.3114505" lon="8.1399478"><ele>557.0</ele><time>2026-05-02T11:40:58.284Z</time></trkpt><trkpt lat="44.3114391" lon="8.1397264"><ele>558.0</ele><time>2026-05-02T11:40:59.272Z</time></trkpt><trkpt lat="44.3114348" lon="8.1395124"><ele>558.5</ele><time>2026-05-02T11:41:00.275Z</time></trkpt><trkpt lat="44.3114368" lon="8.1393206"><ele>559.0</ele><time>2026-05-02T11:41:01.275Z</time></trkpt><trkpt lat="44.311432" lon="8.1391394"><ele>559.5</ele><time>2026-05-02T11:41:02.274Z</time></trkpt><trkpt lat="44.3114181" lon="8.1389608"><ele>560.0</ele><time>2026-05-02T11:41:03.28Z</time></trkpt><trkpt lat="44.3114114" lon="8.1387843"><ele>560.25</ele><time>2026-05-02T11:41:04.266Z</time></trkpt><trkpt lat="44.3114095" lon="8.138613"><ele>560.5</ele><time>2026-05-02T11:41:05.27Z</time></trkpt><trkpt lat="44.3114052" lon="8.1384485"><ele>560.75</ele><time>2026-05-02T11:41:06.286Z</time></trkpt><trkpt lat="44.3113966" lon="8.1382642"><ele>561.0</ele><time>2026-05-02T11:41:07.267Z</time></trkpt><trkpt lat="44.3113903" lon="8.1380769"><ele>557.75</ele><time>2026-05-02T11:41:08.278Z</time></trkpt><trkpt lat="44.3113777" lon="8.137888"><ele>554.5</ele><time>2026-05-02T11:41:09.267Z</time></trkpt><trkpt lat="44.3113687" lon="8.1376906"><ele>551.25</ele><time>2026-05-02T11:41:10.273Z</time></trkpt><trkpt lat="44.3113547" lon="8.1374737"><ele>548.0</ele><time>2026-05-02T11:41:11.276Z</time></trkpt><trkpt lat="44.3113519" lon="8.13725"><ele>548.0</ele><time>2026-05-02T11:41:12.28Z</time></trkpt><trkpt lat="44.3113491" lon="8.1370254"><ele>548.0</ele><time>2026-05-02T11:41:13.277Z</time></trkpt><trkpt lat="44.3113428" lon="8.1368141"><ele>548.0</ele><time>2026-05-02T11:41:14.282Z</time></trkpt><trkpt lat="44.3113357" lon="8.1365924"><ele>553.6666666666666</ele><time>2026-05-02T11:41:15.284Z</time></trkpt><trkpt lat="44.3113203" lon="8.1363565"><ele>559.3333333333334</ele><time>2026-05-02T11:41:16.278Z</time></trkpt><trkpt lat="44.3113152" lon="8.1361321"><ele>565.0</ele><time>2026-05-02T11:41:17.28Z</time></trkpt><trkpt lat="44.3113093" lon="8.1358995"><ele>569.3333333333334</ele><time>2026-05-02T11:41:18.271Z</time></trkpt><trkpt lat="44.3112896" lon="8.1356562"><ele>573.6666666666666</ele><time>2026-05-02T11:41:19.279Z</time></trkpt><trkpt lat="44.3112891" lon="8.1354197"><ele>578.0</ele><time>2026-05-02T11:41:20.276Z</time></trkpt><trkpt lat="44.3112758" lon="8.1351887"><ele>578.0</ele><time>2026-05-02T11:41:21.271Z</time></trkpt><trkpt lat="44.3112646" lon="8.1349543"><ele>578.0</ele><time>2026-05-02T11:41:22.269Z</time></trkpt><trkpt lat="44.3112497" lon="8.1347109"><ele>578.0</ele><time>2026-05-02T11:41:23.27Z</time></trkpt><trkpt lat="44.3112352" lon="8.1344746"><ele>578.6666666666666</ele><time>2026-05-02T11:41:24.278Z</time></trkpt><trkpt lat="44.3112272" lon="8.1342266"><ele>579.3333333333334</ele><time>2026-05-02T11:41:25.271Z</time></trkpt><trkpt lat="44.3112092" lon="8.1339867"><ele>580.0</ele><time>2026-05-02T11:41:26.274Z</time></trkpt><trkpt lat="44.3111886" lon="8.1337517"><ele>575.3333333333334</ele><time>2026-05-02T11:41:27.261Z</time></trkpt><trkpt lat="44.3111733" lon="8.1335191"><ele>570.6666666666666</ele><time>2026-05-02T11:41:28.279Z</time></trkpt><trkpt lat="44.3111318" lon="8.1333085"><ele>566.0</ele><time>2026-05-02T11:41:29.267Z</time></trkpt><trkpt lat="44.3110721" lon="8.1331053"><ele>561.3333333333333</ele><time>2026-05-02T11:41:30.269Z</time></trkpt><trkpt lat="44.3109735" lon="8.1329213"><ele>556.6666666666666</ele><time>2026-05-02T11:41:31.273Z</time></trkpt><trkpt lat="44.3108593" lon="8.132757"><ele>552.0</ele><time>2026-05-02T11:41:32.271Z</time></trkpt><trkpt lat="44.3107389" lon="8.1326005"><ele>552.0</ele><time>2026-05-02T11:41:33.274Z</time></trkpt><trkpt lat="44.3105903" lon="8.1324661"><ele>552.0</ele><time>2026-05-02T11:41:34.275Z</time></trkpt><trkpt lat="44.3104454" lon="8.1323143"><ele>552.0</ele><time>2026-05-02T11:41:35.272Z</time></trkpt><trkpt lat="44.3103008" lon="8.1321609"><ele>552.3333333333334</ele><time>2026-05-02T11:41:36.269Z</time></trkpt><trkpt lat="44.3101597" lon="8.1320262"><ele>552.6666666666667</ele><time>2026-05-02T11:41:37.277Z</time></trkpt><trkpt lat="44.3100271" lon="8.1318925"><ele>553.0</ele><time>2026-05-02T11:41:38.269Z</time></trkpt><trkpt lat="44.3098998" lon="8.1317573"><ele>553.0</ele><time>2026-05-02T11:41:39.272Z</time></trkpt><trkpt lat="44.3097809" lon="8.1316207"><ele>553.0</ele><time>2026-05-02T11:41:40.269Z</time></trkpt><trkpt lat="44.3096569" lon="8.1314788"><ele>553.0</ele><time>2026-05-02T11:41:41.276Z</time></trkpt><trkpt lat="44.309533" lon="8.1313186"><ele>558.0</ele><time>2026-05-02T11:41:42.275Z</time></trkpt><trkpt lat="44.3094229" lon="8.131151"><ele>563.0</ele><time>2026-05-02T11:41:43.273Z</time></trkpt><trkpt lat="44.3093207" lon="8.1309704"><ele>568.0</ele><time>2026-05-02T11:41:44.266Z</time></trkpt><trkpt lat="44.3092277" lon="8.1307777"><ele>563.3333333333334</ele><time>2026-05-02T11:41:45.269Z</time></trkpt><trkpt lat="44.3091365" lon="8.1305639"><ele>558.6666666666666</ele><time>2026-05-02T11:41:46.268Z</time></trkpt><trkpt lat="44.3090474" lon="8.1303482"><ele>554.0</ele><time>2026-05-02T11:41:47.272Z</time></trkpt><trkpt lat="44.3089557" lon="8.1301145"><ele>560.0</ele><time>2026-05-02T11:41:48.271Z</time></trkpt><trkpt lat="44.3088592" lon="8.1298986"><ele>566.0</ele><time>2026-05-02T11:41:49.267Z</time></trkpt><trkpt lat="44.3087776" lon="8.1296881"><ele>572.0</ele><time>2026-05-02T11:41:50.261Z</time></trkpt><trkpt lat="44.3086889" lon="8.1294876"><ele>572.0</ele><time>2026-05-02T11:41:51.273Z</time></trkpt><trkpt lat="44.3086166" lon="8.1292964"><ele>572.0</ele><time>2026-05-02T11:41:52.268Z</time></trkpt><trkpt lat="44.3085406" lon="8.1291027"><ele>572.0</ele><time>2026-05-02T11:41:53.272Z</time></trkpt><trkpt lat="44.3084603" lon="8.1289148"><ele>567.6666666666666</ele><time>2026-05-02T11:41:54.267Z</time></trkpt><trkpt lat="44.3083754" lon="8.1287184"><ele>563.3333333333334</ele><time>2026-05-02T11:41:55.271Z</time></trkpt><trkpt lat="44.3082844" lon="8.1284987"><ele>559.0</ele><time>2026-05-02T11:41:56.261Z</time></trkpt><trkpt lat="44.3081934" lon="8.1282867"><ele>557.3333333333334</ele><time>2026-05-02T11:41:57.271Z</time></trkpt><trkpt lat="44.3081022" lon="8.128067"><ele>555.6666666666666</ele><time>2026-05-02T11:41:58.28Z</time></trkpt><trkpt lat="44.3080229" lon="8.1278544"><ele>554.0</ele><time>2026-05-02T11:41:59.26Z</time></trkpt><trkpt lat="44.3079591" lon="8.1276373"><ele>562.3333333333333</ele><time>2026-05-02T11:42:00.277Z</time></trkpt><trkpt lat="44.3079082" lon="8.1274196"><ele>570.6666666666666</ele><time>2026-05-02T11:42:01.28Z</time></trkpt><trkpt lat="44.307866" lon="8.1271998"><ele>579.0</ele><time>2026-05-02T11:42:02.285Z</time></trkpt><trkpt lat="44.3078339" lon="8.1269878"><ele>579.0</ele><time>2026-05-02T11:42:03.284Z</time></trkpt><trkpt lat="44.3078065" lon="8.126763"><ele>579.0</ele><time>2026-05-02T11:42:04.273Z</time></trkpt><trkpt lat="44.3077882" lon="8.1265347"><ele>579.0</ele><time>2026-05-02T11:42:05.286Z</time></trkpt><trkpt lat="44.3077761" lon="8.1263199"><ele>578.25</ele><time>2026-05-02T11:42:06.271Z</time></trkpt><trkpt lat="44.3077782" lon="8.1261189"><ele>577.5</ele><time>2026-05-02T11:42:07.271Z</time></trkpt><trkpt lat="44.3077709" lon="8.1259214"><ele>576.75</ele><time>2026-05-02T11:42:08.284Z</time></trkpt><trkpt lat="44.3077484" lon="8.1257178"><ele>576.0</ele><time>2026-05-02T11:42:09.276Z</time></trkpt><trkpt lat="44.3077458" lon="8.1255036"><ele>576.0</ele><time>2026-05-02T11:42:10.271Z</time></trkpt><trkpt lat="44.3077334" lon="8.1252847"><ele>576.0</ele><time>2026-05-02T11:42:11.272Z</time></trkpt><trkpt lat="44.3077206" lon="8.1250795"><ele>576.0</ele><time>2026-05-02T11:42:12.275Z</time></trkpt><trkpt lat="44.3077034" lon="8.1248742"><ele>576.0</ele><time>2026-05-02T11:42:13.279Z</time></trkpt><trkpt lat="44.3076912" lon="8.1246736"><ele>576.0</ele><time>2026-05-02T11:42:14.277Z</time></trkpt><trkpt lat="44.307678" lon="8.1244858"><ele>576.0</ele><time>2026-05-02T11:42:15.276Z</time></trkpt><trkpt lat="44.3076516" lon="8.1242961"><ele>576.0</ele><time>2026-05-02T11:42:16.275Z</time></trkpt><trkpt lat="44.3076346" lon="8.1241098"><ele>575.5</ele><time>2026-05-02T11:42:17.281Z</time></trkpt><trkpt lat="44.3076104" lon="8.1239201"><ele>575.0</ele><time>2026-05-02T11:42:18.274Z</time></trkpt><trkpt lat="44.3075993" lon="8.1237323"><ele>574.5</ele><time>2026-05-02T11:42:19.273Z</time></trkpt><trkpt lat="44.3075891" lon="8.1235341"><ele>574.0</ele><time>2026-05-02T11:42:20.275Z</time></trkpt><trkpt lat="44.307582" lon="8.1233326"><ele>572.5</ele><time>2026-05-02T11:42:21.277Z</time></trkpt><trkpt lat="44.3075686" lon="8.1231325"><ele>571.0</ele><time>2026-05-02T11:42:22.28Z</time></trkpt><trkpt lat="44.3075564" lon="8.1229295"><ele>569.5</ele><time>2026-05-02T11:42:23.271Z</time></trkpt><trkpt lat="44.3075436" lon="8.1227282"><ele>568.0</ele><time>2026-05-02T11:42:24.278Z</time></trkpt><trkpt lat="44.3075347" lon="8.1225199"><ele>565.5</ele><time>2026-05-02T11:42:25.274Z</time></trkpt><trkpt lat="44.3075209" lon="8.1223287"><ele>563.0</ele><time>2026-05-02T11:42:26.273Z</time></trkpt><trkpt lat="44.3074896" lon="8.1221353"><ele>560.5</ele><time>2026-05-02T11:42:27.267Z</time></trkpt><trkpt lat="44.3074391" lon="8.1219533"><ele>558.0</ele><time>2026-05-02T11:42:28.281Z</time></trkpt><trkpt lat="44.3073579" lon="8.1217945"><ele>558.0</ele><time>2026-05-02T11:42:29.269Z</time></trkpt><trkpt lat="44.3072818" lon="8.1216466"><ele>558.0</ele><time>2026-05-02T11:42:30.273Z</time></trkpt><trkpt lat="44.3071825" lon="8.1215169"><ele>558.0</ele><time>2026-05-02T11:42:31.273Z</time></trkpt><trkpt lat="44.3070879" lon="8.1214188"><ele>558.0</ele><time>2026-05-02T11:42:32.278Z</time></trkpt><trkpt lat="44.3070053" lon="8.1213458"><ele>558.0</ele><time>2026-05-02T11:42:33.282Z</time></trkpt><trkpt lat="44.306888" lon="8.1213369"><ele>558.0</ele><time>2026-05-02T11:42:34.272Z</time></trkpt><trkpt lat="44.306766" lon="8.1213712"><ele>558.0</ele><time>2026-05-02T11:42:35.28Z</time></trkpt><trkpt lat="44.3066365" lon="8.1214449"><ele>558.0</ele><time>2026-05-02T11:42:36.267Z</time></trkpt><trkpt lat="44.3064996" lon="8.1214833"><ele>558.3333333333334</ele><time>2026-05-02T11:42:37.278Z</time></trkpt><trkpt lat="44.3063483" lon="8.1214987"><ele>558.6666666666667</ele><time>2026-05-02T11:42:38.27Z</time></trkpt><trkpt lat="44.3061954" lon="8.1214941"><ele>559.0</ele><time>2026-05-02T11:42:39.284Z</time></trkpt><trkpt lat="44.3060432" lon="8.121503"><ele>559.0</ele><time>2026-05-02T11:42:40.269Z</time></trkpt><trkpt lat="44.3058858" lon="8.1215191"><ele>559.0</ele><time>2026-05-02T11:42:41.277Z</time></trkpt><trkpt lat="44.3057229" lon="8.1215285"><ele>559.0</ele><time>2026-05-02T11:42:42.273Z</time></trkpt><trkpt lat="44.3055624" lon="8.1215405"><ele>560.6666666666667</ele><time>2026-05-02T11:42:43.272Z</time></trkpt><trkpt lat="44.3053943" lon="8.1215713"><ele>562.3333333333334</ele><time>2026-05-02T11:42:44.271Z</time></trkpt><trkpt lat="44.3052394" lon="8.1215997"><ele>564.0</ele><time>2026-05-02T11:42:45.275Z</time></trkpt><trkpt lat="44.3050998" lon="8.1216338"><ele>564.0</ele><time>2026-05-02T11:42:46.272Z</time></trkpt><trkpt lat="44.3049683" lon="8.1216798"><ele>564.0</ele><time>2026-05-02T11:42:47.273Z</time></trkpt><trkpt lat="44.3048576" lon="8.1217349"><ele>564.0</ele><time>2026-05-02T11:42:48.275Z</time></trkpt><trkpt lat="44.3047479" lon="8.1218423"><ele>564.0</ele><time>2026-05-02T11:42:49.283Z</time></trkpt><trkpt lat="44.3046769" lon="8.1220069"><ele>562.6666666666666</ele><time>2026-05-02T11:42:50.276Z</time></trkpt><trkpt lat="44.3046206" lon="8.1222008"><ele>561.3333333333333</ele><time>2026-05-02T11:42:51.28Z</time></trkpt><trkpt lat="44.3045627" lon="8.1224088"><ele>560.0</ele><time>2026-05-02T11:42:52.274Z</time></trkpt><trkpt lat="44.3045225" lon="8.1226363"><ele>560.0</ele><time>2026-05-02T11:42:53.283Z</time></trkpt><trkpt lat="44.3044758" lon="8.1228712"><ele>560.0</ele><time>2026-05-02T11:42:54.279Z</time></trkpt><trkpt lat="44.3044207" lon="8.1230758"><ele>560.0</ele><time>2026-05-02T11:42:55.282Z</time></trkpt><trkpt lat="44.3043494" lon="8.1232672"><ele>560.3333333333333</ele><time>2026-05-02T11:42:56.273Z</time></trkpt><trkpt lat="44.3042658" lon="8.1234389"><ele>560.6666666666666</ele><time>2026-05-02T11:42:57.275Z</time></trkpt><trkpt lat="44.3041497" lon="8.1235915"><ele>561.0</ele><time>2026-05-02T11:42:58.294Z</time></trkpt><trkpt lat="44.30401" lon="8.123709"><ele>561.6666666666666</ele><time>2026-05-02T11:42:59.268Z</time></trkpt><trkpt lat="44.3038721" lon="8.1237852"><ele>562.3333333333333</ele><time>2026-05-02T11:43:00.274Z</time></trkpt><trkpt lat="44.3037147" lon="8.1238494"><ele>563.0</ele><time>2026-05-02T11:43:01.281Z</time></trkpt><trkpt lat="44.3035559" lon="8.123917"><ele>563.0</ele><time>2026-05-02T11:43:02.282Z</time></trkpt><trkpt lat="44.3034008" lon="8.124001"><ele>563.0</ele><time>2026-05-02T11:43:03.286Z</time></trkpt><trkpt lat="44.3032461" lon="8.1240905"><ele>563.0</ele><time>2026-05-02T11:43:04.275Z</time></trkpt><trkpt lat="44.3030776" lon="8.1241864"><ele>563.3333333333333</ele><time>2026-05-02T11:43:05.283Z</time></trkpt><trkpt lat="44.3029017" lon="8.1242872"><ele>563.6666666666666</ele><time>2026-05-02T11:43:06.267Z</time></trkpt><trkpt lat="44.3027308" lon="8.1243813"><ele>564.0</ele><time>2026-05-02T11:43:07.283Z</time></trkpt><trkpt lat="44.3025599" lon="8.1244678"><ele>564.0</ele><time>2026-05-02T11:43:08.272Z</time></trkpt><trkpt lat="44.3023921" lon="8.1245482"><ele>564.0</ele><time>2026-05-02T11:43:09.274Z</time></trkpt><trkpt lat="44.3022334" lon="8.1246092"><ele>564.0</ele><time>2026-05-02T11:43:10.281Z</time></trkpt><trkpt lat="44.3020779" lon="8.1246259"><ele>565.0</ele><time>2026-05-02T11:43:11.268Z</time></trkpt><trkpt lat="44.3019189" lon="8.1246318"><ele>566.0</ele><time>2026-05-02T11:43:12.273Z</time></trkpt><trkpt lat="44.301758" lon="8.1246419"><ele>567.0</ele><time>2026-05-02T11:43:13.27Z</time></trkpt><trkpt lat="44.3015934" lon="8.1246442"><ele>567.0</ele><time>2026-05-02T11:43:14.275Z</time></trkpt><trkpt lat="44.3014326" lon="8.1246588"><ele>567.0</ele><time>2026-05-02T11:43:15.266Z</time></trkpt><trkpt lat="44.3012741" lon="8.1246655"><ele>567.0</ele><time>2026-05-02T11:43:16.27Z</time></trkpt><trkpt lat="44.3011404" lon="8.124679"><ele>568.5</ele><time>2026-05-02T11:43:17.257Z</time></trkpt><trkpt lat="44.3009997" lon="8.1246926"><ele>570.0</ele><time>2026-05-02T11:43:18.261Z</time></trkpt><trkpt lat="44.3008793" lon="8.124677"><ele>571.5</ele><time>2026-05-02T11:43:19.257Z</time></trkpt><trkpt lat="44.3007665" lon="8.1246283"><ele>573.0</ele><time>2026-05-02T11:43:20.244Z</time></trkpt><trkpt lat="44.3006433" lon="8.1245623"><ele>579.0</ele><time>2026-05-02T11:43:21.239Z</time></trkpt><trkpt lat="44.3005007" lon="8.1244448"><ele>585.0</ele><time>2026-05-02T11:43:22.261Z</time></trkpt><trkpt lat="44.3003672" lon="8.1243104"><ele>591.0</ele><time>2026-05-02T11:43:23.259Z</time></trkpt><trkpt lat="44.3002275" lon="8.1241766"><ele>586.0</ele><time>2026-05-02T11:43:24.27Z</time></trkpt><trkpt lat="44.3000984" lon="8.1240474"><ele>581.0</ele><time>2026-05-02T11:43:25.271Z</time></trkpt><trkpt lat="44.2999743" lon="8.1239257"><ele>576.0</ele><time>2026-05-02T11:43:26.276Z</time></trkpt><trkpt lat="44.299865" lon="8.1238159"><ele>571.0</ele><time>2026-05-02T11:43:27.272Z</time></trkpt><trkpt lat="44.2997653" lon="8.1237032"><ele>573.6666666666667</ele><time>2026-05-02T11:43:28.283Z</time></trkpt><trkpt lat="44.2996506" lon="8.1235586"><ele>576.3333333333334</ele><time>2026-05-02T11:43:29.268Z</time></trkpt><trkpt lat="44.299541" lon="8.1234027"><ele>579.0</ele><time>2026-05-02T11:43:30.265Z</time></trkpt><trkpt lat="44.2994547" lon="8.1232266"><ele>579.0</ele><time>2026-05-02T11:43:31.261Z</time></trkpt><trkpt lat="44.299369" lon="8.1230427"><ele>579.0</ele><time>2026-05-02T11:43:32.27Z</time></trkpt><trkpt lat="44.2992777" lon="8.1228328"><ele>579.0</ele><time>2026-05-02T11:43:33.269Z</time></trkpt><trkpt lat="44.2991904" lon="8.1226117"><ele>579.0</ele><time>2026-05-02T11:43:34.272Z</time></trkpt><trkpt lat="44.2991079" lon="8.1224055"><ele>579.0</ele><time>2026-05-02T11:43:35.276Z</time></trkpt><trkpt lat="44.2990395" lon="8.1222069"><ele>579.0</ele><time>2026-05-02T11:43:36.269Z</time></trkpt><trkpt lat="44.2989717" lon="8.1220266"><ele>581.6666666666666</ele><time>2026-05-02T11:43:37.269Z</time></trkpt><trkpt lat="44.2988892" lon="8.1218591"><ele>584.3333333333333</ele><time>2026-05-02T11:43:38.265Z</time></trkpt><trkpt lat="44.2987776" lon="8.1216979"><ele>587.0</ele><time>2026-05-02T11:43:39.268Z</time></trkpt><trkpt lat="44.2986662" lon="8.1215613"><ele>581.3333333333333</ele><time>2026-05-02T11:43:40.261Z</time></trkpt><trkpt lat="44.2985353" lon="8.1214399"><ele>575.6666666666666</ele><time>2026-05-02T11:43:41.276Z</time></trkpt><trkpt lat="44.2983715" lon="8.1213405"><ele>570.0</ele><time>2026-05-02T11:43:42.259Z</time></trkpt><trkpt lat="44.2982127" lon="8.1212447"><ele>572.0</ele><time>2026-05-02T11:43:43.268Z</time></trkpt><trkpt lat="44.2980522" lon="8.121172"><ele>574.0</ele><time>2026-05-02T11:43:44.261Z</time></trkpt><trkpt lat="44.297904" lon="8.1210977"><ele>576.0</ele><time>2026-05-02T11:43:45.259Z</time></trkpt><trkpt lat="44.2977641" lon="8.1210357"><ele>576.0</ele><time>2026-05-02T11:43:46.26Z</time></trkpt><trkpt lat="44.2976306" lon="8.1209819"><ele>576.0</ele><time>2026-05-02T11:43:47.259Z</time></trkpt><trkpt lat="44.2974873" lon="8.1209373"><ele>576.0</ele><time>2026-05-02T11:43:48.265Z</time></trkpt><trkpt lat="44.2973332" lon="8.1209354"><ele>576.0</ele><time>2026-05-02T11:43:49.259Z</time></trkpt><trkpt lat="44.2971999" lon="8.1209604"><ele>574.75</ele><time>2026-05-02T11:43:50.255Z</time></trkpt><trkpt lat="44.297084" lon="8.1210375"><ele>573.5</ele><time>2026-05-02T11:43:51.258Z</time></trkpt><trkpt lat="44.2969725" lon="8.1211341"><ele>572.25</ele><time>2026-05-02T11:43:52.257Z</time></trkpt><trkpt lat="44.2968529" lon="8.1212176"><ele>571.0</ele><time>2026-05-02T11:43:53.261Z</time></trkpt><trkpt lat="44.2967432" lon="8.1213172"><ele>571.0</ele><time>2026-05-02T11:43:54.262Z</time></trkpt><trkpt lat="44.2966318" lon="8.1214143"><ele>571.0</ele><time>2026-05-02T11:43:55.267Z</time></trkpt><trkpt lat="44.2965245" lon="8.1215252"><ele>571.0</ele><time>2026-05-02T11:43:56.265Z</time></trkpt><trkpt lat="44.2964097" lon="8.1216354"><ele>571.0</ele><time>2026-05-02T11:43:57.269Z</time></trkpt><trkpt lat="44.296302" lon="8.1217578"><ele>571.75</ele><time>2026-05-02T11:43:58.275Z</time></trkpt><trkpt lat="44.2961961" lon="8.1218909"><ele>572.5</ele><time>2026-05-02T11:43:59.268Z</time></trkpt><trkpt lat="44.2960882" lon="8.1220061"><ele>573.25</ele><time>2026-05-02T11:44:00.267Z</time></trkpt><trkpt lat="44.2959735" lon="8.1221214"><ele>574.0</ele><time>2026-05-02T11:44:01.263Z</time></trkpt><trkpt lat="44.2958595" lon="8.1222403"><ele>574.0</ele><time>2026-05-02T11:44:02.267Z</time></trkpt><trkpt lat="44.2957535" lon="8.122365"><ele>574.0</ele><time>2026-05-02T11:44:03.265Z</time></trkpt><trkpt lat="44.2956555" lon="8.122507"><ele>574.0</ele><time>2026-05-02T11:44:04.266Z</time></trkpt><trkpt lat="44.2955496" lon="8.1226407"><ele>574.0</ele><time>2026-05-02T11:44:05.268Z</time></trkpt><trkpt lat="44.2954468" lon="8.1227687"><ele>574.5</ele><time>2026-05-02T11:44:06.265Z</time></trkpt><trkpt lat="44.2953324" lon="8.1228904"><ele>575.0</ele><time>2026-05-02T11:44:07.273Z</time></trkpt><trkpt lat="44.2952113" lon="8.1230063"><ele>575.5</ele><time>2026-05-02T11:44:08.276Z</time></trkpt><trkpt lat="44.2950806" lon="8.1230756"><ele>576.0</ele><time>2026-05-02T11:44:09.271Z</time></trkpt><trkpt lat="44.2949349" lon="8.1231101"><ele>576.0</ele><time>2026-05-02T11:44:10.265Z</time></trkpt><trkpt lat="44.2947986" lon="8.1231218"><ele>576.0</ele><time>2026-05-02T11:44:11.266Z</time></trkpt><trkpt lat="44.2946554" lon="8.1231211"><ele>576.0</ele><time>2026-05-02T11:44:12.28Z</time></trkpt><trkpt lat="44.2944976" lon="8.1231275"><ele>576.0</ele><time>2026-05-02T11:44:13.272Z</time></trkpt><trkpt lat="44.2943568" lon="8.1231459"><ele>576.0</ele><time>2026-05-02T11:44:14.273Z</time></trkpt><trkpt lat="44.2942043" lon="8.1231732"><ele>576.0</ele><time>2026-05-02T11:44:15.273Z</time></trkpt><trkpt lat="44.2940614" lon="8.1232001"><ele>576.0</ele><time>2026-05-02T11:44:16.269Z</time></trkpt><trkpt lat="44.2939248" lon="8.1232019"><ele>576.0</ele><time>2026-05-02T11:44:17.276Z</time></trkpt><trkpt lat="44.2937916" lon="8.1232013"><ele>576.0</ele><time>2026-05-02T11:44:18.273Z</time></trkpt><trkpt lat="44.293655" lon="8.1231893"><ele>576.0</ele><time>2026-05-02T11:44:19.28Z</time></trkpt><trkpt lat="44.2935068" lon="8.1231618"><ele>576.0</ele><time>2026-05-02T11:44:20.276Z</time></trkpt><trkpt lat="44.2933559" lon="8.1231396"><ele>576.0</ele><time>2026-05-02T11:44:21.279Z</time></trkpt><trkpt lat="44.2931898" lon="8.1231255"><ele>589.0</ele><time>2026-05-02T11:44:22.279Z</time></trkpt><trkpt lat="44.2930169" lon="8.1231123"><ele>602.0</ele><time>2026-05-02T11:44:23.28Z</time></trkpt><trkpt lat="44.2928469" lon="8.1230969"><ele>615.0</ele><time>2026-05-02T11:44:24.278Z</time></trkpt><trkpt lat="44.2926767" lon="8.1230811"><ele>615.0</ele><time>2026-05-02T11:44:25.274Z</time></trkpt><trkpt lat="44.2925018" lon="8.1230646"><ele>615.0</ele><time>2026-05-02T11:44:26.252Z</time></trkpt><trkpt lat="44.292322" lon="8.1230412"><ele>615.0</ele><time>2026-05-02T11:44:27.235Z</time></trkpt><trkpt lat="44.2921505" lon="8.1230238"><ele>617.6666666666666</ele><time>2026-05-02T11:44:28.234Z</time></trkpt><trkpt lat="44.2919825" lon="8.1230066"><ele>620.3333333333333</ele><time>2026-05-02T11:44:29.206Z</time></trkpt><trkpt lat="44.2918111" lon="8.1229937"><ele>623.0</ele><time>2026-05-02T11:44:30.192Z</time></trkpt><trkpt lat="44.2916247" lon="8.1229785"><ele>623.0</ele><time>2026-05-02T11:44:31.178Z</time></trkpt><trkpt lat="44.2914738" lon="8.1228439"><ele>623.0</ele><time>2026-05-02T11:44:32.223Z</time></trkpt><trkpt lat="44.2913316" lon="8.1228772"><ele>623.0</ele><time>2026-05-02T11:44:33.249Z</time></trkpt><trkpt lat="44.2911893" lon="8.1228779"><ele>622.0</ele><time>2026-05-02T11:44:34.252Z</time></trkpt><trkpt lat="44.2910299" lon="8.1228891"><ele>621.0</ele><time>2026-05-02T11:44:35.249Z</time></trkpt><trkpt lat="44.2908803" lon="8.1229281"><ele>620.0</ele><time>2026-05-02T11:44:36.254Z</time></trkpt><trkpt lat="44.2907389" lon="8.1230029"><ele>620.0</ele><time>2026-05-02T11:44:37.25Z</time></trkpt><trkpt lat="44.2906223" lon="8.1230878"><ele>620.0</ele><time>2026-05-02T11:44:38.257Z</time></trkpt><trkpt lat="44.2905116" lon="8.1231784"><ele>620.0</ele><time>2026-05-02T11:44:39.262Z</time></trkpt><trkpt lat="44.2903897" lon="8.1232839"><ele>620.0</ele><time>2026-05-02T11:44:40.249Z</time></trkpt><trkpt lat="44.2902374" lon="8.1233733"><ele>613.3333333333333</ele><time>2026-05-02T11:44:41.261Z</time></trkpt><trkpt lat="44.2900778" lon="8.1234585"><ele>606.6666666666666</ele><time>2026-05-02T11:44:42.253Z</time></trkpt><trkpt lat="44.2899214" lon="8.1235372"><ele>600.0</ele><time>2026-05-02T11:44:43.268Z</time></trkpt><trkpt lat="44.2897667" lon="8.1236331"><ele>605.0</ele><time>2026-05-02T11:44:44.263Z</time></trkpt><trkpt lat="44.2896108" lon="8.1237377"><ele>610.0</ele><time>2026-05-02T11:44:45.258Z</time></trkpt><trkpt lat="44.2894496" lon="8.1238323"><ele>615.0</ele><time>2026-05-02T11:44:46.258Z</time></trkpt><trkpt lat="44.2892973" lon="8.123927"><ele>615.0</ele><time>2026-05-02T11:44:47.256Z</time></trkpt><trkpt lat="44.2891453" lon="8.1240221"><ele>615.0</ele><time>2026-05-02T11:44:48.263Z</time></trkpt><trkpt lat="44.2889891" lon="8.1240998"><ele>615.0</ele><time>2026-05-02T11:44:49.26Z</time></trkpt><trkpt lat="44.2888318" lon="8.1241687"><ele>611.3333333333334</ele><time>2026-05-02T11:44:50.257Z</time></trkpt><trkpt lat="44.2886711" lon="8.124233"><ele>607.6666666666667</ele><time>2026-05-02T11:44:51.254Z</time></trkpt><trkpt lat="44.2885283" lon="8.1242839"><ele>604.0</ele><time>2026-05-02T11:44:52.25Z</time></trkpt><trkpt lat="44.2883895" lon="8.1243053"><ele>604.0</ele><time>2026-05-02T11:44:53.258Z</time></trkpt><trkpt lat="44.2882599" lon="8.1243023"><ele>604.0</ele><time>2026-05-02T11:44:54.252Z</time></trkpt><trkpt lat="44.2881405" lon="8.1242979"><ele>604.0</ele><time>2026-05-02T11:44:55.256Z</time></trkpt><trkpt lat="44.2880092" lon="8.1243168"><ele>604.0</ele><time>2026-05-02T11:44:56.252Z</time></trkpt><trkpt lat="44.2878689" lon="8.1243755"><ele>606.6666666666667</ele><time>2026-05-02T11:44:57.256Z</time></trkpt><trkpt lat="44.2877208" lon="8.1244313"><ele>609.3333333333334</ele><time>2026-05-02T11:44:58.256Z</time></trkpt><trkpt lat="44.28757" lon="8.1244786"><ele>612.0</ele><time>2026-05-02T11:44:59.244Z</time></trkpt><trkpt lat="44.2874167" lon="8.1245112"><ele>612.0</ele><time>2026-05-02T11:45:00.24Z</time></trkpt><trkpt lat="44.2872636" lon="8.124541"><ele>612.0</ele><time>2026-05-02T11:45:01.247Z</time></trkpt><trkpt lat="44.2871131" lon="8.1245948"><ele>612.0</ele><time>2026-05-02T11:45:02.245Z</time></trkpt><trkpt lat="44.2869596" lon="8.1246673"><ele>609.3333333333334</ele><time>2026-05-02T11:45:03.248Z</time></trkpt><trkpt lat="44.2868072" lon="8.1247398"><ele>606.6666666666667</ele><time>2026-05-02T11:45:04.244Z</time></trkpt><trkpt lat="44.286659" lon="8.1248245"><ele>604.0</ele><time>2026-05-02T11:45:05.249Z</time></trkpt><trkpt lat="44.2865125" lon="8.1249054"><ele>608.5</ele><time>2026-05-02T11:45:06.256Z</time></trkpt><trkpt lat="44.2863731" lon="8.1249952"><ele>613.0</ele><time>2026-05-02T11:45:07.256Z</time></trkpt><trkpt lat="44.2862518" lon="8.1250764"><ele>617.5</ele><time>2026-05-02T11:45:08.259Z</time></trkpt><trkpt lat="44.2861327" lon="8.1251737"><ele>622.0</ele><time>2026-05-02T11:45:09.253Z</time></trkpt><trkpt lat="44.2859924" lon="8.125259"><ele>622.0</ele><time>2026-05-02T11:45:10.264Z</time></trkpt><trkpt lat="44.285842" lon="8.1253316"><ele>622.0</ele><time>2026-05-02T11:45:11.254Z</time></trkpt><trkpt lat="44.2856905" lon="8.1254095"><ele>622.0</ele><time>2026-05-02T11:45:12.256Z</time></trkpt><trkpt lat="44.2855326" lon="8.125471"><ele>630.3333333333334</ele><time>2026-05-02T11:45:13.256Z</time></trkpt><trkpt lat="44.2853711" lon="8.1255249"><ele>638.6666666666666</ele><time>2026-05-02T11:45:14.26Z</time></trkpt><trkpt lat="44.285211" lon="8.1255706"><ele>647.0</ele><time>2026-05-02T11:45:15.253Z</time></trkpt><trkpt lat="44.2850664" lon="8.1256239"><ele>647.0</ele><time>2026-05-02T11:45:16.25Z</time></trkpt><trkpt lat="44.2849473" lon="8.1256932"><ele>647.0</ele><time>2026-05-02T11:45:17.252Z</time></trkpt><trkpt lat="44.2848312" lon="8.1257705"><ele>647.0</ele><time>2026-05-02T11:45:18.255Z</time></trkpt><trkpt lat="44.2847132" lon="8.1258578"><ele>647.0</ele><time>2026-05-02T11:45:19.254Z</time></trkpt><trkpt lat="44.2845974" lon="8.1259608"><ele>636.5</ele><time>2026-05-02T11:45:20.252Z</time></trkpt><trkpt lat="44.2844737" lon="8.1260535"><ele>626.0</ele><time>2026-05-02T11:45:21.257Z</time></trkpt><trkpt lat="44.2843594" lon="8.1261015"><ele>615.5</ele><time>2026-05-02T11:45:22.256Z</time></trkpt><trkpt lat="44.2842361" lon="8.1261134"><ele>605.0</ele><time>2026-05-02T11:45:23.26Z</time></trkpt><trkpt lat="44.2841117" lon="8.1260719"><ele>605.0</ele><time>2026-05-02T11:45:24.254Z</time></trkpt><trkpt lat="44.2840029" lon="8.1259647"><ele>605.0</ele><time>2026-05-02T11:45:25.259Z</time></trkpt><trkpt lat="44.283905" lon="8.1258176"><ele>605.0</ele><time>2026-05-02T11:45:26.25Z</time></trkpt><trkpt lat="44.2838283" lon="8.1256449"><ele>605.0</ele><time>2026-05-02T11:45:27.249Z</time></trkpt><trkpt lat="44.283743" lon="8.125465"><ele>609.0</ele><time>2026-05-02T11:45:28.254Z</time></trkpt><trkpt lat="44.2836414" lon="8.1253003"><ele>613.0</ele><time>2026-05-02T11:45:29.248Z</time></trkpt><trkpt lat="44.2835294" lon="8.1251828"><ele>617.0</ele><time>2026-05-02T11:45:30.246Z</time></trkpt><trkpt lat="44.2833881" lon="8.1250948"><ele>617.0</ele><time>2026-05-02T11:45:31.242Z</time></trkpt><trkpt lat="44.2832296" lon="8.125019"><ele>617.0</ele><time>2026-05-02T11:45:32.243Z</time></trkpt><trkpt lat="44.2830706" lon="8.1249521"><ele>617.0</ele><time>2026-05-02T11:45:33.244Z</time></trkpt><trkpt lat="44.2828994" lon="8.1249026"><ele>616.0</ele><time>2026-05-02T11:45:34.243Z</time></trkpt><trkpt lat="44.2827371" lon="8.1248836"><ele>615.0</ele><time>2026-05-02T11:45:35.24Z</time></trkpt><trkpt lat="44.2825752" lon="8.1249107"><ele>614.0</ele><time>2026-05-02T11:45:36.241Z</time></trkpt><trkpt lat="44.2824103" lon="8.1249337"><ele>615.6666666666666</ele><time>2026-05-02T11:45:37.241Z</time></trkpt><trkpt lat="44.282237" lon="8.1249504"><ele>617.3333333333334</ele><time>2026-05-02T11:45:38.243Z</time></trkpt><trkpt lat="44.2820671" lon="8.1249903"><ele>619.0</ele><time>2026-05-02T11:45:39.249Z</time></trkpt><trkpt lat="44.2818938" lon="8.1250496"><ele>619.0</ele><time>2026-05-02T11:45:40.249Z</time></trkpt><trkpt lat="44.2817218" lon="8.1251296"><ele>619.0</ele><time>2026-05-02T11:45:41.257Z</time></trkpt><trkpt lat="44.2815457" lon="8.125216"><ele>619.0</ele><time>2026-05-02T11:45:42.251Z</time></trkpt><trkpt lat="44.2813699" lon="8.1252965"><ele>625.6666666666667</ele><time>2026-05-02T11:45:43.252Z</time></trkpt><trkpt lat="44.2812141" lon="8.1253865"><ele>632.3333333333334</ele><time>2026-05-02T11:45:44.245Z</time></trkpt><trkpt lat="44.2810651" lon="8.1254799"><ele>639.0</ele><time>2026-05-02T11:45:45.264Z</time></trkpt><trkpt lat="44.2809275" lon="8.1255818"><ele>639.0</ele><time>2026-05-02T11:45:46.244Z</time></trkpt><trkpt lat="44.2807786" lon="8.1256883"><ele>639.0</ele><time>2026-05-02T11:45:47.249Z</time></trkpt><trkpt lat="44.2806327" lon="8.1257863"><ele>639.0</ele><time>2026-05-02T11:45:48.246Z</time></trkpt><trkpt lat="44.2804721" lon="8.1258773"><ele>634.6666666666666</ele><time>2026-05-02T11:45:49.249Z</time></trkpt><trkpt lat="44.2803198" lon="8.1259707"><ele>630.3333333333333</ele><time>2026-05-02T11:45:50.244Z</time></trkpt><trkpt lat="44.2801564" lon="8.1260659"><ele>626.0</ele><time>2026-05-02T11:45:51.24Z</time></trkpt><trkpt lat="44.279991" lon="8.1261571"><ele>626.0</ele><time>2026-05-02T11:45:52.233Z</time></trkpt><trkpt lat="44.279843" lon="8.1262861"><ele>626.0</ele><time>2026-05-02T11:45:53.23Z</time></trkpt><trkpt lat="44.2796919" lon="8.126381"><ele>626.0</ele><time>2026-05-02T11:45:54.231Z</time></trkpt><trkpt lat="44.2795665" lon="8.1265024"><ele>626.0</ele><time>2026-05-02T11:45:55.239Z</time></trkpt><trkpt lat="44.2794443" lon="8.1266214"><ele>626.0</ele><time>2026-05-02T11:45:56.241Z</time></trkpt><trkpt lat="44.2793103" lon="8.1267778"><ele>626.0</ele><time>2026-05-02T11:45:57.243Z</time></trkpt><trkpt lat="44.2791949" lon="8.1269617"><ele>626.0</ele><time>2026-05-02T11:45:58.264Z</time></trkpt><trkpt lat="44.2790994" lon="8.1271307"><ele>626.0</ele><time>2026-05-02T11:45:59.244Z</time></trkpt><trkpt lat="44.2790063" lon="8.1272964"><ele>626.0</ele><time>2026-05-02T11:46:00.251Z</time></trkpt><trkpt lat="44.2789116" lon="8.1274324"><ele>626.0</ele><time>2026-05-02T11:46:01.251Z</time></trkpt><trkpt lat="44.2787978" lon="8.1275603"><ele>622.0</ele><time>2026-05-02T11:46:02.252Z</time></trkpt><trkpt lat="44.2786556" lon="8.1276259"><ele>618.0</ele><time>2026-05-02T11:46:03.255Z</time></trkpt><trkpt lat="44.2784835" lon="8.1276282"><ele>614.0</ele><time>2026-05-02T11:46:04.251Z</time></trkpt><trkpt lat="44.2782816" lon="8.1276109"><ele>612.6666666666666</ele><time>2026-05-02T11:46:05.25Z</time></trkpt><trkpt lat="44.2780857" lon="8.1276041"><ele>611.3333333333334</ele><time>2026-05-02T11:46:06.253Z</time></trkpt><trkpt lat="44.2779103" lon="8.127556"><ele>610.0</ele><time>2026-05-02T11:46:07.252Z</time></trkpt><trkpt lat="44.277734" lon="8.1275212"><ele>610.0</ele><time>2026-05-02T11:46:08.251Z</time></trkpt><trkpt lat="44.2775925" lon="8.1274832"><ele>610.0</ele><time>2026-05-02T11:46:09.253Z</time></trkpt><trkpt lat="44.2774644" lon="8.1274442"><ele>610.0</ele><time>2026-05-02T11:46:10.251Z</time></trkpt><trkpt lat="44.2773465" lon="8.1273745"><ele>610.0</ele><time>2026-05-02T11:46:11.256Z</time></trkpt><trkpt lat="44.2772429" lon="8.1273067"><ele>611.6</ele><time>2026-05-02T11:46:12.266Z</time></trkpt><trkpt lat="44.2771522" lon="8.1272481"><ele>613.2</ele><time>2026-05-02T11:46:13.256Z</time></trkpt><trkpt lat="44.2770682" lon="8.1271909"><ele>614.8</ele><time>2026-05-02T11:46:14.255Z</time></trkpt><trkpt lat="44.2769917" lon="8.1270992"><ele>616.4</ele><time>2026-05-02T11:46:15.255Z</time></trkpt><trkpt lat="44.2769196" lon="8.1270315"><ele>618.0</ele><time>2026-05-02T11:46:16.274Z</time></trkpt><trkpt lat="44.2768606" lon="8.1269799"><ele>618.0</ele><time>2026-05-02T11:46:17.256Z</time></trkpt><trkpt lat="44.2767693" lon="8.1269565"><ele>618.0</ele><time>2026-05-02T11:46:19.25Z</time></trkpt><trkpt lat="44.2767425" lon="8.1270736"><ele>618.0</ele><time>2026-05-02T11:46:44.265Z</time></trkpt><trkpt lat="44.276727" lon="8.127191"><ele>618.0</ele><time>2026-05-02T11:46:45.257Z</time></trkpt><trkpt lat="44.2766952" lon="8.1273312"><ele>618.0</ele><time>2026-05-02T11:46:46.255Z</time></trkpt><trkpt lat="44.2766708" lon="8.1274591"><ele>617.0</ele><time>2026-05-02T11:46:47.26Z</time></trkpt><trkpt lat="44.2766628" lon="8.12757"><ele>616.0</ele><time>2026-05-02T11:46:48.257Z</time></trkpt><trkpt lat="44.2766642" lon="8.1276605"><ele>615.0</ele><time>2026-05-02T11:46:49.258Z</time></trkpt><trkpt lat="44.2767253" lon="8.1277622"><ele>614.0</ele><time>2026-05-02T11:46:51.257Z</time></trkpt><trkpt lat="44.2767949" lon="8.1278018"><ele>613.0</ele><time>2026-05-02T11:46:54.249Z</time></trkpt><trkpt lat="44.2768776" lon="8.1277981"><ele>612.0</ele><time>2026-05-02T11:46:58.26Z</time></trkpt><trkpt lat="44.2769948" lon="8.1278369"><ele>612.0</ele><time>2026-05-02T11:47:00.252Z</time></trkpt><trkpt lat="44.2770609" lon="8.1278717"><ele>612.0</ele><time>2026-05-02T11:47:01.249Z</time></trkpt><trkpt lat="44.2771324" lon="8.1279064"><ele>612.0</ele><time>2026-05-02T11:47:02.244Z</time></trkpt><trkpt lat="44.2772051" lon="8.127939"><ele>612.0</ele><time>2026-05-02T11:47:03.245Z</time></trkpt><trkpt lat="44.2772948" lon="8.1279746"><ele>612.0</ele><time>2026-05-02T11:47:04.252Z</time></trkpt><trkpt lat="44.277387" lon="8.128005"><ele>612.0</ele><time>2026-05-02T11:47:05.246Z</time></trkpt><trkpt lat="44.2774789" lon="8.1280305"><ele>611.6</ele><time>2026-05-02T11:47:06.251Z</time></trkpt><trkpt lat="44.2775697" lon="8.1280805"><ele>611.2</ele><time>2026-05-02T11:47:07.243Z</time></trkpt><trkpt lat="44.2776404" lon="8.1281655"><ele>610.8</ele><time>2026-05-02T11:47:08.246Z</time></trkpt><trkpt lat="44.2776989" lon="8.1282671"><ele>610.4</ele><time>2026-05-02T11:47:09.244Z</time></trkpt><trkpt lat="44.2777318" lon="8.1283812"><ele>610.0</ele><time>2026-05-02T11:47:10.255Z</time></trkpt><trkpt lat="44.2777585" lon="8.1285109"><ele>609.3333333333334</ele><time>2026-05-02T11:47:11.246Z</time></trkpt><trkpt lat="44.2777906" lon="8.1286407"><ele>608.6666666666667</ele><time>2026-05-02T11:47:12.259Z</time></trkpt><trkpt lat="44.2778286" lon="8.1287561"><ele>608.0</ele><time>2026-05-02T11:47:13.255Z</time></trkpt><trkpt lat="44.2778625" lon="8.1288469"><ele>607.3333333333334</ele><time>2026-05-02T11:47:14.262Z</time></trkpt><trkpt lat="44.2779056" lon="8.1289273"><ele>606.6666666666666</ele><time>2026-05-02T11:47:15.251Z</time></trkpt><trkpt lat="44.2779948" lon="8.1289998"><ele>606.0</ele><time>2026-05-02T11:47:17.256Z</time></trkpt><trkpt lat="44.2780604" lon="8.1289934"><ele>608.8</ele><time>2026-05-02T11:47:18.267Z</time></trkpt><trkpt lat="44.2781827" lon="8.1290661"><ele>611.6</ele><time>2026-05-02T11:47:20.262Z</time></trkpt><trkpt lat="44.2782316" lon="8.1291699"><ele>614.4</ele><time>2026-05-02T11:47:21.249Z</time></trkpt><trkpt lat="44.2782637" lon="8.1292809"><ele>617.2</ele><time>2026-05-02T11:47:22.248Z</time></trkpt><trkpt lat="44.2782815" lon="8.1293735"><ele>620.0</ele><time>2026-05-02T11:47:23.246Z</time></trkpt><trkpt lat="44.2783388" lon="8.1294679"><ele>620.0</ele><time>2026-05-02T11:47:25.25Z</time></trkpt><trkpt lat="44.2784124" lon="8.1293597"><ele>620.0</ele><time>2026-05-02T11:47:27.246Z</time></trkpt><trkpt lat="44.2784188" lon="8.1292546"><ele>620.0</ele><time>2026-05-02T11:47:28.256Z</time></trkpt><trkpt lat="44.2784117" lon="8.1291329"><ele>620.0</ele><time>2026-05-02T11:47:29.237Z</time></trkpt><trkpt lat="44.2783989" lon="8.129006"><ele>620.0</ele><time>2026-05-02T11:47:30.25Z</time></trkpt><trkpt lat="44.2783919" lon="8.1288666"><ele>617.6</ele><time>2026-05-02T11:47:31.247Z</time></trkpt><trkpt lat="44.2783986" lon="8.1287429"><ele>615.2</ele><time>2026-05-02T11:47:32.268Z</time></trkpt><trkpt lat="44.2784684" lon="8.1286355"><ele>612.8</ele><time>2026-05-02T11:47:34.272Z</time></trkpt><trkpt lat="44.2785352" lon="8.1286401"><ele>610.4</ele><time>2026-05-02T11:47:35.268Z</time></trkpt><trkpt lat="44.2786363" lon="8.1286447"><ele>608.0</ele><time>2026-05-02T11:47:36.268Z</time></trkpt><trkpt lat="44.2787529" lon="8.1286679"><ele>608.0</ele><time>2026-05-02T11:47:37.26Z</time></trkpt><trkpt lat="44.2788717" lon="8.1286975"><ele>608.0</ele><time>2026-05-02T11:47:38.261Z</time></trkpt><trkpt lat="44.2789936" lon="8.128706"><ele>608.0</ele><time>2026-05-02T11:47:39.256Z</time></trkpt><trkpt lat="44.2791127" lon="8.128696"><ele>608.0</ele><time>2026-05-02T11:47:40.26Z</time></trkpt><trkpt lat="44.2792139" lon="8.1286768"><ele>610.0</ele><time>2026-05-02T11:47:41.254Z</time></trkpt><trkpt lat="44.279295" lon="8.1286557"><ele>612.0</ele><time>2026-05-02T11:47:42.26Z</time></trkpt><trkpt lat="44.2793705" lon="8.1286482"><ele>614.0</ele><time>2026-05-02T11:47:43.266Z</time></trkpt><trkpt lat="44.2794338" lon="8.1287165"><ele>616.0</ele><time>2026-05-02T11:47:45.272Z</time></trkpt><trkpt lat="44.279372" lon="8.1287903"><ele>618.0</ele><time>2026-05-02T11:47:47.263Z</time></trkpt><trkpt lat="44.2793047" lon="8.1288232"><ele>620.0</ele><time>2026-05-02T11:47:48.271Z</time></trkpt><trkpt lat="44.2792097" lon="8.1288709"><ele>620.0</ele><time>2026-05-02T11:47:49.284Z</time></trkpt><trkpt lat="44.2790975" lon="8.1289169"><ele>620.0</ele><time>2026-05-02T11:47:50.271Z</time></trkpt><trkpt lat="44.2789639" lon="8.1289748"><ele>620.0</ele><time>2026-05-02T11:47:51.267Z</time></trkpt><trkpt lat="44.2788463" lon="8.1290444"><ele>620.0</ele><time>2026-05-02T11:47:52.27Z</time></trkpt><trkpt lat="44.2787548" lon="8.1291208"><ele>620.0</ele><time>2026-05-02T11:47:53.268Z</time></trkpt><trkpt lat="44.2786856" lon="8.1292226"><ele>620.0</ele><time>2026-05-02T11:47:54.278Z</time></trkpt><trkpt lat="44.2786515" lon="8.1293282"><ele>620.0</ele><time>2026-05-02T11:47:55.277Z</time></trkpt><trkpt lat="44.2786575" lon="8.1294356"><ele>620.0</ele><time>2026-05-02T11:47:56.273Z</time></trkpt><trkpt lat="44.2787642" lon="8.1294375"><ele>620.0</ele><time>2026-05-02T11:47:58.272Z</time></trkpt><trkpt lat="44.2788082" lon="8.1293717"><ele>620.0</ele><time>2026-05-02T11:47:59.27Z</time></trkpt><trkpt lat="44.2788478" lon="8.1292567"><ele>620.0</ele><time>2026-05-02T11:48:00.251Z</time></trkpt><trkpt lat="44.2788934" lon="8.1291659"><ele>620.0</ele><time>2026-05-02T11:48:01.265Z</time></trkpt><trkpt lat="44.2789593" lon="8.1291315"><ele>620.0</ele><time>2026-05-02T11:48:02.257Z</time></trkpt><trkpt lat="44.2790332" lon="8.1291127"><ele>620.0</ele><time>2026-05-02T11:48:03.271Z</time></trkpt><trkpt lat="44.2791184" lon="8.1291419"><ele>620.0</ele><time>2026-05-02T11:48:04.266Z</time></trkpt><trkpt lat="44.2792435" lon="8.1291922"><ele>620.0</ele><time>2026-05-02T11:48:05.266Z</time></trkpt><trkpt lat="44.2793738" lon="8.1292159"><ele>625.0</ele><time>2026-05-02T11:48:06.26Z</time></trkpt><trkpt lat="44.2795081" lon="8.1292309"><ele>630.0</ele><time>2026-05-02T11:48:07.264Z</time></trkpt><trkpt lat="44.2796161" lon="8.129218"><ele>635.0</ele><time>2026-05-02T11:48:08.252Z</time></trkpt><trkpt lat="44.2797065" lon="8.1291962"><ele>640.0</ele><time>2026-05-02T11:48:09.271Z</time></trkpt><trkpt lat="44.2797987" lon="8.1292437"><ele>645.0</ele><time>2026-05-02T11:48:11.262Z</time></trkpt><trkpt lat="44.279759" lon="8.1293701"><ele>645.0</ele><time>2026-05-02T11:48:13.261Z</time></trkpt><trkpt lat="44.2796959" lon="8.1294253"><ele>645.0</ele><time>2026-05-02T11:48:14.263Z</time></trkpt><trkpt lat="44.2796103" lon="8.129511"><ele>645.0</ele><time>2026-05-02T11:48:15.256Z</time></trkpt><trkpt lat="44.27951" lon="8.1296072"><ele>645.0</ele><time>2026-05-02T11:48:16.249Z</time></trkpt><trkpt lat="44.2794075" lon="8.1296953"><ele>645.0</ele><time>2026-05-02T11:48:17.253Z</time></trkpt><trkpt lat="44.2792984" lon="8.1297559"><ele>645.0</ele><time>2026-05-02T11:48:18.255Z</time></trkpt><trkpt lat="44.2791875" lon="8.1297839"><ele>645.0</ele><time>2026-05-02T11:48:19.249Z</time></trkpt><trkpt lat="44.2790693" lon="8.1297937"><ele>645.0</ele><time>2026-05-02T11:48:20.267Z</time></trkpt><trkpt lat="44.278955" lon="8.1298425"><ele>645.0</ele><time>2026-05-02T11:48:21.259Z</time></trkpt><trkpt lat="44.2788627" lon="8.1299416"><ele>644.25</ele><time>2026-05-02T11:48:22.261Z</time></trkpt><trkpt lat="44.2787691" lon="8.1300604"><ele>643.5</ele><time>2026-05-02T11:48:23.256Z</time></trkpt><trkpt lat="44.2786926" lon="8.1301961"><ele>642.75</ele><time>2026-05-02T11:48:24.269Z</time></trkpt><trkpt lat="44.2786439" lon="8.1303593"><ele>642.0</ele><time>2026-05-02T11:48:25.267Z</time></trkpt><trkpt lat="44.2786001" lon="8.1305545"><ele>647.6</ele><time>2026-05-02T11:48:26.263Z</time></trkpt><trkpt lat="44.2785652" lon="8.1307402"><ele>653.2</ele><time>2026-05-02T11:48:27.265Z</time></trkpt><trkpt lat="44.2785173" lon="8.1308929"><ele>658.8</ele><time>2026-05-02T11:48:28.288Z</time></trkpt><trkpt lat="44.2784742" lon="8.1310266"><ele>664.4</ele><time>2026-05-02T11:48:29.277Z</time></trkpt><trkpt lat="44.2784554" lon="8.1311456"><ele>670.0</ele><time>2026-05-02T11:48:30.282Z</time></trkpt><trkpt lat="44.2784701" lon="8.1312722"><ele>670.0</ele><time>2026-05-02T11:48:31.265Z</time></trkpt><trkpt lat="44.2784938" lon="8.1314033"><ele>670.0</ele><time>2026-05-02T11:48:32.272Z</time></trkpt><trkpt lat="44.2785223" lon="8.1315466"><ele>670.0</ele><time>2026-05-02T11:48:33.263Z</time></trkpt><trkpt lat="44.2785256" lon="8.1316925"><ele>670.0</ele><time>2026-05-02T11:48:34.268Z</time></trkpt><trkpt lat="44.2785089" lon="8.1318325"><ele>670.0</ele><time>2026-05-02T11:48:35.27Z</time></trkpt><trkpt lat="44.2784791" lon="8.1319626"><ele>671.5</ele><time>2026-05-02T11:48:36.272Z</time></trkpt><trkpt lat="44.278444" lon="8.1320773"><ele>673.0</ele><time>2026-05-02T11:48:37.272Z</time></trkpt><trkpt lat="44.2784042" lon="8.1321838"><ele>674.5</ele><time>2026-05-02T11:48:38.275Z</time></trkpt><trkpt lat="44.2783601" lon="8.1322826"><ele>676.0</ele><time>2026-05-02T11:48:39.276Z</time></trkpt><trkpt lat="44.2783223" lon="8.1323838"><ele>677.5</ele><time>2026-05-02T11:48:40.276Z</time></trkpt><trkpt lat="44.2782894" lon="8.1324879"><ele>679.0</ele><time>2026-05-02T11:48:41.27Z</time></trkpt><trkpt lat="44.2782667" lon="8.1325867"><ele>679.6666666666667</ele><time>2026-05-02T11:48:42.274Z</time></trkpt><trkpt lat="44.2782651" lon="8.1326833"><ele>680.3333333333334</ele><time>2026-05-02T11:48:43.278Z</time></trkpt><trkpt lat="44.278297" lon="8.1327803"><ele>681.0</ele><time>2026-05-02T11:48:44.267Z</time></trkpt><trkpt lat="44.2783342" lon="8.1328978"><ele>681.6666666666666</ele><time>2026-05-02T11:48:45.274Z</time></trkpt><trkpt lat="44.2783652" lon="8.133029"><ele>682.3333333333333</ele><time>2026-05-02T11:48:46.278Z</time></trkpt><trkpt lat="44.2783989" lon="8.1331772"><ele>683.0</ele><time>2026-05-02T11:48:47.277Z</time></trkpt><trkpt lat="44.2784229" lon="8.1333308"><ele>683.6666666666666</ele><time>2026-05-02T11:48:48.274Z</time></trkpt><trkpt lat="44.2784378" lon="8.1334634"><ele>684.3333333333333</ele><time>2026-05-02T11:48:49.279Z</time></trkpt><trkpt lat="44.2784387" lon="8.1335858"><ele>685.0</ele><time>2026-05-02T11:48:50.264Z</time></trkpt><trkpt lat="44.2784391" lon="8.1336882"><ele>685.6666666666666</ele><time>2026-05-02T11:48:51.289Z</time></trkpt><trkpt lat="44.2784341" lon="8.1337841"><ele>686.3333333333334</ele><time>2026-05-02T11:48:52.264Z</time></trkpt><trkpt lat="44.2784415" lon="8.1338752"><ele>687.0</ele><time>2026-05-02T11:48:53.263Z</time></trkpt><trkpt lat="44.2784626" lon="8.1339678"><ele>689.2</ele><time>2026-05-02T11:48:54.256Z</time></trkpt><trkpt lat="44.2784966" lon="8.1340627"><ele>691.4000000000001</ele><time>2026-05-02T11:48:55.255Z</time></trkpt><trkpt lat="44.2785447" lon="8.1341613"><ele>693.5999999999999</ele><time>2026-05-02T11:48:56.252Z</time></trkpt><trkpt lat="44.2785873" lon="8.1342514"><ele>695.8</ele><time>2026-05-02T11:48:57.249Z</time></trkpt><trkpt lat="44.2784789" lon="8.1341803"><ele>698.0</ele><time>2026-05-02T11:49:02.26Z</time></trkpt><trkpt lat="44.2783962" lon="8.1341015"><ele>695.25</ele><time>2026-05-02T11:49:03.258Z</time></trkpt><trkpt lat="44.2783034" lon="8.1340285"><ele>692.5</ele><time>2026-05-02T11:49:04.264Z</time></trkpt><trkpt lat="44.2781848" lon="8.133974"><ele>689.75</ele><time>2026-05-02T11:49:05.269Z</time></trkpt><trkpt lat="44.2780743" lon="8.1339514"><ele>687.0</ele><time>2026-05-02T11:49:06.276Z</time></trkpt><trkpt lat="44.2779671" lon="8.1339843"><ele>684.75</ele><time>2026-05-02T11:49:07.276Z</time></trkpt><trkpt lat="44.2778727" lon="8.1340654"><ele>682.5</ele><time>2026-05-02T11:49:08.279Z</time></trkpt><trkpt lat="44.2778024" lon="8.1341931"><ele>680.25</ele><time>2026-05-02T11:49:09.276Z</time></trkpt><trkpt lat="44.277746" lon="8.1343424"><ele>678.0</ele><time>2026-05-02T11:49:10.269Z</time></trkpt><trkpt lat="44.2777022" lon="8.1344962"><ele>678.0</ele><time>2026-05-02T11:49:11.291Z</time></trkpt><trkpt lat="44.2776679" lon="8.1346781"><ele>678.0</ele><time>2026-05-02T11:49:12.281Z</time></trkpt><trkpt lat="44.277652" lon="8.1348637"><ele>678.0</ele><time>2026-05-02T11:49:13.287Z</time></trkpt><trkpt lat="44.2776433" lon="8.1350552"><ele>678.0</ele><time>2026-05-02T11:49:14.281Z</time></trkpt><trkpt lat="44.2776254" lon="8.1352433"><ele>680.5</ele><time>2026-05-02T11:49:15.283Z</time></trkpt><trkpt lat="44.2776029" lon="8.1354084"><ele>683.0</ele><time>2026-05-02T11:49:16.287Z</time></trkpt><trkpt lat="44.2775919" lon="8.1355567"><ele>685.5</ele><time>2026-05-02T11:49:17.29Z</time></trkpt><trkpt lat="44.2775872" lon="8.1357132"><ele>688.0</ele><time>2026-05-02T11:49:18.288Z</time></trkpt><trkpt lat="44.2775983" lon="8.1358685"><ele>690.5</ele><time>2026-05-02T11:49:19.288Z</time></trkpt><trkpt lat="44.2776175" lon="8.1360439"><ele>693.0</ele><time>2026-05-02T11:49:20.285Z</time></trkpt><trkpt lat="44.277648" lon="8.1362243"><ele>695.5</ele><time>2026-05-02T11:49:21.295Z</time></trkpt><trkpt lat="44.2776761" lon="8.1363873"><ele>698.0</ele><time>2026-05-02T11:49:22.273Z</time></trkpt><trkpt lat="44.2777009" lon="8.1365274"><ele>699.0</ele><time>2026-05-02T11:49:23.277Z</time></trkpt><trkpt lat="44.2777364" lon="8.1366447"><ele>700.0</ele><time>2026-05-02T11:49:24.274Z</time></trkpt><trkpt lat="44.2777774" lon="8.1367353"><ele>701.0</ele><time>2026-05-02T11:49:25.274Z</time></trkpt><trkpt lat="44.2778086" lon="8.1368154"><ele>702.0</ele><time>2026-05-02T11:49:26.27Z</time></trkpt><trkpt lat="44.2778365" lon="8.1369633"><ele>703.0</ele><time>2026-05-02T11:49:28.283Z</time></trkpt><trkpt lat="44.2777897" lon="8.1371109"><ele>703.0</ele><time>2026-05-02T11:49:30.288Z</time></trkpt><trkpt lat="44.2777368" lon="8.1371732"><ele>703.0</ele><time>2026-05-02T11:49:31.277Z</time></trkpt><trkpt lat="44.2776708" lon="8.1372355"><ele>703.0</ele><time>2026-05-02T11:49:32.276Z</time></trkpt><trkpt lat="44.2775977" lon="8.1373019"><ele>703.0</ele><time>2026-05-02T11:49:33.271Z</time></trkpt><trkpt lat="44.2775265" lon="8.1373688"><ele>703.0</ele><time>2026-05-02T11:49:34.27Z</time></trkpt><trkpt lat="44.2774387" lon="8.1374464"><ele>703.0</ele><time>2026-05-02T11:49:35.269Z</time></trkpt><trkpt lat="44.2773504" lon="8.1375332"><ele>699.8</ele><time>2026-05-02T11:49:36.271Z</time></trkpt><trkpt lat="44.2772558" lon="8.13763"><ele>696.5999999999999</ele><time>2026-05-02T11:49:37.275Z</time></trkpt><trkpt lat="44.2771728" lon="8.1377325"><ele>693.4000000000001</ele><time>2026-05-02T11:49:38.272Z</time></trkpt><trkpt lat="44.2771055" lon="8.137835"><ele>690.2</ele><time>2026-05-02T11:49:39.285Z</time></trkpt><trkpt lat="44.2770823" lon="8.1379664"><ele>687.0</ele><time>2026-05-02T11:49:40.284Z</time></trkpt><trkpt lat="44.2770982" lon="8.1381133"><ele>687.2</ele><time>2026-05-02T11:49:41.281Z</time></trkpt><trkpt lat="44.2771241" lon="8.1382559"><ele>687.4000000000001</ele><time>2026-05-02T11:49:42.289Z</time></trkpt><trkpt lat="44.2771621" lon="8.1383991"><ele>687.5999999999999</ele><time>2026-05-02T11:49:43.279Z</time></trkpt><trkpt lat="44.277204" lon="8.1385271"><ele>687.8</ele><time>2026-05-02T11:49:44.283Z</time></trkpt><trkpt lat="44.2772687" lon="8.1386194"><ele>688.0</ele><time>2026-05-02T11:49:45.283Z</time></trkpt><trkpt lat="44.2773556" lon="8.1386811"><ele>692.0</ele><time>2026-05-02T11:49:46.277Z</time></trkpt><trkpt lat="44.2774436" lon="8.1387199"><ele>696.0</ele><time>2026-05-02T11:49:47.275Z</time></trkpt><trkpt lat="44.2775327" lon="8.1387535"><ele>700.0</ele><time>2026-05-02T11:49:48.28Z</time></trkpt><trkpt lat="44.2776189" lon="8.138799"><ele>704.0</ele><time>2026-05-02T11:49:49.277Z</time></trkpt><trkpt lat="44.2777097" lon="8.1388456"><ele>708.0</ele><time>2026-05-02T11:49:50.276Z</time></trkpt><trkpt lat="44.2777902" lon="8.1389064"><ele>708.0</ele><time>2026-05-02T11:49:51.274Z</time></trkpt><trkpt lat="44.2778658" lon="8.1390002"><ele>708.0</ele><time>2026-05-02T11:49:52.285Z</time></trkpt><trkpt lat="44.2779219" lon="8.1390941"><ele>708.0</ele><time>2026-05-02T11:49:53.269Z</time></trkpt><trkpt lat="44.2779488" lon="8.1391909"><ele>708.0</ele><time>2026-05-02T11:49:54.275Z</time></trkpt><trkpt lat="44.2779399" lon="8.1392994"><ele>708.0</ele><time>2026-05-02T11:49:55.263Z</time></trkpt><trkpt lat="44.2779228" lon="8.1394117"><ele>708.0</ele><time>2026-05-02T11:49:56.268Z</time></trkpt><trkpt lat="44.277924" lon="8.1395368"><ele>709.0</ele><time>2026-05-02T11:49:57.262Z</time></trkpt><trkpt lat="44.2779501" lon="8.1396529"><ele>710.0</ele><time>2026-05-02T11:49:58.276Z</time></trkpt><trkpt lat="44.2779837" lon="8.1397601"><ele>711.0</ele><time>2026-05-02T11:49:59.254Z</time></trkpt><trkpt lat="44.2780321" lon="8.139882"><ele>712.0</ele><time>2026-05-02T11:50:00.259Z</time></trkpt><trkpt lat="44.278089" lon="8.1399977"><ele>713.0</ele><time>2026-05-02T11:50:01.254Z</time></trkpt><trkpt lat="44.2781437" lon="8.1401136"><ele>713.0</ele><time>2026-05-02T11:50:02.257Z</time></trkpt><trkpt lat="44.2781904" lon="8.1402074"><ele>713.0</ele><time>2026-05-02T11:50:03.261Z</time></trkpt><trkpt lat="44.2782434" lon="8.1403058"><ele>713.0</ele><time>2026-05-02T11:50:05.261Z</time></trkpt><trkpt lat="44.278123" lon="8.1403425"><ele>713.0</ele><time>2026-05-02T11:50:08.256Z</time></trkpt><trkpt lat="44.2780482" lon="8.1403204"><ele>713.0</ele><time>2026-05-02T11:50:09.26Z</time></trkpt><trkpt lat="44.2779413" lon="8.1402754"><ele>709.5</ele><time>2026-05-02T11:50:10.257Z</time></trkpt><trkpt lat="44.2778265" lon="8.1402025"><ele>706.0</ele><time>2026-05-02T11:50:11.254Z</time></trkpt><trkpt lat="44.2776992" lon="8.1401403"><ele>702.5</ele><time>2026-05-02T11:50:12.252Z</time></trkpt><trkpt lat="44.277571" lon="8.1400979"><ele>699.0</ele><time>2026-05-02T11:50:13.258Z</time></trkpt><trkpt lat="44.277442" lon="8.1400855"><ele>699.0</ele><time>2026-05-02T11:50:14.258Z</time></trkpt><trkpt lat="44.2773209" lon="8.1401194"><ele>699.0</ele><time>2026-05-02T11:50:15.251Z</time></trkpt><trkpt lat="44.277231" lon="8.1401743"><ele>699.0</ele><time>2026-05-02T11:50:16.263Z</time></trkpt><trkpt lat="44.2771379" lon="8.1402067"><ele>699.0</ele><time>2026-05-02T11:50:17.265Z</time></trkpt><trkpt lat="44.2770352" lon="8.1401877"><ele>699.0</ele><time>2026-05-02T11:50:18.267Z</time></trkpt><trkpt lat="44.2769484" lon="8.1401066"><ele>698.0</ele><time>2026-05-02T11:50:19.269Z</time></trkpt><trkpt lat="44.2768832" lon="8.1399917"><ele>697.0</ele><time>2026-05-02T11:50:20.264Z</time></trkpt><trkpt lat="44.2768084" lon="8.1398787"><ele>696.0</ele><time>2026-05-02T11:50:21.263Z</time></trkpt><trkpt lat="44.2767308" lon="8.1397832"><ele>695.0</ele><time>2026-05-02T11:50:22.26Z</time></trkpt><trkpt lat="44.2766601" lon="8.1397056"><ele>694.0</ele><time>2026-05-02T11:50:23.275Z</time></trkpt><trkpt lat="44.2765718" lon="8.1396682"><ele>694.0</ele><time>2026-05-02T11:50:24.266Z</time></trkpt><trkpt lat="44.2764814" lon="8.1396642"><ele>694.0</ele><time>2026-05-02T11:50:25.264Z</time></trkpt><trkpt lat="44.2763853" lon="8.1396687"><ele>694.0</ele><time>2026-05-02T11:50:26.265Z</time></trkpt><trkpt lat="44.2762776" lon="8.1396636"><ele>694.0</ele><time>2026-05-02T11:50:27.269Z</time></trkpt><trkpt lat="44.2761778" lon="8.1396421"><ele>694.0</ele><time>2026-05-02T11:50:28.282Z</time></trkpt><trkpt lat="44.2760795" lon="8.1396229"><ele>692.8000000000001</ele><time>2026-05-02T11:50:29.281Z</time></trkpt><trkpt lat="44.2759948" lon="8.1396421"><ele>691.6</ele><time>2026-05-02T11:50:30.279Z</time></trkpt><trkpt lat="44.2759235" lon="8.1397227"><ele>690.4</ele><time>2026-05-02T11:50:31.281Z</time></trkpt><trkpt lat="44.2758496" lon="8.1398527"><ele>689.2</ele><time>2026-05-02T11:50:32.269Z</time></trkpt><trkpt lat="44.2757861" lon="8.1400033"><ele>688.0</ele><time>2026-05-02T11:50:33.271Z</time></trkpt><trkpt lat="44.2757185" lon="8.140163"><ele>689.75</ele><time>2026-05-02T11:50:34.271Z</time></trkpt><trkpt lat="44.2756441" lon="8.140321"><ele>691.5</ele><time>2026-05-02T11:50:35.271Z</time></trkpt><trkpt lat="44.2755658" lon="8.1404625"><ele>693.25</ele><time>2026-05-02T11:50:36.279Z</time></trkpt><trkpt lat="44.2754729" lon="8.1405664"><ele>695.0</ele><time>2026-05-02T11:50:37.268Z</time></trkpt><trkpt lat="44.2753581" lon="8.1406237"><ele>695.0</ele><time>2026-05-02T11:50:38.269Z</time></trkpt><trkpt lat="44.2752344" lon="8.1406598"><ele>695.0</ele><time>2026-05-02T11:50:39.261Z</time></trkpt><trkpt lat="44.2750971" lon="8.1406897"><ele>695.0</ele><time>2026-05-02T11:50:40.273Z</time></trkpt><trkpt lat="44.274974" lon="8.1407285"><ele>695.0</ele><time>2026-05-02T11:50:41.258Z</time></trkpt><trkpt lat="44.2748797" lon="8.1407807"><ele>698.0</ele><time>2026-05-02T11:50:42.271Z</time></trkpt><trkpt lat="44.2747974" lon="8.1408347"><ele>701.0</ele><time>2026-05-02T11:50:43.283Z</time></trkpt><trkpt lat="44.2747558" lon="8.1409185"><ele>704.0</ele><time>2026-05-02T11:50:44.279Z</time></trkpt><trkpt lat="44.2747718" lon="8.141049"><ele>707.0</ele><time>2026-05-02T11:50:45.284Z</time></trkpt><trkpt lat="44.2748118" lon="8.1411995"><ele>710.0</ele><time>2026-05-02T11:50:46.274Z</time></trkpt><trkpt lat="44.2748356" lon="8.1413252"><ele>710.8333333333333</ele><time>2026-05-02T11:50:47.276Z</time></trkpt><trkpt lat="44.2748284" lon="8.1414526"><ele>711.6666666666666</ele><time>2026-05-02T11:50:48.281Z</time></trkpt><trkpt lat="44.2747922" lon="8.1415453"><ele>712.5</ele><time>2026-05-02T11:50:49.28Z</time></trkpt><trkpt lat="44.2747237" lon="8.1416012"><ele>713.3333333333334</ele><time>2026-05-02T11:50:50.277Z</time></trkpt><trkpt lat="44.274655" lon="8.1416686"><ele>714.1666666666667</ele><time>2026-05-02T11:50:51.274Z</time></trkpt><trkpt lat="44.2745789" lon="8.1417432"><ele>715.0</ele><time>2026-05-02T11:50:52.268Z</time></trkpt><trkpt lat="44.2744955" lon="8.141823"><ele>715.0</ele><time>2026-05-02T11:50:53.27Z</time></trkpt><trkpt lat="44.2744111" lon="8.1419127"><ele>715.0</ele><time>2026-05-02T11:50:54.284Z</time></trkpt><trkpt lat="44.2743308" lon="8.142006"><ele>715.0</ele><time>2026-05-02T11:50:55.273Z</time></trkpt><trkpt lat="44.2742564" lon="8.1421003"><ele>715.0</ele><time>2026-05-02T11:50:56.27Z</time></trkpt><trkpt lat="44.2742118" lon="8.1422084"><ele>715.0</ele><time>2026-05-02T11:50:57.281Z</time></trkpt><trkpt lat="44.274202" lon="8.1423293"><ele>715.8333333333334</ele><time>2026-05-02T11:50:58.287Z</time></trkpt><trkpt lat="44.2742118" lon="8.1424403"><ele>716.6666666666667</ele><time>2026-05-02T11:50:59.289Z</time></trkpt><trkpt lat="44.2742616" lon="8.142541"><ele>717.5</ele><time>2026-05-02T11:51:00.288Z</time></trkpt><trkpt lat="44.2743295" lon="8.1426203"><ele>718.3333333333334</ele><time>2026-05-02T11:51:01.279Z</time></trkpt><trkpt lat="44.2743986" lon="8.1426574"><ele>719.1666666666666</ele><time>2026-05-02T11:51:02.283Z</time></trkpt><trkpt lat="44.2745105" lon="8.1426235"><ele>720.0</ele><time>2026-05-02T11:51:04.278Z</time></trkpt><trkpt lat="44.2745811" lon="8.1425315"><ele>720.0</ele><time>2026-05-02T11:51:06.281Z</time></trkpt><trkpt lat="44.2746578" lon="8.1424213"><ele>720.0</ele><time>2026-05-02T11:51:08.277Z</time></trkpt><trkpt lat="44.2747304" lon="8.1423324"><ele>720.0</ele><time>2026-05-02T11:51:10.279Z</time></trkpt><trkpt lat="44.2747989" lon="8.1422651"><ele>720.0</ele><time>2026-05-02T11:51:12.281Z</time></trkpt><trkpt lat="44.2748627" lon="8.142224"><ele>720.0</ele><time>2026-05-02T11:51:14.284Z</time></trkpt><trkpt lat="44.2749287" lon="8.1421877"><ele>720.0</ele><time>2026-05-02T11:51:16.279Z</time></trkpt><trkpt lat="44.275017" lon="8.142138"><ele>721.3333333333334</ele><time>2026-05-02T11:51:19.269Z</time></trkpt><trkpt lat="44.2751225" lon="8.1420858"><ele>722.6666666666666</ele><time>2026-05-02T11:51:21.278Z</time></trkpt><trkpt lat="44.275191" lon="8.1420583"><ele>724.0</ele><time>2026-05-02T11:51:22.272Z</time></trkpt><trkpt lat="44.2752682" lon="8.1420177"><ele>725.3333333333333</ele><time>2026-05-02T11:51:23.273Z</time></trkpt><trkpt lat="44.2753492" lon="8.1419834"><ele>726.6666666666666</ele><time>2026-05-02T11:51:24.274Z</time></trkpt><trkpt lat="44.2754299" lon="8.1419687"><ele>728.0</ele><time>2026-05-02T11:51:25.285Z</time></trkpt><trkpt lat="44.2755084" lon="8.1419543"><ele>728.0</ele><time>2026-05-02T11:51:26.271Z</time></trkpt><trkpt lat="44.2755788" lon="8.1419228"><ele>728.0</ele><time>2026-05-02T11:51:27.281Z</time></trkpt><trkpt lat="44.2756379" lon="8.1418562"><ele>728.0</ele><time>2026-05-02T11:51:28.287Z</time></trkpt><trkpt lat="44.2756704" lon="8.1417462"><ele>728.0</ele><time>2026-05-02T11:51:29.271Z</time></trkpt><trkpt lat="44.2756823" lon="8.1416188"><ele>728.0</ele><time>2026-05-02T11:51:30.269Z</time></trkpt><trkpt lat="44.2756892" lon="8.1414937"><ele>728.0</ele><time>2026-05-02T11:51:31.266Z</time></trkpt><trkpt lat="44.2757013" lon="8.1413812"><ele>728.3333333333333</ele><time>2026-05-02T11:51:32.272Z</time></trkpt><trkpt lat="44.2757608" lon="8.141277"><ele>728.6666666666666</ele><time>2026-05-02T11:51:34.265Z</time></trkpt><trkpt lat="44.2758172" lon="8.1412287"><ele>729.0</ele><time>2026-05-02T11:51:35.261Z</time></trkpt><trkpt lat="44.275891" lon="8.1411774"><ele>729.3333333333334</ele><time>2026-05-02T11:51:36.266Z</time></trkpt><trkpt lat="44.2759649" lon="8.1411302"><ele>729.6666666666667</ele><time>2026-05-02T11:51:37.27Z</time></trkpt><trkpt lat="44.2760383" lon="8.1410843"><ele>730.0</ele><time>2026-05-02T11:51:38.277Z</time></trkpt><trkpt lat="44.2761069" lon="8.1410644"><ele>730.0</ele><time>2026-05-02T11:51:39.276Z</time></trkpt><trkpt lat="44.2761722" lon="8.1410988"><ele>730.0</ele><time>2026-05-02T11:51:40.276Z</time></trkpt><trkpt lat="44.2762364" lon="8.1411569"><ele>730.0</ele><time>2026-05-02T11:51:41.27Z</time></trkpt><trkpt lat="44.2763073" lon="8.1412244"><ele>730.0</ele><time>2026-05-02T11:51:42.269Z</time></trkpt><trkpt lat="44.2763689" lon="8.1412847"><ele>730.0</ele><time>2026-05-02T11:51:43.267Z</time></trkpt><trkpt lat="44.2764457" lon="8.141326"><ele>730.0</ele><time>2026-05-02T11:51:44.275Z</time></trkpt><trkpt lat="44.2765339" lon="8.1413747"><ele>731.4</ele><time>2026-05-02T11:51:45.262Z</time></trkpt><trkpt lat="44.276629" lon="8.1414369"><ele>732.8</ele><time>2026-05-02T11:51:46.265Z</time></trkpt><trkpt lat="44.2767187" lon="8.1415071"><ele>734.2</ele><time>2026-05-02T11:51:47.267Z</time></trkpt><trkpt lat="44.276811" lon="8.141585"><ele>735.6</ele><time>2026-05-02T11:51:48.273Z</time></trkpt><trkpt lat="44.2768964" lon="8.1416767"><ele>737.0</ele><time>2026-05-02T11:51:49.273Z</time></trkpt><trkpt lat="44.276971" lon="8.1417616"><ele>740.2</ele><time>2026-05-02T11:51:50.268Z</time></trkpt><trkpt lat="44.2770355" lon="8.1418374"><ele>743.4000000000001</ele><time>2026-05-02T11:51:51.277Z</time></trkpt><trkpt lat="44.2770528" lon="8.141941"><ele>746.5999999999999</ele><time>2026-05-02T11:51:53.272Z</time></trkpt><trkpt lat="44.2769783" lon="8.1419892"><ele>749.8</ele><time>2026-05-02T11:51:55.267Z</time></trkpt><trkpt lat="44.2768718" lon="8.1419701"><ele>753.0</ele><time>2026-05-02T11:51:57.266Z</time></trkpt><trkpt lat="44.276749" lon="8.1419646"><ele>753.0</ele><time>2026-05-02T11:51:59.266Z</time></trkpt><trkpt lat="44.2766737" lon="8.1419871"><ele>753.0</ele><time>2026-05-02T11:52:00.271Z</time></trkpt><trkpt lat="44.2765966" lon="8.1420319"><ele>753.0</ele><time>2026-05-02T11:52:01.266Z</time></trkpt><trkpt lat="44.2765241" lon="8.142094"><ele>753.0</ele><time>2026-05-02T11:52:02.27Z</time></trkpt><trkpt lat="44.2764693" lon="8.1421624"><ele>753.0</ele><time>2026-05-02T11:52:03.267Z</time></trkpt><trkpt lat="44.2764239" lon="8.1422307"><ele>753.0</ele><time>2026-05-02T11:52:04.271Z</time></trkpt><trkpt lat="44.2763605" lon="8.1423697"><ele>754.1428571428571</ele><time>2026-05-02T11:52:06.281Z</time></trkpt><trkpt lat="44.2763488" lon="8.142476"><ele>755.2857142857143</ele><time>2026-05-02T11:52:07.276Z</time></trkpt><trkpt lat="44.276335" lon="8.1425867"><ele>756.4285714285713</ele><time>2026-05-02T11:52:08.277Z</time></trkpt><trkpt lat="44.2763119" lon="8.1426827"><ele>757.5714285714286</ele><time>2026-05-02T11:52:09.28Z</time></trkpt><trkpt lat="44.2762659" lon="8.1427428"><ele>758.7142857142857</ele><time>2026-05-02T11:52:10.274Z</time></trkpt><trkpt lat="44.2761986" lon="8.1427766"><ele>759.8571428571428</ele><time>2026-05-02T11:52:11.275Z</time></trkpt><trkpt lat="44.2761246" lon="8.1428129"><ele>761.0</ele><time>2026-05-02T11:52:12.275Z</time></trkpt><trkpt lat="44.2760417" lon="8.1428615"><ele>761.0</ele><time>2026-05-02T11:52:13.28Z</time></trkpt><trkpt lat="44.2759618" lon="8.1429156"><ele>761.0</ele><time>2026-05-02T11:52:14.27Z</time></trkpt><trkpt lat="44.2758955" lon="8.1429787"><ele>761.0</ele><time>2026-05-02T11:52:15.274Z</time></trkpt><trkpt lat="44.2758463" lon="8.1430615"><ele>761.0</ele><time>2026-05-02T11:52:16.279Z</time></trkpt><trkpt lat="44.2758348" lon="8.1431683"><ele>761.0</ele><time>2026-05-02T11:52:17.271Z</time></trkpt><trkpt lat="44.275828" lon="8.1432933"><ele>761.0</ele><time>2026-05-02T11:52:18.273Z</time></trkpt><trkpt lat="44.2758419" lon="8.1434388"><ele>763.1999999999999</ele><time>2026-05-02T11:52:19.27Z</time></trkpt><trkpt lat="44.2758563" lon="8.143577"><ele>765.4</ele><time>2026-05-02T11:52:20.275Z</time></trkpt><trkpt lat="44.2758787" lon="8.1437141"><ele>767.6</ele><time>2026-05-02T11:52:21.282Z</time></trkpt><trkpt lat="44.2759229" lon="8.1438334"><ele>769.8</ele><time>2026-05-02T11:52:22.272Z</time></trkpt><trkpt lat="44.2759659" lon="8.143931"><ele>772.0</ele><time>2026-05-02T11:52:23.277Z</time></trkpt><trkpt lat="44.2760172" lon="8.1440041"><ele>772.1666666666666</ele><time>2026-05-02T11:52:24.276Z</time></trkpt><trkpt lat="44.2760733" lon="8.1440751"><ele>772.3333333333333</ele><time>2026-05-02T11:52:25.268Z</time></trkpt><trkpt lat="44.2761457" lon="8.1441253"><ele>772.5</ele><time>2026-05-02T11:52:26.263Z</time></trkpt><trkpt lat="44.2762216" lon="8.144171"><ele>772.6666666666667</ele><time>2026-05-02T11:52:27.281Z</time></trkpt><trkpt lat="44.2762994" lon="8.1442141"><ele>772.8333333333334</ele><time>2026-05-02T11:52:28.28Z</time></trkpt><trkpt lat="44.2763779" lon="8.1442597"><ele>773.0</ele><time>2026-05-02T11:52:29.275Z</time></trkpt><trkpt lat="44.2764532" lon="8.1443054"><ele>776.0000000000001</ele><time>2026-05-02T11:52:30.267Z</time></trkpt><trkpt lat="44.2765316" lon="8.1443543"><ele>779.0</ele><time>2026-05-02T11:52:31.27Z</time></trkpt><trkpt lat="44.2766109" lon="8.1444051"><ele>782.0</ele><time>2026-05-02T11:52:32.265Z</time></trkpt><trkpt lat="44.276687" lon="8.1444488"><ele>785.0</ele><time>2026-05-02T11:52:33.269Z</time></trkpt><trkpt lat="44.2767665" lon="8.1444786"><ele>788.0000000000001</ele><time>2026-05-02T11:52:34.268Z</time></trkpt><trkpt lat="44.2768396" lon="8.144515"><ele>791.0</ele><time>2026-05-02T11:52:35.273Z</time></trkpt><trkpt lat="44.2768966" lon="8.1445929"><ele>791.0000000000001</ele><time>2026-05-02T11:52:36.268Z</time></trkpt><trkpt lat="44.2769303" lon="8.1447009"><ele>791.0</ele><time>2026-05-02T11:52:37.273Z</time></trkpt><trkpt lat="44.2769599" lon="8.1448056"><ele>791.0</ele><time>2026-05-02T11:52:38.264Z</time></trkpt><trkpt lat="44.2769997" lon="8.1448835"><ele>791.0</ele><time>2026-05-02T11:52:39.266Z</time></trkpt><trkpt lat="44.2770986" lon="8.1450008"><ele>791.0000000000001</ele><time>2026-05-02T11:52:41.27Z</time></trkpt><trkpt lat="44.2771639" lon="8.1450607"><ele>791.0</ele><time>2026-05-02T11:52:42.273Z</time></trkpt><trkpt lat="44.2772348" lon="8.1451479"><ele>794.3333333333334</ele><time>2026-05-02T11:52:43.27Z</time></trkpt><trkpt lat="44.2773043" lon="8.1452356"><ele>797.6666666666667</ele><time>2026-05-02T11:52:44.271Z</time></trkpt><trkpt lat="44.2773695" lon="8.1453232"><ele>801.0</ele><time>2026-05-02T11:52:45.265Z</time></trkpt><trkpt lat="44.2774194" lon="8.1454071"><ele>804.3333333333333</ele><time>2026-05-02T11:52:46.262Z</time></trkpt><trkpt lat="44.2774668" lon="8.1455018"><ele>807.6666666666666</ele><time>2026-05-02T11:52:47.261Z</time></trkpt><trkpt lat="44.2775073" lon="8.1456128"><ele>811.0</ele><time>2026-05-02T11:52:48.26Z</time></trkpt><trkpt lat="44.2775502" lon="8.1457344"><ele>811.1999999999999</ele><time>2026-05-02T11:52:49.255Z</time></trkpt><trkpt lat="44.2775867" lon="8.1458469"><ele>811.4</ele><time>2026-05-02T11:52:50.26Z</time></trkpt><trkpt lat="44.2776114" lon="8.1459397"><ele>811.6</ele><time>2026-05-02T11:52:51.253Z</time></trkpt><trkpt lat="44.2775986" lon="8.1460687"><ele>811.8</ele><time>2026-05-02T11:52:53.262Z</time></trkpt><trkpt lat="44.2775054" lon="8.1460587"><ele>812.0</ele><time>2026-05-02T11:52:55.257Z</time></trkpt><trkpt lat="44.2773814" lon="8.1460163"><ele>812.0</ele><time>2026-05-02T11:52:57.252Z</time></trkpt><trkpt lat="44.2773045" lon="8.1459845"><ele>812.0</ele><time>2026-05-02T11:52:58.28Z</time></trkpt><trkpt lat="44.2772173" lon="8.1459368"><ele>812.0</ele><time>2026-05-02T11:52:59.254Z</time></trkpt><trkpt lat="44.2771229" lon="8.1458963"><ele>812.0</ele><time>2026-05-02T11:53:00.259Z</time></trkpt><trkpt lat="44.2770211" lon="8.1458693"><ele>812.0</ele><time>2026-05-02T11:53:01.261Z</time></trkpt><trkpt lat="44.2769261" lon="8.1458437"><ele>809.4000000000001</ele><time>2026-05-02T11:53:02.269Z</time></trkpt><trkpt lat="44.276824" lon="8.1458311"><ele>806.8000000000001</ele><time>2026-05-02T11:53:03.265Z</time></trkpt><trkpt lat="44.2767337" lon="8.1458304"><ele>804.2</ele><time>2026-05-02T11:53:04.27Z</time></trkpt><trkpt lat="44.2766392" lon="8.1458406"><ele>801.6</ele><time>2026-05-02T11:53:05.265Z</time></trkpt><trkpt lat="44.2765418" lon="8.145858"><ele>799.0</ele><time>2026-05-02T11:53:06.265Z</time></trkpt><trkpt lat="44.2764444" lon="8.1458864"><ele>797.4999999999999</ele><time>2026-05-02T11:53:07.261Z</time></trkpt><trkpt lat="44.2763516" lon="8.1459212"><ele>796.0</ele><time>2026-05-02T11:53:08.284Z</time></trkpt><trkpt lat="44.2762916" lon="8.1459709"><ele>794.5</ele><time>2026-05-02T11:53:09.278Z</time></trkpt><trkpt lat="44.2762619" lon="8.1460611"><ele>793.0</ele><time>2026-05-02T11:53:10.279Z</time></trkpt><trkpt lat="44.2762847" lon="8.1462281"><ele>791.4999999999999</ele><time>2026-05-02T11:53:12.281Z</time></trkpt><trkpt lat="44.2763342" lon="8.1462891"><ele>790.0</ele><time>2026-05-02T11:53:13.271Z</time></trkpt><trkpt lat="44.2764078" lon="8.1463349"><ele>791.4999999999999</ele><time>2026-05-02T11:53:14.277Z</time></trkpt><trkpt lat="44.2764945" lon="8.1463744"><ele>793.0</ele><time>2026-05-02T11:53:15.276Z</time></trkpt><trkpt lat="44.2765852" lon="8.1464065"><ele>794.5</ele><time>2026-05-02T11:53:16.28Z</time></trkpt><trkpt lat="44.2766661" lon="8.14643"><ele>796.0</ele><time>2026-05-02T11:53:17.281Z</time></trkpt><trkpt lat="44.2767389" lon="8.1464667"><ele>797.4999999999999</ele><time>2026-05-02T11:53:18.276Z</time></trkpt><trkpt lat="44.276814" lon="8.1465191"><ele>799.0</ele><time>2026-05-02T11:53:19.28Z</time></trkpt><trkpt lat="44.2768788" lon="8.1465808"><ele>800.6</ele><time>2026-05-02T11:53:20.276Z</time></trkpt><trkpt lat="44.2769344" lon="8.1466549"><ele>802.2</ele><time>2026-05-02T11:53:21.276Z</time></trkpt><trkpt lat="44.2769905" lon="8.1467186"><ele>803.8000000000001</ele><time>2026-05-02T11:53:22.276Z</time></trkpt><trkpt lat="44.2770431" lon="8.1467789"><ele>805.4000000000001</ele><time>2026-05-02T11:53:23.275Z</time></trkpt><trkpt lat="44.2771403" lon="8.1468635"><ele>807.0</ele><time>2026-05-02T11:53:25.28Z</time></trkpt><trkpt lat="44.2772598" lon="8.1469442"><ele>809.2857142857143</ele><time>2026-05-02T11:53:27.28Z</time></trkpt><trkpt lat="44.2773164" lon="8.1469887"><ele>811.5714285714286</ele><time>2026-05-02T11:53:28.282Z</time></trkpt><trkpt lat="44.2773647" lon="8.1470453"><ele>813.8571428571429</ele><time>2026-05-02T11:53:29.286Z</time></trkpt><trkpt lat="44.2774035" lon="8.1471196"><ele>816.1428571428571</ele><time>2026-05-02T11:53:30.271Z</time></trkpt><trkpt lat="44.2774378" lon="8.1472096"><ele>818.4285714285714</ele><time>2026-05-02T11:53:31.271Z</time></trkpt><trkpt lat="44.2774698" lon="8.1473051"><ele>820.7142857142858</ele><time>2026-05-02T11:53:32.264Z</time></trkpt><trkpt lat="44.2774983" lon="8.1473871"><ele>823.0</ele><time>2026-05-02T11:53:33.264Z</time></trkpt><trkpt lat="44.2775368" lon="8.1474642"><ele>823.9999999999999</ele><time>2026-05-02T11:53:34.264Z</time></trkpt><trkpt lat="44.2775828" lon="8.1475252"><ele>825.0</ele><time>2026-05-02T11:53:35.267Z</time></trkpt><trkpt lat="44.2776747" lon="8.1476454"><ele>826.0</ele><time>2026-05-02T11:53:37.256Z</time></trkpt><trkpt lat="44.2777212" lon="8.1477159"><ele>827.0</ele><time>2026-05-02T11:53:38.262Z</time></trkpt><trkpt lat="44.2777568" lon="8.1478701"><ele>827.9999999999999</ele><time>2026-05-02T11:53:40.27Z</time></trkpt><trkpt lat="44.2777452" lon="8.1479598"><ele>829.0</ele><time>2026-05-02T11:53:41.274Z</time></trkpt><trkpt lat="44.2777065" lon="8.1480447"><ele>828.9999999999999</ele><time>2026-05-02T11:53:42.264Z</time></trkpt><trkpt lat="44.2776587" lon="8.1481211"><ele>829.0</ele><time>2026-05-02T11:53:43.269Z</time></trkpt><trkpt lat="44.277597" lon="8.1481972"><ele>829.0</ele><time>2026-05-02T11:53:44.265Z</time></trkpt><trkpt lat="44.2775287" lon="8.1482797"><ele>829.0</ele><time>2026-05-02T11:53:45.267Z</time></trkpt><trkpt lat="44.2774634" lon="8.1483582"><ele>828.9999999999999</ele><time>2026-05-02T11:53:46.265Z</time></trkpt><trkpt lat="44.2773909" lon="8.1484176"><ele>829.0</ele><time>2026-05-02T11:53:47.275Z</time></trkpt><trkpt lat="44.2773077" lon="8.1484699"><ele>826.1666666666666</ele><time>2026-05-02T11:53:48.255Z</time></trkpt><trkpt lat="44.2772194" lon="8.1485123"><ele>823.3333333333333</ele><time>2026-05-02T11:53:49.276Z</time></trkpt><trkpt lat="44.2771367" lon="8.1485614"><ele>820.5</ele><time>2026-05-02T11:53:50.263Z</time></trkpt><trkpt lat="44.2770667" lon="8.148615"><ele>817.6666666666667</ele><time>2026-05-02T11:53:51.27Z</time></trkpt><trkpt lat="44.2770154" lon="8.1486759"><ele>814.8333333333334</ele><time>2026-05-02T11:53:52.276Z</time></trkpt><trkpt lat="44.276987" lon="8.1487572"><ele>812.0</ele><time>2026-05-02T11:53:53.279Z</time></trkpt><trkpt lat="44.2769911" lon="8.1488547"><ele>812.0000000000001</ele><time>2026-05-02T11:53:54.275Z</time></trkpt><trkpt lat="44.2770104" lon="8.1489582"><ele>812.0</ele><time>2026-05-02T11:53:55.284Z</time></trkpt><trkpt lat="44.2770503" lon="8.1490657"><ele>812.0</ele><time>2026-05-02T11:53:56.276Z</time></trkpt><trkpt lat="44.2771005" lon="8.1491763"><ele>812.0</ele><time>2026-05-02T11:53:57.27Z</time></trkpt><trkpt lat="44.2771531" lon="8.1492924"><ele>812.0000000000001</ele><time>2026-05-02T11:53:58.279Z</time></trkpt><trkpt lat="44.2771994" lon="8.1493963"><ele>812.0</ele><time>2026-05-02T11:53:59.264Z</time></trkpt><trkpt lat="44.2772477" lon="8.1494972"><ele>814.1666666666667</ele><time>2026-05-02T11:54:00.275Z</time></trkpt><trkpt lat="44.2772831" lon="8.1495921"><ele>816.3333333333334</ele><time>2026-05-02T11:54:01.256Z</time></trkpt><trkpt lat="44.2773145" lon="8.1496867"><ele>818.5</ele><time>2026-05-02T11:54:02.261Z</time></trkpt><trkpt lat="44.2773348" lon="8.1497719"><ele>820.6666666666667</ele><time>2026-05-02T11:54:03.26Z</time></trkpt><trkpt lat="44.2773381" lon="8.1499119"><ele>822.8333333333334</ele><time>2026-05-02T11:54:05.259Z</time></trkpt><trkpt lat="44.2772389" lon="8.1498921"><ele>825.0</ele><time>2026-05-02T11:54:08.269Z</time></trkpt><trkpt lat="44.277183" lon="8.1498314"><ele>825.0</ele><time>2026-05-02T11:54:09.255Z</time></trkpt><trkpt lat="44.2771219" lon="8.1497524"><ele>825.0</ele><time>2026-05-02T11:54:10.261Z</time></trkpt><trkpt lat="44.2770554" lon="8.149658"><ele>825.0</ele><time>2026-05-02T11:54:11.258Z</time></trkpt><trkpt lat="44.2769871" lon="8.1495917"><ele>825.0</ele><time>2026-05-02T11:54:12.263Z</time></trkpt><trkpt lat="44.2769155" lon="8.149542"><ele>825.0</ele><time>2026-05-02T11:54:13.267Z</time></trkpt><trkpt lat="44.276847" lon="8.1495374"><ele>825.0</ele><time>2026-05-02T11:54:14.262Z</time></trkpt><trkpt lat="44.2767755" lon="8.1495684"><ele>825.0</ele><time>2026-05-02T11:54:15.264Z</time></trkpt><trkpt lat="44.2767129" lon="8.1496182"><ele>825.0</ele><time>2026-05-02T11:54:16.265Z</time></trkpt><trkpt lat="44.2766304" lon="8.149673"><ele>825.0</ele><time>2026-05-02T11:54:17.267Z</time></trkpt><trkpt lat="44.276539" lon="8.1497212"><ele>825.0</ele><time>2026-05-02T11:54:18.266Z</time></trkpt><trkpt lat="44.2764401" lon="8.1497562"><ele>825.0</ele><time>2026-05-02T11:54:19.27Z</time></trkpt><trkpt lat="44.2763384" lon="8.1497801"><ele>825.5</ele><time>2026-05-02T11:54:20.269Z</time></trkpt><trkpt lat="44.2762392" lon="8.1498004"><ele>826.0</ele><time>2026-05-02T11:54:21.272Z</time></trkpt><trkpt lat="44.2761461" lon="8.1498224"><ele>826.5</ele><time>2026-05-02T11:54:22.276Z</time></trkpt><trkpt lat="44.2760692" lon="8.1498626"><ele>827.0</ele><time>2026-05-02T11:54:23.268Z</time></trkpt><trkpt lat="44.2760112" lon="8.1499204"><ele>827.5</ele><time>2026-05-02T11:54:24.281Z</time></trkpt><trkpt lat="44.2759824" lon="8.1500188"><ele>828.0</ele><time>2026-05-02T11:54:25.274Z</time></trkpt><trkpt lat="44.2759705" lon="8.1501377"><ele>828.0</ele><time>2026-05-02T11:54:26.269Z</time></trkpt><trkpt lat="44.2759878" lon="8.1502566"><ele>828.0</ele><time>2026-05-02T11:54:27.276Z</time></trkpt><trkpt lat="44.2760136" lon="8.1503712"><ele>828.0</ele><time>2026-05-02T11:54:28.281Z</time></trkpt><trkpt lat="44.2760263" lon="8.1504695"><ele>828.0</ele><time>2026-05-02T11:54:29.265Z</time></trkpt><trkpt lat="44.2760032" lon="8.1506146"><ele>828.0</ele><time>2026-05-02T11:54:31.274Z</time></trkpt><trkpt lat="44.2758971" lon="8.1506781"><ele>828.0</ele><time>2026-05-02T11:54:33.274Z</time></trkpt><trkpt lat="44.2758265" lon="8.1506615"><ele>828.0</ele><time>2026-05-02T11:54:34.264Z</time></trkpt><trkpt lat="44.2757388" lon="8.1506491"><ele>828.0</ele><time>2026-05-02T11:54:35.267Z</time></trkpt><trkpt lat="44.2756338" lon="8.1506582"><ele>828.0</ele><time>2026-05-02T11:54:36.267Z</time></trkpt><trkpt lat="44.2755455" lon="8.1506865"><ele>828.0</ele><time>2026-05-02T11:54:37.273Z</time></trkpt><trkpt lat="44.2754592" lon="8.1507257"><ele>828.0</ele><time>2026-05-02T11:54:38.27Z</time></trkpt><trkpt lat="44.2753803" lon="8.1507658"><ele>828.8571428571429</ele><time>2026-05-02T11:54:39.274Z</time></trkpt><trkpt lat="44.2753179" lon="8.1508309"><ele>829.7142857142858</ele><time>2026-05-02T11:54:40.271Z</time></trkpt><trkpt lat="44.2752616" lon="8.1509007"><ele>830.5714285714287</ele><time>2026-05-02T11:54:41.281Z</time></trkpt><trkpt lat="44.2752226" lon="8.1509771"><ele>831.4285714285714</ele><time>2026-05-02T11:54:42.269Z</time></trkpt><trkpt lat="44.2751926" lon="8.1510565"><ele>832.2857142857142</ele><time>2026-05-02T11:54:43.271Z</time></trkpt><trkpt lat="44.2751693" lon="8.1511405"><ele>833.1428571428572</ele><time>2026-05-02T11:54:44.269Z</time></trkpt><trkpt lat="44.2751468" lon="8.1512373"><ele>834.0</ele><time>2026-05-02T11:54:45.269Z</time></trkpt><trkpt lat="44.2751221" lon="8.1513454"><ele>834.0</ele><time>2026-05-02T11:54:46.269Z</time></trkpt><trkpt lat="44.2750958" lon="8.1514597"><ele>834.0</ele><time>2026-05-02T11:54:47.274Z</time></trkpt><trkpt lat="44.2750686" lon="8.1515651"><ele>834.0</ele><time>2026-05-02T11:54:48.267Z</time></trkpt><trkpt lat="44.2750441" lon="8.1516656"><ele>834.0</ele><time>2026-05-02T11:54:49.271Z</time></trkpt><trkpt lat="44.2750256" lon="8.1517763"><ele>834.0</ele><time>2026-05-02T11:54:50.262Z</time></trkpt><trkpt lat="44.2750039" lon="8.1518841"><ele>834.0</ele><time>2026-05-02T11:54:51.267Z</time></trkpt><trkpt lat="44.2749786" lon="8.1519899"><ele>837.1666666666666</ele><time>2026-05-02T11:54:52.267Z</time></trkpt><trkpt lat="44.2749573" lon="8.1520995"><ele>840.3333333333333</ele><time>2026-05-02T11:54:53.265Z</time></trkpt><trkpt lat="44.2749352" lon="8.1522073"><ele>843.5</ele><time>2026-05-02T11:54:54.253Z</time></trkpt><trkpt lat="44.2749049" lon="8.1523087"><ele>846.6666666666666</ele><time>2026-05-02T11:54:55.256Z</time></trkpt><trkpt lat="44.2748846" lon="8.1524092"><ele>849.8333333333333</ele><time>2026-05-02T11:54:56.26Z</time></trkpt><trkpt lat="44.2748655" lon="8.1525165"><ele>853.0</ele><time>2026-05-02T11:54:57.258Z</time></trkpt><trkpt lat="44.2748431" lon="8.1526333"><ele>856.6666666666666</ele><time>2026-05-02T11:54:58.28Z</time></trkpt><trkpt lat="44.274816" lon="8.1527331"><ele>860.3333333333333</ele><time>2026-05-02T11:54:59.259Z</time></trkpt><trkpt lat="44.2747884" lon="8.1528282"><ele>864.0</ele><time>2026-05-02T11:55:01.252Z</time></trkpt><trkpt lat="44.2747264" lon="8.1527999"><ele>867.6666666666667</ele><time>2026-05-02T11:55:03.256Z</time></trkpt><trkpt lat="44.2746318" lon="8.1527068"><ele>871.3333333333334</ele><time>2026-05-02T11:55:05.254Z</time></trkpt><trkpt lat="44.2745822" lon="8.152638"><ele>875.0</ele><time>2026-05-02T11:55:06.254Z</time></trkpt><trkpt lat="44.2745376" lon="8.1525749"><ele>874.0000000000001</ele><time>2026-05-02T11:55:07.256Z</time></trkpt><trkpt lat="44.2744894" lon="8.1524974"><ele>873.0</ele><time>2026-05-02T11:55:08.258Z</time></trkpt><trkpt lat="44.2744451" lon="8.1524088"><ele>872.0</ele><time>2026-05-02T11:55:09.262Z</time></trkpt><trkpt lat="44.2743897" lon="8.1523229"><ele>871.0</ele><time>2026-05-02T11:55:10.256Z</time></trkpt><trkpt lat="44.2743383" lon="8.1522317"><ele>870.0000000000001</ele><time>2026-05-02T11:55:11.262Z</time></trkpt><trkpt lat="44.2742923" lon="8.1521445"><ele>869.0</ele><time>2026-05-02T11:55:12.253Z</time></trkpt><trkpt lat="44.2742386" lon="8.1520562"><ele>869.0</ele><time>2026-05-02T11:55:13.265Z</time></trkpt><trkpt lat="44.2741807" lon="8.1519454"><ele>869.0000000000001</ele><time>2026-05-02T11:55:14.263Z</time></trkpt><trkpt lat="44.2741267" lon="8.1518201"><ele>869.0000000000001</ele><time>2026-05-02T11:55:15.258Z</time></trkpt><trkpt lat="44.2740725" lon="8.1516827"><ele>869.0</ele><time>2026-05-02T11:55:16.255Z</time></trkpt><trkpt lat="44.2740221" lon="8.151548"><ele>869.0</ele><time>2026-05-02T11:55:17.266Z</time></trkpt><trkpt lat="44.27397" lon="8.1514139"><ele>872.2</ele><time>2026-05-02T11:55:18.26Z</time></trkpt><trkpt lat="44.2739157" lon="8.1512992"><ele>875.4000000000001</ele><time>2026-05-02T11:55:19.266Z</time></trkpt><trkpt lat="44.2738496" lon="8.1512054"><ele>878.6</ele><time>2026-05-02T11:55:20.255Z</time></trkpt><trkpt lat="44.2737857" lon="8.1511045"><ele>881.8</ele><time>2026-05-02T11:55:21.258Z</time></trkpt><trkpt lat="44.2737292" lon="8.1510135"><ele>885.0</ele><time>2026-05-02T11:55:22.256Z</time></trkpt><trkpt lat="44.2736812" lon="8.1509136"><ele>885.0</ele><time>2026-05-02T11:55:23.265Z</time></trkpt><trkpt lat="44.2736338" lon="8.1508096"><ele>885.0</ele><time>2026-05-02T11:55:24.268Z</time></trkpt><trkpt lat="44.273583" lon="8.1507067"><ele>885.0</ele><time>2026-05-02T11:55:25.272Z</time></trkpt><trkpt lat="44.273527" lon="8.1506042"><ele>885.0</ele><time>2026-05-02T11:55:26.267Z</time></trkpt><trkpt lat="44.2734736" lon="8.150518"><ele>885.0</ele><time>2026-05-02T11:55:27.27Z</time></trkpt><trkpt lat="44.2734282" lon="8.1504553"><ele>885.0</ele><time>2026-05-02T11:55:28.288Z</time></trkpt><trkpt lat="44.2733416" lon="8.150432"><ele>886.0</ele><time>2026-05-02T11:55:30.27Z</time></trkpt><trkpt lat="44.2732386" lon="8.150493"><ele>887.0</ele><time>2026-05-02T11:55:32.272Z</time></trkpt><trkpt lat="44.2731368" lon="8.1505997"><ele>888.0</ele><time>2026-05-02T11:55:34.26Z</time></trkpt><trkpt lat="44.2730839" lon="8.150673"><ele>889.0</ele><time>2026-05-02T11:55:35.266Z</time></trkpt><trkpt lat="44.2730254" lon="8.1507622"><ele>890.0</ele><time>2026-05-02T11:55:36.265Z</time></trkpt><trkpt lat="44.2729715" lon="8.1508515"><ele>890.0000000000001</ele><time>2026-05-02T11:55:37.271Z</time></trkpt><trkpt lat="44.2729257" lon="8.1509398"><ele>890.0</ele><time>2026-05-02T11:55:38.267Z</time></trkpt><trkpt lat="44.2728798" lon="8.151033"><ele>890.0</ele><time>2026-05-02T11:55:39.264Z</time></trkpt><trkpt lat="44.2728317" lon="8.1511069"><ele>890.0</ele><time>2026-05-02T11:55:40.272Z</time></trkpt><trkpt lat="44.2727778" lon="8.1511586"><ele>890.0000000000001</ele><time>2026-05-02T11:55:41.271Z</time></trkpt><trkpt lat="44.272674" lon="8.1512009"><ele>890.0</ele><time>2026-05-02T11:55:43.26Z</time></trkpt><trkpt lat="44.2725711" lon="8.1511914"><ele>890.0000000000001</ele><time>2026-05-02T11:55:45.272Z</time></trkpt><trkpt lat="44.2725021" lon="8.1511682"><ele>890.0</ele><time>2026-05-02T11:55:46.27Z</time></trkpt><trkpt lat="44.2724297" lon="8.1511374"><ele>890.0</ele><time>2026-05-02T11:55:47.257Z</time></trkpt><trkpt lat="44.2723671" lon="8.1511015"><ele>890.0</ele><time>2026-05-02T11:55:48.271Z</time></trkpt><trkpt lat="44.2723127" lon="8.151051"><ele>890.0000000000001</ele><time>2026-05-02T11:55:49.263Z</time></trkpt><trkpt lat="44.2722084" lon="8.1509988"><ele>890.0</ele><time>2026-05-02T11:55:51.263Z</time></trkpt><trkpt lat="44.2721219" lon="8.1510243"><ele>891.1666666666667</ele><time>2026-05-02T11:55:53.264Z</time></trkpt><trkpt lat="44.2720814" lon="8.1510949"><ele>892.3333333333334</ele><time>2026-05-02T11:55:54.272Z</time></trkpt><trkpt lat="44.2720415" lon="8.1511812"><ele>893.5</ele><time>2026-05-02T11:55:55.272Z</time></trkpt><trkpt lat="44.271984" lon="8.1512968"><ele>894.6666666666667</ele><time>2026-05-02T11:55:57.273Z</time></trkpt><trkpt lat="44.2719334" lon="8.1513837"><ele>895.8333333333334</ele><time>2026-05-02T11:55:59.266Z</time></trkpt><trkpt lat="44.2718659" lon="8.1515246"><ele>897.0</ele><time>2026-05-02T11:56:01.261Z</time></trkpt><trkpt lat="44.271836" lon="8.1516086"><ele>897.0</ele><time>2026-05-02T11:56:02.271Z</time></trkpt><trkpt lat="44.271765" lon="8.1517455"><ele>897.0</ele><time>2026-05-02T11:56:04.284Z</time></trkpt><trkpt lat="44.2717135" lon="8.1517987"><ele>897.0</ele><time>2026-05-02T11:56:05.274Z</time></trkpt><trkpt lat="44.271608" lon="8.1518638"><ele>897.0</ele><time>2026-05-02T11:56:07.268Z</time></trkpt><trkpt lat="44.2715452" lon="8.1518834"><ele>897.0</ele><time>2026-05-02T11:56:08.275Z</time></trkpt><trkpt lat="44.271482" lon="8.1518765"><ele>897.0</ele><time>2026-05-02T11:56:09.268Z</time></trkpt><trkpt lat="44.2714046" lon="8.1518629"><ele>897.0</ele><time>2026-05-02T11:56:10.271Z</time></trkpt><trkpt lat="44.2713171" lon="8.1518494"><ele>897.0</ele><time>2026-05-02T11:56:11.274Z</time></trkpt><trkpt lat="44.2712354" lon="8.151864"><ele>897.0</ele><time>2026-05-02T11:56:12.272Z</time></trkpt><trkpt lat="44.27117" lon="8.1518829"><ele>897.0</ele><time>2026-05-02T11:56:13.281Z</time></trkpt><trkpt lat="44.271126" lon="8.1519491"><ele>897.0</ele><time>2026-05-02T11:56:14.274Z</time></trkpt><trkpt lat="44.2711245" lon="8.1520744"><ele>897.0</ele><time>2026-05-02T11:56:16.267Z</time></trkpt><trkpt lat="44.2711977" lon="8.1522136"><ele>897.0</ele><time>2026-05-02T11:56:18.265Z</time></trkpt><trkpt lat="44.27124" lon="8.1522928"><ele>897.0</ele><time>2026-05-02T11:56:19.261Z</time></trkpt><trkpt lat="44.2712921" lon="8.152365"><ele>897.0</ele><time>2026-05-02T11:56:20.264Z</time></trkpt><trkpt lat="44.271325" lon="8.1524441"><ele>897.0</ele><time>2026-05-02T11:56:21.275Z</time></trkpt><trkpt lat="44.2713532" lon="8.1525284"><ele>897.0</ele><time>2026-05-02T11:56:22.265Z</time></trkpt><trkpt lat="44.271383" lon="8.1526873"><ele>897.0</ele><time>2026-05-02T11:56:24.264Z</time></trkpt><trkpt lat="44.2713715" lon="8.1527901"><ele>899.0</ele><time>2026-05-02T11:56:25.274Z</time></trkpt><trkpt lat="44.2713436" lon="8.1529017"><ele>901.0</ele><time>2026-05-02T11:56:26.262Z</time></trkpt><trkpt lat="44.2713132" lon="8.1530176"><ele>903.0</ele><time>2026-05-02T11:56:27.274Z</time></trkpt><trkpt lat="44.2712673" lon="8.1531112"><ele>905.0</ele><time>2026-05-02T11:56:28.269Z</time></trkpt><trkpt lat="44.2712081" lon="8.1531972"><ele>907.0</ele><time>2026-05-02T11:56:29.259Z</time></trkpt><trkpt lat="44.2711584" lon="8.1532804"><ele>909.0</ele><time>2026-05-02T11:56:30.258Z</time></trkpt><trkpt lat="44.2710987" lon="8.153358"><ele>911.5</ele><time>2026-05-02T11:56:31.263Z</time></trkpt><trkpt lat="44.2710365" lon="8.1534418"><ele>914.0</ele><time>2026-05-02T11:56:32.254Z</time></trkpt><trkpt lat="44.2709767" lon="8.1535244"><ele>916.5</ele><time>2026-05-02T11:56:33.254Z</time></trkpt><trkpt lat="44.2709183" lon="8.1536182"><ele>919.0</ele><time>2026-05-02T11:56:34.263Z</time></trkpt><trkpt lat="44.2708707" lon="8.1537119"><ele>921.5</ele><time>2026-05-02T11:56:35.271Z</time></trkpt><trkpt lat="44.2708271" lon="8.1538111"><ele>924.0</ele><time>2026-05-02T11:56:36.263Z</time></trkpt><trkpt lat="44.2707751" lon="8.1539165"><ele>924.0</ele><time>2026-05-02T11:56:37.258Z</time></trkpt><trkpt lat="44.2707277" lon="8.1540059"><ele>924.0000000000001</ele><time>2026-05-02T11:56:38.254Z</time></trkpt><trkpt lat="44.2706908" lon="8.1540899"><ele>924.0000000000001</ele><time>2026-05-02T11:56:39.264Z</time></trkpt><trkpt lat="44.2706612" lon="8.1542739"><ele>924.0</ele><time>2026-05-02T11:56:41.259Z</time></trkpt><trkpt lat="44.2706608" lon="8.1543854"><ele>924.0</ele><time>2026-05-02T11:56:42.259Z</time></trkpt><trkpt lat="44.2706639" lon="8.1545056"><ele>927.0</ele><time>2026-05-02T11:56:43.255Z</time></trkpt><trkpt lat="44.2706633" lon="8.1546258"><ele>930.0</ele><time>2026-05-02T11:56:44.256Z</time></trkpt><trkpt lat="44.2706482" lon="8.1547321"><ele>933.0</ele><time>2026-05-02T11:56:45.263Z</time></trkpt><trkpt lat="44.270641" lon="8.1548324"><ele>936.0</ele><time>2026-05-02T11:56:46.26Z</time></trkpt><trkpt lat="44.2706407" lon="8.1549366"><ele>939.0</ele><time>2026-05-02T11:56:47.262Z</time></trkpt><trkpt lat="44.270649" lon="8.1550386"><ele>942.0</ele><time>2026-05-02T11:56:48.261Z</time></trkpt><trkpt lat="44.2706473" lon="8.1551417"><ele>944.0</ele><time>2026-05-02T11:56:49.262Z</time></trkpt><trkpt lat="44.2706423" lon="8.1552545"><ele>946.0</ele><time>2026-05-02T11:56:50.263Z</time></trkpt><trkpt lat="44.2706391" lon="8.1553671"><ele>948.0</ele><time>2026-05-02T11:56:51.267Z</time></trkpt><trkpt lat="44.2706412" lon="8.1554858"><ele>950.0</ele><time>2026-05-02T11:56:52.267Z</time></trkpt><trkpt lat="44.2706415" lon="8.155595"><ele>952.0</ele><time>2026-05-02T11:56:53.268Z</time></trkpt><trkpt lat="44.270646" lon="8.1556858"><ele>954.0</ele><time>2026-05-02T11:56:54.271Z</time></trkpt><trkpt lat="44.2706503" lon="8.1558372"><ele>954.6</ele><time>2026-05-02T11:56:56.273Z</time></trkpt><trkpt lat="44.2706635" lon="8.1560055"><ele>955.2</ele><time>2026-05-02T11:56:58.281Z</time></trkpt><trkpt lat="44.2707233" lon="8.1561268"><ele>955.8000000000001</ele><time>2026-05-02T11:57:00.272Z</time></trkpt><trkpt lat="44.2707717" lon="8.1561969"><ele>956.4000000000001</ele><time>2026-05-02T11:57:01.266Z</time></trkpt><trkpt lat="44.2708103" lon="8.1562668"><ele>957.0</ele><time>2026-05-02T11:57:02.279Z</time></trkpt><trkpt lat="44.270871" lon="8.156409"><ele>956.2</ele><time>2026-05-02T11:57:04.264Z</time></trkpt><trkpt lat="44.2708658" lon="8.156574"><ele>955.4000000000001</ele><time>2026-05-02T11:57:06.28Z</time></trkpt><trkpt lat="44.2708458" lon="8.1567116"><ele>954.5999999999999</ele><time>2026-05-02T11:57:08.274Z</time></trkpt><trkpt lat="44.2708912" lon="8.1568244"><ele>953.8</ele><time>2026-05-02T11:57:10.266Z</time></trkpt><trkpt lat="44.2709592" lon="8.1568634"><ele>953.0</ele><time>2026-05-02T11:57:12.274Z</time></trkpt><trkpt lat="44.2710865" lon="8.1568182"><ele>953.0000000000001</ele><time>2026-05-02T11:57:14.267Z</time></trkpt><trkpt lat="44.2711609" lon="8.1567602"><ele>953.0</ele><time>2026-05-02T11:57:15.27Z</time></trkpt><trkpt lat="44.2712447" lon="8.156704"><ele>953.0</ele><time>2026-05-02T11:57:16.265Z</time></trkpt><trkpt lat="44.2713225" lon="8.1566611"><ele>953.0</ele><time>2026-05-02T11:57:17.271Z</time></trkpt><trkpt lat="44.2714191" lon="8.1566721"><ele>953.0000000000001</ele><time>2026-05-02T11:57:19.257Z</time></trkpt><trkpt lat="44.2714888" lon="8.1567089"><ele>953.0</ele><time>2026-05-02T11:57:21.266Z</time></trkpt><trkpt lat="44.2715405" lon="8.1568159"><ele>952.2</ele><time>2026-05-02T11:57:23.262Z</time></trkpt><trkpt lat="44.2715527" lon="8.15699"><ele>951.4</ele><time>2026-05-02T11:57:25.269Z</time></trkpt><trkpt lat="44.2715327" lon="8.1571057"><ele>950.6000000000001</ele><time>2026-05-02T11:57:26.265Z</time></trkpt><trkpt lat="44.2714941" lon="8.1572319"><ele>949.8000000000001</ele><time>2026-05-02T11:57:27.263Z</time></trkpt><trkpt lat="44.2714597" lon="8.157369"><ele>949.0</ele><time>2026-05-02T11:57:28.275Z</time></trkpt><trkpt lat="44.2714286" lon="8.1575057"><ele>948.9999999999999</ele><time>2026-05-02T11:57:29.267Z</time></trkpt><trkpt lat="44.2714045" lon="8.1576191"><ele>949.0</ele><time>2026-05-02T11:57:30.259Z</time></trkpt><trkpt lat="44.2713926" lon="8.1577331"><ele>949.0</ele><time>2026-05-02T11:57:31.26Z</time></trkpt><trkpt lat="44.2713987" lon="8.1578532"><ele>949.0</ele><time>2026-05-02T11:57:32.261Z</time></trkpt><trkpt lat="44.2714145" lon="8.1579666"><ele>948.9999999999999</ele><time>2026-05-02T11:57:33.283Z</time></trkpt><trkpt lat="44.2714978" lon="8.1580644"><ele>949.0</ele><time>2026-05-02T11:57:35.277Z</time></trkpt><trkpt lat="44.2716343" lon="8.158071"><ele>952.9999999999999</ele><time>2026-05-02T11:57:37.271Z</time></trkpt><trkpt lat="44.2717212" lon="8.1580506"><ele>957.0</ele><time>2026-05-02T11:57:38.255Z</time></trkpt><trkpt lat="44.2718012" lon="8.1580446"><ele>961.0</ele><time>2026-05-02T11:57:39.262Z</time></trkpt><trkpt lat="44.2718765" lon="8.1580531"><ele>965.0</ele><time>2026-05-02T11:57:40.261Z</time></trkpt><trkpt lat="44.271949" lon="8.1580847"><ele>968.9999999999999</ele><time>2026-05-02T11:57:41.264Z</time></trkpt><trkpt lat="44.272012" lon="8.1581297"><ele>973.0</ele><time>2026-05-02T11:57:42.256Z</time></trkpt><trkpt lat="44.2720674" lon="8.1581809"><ele>971.8333333333333</ele><time>2026-05-02T11:57:43.262Z</time></trkpt><trkpt lat="44.2721214" lon="8.1582445"><ele>970.6666666666666</ele><time>2026-05-02T11:57:44.264Z</time></trkpt><trkpt lat="44.2721774" lon="8.1583148"><ele>969.5</ele><time>2026-05-02T11:57:45.261Z</time></trkpt><trkpt lat="44.2722366" lon="8.158374"><ele>968.3333333333333</ele><time>2026-05-02T11:57:46.263Z</time></trkpt><trkpt lat="44.2723124" lon="8.1584282"><ele>967.1666666666666</ele><time>2026-05-02T11:57:47.261Z</time></trkpt><trkpt lat="44.272382" lon="8.1584651"><ele>966.0</ele><time>2026-05-02T11:57:48.268Z</time></trkpt><trkpt lat="44.2724755" lon="8.1584935"><ele>968.6666666666666</ele><time>2026-05-02T11:57:49.264Z</time></trkpt><trkpt lat="44.2725743" lon="8.1585127"><ele>971.3333333333333</ele><time>2026-05-02T11:57:50.263Z</time></trkpt><trkpt lat="44.2726767" lon="8.1585303"><ele>974.0</ele><time>2026-05-02T11:57:51.259Z</time></trkpt><trkpt lat="44.2727591" lon="8.158553"><ele>976.6666666666666</ele><time>2026-05-02T11:57:52.264Z</time></trkpt><trkpt lat="44.2728324" lon="8.1585803"><ele>979.3333333333333</ele><time>2026-05-02T11:57:53.26Z</time></trkpt><trkpt lat="44.2729055" lon="8.1586188"><ele>982.0</ele><time>2026-05-02T11:57:54.257Z</time></trkpt><trkpt lat="44.2729835" lon="8.1586677"><ele>981.9999999999999</ele><time>2026-05-02T11:57:55.261Z</time></trkpt><trkpt lat="44.2730627" lon="8.1587321"><ele>982.0</ele><time>2026-05-02T11:57:56.256Z</time></trkpt><trkpt lat="44.2731394" lon="8.1588036"><ele>982.0</ele><time>2026-05-02T11:57:57.262Z</time></trkpt><trkpt lat="44.2732153" lon="8.1588788"><ele>982.0</ele><time>2026-05-02T11:57:58.281Z</time></trkpt><trkpt lat="44.2732808" lon="8.1589422"><ele>981.9999999999999</ele><time>2026-05-02T11:57:59.269Z</time></trkpt><trkpt lat="44.2733398" lon="8.1590081"><ele>982.0</ele><time>2026-05-02T11:58:00.272Z</time></trkpt><trkpt lat="44.2733929" lon="8.1590766"><ele>983.1428571428571</ele><time>2026-05-02T11:58:01.268Z</time></trkpt><trkpt lat="44.2734453" lon="8.1591505"><ele>984.2857142857142</ele><time>2026-05-02T11:58:02.277Z</time></trkpt><trkpt lat="44.2734798" lon="8.1592348"><ele>985.4285714285713</ele><time>2026-05-02T11:58:03.279Z</time></trkpt><trkpt lat="44.2734975" lon="8.1593277"><ele>986.5714285714284</ele><time>2026-05-02T11:58:04.278Z</time></trkpt><trkpt lat="44.2735028" lon="8.1594329"><ele>987.7142857142857</ele><time>2026-05-02T11:58:05.266Z</time></trkpt><trkpt lat="44.2735008" lon="8.159546"><ele>988.8571428571427</ele><time>2026-05-02T11:58:06.278Z</time></trkpt><trkpt lat="44.2734913" lon="8.1596511"><ele>989.9999999999999</ele><time>2026-05-02T11:58:07.28Z</time></trkpt><trkpt lat="44.2734745" lon="8.1597628"><ele>989.8333333333334</ele><time>2026-05-02T11:58:08.302Z</time></trkpt><trkpt lat="44.2734487" lon="8.1598807"><ele>989.6666666666667</ele><time>2026-05-02T11:58:09.275Z</time></trkpt><trkpt lat="44.2734268" lon="8.159993"><ele>989.5</ele><time>2026-05-02T11:58:10.28Z</time></trkpt><trkpt lat="44.2734155" lon="8.1600941"><ele>989.3333333333334</ele><time>2026-05-02T11:58:11.274Z</time></trkpt><trkpt lat="44.2734161" lon="8.1601852"><ele>989.1666666666667</ele><time>2026-05-02T11:58:12.279Z</time></trkpt><trkpt lat="44.2734431" lon="8.1602822"><ele>989.0</ele><time>2026-05-02T11:58:13.273Z</time></trkpt><trkpt lat="44.2734863" lon="8.1603954"><ele>989.0000000000001</ele><time>2026-05-02T11:58:14.272Z</time></trkpt><trkpt lat="44.2735398" lon="8.1605139"><ele>989.0</ele><time>2026-05-02T11:58:15.259Z</time></trkpt><trkpt lat="44.2735925" lon="8.1606256"><ele>989.0</ele><time>2026-05-02T11:58:16.275Z</time></trkpt><trkpt lat="44.273644" lon="8.1607135"><ele>989.0</ele><time>2026-05-02T11:58:17.264Z</time></trkpt><trkpt lat="44.273692" lon="8.1607835"><ele>989.0000000000001</ele><time>2026-05-02T11:58:18.271Z</time></trkpt><trkpt lat="44.2737384" lon="8.1608485"><ele>989.0</ele><time>2026-05-02T11:58:19.259Z</time></trkpt><trkpt lat="44.2737968" lon="8.1609669"><ele>987.8333333333334</ele><time>2026-05-02T11:58:21.265Z</time></trkpt><trkpt lat="44.273828" lon="8.1610463"><ele>986.6666666666667</ele><time>2026-05-02T11:58:24.264Z</time></trkpt><trkpt lat="44.2737602" lon="8.1611532"><ele>985.5</ele><time>2026-05-02T11:58:28.284Z</time></trkpt><trkpt lat="44.2737341" lon="8.1612368"><ele>984.3333333333333</ele><time>2026-05-02T11:58:29.263Z</time></trkpt><trkpt lat="44.2736969" lon="8.1613327"><ele>983.1666666666666</ele><time>2026-05-02T11:58:30.268Z</time></trkpt><trkpt lat="44.2736638" lon="8.1614284"><ele>982.0</ele><time>2026-05-02T11:58:31.262Z</time></trkpt><trkpt lat="44.2736501" lon="8.1615254"><ele>982.2</ele><time>2026-05-02T11:58:32.279Z</time></trkpt><trkpt lat="44.2736601" lon="8.1616275"><ele>982.4000000000001</ele><time>2026-05-02T11:58:33.272Z</time></trkpt><trkpt lat="44.2736801" lon="8.1617331"><ele>982.5999999999999</ele><time>2026-05-02T11:58:34.267Z</time></trkpt><trkpt lat="44.2737165" lon="8.1618448"><ele>982.8</ele><time>2026-05-02T11:58:35.273Z</time></trkpt><trkpt lat="44.2737695" lon="8.1619742"><ele>983.0</ele><time>2026-05-02T11:58:36.271Z</time></trkpt><trkpt lat="44.2738217" lon="8.1621126"><ele>983.0</ele><time>2026-05-02T11:58:37.264Z</time></trkpt><trkpt lat="44.2738801" lon="8.1622351"><ele>983.0</ele><time>2026-05-02T11:58:38.272Z</time></trkpt><trkpt lat="44.2739462" lon="8.1623614"><ele>983.0</ele><time>2026-05-02T11:58:39.261Z</time></trkpt><trkpt lat="44.2740048" lon="8.1624707"><ele>983.0</ele><time>2026-05-02T11:58:40.257Z</time></trkpt><trkpt lat="44.2740667" lon="8.1625729"><ele>983.0</ele><time>2026-05-02T11:58:41.26Z</time></trkpt><trkpt lat="44.2741362" lon="8.1626487"><ele>986.5999999999999</ele><time>2026-05-02T11:58:42.262Z</time></trkpt><trkpt lat="44.2742237" lon="8.1627313"><ele>990.1999999999999</ele><time>2026-05-02T11:58:43.257Z</time></trkpt><trkpt lat="44.274312" lon="8.1628184"><ele>993.8</ele><time>2026-05-02T11:58:44.256Z</time></trkpt><trkpt lat="44.2743815" lon="8.1629012"><ele>997.4</ele><time>2026-05-02T11:58:45.258Z</time></trkpt><trkpt lat="44.2744462" lon="8.1629817"><ele>1001.0</ele><time>2026-05-02T11:58:46.257Z</time></trkpt><trkpt lat="44.2745031" lon="8.1630553"><ele>1001.0000000000001</ele><time>2026-05-02T11:58:47.257Z</time></trkpt><trkpt lat="44.2745476" lon="8.1631266"><ele>1001.0</ele><time>2026-05-02T11:58:48.26Z</time></trkpt><trkpt lat="44.2745963" lon="8.1632417"><ele>1001.0</ele><time>2026-05-02T11:58:50.252Z</time></trkpt><trkpt lat="44.2745122" lon="8.1632656"><ele>1001.0</ele><time>2026-05-02T11:58:53.257Z</time></trkpt><trkpt lat="44.2744195" lon="8.1632678"><ele>1001.0000000000001</ele><time>2026-05-02T11:58:55.252Z</time></trkpt><trkpt lat="44.27432" lon="8.1633051"><ele>1001.0</ele><time>2026-05-02T11:58:57.259Z</time></trkpt><trkpt lat="44.2742532" lon="8.1633213"><ele>1001.4</ele><time>2026-05-02T11:58:58.263Z</time></trkpt><trkpt lat="44.274131" lon="8.163342"><ele>1001.8</ele><time>2026-05-02T11:59:00.246Z</time></trkpt><trkpt lat="44.2740603" lon="8.1633601"><ele>1002.1999999999999</ele><time>2026-05-02T11:59:01.247Z</time></trkpt><trkpt lat="44.2739783" lon="8.1633855"><ele>1002.5999999999999</ele><time>2026-05-02T11:59:02.254Z</time></trkpt><trkpt lat="44.2738924" lon="8.1634296"><ele>1003.0</ele><time>2026-05-02T11:59:03.249Z</time></trkpt><trkpt lat="44.2738081" lon="8.1634828"><ele>999.4</ele><time>2026-05-02T11:59:04.256Z</time></trkpt><trkpt lat="44.2737144" lon="8.1635244"><ele>995.8</ele><time>2026-05-02T11:59:05.253Z</time></trkpt><trkpt lat="44.273629" lon="8.1635893"><ele>992.2</ele><time>2026-05-02T11:59:06.268Z</time></trkpt><trkpt lat="44.2735421" lon="8.1636646"><ele>988.6</ele><time>2026-05-02T11:59:07.254Z</time></trkpt><trkpt lat="44.2734645" lon="8.1637485"><ele>985.0</ele><time>2026-05-02T11:59:08.255Z</time></trkpt><trkpt lat="44.2734001" lon="8.1638394"><ele>984.9999999999999</ele><time>2026-05-02T11:59:09.269Z</time></trkpt><trkpt lat="44.2733431" lon="8.1639441"><ele>985.0</ele><time>2026-05-02T11:59:10.253Z</time></trkpt><trkpt lat="44.2732973" lon="8.1640451"><ele>985.0</ele><time>2026-05-02T11:59:11.264Z</time></trkpt><trkpt lat="44.2732596" lon="8.1641515"><ele>985.0</ele><time>2026-05-02T11:59:12.252Z</time></trkpt><trkpt lat="44.2732226" lon="8.1642517"><ele>984.9999999999999</ele><time>2026-05-02T11:59:13.255Z</time></trkpt><trkpt lat="44.2731821" lon="8.1643499"><ele>985.0</ele><time>2026-05-02T11:59:14.256Z</time></trkpt><trkpt lat="44.2731496" lon="8.1644417"><ele>984.8</ele><time>2026-05-02T11:59:15.265Z</time></trkpt><trkpt lat="44.2731039" lon="8.1645716"><ele>984.6</ele><time>2026-05-02T11:59:17.262Z</time></trkpt><trkpt lat="44.273033" lon="8.16471"><ele>984.4000000000001</ele><time>2026-05-02T11:59:19.27Z</time></trkpt><trkpt lat="44.2729875" lon="8.1648026"><ele>984.2</ele><time>2026-05-02T11:59:20.263Z</time></trkpt><trkpt lat="44.2729499" lon="8.1649091"><ele>984.0</ele><time>2026-05-02T11:59:21.262Z</time></trkpt><trkpt lat="44.2729161" lon="8.1650175"><ele>986.5</ele><time>2026-05-02T11:59:22.266Z</time></trkpt><trkpt lat="44.2728775" lon="8.1651276"><ele>989.0</ele><time>2026-05-02T11:59:23.262Z</time></trkpt><trkpt lat="44.2728487" lon="8.1652403"><ele>991.5</ele><time>2026-05-02T11:59:24.269Z</time></trkpt><trkpt lat="44.2728292" lon="8.1653442"><ele>994.0</ele><time>2026-05-02T11:59:25.268Z</time></trkpt><trkpt lat="44.2728257" lon="8.1654381"><ele>996.5</ele><time>2026-05-02T11:59:26.261Z</time></trkpt><trkpt lat="44.2728269" lon="8.1655368"><ele>999.0</ele><time>2026-05-02T11:59:27.257Z</time></trkpt><trkpt lat="44.2728553" lon="8.1656478"><ele>1000.8333333333334</ele><time>2026-05-02T11:59:28.274Z</time></trkpt><trkpt lat="44.2729028" lon="8.165744"><ele>1002.6666666666667</ele><time>2026-05-02T11:59:29.262Z</time></trkpt><trkpt lat="44.272963" lon="8.1658265"><ele>1004.5</ele><time>2026-05-02T11:59:30.264Z</time></trkpt><trkpt lat="44.2730286" lon="8.1658869"><ele>1006.3333333333334</ele><time>2026-05-02T11:59:31.262Z</time></trkpt><trkpt lat="44.2730938" lon="8.1659432"><ele>1008.1666666666667</ele><time>2026-05-02T11:59:32.264Z</time></trkpt><trkpt lat="44.2731595" lon="8.1660051"><ele>1010.0</ele><time>2026-05-02T11:59:33.259Z</time></trkpt><trkpt lat="44.2732272" lon="8.1660806"><ele>1013.5000000000001</ele><time>2026-05-02T11:59:34.265Z</time></trkpt><trkpt lat="44.2732907" lon="8.1661633"><ele>1017.0</ele><time>2026-05-02T11:59:35.257Z</time></trkpt><trkpt lat="44.2733519" lon="8.1662386"><ele>1020.5</ele><time>2026-05-02T11:59:36.261Z</time></trkpt><trkpt lat="44.2734076" lon="8.1663361"><ele>1024.0</ele><time>2026-05-02T11:59:37.258Z</time></trkpt><trkpt lat="44.2734619" lon="8.1664295"><ele>1027.5</ele><time>2026-05-02T11:59:38.258Z</time></trkpt><trkpt lat="44.2735127" lon="8.1665051"><ele>1031.0</ele><time>2026-05-02T11:59:39.253Z</time></trkpt><trkpt lat="44.2735564" lon="8.1665969"><ele>1031.5</ele><time>2026-05-02T11:59:41.252Z</time></trkpt><trkpt lat="44.2734746" lon="8.1665806"><ele>1032.0</ele><time>2026-05-02T11:59:44.257Z</time></trkpt><trkpt lat="44.2734077" lon="8.1665575"><ele>1032.5</ele><time>2026-05-02T11:59:45.263Z</time></trkpt><trkpt lat="44.273334" lon="8.1665494"><ele>1033.0</ele><time>2026-05-02T11:59:46.257Z</time></trkpt><trkpt lat="44.2732496" lon="8.1665453"><ele>1033.5</ele><time>2026-05-02T11:59:47.264Z</time></trkpt><trkpt lat="44.2731592" lon="8.1665684"><ele>1034.0</ele><time>2026-05-02T11:59:48.272Z</time></trkpt><trkpt lat="44.2730838" lon="8.1666199"><ele>1034.0</ele><time>2026-05-02T11:59:49.268Z</time></trkpt><trkpt lat="44.2730428" lon="8.1666948"><ele>1034.0</ele><time>2026-05-02T11:59:50.275Z</time></trkpt><trkpt lat="44.2730366" lon="8.1667981"><ele>1034.0</ele><time>2026-05-02T11:59:51.263Z</time></trkpt><trkpt lat="44.2730596" lon="8.1668843"><ele>1034.0</ele><time>2026-05-02T11:59:52.257Z</time></trkpt><trkpt lat="44.27309" lon="8.1669775"><ele>1034.0</ele><time>2026-05-02T11:59:53.263Z</time></trkpt><trkpt lat="44.2731219" lon="8.1670754"><ele>1034.0</ele><time>2026-05-02T11:59:54.262Z</time></trkpt><trkpt lat="44.2731656" lon="8.1671747"><ele>1034.0</ele><time>2026-05-02T11:59:55.257Z</time></trkpt><trkpt lat="44.2732066" lon="8.1672777"><ele>1036.0</ele><time>2026-05-02T11:59:56.266Z</time></trkpt><trkpt lat="44.2732384" lon="8.1673713"><ele>1038.0</ele><time>2026-05-02T11:59:57.252Z</time></trkpt><trkpt lat="44.2732804" lon="8.1674835"><ele>1040.0</ele><time>2026-05-02T11:59:58.28Z</time></trkpt><trkpt lat="44.2733139" lon="8.1675851"><ele>1042.0</ele><time>2026-05-02T11:59:59.258Z</time></trkpt><trkpt lat="44.2733331" lon="8.167678"><ele>1044.0</ele><time>2026-05-02T12:00:00.253Z</time></trkpt><trkpt lat="44.2733327" lon="8.167804"><ele>1046.0</ele><time>2026-05-02T12:00:02.262Z</time></trkpt><trkpt lat="44.273249" lon="8.1678458"><ele>1046.0</ele><time>2026-05-02T12:00:04.255Z</time></trkpt><trkpt lat="44.2731379" lon="8.1678041"><ele>1046.0</ele><time>2026-05-02T12:00:06.25Z</time></trkpt><trkpt lat="44.273071" lon="8.1677555"><ele>1046.0</ele><time>2026-05-02T12:00:07.256Z</time></trkpt><trkpt lat="44.2729975" lon="8.1676936"><ele>1046.0</ele><time>2026-05-02T12:00:08.26Z</time></trkpt><trkpt lat="44.272923" lon="8.1676412"><ele>1046.0</ele><time>2026-05-02T12:00:09.259Z</time></trkpt><trkpt lat="44.2728474" lon="8.1676055"><ele>1046.0</ele><time>2026-05-02T12:00:10.271Z</time></trkpt><trkpt lat="44.2727734" lon="8.1676182"><ele>1044.6</ele><time>2026-05-02T12:00:11.275Z</time></trkpt><trkpt lat="44.2726976" lon="8.1676451"><ele>1043.1999999999998</ele><time>2026-05-02T12:00:12.264Z</time></trkpt><trkpt lat="44.2726143" lon="8.1676877"><ele>1041.8000000000002</ele><time>2026-05-02T12:00:13.264Z</time></trkpt><trkpt lat="44.272521" lon="8.1677266"><ele>1040.4</ele><time>2026-05-02T12:00:14.256Z</time></trkpt><trkpt lat="44.2724256" lon="8.1677695"><ele>1039.0</ele><time>2026-05-02T12:00:15.27Z</time></trkpt><trkpt lat="44.2723428" lon="8.1678103"><ele>1037.6666666666665</ele><time>2026-05-02T12:00:16.259Z</time></trkpt><trkpt lat="44.2722681" lon="8.167836"><ele>1036.3333333333333</ele><time>2026-05-02T12:00:17.263Z</time></trkpt><trkpt lat="44.2721821" lon="8.1678312"><ele>1035.0</ele><time>2026-05-02T12:00:18.263Z</time></trkpt><trkpt lat="44.2721006" lon="8.1678295"><ele>1033.6666666666667</ele><time>2026-05-02T12:00:19.272Z</time></trkpt><trkpt lat="44.2720255" lon="8.1678181"><ele>1032.3333333333335</ele><time>2026-05-02T12:00:20.266Z</time></trkpt><trkpt lat="44.2719233" lon="8.1678532"><ele>1031.0</ele><time>2026-05-02T12:00:22.266Z</time></trkpt><trkpt lat="44.2718747" lon="8.1679662"><ele>1031.0</ele><time>2026-05-02T12:00:24.263Z</time></trkpt><trkpt lat="44.2718518" lon="8.1680526"><ele>1031.0</ele><time>2026-05-02T12:00:25.271Z</time></trkpt><trkpt lat="44.2718272" lon="8.1681603"><ele>1031.0</ele><time>2026-05-02T12:00:26.269Z</time></trkpt><trkpt lat="44.2717994" lon="8.1682622"><ele>1031.0</ele><time>2026-05-02T12:00:27.27Z</time></trkpt><trkpt lat="44.2717718" lon="8.1683531"><ele>1031.0</ele><time>2026-05-02T12:00:28.28Z</time></trkpt><trkpt lat="44.2716961" lon="8.1685067"><ele>1031.0</ele><time>2026-05-02T12:00:30.269Z</time></trkpt><trkpt lat="44.271634" lon="8.1685907"><ele>1033.0</ele><time>2026-05-02T12:00:31.271Z</time></trkpt><trkpt lat="44.2715787" lon="8.1686645"><ele>1035.0</ele><time>2026-05-02T12:00:32.268Z</time></trkpt><trkpt lat="44.2715309" lon="8.1687382"><ele>1037.0</ele><time>2026-05-02T12:00:33.27Z</time></trkpt><trkpt lat="44.2714752" lon="8.1688294"><ele>1039.0</ele><time>2026-05-02T12:00:34.26Z</time></trkpt><trkpt lat="44.2714194" lon="8.1689181"><ele>1041.0</ele><time>2026-05-02T12:00:35.266Z</time></trkpt><trkpt lat="44.2713767" lon="8.1690034"><ele>1043.0</ele><time>2026-05-02T12:00:36.263Z</time></trkpt><trkpt lat="44.2713037" lon="8.1691031"><ele>1044.0</ele><time>2026-05-02T12:00:38.253Z</time></trkpt><trkpt lat="44.2712038" lon="8.1691749"><ele>1045.0</ele><time>2026-05-02T12:00:40.257Z</time></trkpt><trkpt lat="44.2711353" lon="8.1691988"><ele>1046.0</ele><time>2026-05-02T12:00:41.254Z</time></trkpt><trkpt lat="44.271063" lon="8.1692292"><ele>1047.0</ele><time>2026-05-02T12:00:42.27Z</time></trkpt><trkpt lat="44.270976" lon="8.1692449"><ele>1048.0</ele><time>2026-05-02T12:00:43.261Z</time></trkpt><trkpt lat="44.2708854" lon="8.1692654"><ele>1049.0</ele><time>2026-05-02T12:00:44.255Z</time></trkpt><trkpt lat="44.27079" lon="8.1693079"><ele>1049.0</ele><time>2026-05-02T12:00:45.253Z</time></trkpt><trkpt lat="44.2706998" lon="8.1693495"><ele>1049.0</ele><time>2026-05-02T12:00:46.257Z</time></trkpt><trkpt lat="44.2706167" lon="8.1693906"><ele>1049.0</ele><time>2026-05-02T12:00:47.257Z</time></trkpt><trkpt lat="44.2705399" lon="8.1694068"><ele>1049.0</ele><time>2026-05-02T12:00:48.261Z</time></trkpt><trkpt lat="44.2704656" lon="8.1694117"><ele>1049.0</ele><time>2026-05-02T12:00:49.254Z</time></trkpt><trkpt lat="44.2703932" lon="8.1693967"><ele>1049.0</ele><time>2026-05-02T12:00:50.264Z</time></trkpt><trkpt lat="44.2703233" lon="8.1693753"><ele>1049.1666666666667</ele><time>2026-05-02T12:00:51.251Z</time></trkpt><trkpt lat="44.270257" lon="8.169335"><ele>1049.3333333333335</ele><time>2026-05-02T12:00:52.261Z</time></trkpt><trkpt lat="44.2701909" lon="8.1692884"><ele>1049.5</ele><time>2026-05-02T12:00:53.252Z</time></trkpt><trkpt lat="44.2701231" lon="8.1692337"><ele>1049.6666666666667</ele><time>2026-05-02T12:00:54.257Z</time></trkpt><trkpt lat="44.2700593" lon="8.1691813"><ele>1049.8333333333333</ele><time>2026-05-02T12:00:55.257Z</time></trkpt><trkpt lat="44.2699916" lon="8.169136"><ele>1050.0</ele><time>2026-05-02T12:00:56.26Z</time></trkpt><trkpt lat="44.2699123" lon="8.1690974"><ele>1050.0</ele><time>2026-05-02T12:00:57.264Z</time></trkpt><trkpt lat="44.2698246" lon="8.1690608"><ele>1050.0</ele><time>2026-05-02T12:00:58.278Z</time></trkpt><trkpt lat="44.2697307" lon="8.1690303"><ele>1050.0</ele><time>2026-05-02T12:00:59.262Z</time></trkpt><trkpt lat="44.269637" lon="8.1690182"><ele>1050.0</ele><time>2026-05-02T12:01:00.263Z</time></trkpt><trkpt lat="44.2695322" lon="8.1690326"><ele>1050.0</ele><time>2026-05-02T12:01:01.261Z</time></trkpt><trkpt lat="44.2694309" lon="8.1690631"><ele>1049.8333333333333</ele><time>2026-05-02T12:01:02.264Z</time></trkpt><trkpt lat="44.2693425" lon="8.1690843"><ele>1049.6666666666667</ele><time>2026-05-02T12:01:03.272Z</time></trkpt><trkpt lat="44.2692776" lon="8.1690945"><ele>1049.5</ele><time>2026-05-02T12:01:04.263Z</time></trkpt><trkpt lat="44.2692031" lon="8.1691059"><ele>1049.3333333333335</ele><time>2026-05-02T12:01:05.263Z</time></trkpt><trkpt lat="44.2691261" lon="8.1691348"><ele>1049.1666666666667</ele><time>2026-05-02T12:01:06.259Z</time></trkpt><trkpt lat="44.2690417" lon="8.1691761"><ele>1049.0</ele><time>2026-05-02T12:01:07.259Z</time></trkpt><trkpt lat="44.2689572" lon="8.1692306"><ele>1045.4</ele><time>2026-05-02T12:01:08.255Z</time></trkpt><trkpt lat="44.2688741" lon="8.1692979"><ele>1041.8000000000002</ele><time>2026-05-02T12:01:09.266Z</time></trkpt><trkpt lat="44.2687969" lon="8.1693786"><ele>1038.1999999999998</ele><time>2026-05-02T12:01:10.266Z</time></trkpt><trkpt lat="44.268728" lon="8.169469"><ele>1034.6</ele><time>2026-05-02T12:01:11.253Z</time></trkpt><trkpt lat="44.2686598" lon="8.1695541"><ele>1031.0</ele><time>2026-05-02T12:01:12.261Z</time></trkpt><trkpt lat="44.2686014" lon="8.1696201"><ele>1031.0</ele><time>2026-05-02T12:01:13.268Z</time></trkpt><trkpt lat="44.2685489" lon="8.1696714"><ele>1031.0</ele><time>2026-05-02T12:01:14.261Z</time></trkpt><trkpt lat="44.2684825" lon="8.1696993"><ele>1031.0</ele><time>2026-05-02T12:01:15.261Z</time></trkpt><trkpt lat="44.268405" lon="8.1697179"><ele>1031.0</ele><time>2026-05-02T12:01:16.254Z</time></trkpt><trkpt lat="44.2683147" lon="8.1697346"><ele>1031.0</ele><time>2026-05-02T12:01:17.258Z</time></trkpt><trkpt lat="44.2682302" lon="8.1697667"><ele>1031.0</ele><time>2026-05-02T12:01:18.258Z</time></trkpt><trkpt lat="44.2681332" lon="8.1697929"><ele>1030.2</ele><time>2026-05-02T12:01:19.257Z</time></trkpt><trkpt lat="44.2680352" lon="8.1698234"><ele>1029.3999999999999</ele><time>2026-05-02T12:01:20.257Z</time></trkpt><trkpt lat="44.2679417" lon="8.1698607"><ele>1028.6</ele><time>2026-05-02T12:01:21.264Z</time></trkpt><trkpt lat="44.267847" lon="8.1698981"><ele>1027.8</ele><time>2026-05-02T12:01:22.259Z</time></trkpt><trkpt lat="44.2677576" lon="8.1699455"><ele>1027.0</ele><time>2026-05-02T12:01:23.261Z</time></trkpt><trkpt lat="44.2676865" lon="8.1700047"><ele>1031.3333333333333</ele><time>2026-05-02T12:01:24.253Z</time></trkpt><trkpt lat="44.2676241" lon="8.1700668"><ele>1035.6666666666665</ele><time>2026-05-02T12:01:25.259Z</time></trkpt><trkpt lat="44.2675221" lon="8.1701121"><ele>1040.0</ele><time>2026-05-02T12:01:27.257Z</time></trkpt><trkpt lat="44.2674002" lon="8.1701406"><ele>1044.3333333333333</ele><time>2026-05-02T12:01:29.256Z</time></trkpt><trkpt lat="44.267331" lon="8.1701569"><ele>1048.6666666666667</ele><time>2026-05-02T12:01:30.26Z</time></trkpt><trkpt lat="44.2672665" lon="8.170172"><ele>1053.0</ele><time>2026-05-02T12:01:31.268Z</time></trkpt><trkpt lat="44.2672076" lon="8.1702097"><ele>1053.5</ele><time>2026-05-02T12:01:32.261Z</time></trkpt><trkpt lat="44.267136" lon="8.1702508"><ele>1054.0</ele><time>2026-05-02T12:01:33.265Z</time></trkpt><trkpt lat="44.2670696" lon="8.1702675"><ele>1054.5</ele><time>2026-05-02T12:01:34.26Z</time></trkpt><trkpt lat="44.2669937" lon="8.1702893"><ele>1055.0</ele><time>2026-05-02T12:01:35.26Z</time></trkpt><trkpt lat="44.2669194" lon="8.1703111"><ele>1055.5</ele><time>2026-05-02T12:01:36.256Z</time></trkpt><trkpt lat="44.2668353" lon="8.1703253"><ele>1056.0</ele><time>2026-05-02T12:01:37.257Z</time></trkpt><trkpt lat="44.2667504" lon="8.1703385"><ele>1056.0</ele><time>2026-05-02T12:01:38.252Z</time></trkpt><trkpt lat="44.2666706" lon="8.1703482"><ele>1056.0</ele><time>2026-05-02T12:01:39.266Z</time></trkpt><trkpt lat="44.2665758" lon="8.170365"><ele>1056.0</ele><time>2026-05-02T12:01:40.259Z</time></trkpt><trkpt lat="44.2664823" lon="8.1703952"><ele>1056.0</ele><time>2026-05-02T12:01:41.276Z</time></trkpt><trkpt lat="44.2663836" lon="8.170418"><ele>1056.0</ele><time>2026-05-02T12:01:42.257Z</time></trkpt><trkpt lat="44.2662868" lon="8.1704416"><ele>1055.0</ele><time>2026-05-02T12:01:43.256Z</time></trkpt><trkpt lat="44.2661913" lon="8.1704716"><ele>1054.0</ele><time>2026-05-02T12:01:44.269Z</time></trkpt><trkpt lat="44.2661102" lon="8.1705107"><ele>1053.0</ele><time>2026-05-02T12:01:45.261Z</time></trkpt><trkpt lat="44.2660299" lon="8.1705466"><ele>1052.0</ele><time>2026-05-02T12:01:46.263Z</time></trkpt><trkpt lat="44.2659668" lon="8.170591"><ele>1051.0</ele><time>2026-05-02T12:01:47.266Z</time></trkpt><trkpt lat="44.2658963" lon="8.1706434"><ele>1050.0</ele><time>2026-05-02T12:01:48.257Z</time></trkpt><trkpt lat="44.2658315" lon="8.1707154"><ele>1052.0</ele><time>2026-05-02T12:01:49.271Z</time></trkpt><trkpt lat="44.2657649" lon="8.1707985"><ele>1054.0</ele><time>2026-05-02T12:01:50.262Z</time></trkpt><trkpt lat="44.2657071" lon="8.1708848"><ele>1056.0</ele><time>2026-05-02T12:01:51.276Z</time></trkpt><trkpt lat="44.2656585" lon="8.170977"><ele>1058.0</ele><time>2026-05-02T12:01:52.265Z</time></trkpt><trkpt lat="44.2656127" lon="8.1711388"><ele>1060.0</ele><time>2026-05-02T12:01:54.266Z</time></trkpt><trkpt lat="44.2655986" lon="8.1713141"><ele>1060.0</ele><time>2026-05-02T12:01:56.264Z</time></trkpt><trkpt lat="44.2655796" lon="8.1714227"><ele>1060.0</ele><time>2026-05-02T12:01:57.264Z</time></trkpt><trkpt lat="44.2655522" lon="8.1715342"><ele>1060.0</ele><time>2026-05-02T12:01:58.273Z</time></trkpt><trkpt lat="44.2655189" lon="8.1716409"><ele>1060.0</ele><time>2026-05-02T12:01:59.26Z</time></trkpt><trkpt lat="44.2654733" lon="8.1717451"><ele>1060.0</ele><time>2026-05-02T12:02:00.259Z</time></trkpt><trkpt lat="44.2654261" lon="8.1718368"><ele>1060.0</ele><time>2026-05-02T12:02:01.258Z</time></trkpt><trkpt lat="44.265371" lon="8.1719297"><ele>1062.8333333333333</ele><time>2026-05-02T12:02:02.267Z</time></trkpt><trkpt lat="44.2653093" lon="8.1720114"><ele>1065.6666666666665</ele><time>2026-05-02T12:02:03.255Z</time></trkpt><trkpt lat="44.2652365" lon="8.1720747"><ele>1068.5</ele><time>2026-05-02T12:02:04.263Z</time></trkpt><trkpt lat="44.2651693" lon="8.1721306"><ele>1071.3333333333333</ele><time>2026-05-02T12:02:05.257Z</time></trkpt><trkpt lat="44.2651076" lon="8.1721808"><ele>1074.1666666666667</ele><time>2026-05-02T12:02:06.266Z</time></trkpt><trkpt lat="44.2650337" lon="8.1722351"><ele>1077.0</ele><time>2026-05-02T12:02:07.26Z</time></trkpt><trkpt lat="44.2649383" lon="8.1722774"><ele>1077.0</ele><time>2026-05-02T12:02:08.265Z</time></trkpt><trkpt lat="44.2648466" lon="8.1723192"><ele>1077.0</ele><time>2026-05-02T12:02:09.26Z</time></trkpt><trkpt lat="44.2647615" lon="8.1723545"><ele>1077.0</ele><time>2026-05-02T12:02:10.262Z</time></trkpt><trkpt lat="44.2646639" lon="8.1723794"><ele>1077.0</ele><time>2026-05-02T12:02:11.266Z</time></trkpt><trkpt lat="44.2645863" lon="8.1724138"><ele>1077.0</ele><time>2026-05-02T12:02:12.268Z</time></trkpt><trkpt lat="44.2645325" lon="8.1724714"><ele>1077.0</ele><time>2026-05-02T12:02:13.261Z</time></trkpt><trkpt lat="44.264484" lon="8.1725296"><ele>1079.8</ele><time>2026-05-02T12:02:14.268Z</time></trkpt><trkpt lat="44.2644248" lon="8.1725866"><ele>1082.6</ele><time>2026-05-02T12:02:15.273Z</time></trkpt><trkpt lat="44.2643183" lon="8.172664"><ele>1085.3999999999999</ele><time>2026-05-02T12:02:17.269Z</time></trkpt><trkpt lat="44.2642199" lon="8.1727269"><ele>1088.2</ele><time>2026-05-02T12:02:19.274Z</time></trkpt><trkpt lat="44.2641372" lon="8.1727862"><ele>1091.0</ele><time>2026-05-02T12:02:21.279Z</time></trkpt><trkpt lat="44.2640732" lon="8.1728497"><ele>1091.0</ele><time>2026-05-02T12:02:23.282Z</time></trkpt><trkpt lat="44.2640507" lon="8.1729389"><ele>1091.0</ele><time>2026-05-02T12:02:26.283Z</time></trkpt><trkpt lat="44.2641154" lon="8.1729559"><ele>1091.0</ele><time>2026-05-02T12:03:05.288Z</time></trkpt><trkpt lat="44.2641811" lon="8.1729942"><ele>1091.0</ele><time>2026-05-02T12:03:07.279Z</time></trkpt><trkpt lat="44.2643109" lon="8.1730417"><ele>1091.0</ele><time>2026-05-02T12:03:09.288Z</time></trkpt><trkpt lat="44.2643883" lon="8.1730727"><ele>1091.0</ele><time>2026-05-02T12:03:10.285Z</time></trkpt><trkpt lat="44.2644557" lon="8.1731081"><ele>1091.0</ele><time>2026-05-02T12:03:11.278Z</time></trkpt><trkpt lat="44.2645607" lon="8.1731788"><ele>1091.0</ele><time>2026-05-02T12:03:13.278Z</time></trkpt><trkpt lat="44.2646155" lon="8.1732238"><ele>1091.0</ele><time>2026-05-02T12:03:14.288Z</time></trkpt><trkpt lat="44.2646696" lon="8.1732871"><ele>1091.0</ele><time>2026-05-02T12:03:15.287Z</time></trkpt><trkpt lat="44.2647342" lon="8.1733592"><ele>1091.0</ele><time>2026-05-02T12:03:16.291Z</time></trkpt><trkpt lat="44.2647981" lon="8.1734351"><ele>1091.0</ele><time>2026-05-02T12:03:17.292Z</time></trkpt><trkpt lat="44.2648595" lon="8.1735002"><ele>1092.6</ele><time>2026-05-02T12:03:18.285Z</time></trkpt><trkpt lat="44.2649147" lon="8.1735448"><ele>1094.1999999999998</ele><time>2026-05-02T12:03:19.282Z</time></trkpt><trkpt lat="44.2649792" lon="8.1735601"><ele>1095.8000000000002</ele><time>2026-05-02T12:03:20.279Z</time></trkpt><trkpt lat="44.2651016" lon="8.1735432"><ele>1097.4</ele><time>2026-05-02T12:03:22.269Z</time></trkpt><trkpt lat="44.2652193" lon="8.1735593"><ele>1099.0</ele><time>2026-05-02T12:03:24.267Z</time></trkpt><trkpt lat="44.2653412" lon="8.1736035"><ele>1099.0</ele><time>2026-05-02T12:03:26.264Z</time></trkpt><trkpt lat="44.2654082" lon="8.1736253"><ele>1099.0</ele><time>2026-05-02T12:03:27.263Z</time></trkpt><trkpt lat="44.2654692" lon="8.1736582"><ele>1099.0</ele><time>2026-05-02T12:03:28.271Z</time></trkpt><trkpt lat="44.2655297" lon="8.1737064"><ele>1099.0</ele><time>2026-05-02T12:03:29.259Z</time></trkpt><trkpt lat="44.2655897" lon="8.1737596"><ele>1099.0</ele><time>2026-05-02T12:03:30.267Z</time></trkpt><trkpt lat="44.2656504" lon="8.1738217"><ele>1099.0</ele><time>2026-05-02T12:03:31.263Z</time></trkpt><trkpt lat="44.2656996" lon="8.17389"><ele>1099.0</ele><time>2026-05-02T12:03:32.272Z</time></trkpt><trkpt lat="44.2657464" lon="8.1739938"><ele>1096.6000000000001</ele><time>2026-05-02T12:03:33.266Z</time></trkpt><trkpt lat="44.2657917" lon="8.1741103"><ele>1094.2</ele><time>2026-05-02T12:03:34.266Z</time></trkpt><trkpt lat="44.2658354" lon="8.1742266"><ele>1091.8000000000002</ele><time>2026-05-02T12:03:35.263Z</time></trkpt><trkpt lat="44.2658784" lon="8.1743429"><ele>1089.4</ele><time>2026-05-02T12:03:36.263Z</time></trkpt><trkpt lat="44.2659324" lon="8.1744448"><ele>1087.0</ele><time>2026-05-02T12:03:37.261Z</time></trkpt><trkpt lat="44.2659815" lon="8.1745405"><ele>1087.0</ele><time>2026-05-02T12:03:38.265Z</time></trkpt><trkpt lat="44.2660357" lon="8.1746263"><ele>1087.0</ele><time>2026-05-02T12:03:39.268Z</time></trkpt><trkpt lat="44.2660958" lon="8.1747055"><ele>1087.0</ele><time>2026-05-02T12:03:40.259Z</time></trkpt><trkpt lat="44.2661463" lon="8.1747911"><ele>1087.0</ele><time>2026-05-02T12:03:41.269Z</time></trkpt><trkpt lat="44.2661941" lon="8.1748684"><ele>1087.0</ele><time>2026-05-02T12:03:42.266Z</time></trkpt><trkpt lat="44.2662393" lon="8.1749448"><ele>1087.0</ele><time>2026-05-02T12:03:43.269Z</time></trkpt><trkpt lat="44.26628" lon="8.1750297"><ele>1085.3333333333333</ele><time>2026-05-02T12:03:44.27Z</time></trkpt><trkpt lat="44.2663105" lon="8.1751267"><ele>1083.6666666666665</ele><time>2026-05-02T12:03:45.269Z</time></trkpt><trkpt lat="44.2663394" lon="8.1752127"><ele>1082.0</ele><time>2026-05-02T12:03:46.269Z</time></trkpt><trkpt lat="44.2664134" lon="8.1753177"><ele>1080.3333333333333</ele><time>2026-05-02T12:03:48.279Z</time></trkpt><trkpt lat="44.2665205" lon="8.1753507"><ele>1078.6666666666667</ele><time>2026-05-02T12:03:50.265Z</time></trkpt><trkpt lat="44.2665977" lon="8.1753251"><ele>1077.0</ele><time>2026-05-02T12:03:51.259Z</time></trkpt><trkpt lat="44.2666888" lon="8.175277"><ele>1077.0</ele><time>2026-05-02T12:03:52.265Z</time></trkpt><trkpt lat="44.2667873" lon="8.1752512"><ele>1077.0</ele><time>2026-05-02T12:03:53.255Z</time></trkpt><trkpt lat="44.2668873" lon="8.1752445"><ele>1077.0</ele><time>2026-05-02T12:03:54.266Z</time></trkpt><trkpt lat="44.2669863" lon="8.1752355"><ele>1077.0</ele><time>2026-05-02T12:03:55.255Z</time></trkpt><trkpt lat="44.2670724" lon="8.1752267"><ele>1077.0</ele><time>2026-05-02T12:03:56.263Z</time></trkpt><trkpt lat="44.2671403" lon="8.17521"><ele>1077.0</ele><time>2026-05-02T12:03:57.26Z</time></trkpt><trkpt lat="44.2672125" lon="8.1752007"><ele>1077.0</ele><time>2026-05-02T12:03:58.277Z</time></trkpt><trkpt lat="44.2672865" lon="8.1751748"><ele>1077.0</ele><time>2026-05-02T12:03:59.254Z</time></trkpt><trkpt lat="44.2673636" lon="8.1751518"><ele>1077.0</ele><time>2026-05-02T12:04:00.27Z</time></trkpt><trkpt lat="44.2674572" lon="8.1751394"><ele>1077.0</ele><time>2026-05-02T12:04:01.26Z</time></trkpt><trkpt lat="44.2675387" lon="8.1751135"><ele>1077.0</ele><time>2026-05-02T12:04:02.26Z</time></trkpt><trkpt lat="44.2676141" lon="8.1750865"><ele>1075.6666666666667</ele><time>2026-05-02T12:04:03.254Z</time></trkpt><trkpt lat="44.2676848" lon="8.1750646"><ele>1074.3333333333333</ele><time>2026-05-02T12:04:04.261Z</time></trkpt><trkpt lat="44.2677504" lon="8.1750327"><ele>1073.0</ele><time>2026-05-02T12:04:05.254Z</time></trkpt><trkpt lat="44.2678179" lon="8.1749894"><ele>1071.6666666666665</ele><time>2026-05-02T12:04:06.26Z</time></trkpt><trkpt lat="44.2678995" lon="8.1749448"><ele>1070.3333333333333</ele><time>2026-05-02T12:04:07.257Z</time></trkpt><trkpt lat="44.267987" lon="8.1749137"><ele>1069.0</ele><time>2026-05-02T12:04:08.262Z</time></trkpt><trkpt lat="44.268055" lon="8.174885"><ele>1067.1666666666665</ele><time>2026-05-02T12:04:09.256Z</time></trkpt><trkpt lat="44.2681241" lon="8.1748613"><ele>1065.3333333333333</ele><time>2026-05-02T12:04:10.265Z</time></trkpt><trkpt lat="44.2681927" lon="8.1748568"><ele>1063.5</ele><time>2026-05-02T12:04:11.255Z</time></trkpt><trkpt lat="44.2682732" lon="8.1748903"><ele>1061.6666666666667</ele><time>2026-05-02T12:04:12.255Z</time></trkpt><trkpt lat="44.2683641" lon="8.1749262"><ele>1059.8333333333335</ele><time>2026-05-02T12:04:13.256Z</time></trkpt><trkpt lat="44.2684553" lon="8.1749564"><ele>1058.0</ele><time>2026-05-02T12:04:14.257Z</time></trkpt><trkpt lat="44.2685571" lon="8.1749888"><ele>1058.0</ele><time>2026-05-02T12:04:15.268Z</time></trkpt><trkpt lat="44.2686613" lon="8.1750166"><ele>1058.0</ele><time>2026-05-02T12:04:16.26Z</time></trkpt><trkpt lat="44.2687507" lon="8.1750308"><ele>1058.0</ele><time>2026-05-02T12:04:17.261Z</time></trkpt><trkpt lat="44.2688313" lon="8.1750283"><ele>1058.0</ele><time>2026-05-02T12:04:18.262Z</time></trkpt><trkpt lat="44.2689115" lon="8.175032"><ele>1058.0</ele><time>2026-05-02T12:04:19.267Z</time></trkpt><trkpt lat="44.268995" lon="8.1750234"><ele>1058.0</ele><time>2026-05-02T12:04:20.252Z</time></trkpt><trkpt lat="44.2690892" lon="8.1750188"><ele>1058.0</ele><time>2026-05-02T12:04:21.26Z</time></trkpt><trkpt lat="44.2691783" lon="8.1750445"><ele>1058.0</ele><time>2026-05-02T12:04:22.255Z</time></trkpt><trkpt lat="44.2692569" lon="8.1750865"><ele>1058.0</ele><time>2026-05-02T12:04:23.256Z</time></trkpt><trkpt lat="44.2693271" lon="8.1751407"><ele>1058.0</ele><time>2026-05-02T12:04:24.255Z</time></trkpt><trkpt lat="44.2693965" lon="8.1752063"><ele>1058.0</ele><time>2026-05-02T12:04:25.257Z</time></trkpt><trkpt lat="44.2694621" lon="8.1752751"><ele>1058.0</ele><time>2026-05-02T12:04:26.26Z</time></trkpt><trkpt lat="44.2695246" lon="8.1753605"><ele>1058.0</ele><time>2026-05-02T12:04:27.261Z</time></trkpt><trkpt lat="44.2695841" lon="8.1754382"><ele>1058.0</ele><time>2026-05-02T12:04:28.275Z</time></trkpt><trkpt lat="44.2696415" lon="8.1755139"><ele>1058.0</ele><time>2026-05-02T12:04:29.257Z</time></trkpt><trkpt lat="44.2696982" lon="8.1755842"><ele>1058.0</ele><time>2026-05-02T12:04:30.263Z</time></trkpt><trkpt lat="44.2697502" lon="8.1756614"><ele>1058.0</ele><time>2026-05-02T12:04:31.258Z</time></trkpt><trkpt lat="44.2698031" lon="8.1757451"><ele>1058.0</ele><time>2026-05-02T12:04:32.254Z</time></trkpt><trkpt lat="44.2698471" lon="8.1758329"><ele>1056.5</ele><time>2026-05-02T12:04:33.247Z</time></trkpt><trkpt lat="44.2698932" lon="8.1759199"><ele>1055.0</ele><time>2026-05-02T12:04:34.262Z</time></trkpt><trkpt lat="44.2699327" lon="8.1760115"><ele>1053.5</ele><time>2026-05-02T12:04:35.263Z</time></trkpt><trkpt lat="44.2699686" lon="8.1761063"><ele>1052.0</ele><time>2026-05-02T12:04:36.263Z</time></trkpt><trkpt lat="44.2700089" lon="8.1761935"><ele>1050.5</ele><time>2026-05-02T12:04:37.259Z</time></trkpt><trkpt lat="44.2700477" lon="8.176293"><ele>1049.0</ele><time>2026-05-02T12:04:38.267Z</time></trkpt><trkpt lat="44.2700909" lon="8.176382"><ele>1049.0</ele><time>2026-05-02T12:04:39.259Z</time></trkpt><trkpt lat="44.2701489" lon="8.1764459"><ele>1049.0</ele><time>2026-05-02T12:04:40.27Z</time></trkpt><trkpt lat="44.2702194" lon="8.1765084"><ele>1049.0</ele><time>2026-05-02T12:04:41.263Z</time></trkpt><trkpt lat="44.2702975" lon="8.1765689"><ele>1049.0</ele><time>2026-05-02T12:04:42.266Z</time></trkpt><trkpt lat="44.2703762" lon="8.1766075"><ele>1049.0</ele><time>2026-05-02T12:04:43.258Z</time></trkpt><trkpt lat="44.2704554" lon="8.1766293"><ele>1049.0</ele><time>2026-05-02T12:04:44.259Z</time></trkpt><trkpt lat="44.2705232" lon="8.1766493"><ele>1047.6666666666667</ele><time>2026-05-02T12:04:45.261Z</time></trkpt><trkpt lat="44.2705944" lon="8.1766678"><ele>1046.3333333333335</ele><time>2026-05-02T12:04:46.261Z</time></trkpt><trkpt lat="44.2707012" lon="8.1767729"><ele>1045.0</ele><time>2026-05-02T12:04:48.262Z</time></trkpt><trkpt lat="44.2707313" lon="8.17687"><ele>1043.6666666666667</ele><time>2026-05-02T12:04:49.249Z</time></trkpt><trkpt lat="44.2707527" lon="8.1769845"><ele>1042.3333333333333</ele><time>2026-05-02T12:04:50.268Z</time></trkpt><trkpt lat="44.2707797" lon="8.1770857"><ele>1041.0</ele><time>2026-05-02T12:04:51.261Z</time></trkpt><trkpt lat="44.2708012" lon="8.1771719"><ele>1041.0</ele><time>2026-05-02T12:04:52.259Z</time></trkpt><trkpt lat="44.2708583" lon="8.1773023"><ele>1041.0</ele><time>2026-05-02T12:04:54.265Z</time></trkpt><trkpt lat="44.270962" lon="8.1773731"><ele>1041.0</ele><time>2026-05-02T12:04:56.261Z</time></trkpt><trkpt lat="44.2710441" lon="8.1773914"><ele>1041.0</ele><time>2026-05-02T12:04:57.264Z</time></trkpt><trkpt lat="44.2711306" lon="8.1773944"><ele>1041.0</ele><time>2026-05-02T12:04:58.284Z</time></trkpt><trkpt lat="44.2712219" lon="8.1773982"><ele>1037.5</ele><time>2026-05-02T12:04:59.261Z</time></trkpt><trkpt lat="44.2713025" lon="8.1774153"><ele>1034.0</ele><time>2026-05-02T12:05:00.267Z</time></trkpt><trkpt lat="44.2713832" lon="8.1774248"><ele>1030.5</ele><time>2026-05-02T12:05:01.255Z</time></trkpt><trkpt lat="44.2714636" lon="8.1774376"><ele>1027.0</ele><time>2026-05-02T12:05:02.263Z</time></trkpt><trkpt lat="44.2715446" lon="8.1774539"><ele>1023.5</ele><time>2026-05-02T12:05:03.26Z</time></trkpt><trkpt lat="44.2716128" lon="8.1774951"><ele>1020.0</ele><time>2026-05-02T12:05:04.259Z</time></trkpt><trkpt lat="44.2716706" lon="8.1775497"><ele>1020.0</ele><time>2026-05-02T12:05:05.252Z</time></trkpt><trkpt lat="44.2717069" lon="8.1776323"><ele>1020.0</ele><time>2026-05-02T12:05:06.255Z</time></trkpt><trkpt lat="44.2717305" lon="8.1777333"><ele>1020.0</ele><time>2026-05-02T12:05:07.253Z</time></trkpt><trkpt lat="44.2717612" lon="8.1778539"><ele>1020.0</ele><time>2026-05-02T12:05:08.264Z</time></trkpt><trkpt lat="44.2717862" lon="8.1779745"><ele>1020.0</ele><time>2026-05-02T12:05:09.26Z</time></trkpt><trkpt lat="44.2718061" lon="8.1780682"><ele>1020.0</ele><time>2026-05-02T12:05:10.26Z</time></trkpt><trkpt lat="44.2718648" lon="8.1781812"><ele>1017.5</ele><time>2026-05-02T12:05:12.266Z</time></trkpt><trkpt lat="44.2719223" lon="8.1782219"><ele>1015.0</ele><time>2026-05-02T12:05:13.259Z</time></trkpt><trkpt lat="44.2719875" lon="8.178277"><ele>1012.5</ele><time>2026-05-02T12:05:14.262Z</time></trkpt><trkpt lat="44.272065" lon="8.1783283"><ele>1010.0</ele><time>2026-05-02T12:05:15.272Z</time></trkpt><trkpt lat="44.2721315" lon="8.1783831"><ele>1007.5</ele><time>2026-05-02T12:05:16.274Z</time></trkpt><trkpt lat="44.2722051" lon="8.1784352"><ele>1005.0</ele><time>2026-05-02T12:05:17.276Z</time></trkpt><trkpt lat="44.2722795" lon="8.1784802"><ele>1005.0</ele><time>2026-05-02T12:05:18.273Z</time></trkpt><trkpt lat="44.2723501" lon="8.1784963"><ele>1005.0</ele><time>2026-05-02T12:05:19.271Z</time></trkpt><trkpt lat="44.2724275" lon="8.1785013"><ele>1005.0</ele><time>2026-05-02T12:05:20.265Z</time></trkpt><trkpt lat="44.2725068" lon="8.1784968"><ele>1005.0</ele><time>2026-05-02T12:05:21.284Z</time></trkpt><trkpt lat="44.2725918" lon="8.178497"><ele>1005.0</ele><time>2026-05-02T12:05:22.26Z</time></trkpt><trkpt lat="44.2726751" lon="8.178502"><ele>1005.0</ele><time>2026-05-02T12:05:23.265Z</time></trkpt><trkpt lat="44.2727612" lon="8.1785013"><ele>1005.0</ele><time>2026-05-02T12:05:24.265Z</time></trkpt><trkpt lat="44.2728388" lon="8.1785136"><ele>1005.0</ele><time>2026-05-02T12:05:25.262Z</time></trkpt><trkpt lat="44.2729247" lon="8.1785312"><ele>1005.0</ele><time>2026-05-02T12:05:26.256Z</time></trkpt><trkpt lat="44.2730025" lon="8.1785498"><ele>1005.0</ele><time>2026-05-02T12:05:27.265Z</time></trkpt><trkpt lat="44.2730817" lon="8.1785919"><ele>1005.0</ele><time>2026-05-02T12:05:28.271Z</time></trkpt><trkpt lat="44.2731594" lon="8.1786672"><ele>1005.0</ele><time>2026-05-02T12:05:29.266Z</time></trkpt><trkpt lat="44.2732466" lon="8.1787463"><ele>1005.3333333333334</ele><time>2026-05-02T12:05:30.261Z</time></trkpt><trkpt lat="44.273332" lon="8.1788173"><ele>1005.6666666666667</ele><time>2026-05-02T12:05:31.26Z</time></trkpt><trkpt lat="44.2734052" lon="8.178884"><ele>1006.0</ele><time>2026-05-02T12:05:32.265Z</time></trkpt><trkpt lat="44.2734721" lon="8.1789435"><ele>1006.3333333333334</ele><time>2026-05-02T12:05:33.263Z</time></trkpt><trkpt lat="44.2735413" lon="8.1789994"><ele>1006.6666666666667</ele><time>2026-05-02T12:05:34.257Z</time></trkpt><trkpt lat="44.2736079" lon="8.1790498"><ele>1007.0</ele><time>2026-05-02T12:05:35.26Z</time></trkpt><trkpt lat="44.2736785" lon="8.1790999"><ele>1003.1666666666667</ele><time>2026-05-02T12:05:36.262Z</time></trkpt><trkpt lat="44.273758" lon="8.1791348"><ele>999.3333333333334</ele><time>2026-05-02T12:05:37.262Z</time></trkpt><trkpt lat="44.2738415" lon="8.1791553"><ele>995.5</ele><time>2026-05-02T12:05:38.264Z</time></trkpt><trkpt lat="44.2739336" lon="8.1791584"><ele>991.6666666666667</ele><time>2026-05-02T12:05:39.26Z</time></trkpt><trkpt lat="44.2740108" lon="8.17917"><ele>987.8333333333334</ele><time>2026-05-02T12:05:40.267Z</time></trkpt><trkpt lat="44.2740882" lon="8.1791786"><ele>984.0</ele><time>2026-05-02T12:05:41.264Z</time></trkpt><trkpt lat="44.2741737" lon="8.1791787"><ele>984.0</ele><time>2026-05-02T12:05:42.269Z</time></trkpt><trkpt lat="44.2742546" lon="8.1791875"><ele>984.0</ele><time>2026-05-02T12:05:43.259Z</time></trkpt><trkpt lat="44.2743401" lon="8.1792128"><ele>984.0</ele><time>2026-05-02T12:05:44.266Z</time></trkpt><trkpt lat="44.2744274" lon="8.1792406"><ele>984.0</ele><time>2026-05-02T12:05:45.269Z</time></trkpt><trkpt lat="44.2745154" lon="8.1792868"><ele>984.0</ele><time>2026-05-02T12:05:46.263Z</time></trkpt><trkpt lat="44.2746008" lon="8.1793443"><ele>984.0</ele><time>2026-05-02T12:05:47.264Z</time></trkpt><trkpt lat="44.2746736" lon="8.1793843"><ele>984.0</ele><time>2026-05-02T12:05:48.276Z</time></trkpt><trkpt lat="44.2747508" lon="8.1794215"><ele>984.0</ele><time>2026-05-02T12:05:49.263Z</time></trkpt><trkpt lat="44.2748318" lon="8.1794504"><ele>984.0</ele><time>2026-05-02T12:05:50.266Z</time></trkpt><trkpt lat="44.2749021" lon="8.1794473"><ele>984.0</ele><time>2026-05-02T12:05:51.263Z</time></trkpt><trkpt lat="44.2749753" lon="8.1794195"><ele>984.0</ele><time>2026-05-02T12:05:52.281Z</time></trkpt><trkpt lat="44.2750409" lon="8.1793815"><ele>984.0</ele><time>2026-05-02T12:05:53.265Z</time></trkpt><trkpt lat="44.275106" lon="8.179339"><ele>982.857142857143</ele><time>2026-05-02T12:05:54.266Z</time></trkpt><trkpt lat="44.2751688" lon="8.1792865"><ele>981.7142857142858</ele><time>2026-05-02T12:05:55.26Z</time></trkpt><trkpt lat="44.2752258" lon="8.1792396"><ele>980.5714285714286</ele><time>2026-05-02T12:05:56.269Z</time></trkpt><trkpt lat="44.2752982" lon="8.1792081"><ele>979.4285714285714</ele><time>2026-05-02T12:05:57.266Z</time></trkpt><trkpt lat="44.2753626" lon="8.1791768"><ele>978.2857142857142</ele><time>2026-05-02T12:05:58.28Z</time></trkpt><trkpt lat="44.2754282" lon="8.1791342"><ele>977.142857142857</ele><time>2026-05-02T12:05:59.264Z</time></trkpt><trkpt lat="44.2754916" lon="8.1790948"><ele>975.9999999999999</ele><time>2026-05-02T12:06:00.268Z</time></trkpt><trkpt lat="44.2755937" lon="8.1790783"><ele>975.9999999999999</ele><time>2026-05-02T12:06:02.275Z</time></trkpt><trkpt lat="44.2756274" lon="8.1791733"><ele>976.0</ele><time>2026-05-02T12:06:04.269Z</time></trkpt><trkpt lat="44.275599" lon="8.1792712"><ele>976.0</ele><time>2026-05-02T12:06:06.262Z</time></trkpt><trkpt lat="44.2755265" lon="8.1793718"><ele>976.0</ele><time>2026-05-02T12:06:08.263Z</time></trkpt><trkpt lat="44.2754574" lon="8.1794394"><ele>975.9999999999999</ele><time>2026-05-02T12:06:09.266Z</time></trkpt><trkpt lat="44.2753906" lon="8.1795162"><ele>976.0</ele><time>2026-05-02T12:06:10.262Z</time></trkpt><trkpt lat="44.2753355" lon="8.1796094"><ele>975.9999999999999</ele><time>2026-05-02T12:06:11.265Z</time></trkpt><trkpt lat="44.2752801" lon="8.1797092"><ele>976.0</ele><time>2026-05-02T12:06:12.26Z</time></trkpt><trkpt lat="44.2752321" lon="8.1797958"><ele>975.9999999999999</ele><time>2026-05-02T12:06:13.261Z</time></trkpt><trkpt lat="44.2751751" lon="8.1798643"><ele>975.9999999999999</ele><time>2026-05-02T12:06:14.256Z</time></trkpt><trkpt lat="44.2751228" lon="8.1799204"><ele>976.0</ele><time>2026-05-02T12:06:15.266Z</time></trkpt><trkpt lat="44.2750619" lon="8.1799697"><ele>975.9999999999999</ele><time>2026-05-02T12:06:16.265Z</time></trkpt><trkpt lat="44.2749987" lon="8.1800059"><ele>975.9999999999999</ele><time>2026-05-02T12:06:17.27Z</time></trkpt><trkpt lat="44.2748666" lon="8.180027"><ele>971.8333333333333</ele><time>2026-05-02T12:06:19.28Z</time></trkpt><trkpt lat="44.2747856" lon="8.1800379"><ele>967.6666666666666</ele><time>2026-05-02T12:06:20.268Z</time></trkpt><trkpt lat="44.2746992" lon="8.1800494"><ele>963.5</ele><time>2026-05-02T12:06:21.272Z</time></trkpt><trkpt lat="44.2746121" lon="8.1800636"><ele>959.3333333333333</ele><time>2026-05-02T12:06:22.269Z</time></trkpt><trkpt lat="44.2745265" lon="8.180089"><ele>955.1666666666666</ele><time>2026-05-02T12:06:23.284Z</time></trkpt><trkpt lat="44.2744446" lon="8.1801251"><ele>951.0</ele><time>2026-05-02T12:06:24.266Z</time></trkpt><trkpt lat="44.2743739" lon="8.1801648"><ele>951.0</ele><time>2026-05-02T12:06:25.266Z</time></trkpt><trkpt lat="44.2743045" lon="8.1802024"><ele>951.0</ele><time>2026-05-02T12:06:26.256Z</time></trkpt><trkpt lat="44.2742335" lon="8.1802422"><ele>951.0</ele><time>2026-05-02T12:06:27.263Z</time></trkpt><trkpt lat="44.2741622" lon="8.1802644"><ele>951.0</ele><time>2026-05-02T12:06:28.276Z</time></trkpt><trkpt lat="44.2740878" lon="8.1802771"><ele>951.0</ele><time>2026-05-02T12:06:29.263Z</time></trkpt><trkpt lat="44.2740146" lon="8.1802954"><ele>951.0</ele><time>2026-05-02T12:06:30.27Z</time></trkpt><trkpt lat="44.2739406" lon="8.1803249"><ele>951.3333333333334</ele><time>2026-05-02T12:06:31.266Z</time></trkpt><trkpt lat="44.2738662" lon="8.1803683"><ele>951.6666666666667</ele><time>2026-05-02T12:06:32.267Z</time></trkpt><trkpt lat="44.2738002" lon="8.1804216"><ele>952.0</ele><time>2026-05-02T12:06:33.264Z</time></trkpt><trkpt lat="44.2737514" lon="8.1804849"><ele>952.3333333333334</ele><time>2026-05-02T12:06:34.268Z</time></trkpt><trkpt lat="44.2736909" lon="8.180614"><ele>952.6666666666667</ele><time>2026-05-02T12:06:36.269Z</time></trkpt><trkpt lat="44.273662" lon="8.1807584"><ele>953.0</ele><time>2026-05-02T12:06:38.271Z</time></trkpt><trkpt lat="44.2736681" lon="8.1809281"><ele>949.6666666666667</ele><time>2026-05-02T12:06:40.278Z</time></trkpt><trkpt lat="44.2736838" lon="8.1810154"><ele>946.3333333333334</ele><time>2026-05-02T12:06:41.276Z</time></trkpt><trkpt lat="44.2737193" lon="8.1811819"><ele>943.0</ele><time>2026-05-02T12:06:43.273Z</time></trkpt><trkpt lat="44.2737406" lon="8.1812756"><ele>939.6666666666667</ele><time>2026-05-02T12:06:44.268Z</time></trkpt><trkpt lat="44.2737616" lon="8.1813817"><ele>936.3333333333334</ele><time>2026-05-02T12:06:45.277Z</time></trkpt><trkpt lat="44.2737795" lon="8.1814852"><ele>933.0</ele><time>2026-05-02T12:06:46.276Z</time></trkpt><trkpt lat="44.2737906" lon="8.181587"><ele>931.7142857142857</ele><time>2026-05-02T12:06:47.28Z</time></trkpt><trkpt lat="44.2737889" lon="8.1816801"><ele>930.4285714285713</ele><time>2026-05-02T12:06:48.279Z</time></trkpt><trkpt lat="44.2737718" lon="8.1817694"><ele>929.1428571428571</ele><time>2026-05-02T12:06:49.283Z</time></trkpt><trkpt lat="44.273742" lon="8.1818525"><ele>927.8571428571429</ele><time>2026-05-02T12:06:50.29Z</time></trkpt><trkpt lat="44.2736963" lon="8.18193"><ele>926.5714285714286</ele><time>2026-05-02T12:06:51.285Z</time></trkpt><trkpt lat="44.2736424" lon="8.1820004"><ele>925.2857142857142</ele><time>2026-05-02T12:06:52.278Z</time></trkpt><trkpt lat="44.273588" lon="8.1820605"><ele>924.0</ele><time>2026-05-02T12:06:53.277Z</time></trkpt><trkpt lat="44.2735345" lon="8.182122"><ele>924.0</ele><time>2026-05-02T12:06:54.299Z</time></trkpt><trkpt lat="44.2734785" lon="8.18218"><ele>924.0000000000001</ele><time>2026-05-02T12:06:55.279Z</time></trkpt><trkpt lat="44.2734256" lon="8.1822314"><ele>924.0000000000001</ele><time>2026-05-02T12:06:56.288Z</time></trkpt><trkpt lat="44.2733315" lon="8.1822873"><ele>924.0</ele><time>2026-05-02T12:06:58.299Z</time></trkpt><trkpt lat="44.2732318" lon="8.1822279"><ele>924.0</ele><time>2026-05-02T12:07:00.286Z</time></trkpt><trkpt lat="44.273139" lon="8.1821015"><ele>921.4285714285714</ele><time>2026-05-02T12:07:02.276Z</time></trkpt><trkpt lat="44.2730983" lon="8.182019"><ele>918.8571428571429</ele><time>2026-05-02T12:07:03.277Z</time></trkpt><trkpt lat="44.2730644" lon="8.1819258"><ele>916.2857142857142</ele><time>2026-05-02T12:07:04.277Z</time></trkpt><trkpt lat="44.2730443" lon="8.1818237"><ele>913.7142857142857</ele><time>2026-05-02T12:07:05.277Z</time></trkpt><trkpt lat="44.2730348" lon="8.1817145"><ele>911.1428571428571</ele><time>2026-05-02T12:07:06.269Z</time></trkpt><trkpt lat="44.2730257" lon="8.1816197"><ele>908.5714285714284</ele><time>2026-05-02T12:07:07.27Z</time></trkpt><trkpt lat="44.2730051" lon="8.1815192"><ele>905.9999999999999</ele><time>2026-05-02T12:07:09.279Z</time></trkpt><trkpt lat="44.2729276" lon="8.1815402"><ele>906.0</ele><time>2026-05-02T12:07:11.274Z</time></trkpt><trkpt lat="44.2728938" lon="8.1816568"><ele>905.9999999999999</ele><time>2026-05-02T12:07:13.272Z</time></trkpt><trkpt lat="44.2728749" lon="8.1818518"><ele>905.9999999999999</ele><time>2026-05-02T12:07:15.271Z</time></trkpt><trkpt lat="44.2728643" lon="8.1819705"><ele>906.0</ele><time>2026-05-02T12:07:16.268Z</time></trkpt><trkpt lat="44.2728595" lon="8.1820995"><ele>906.0</ele><time>2026-05-02T12:07:17.272Z</time></trkpt><trkpt lat="44.2728559" lon="8.1822239"><ele>906.0</ele><time>2026-05-02T12:07:18.266Z</time></trkpt><trkpt lat="44.2728558" lon="8.1823446"><ele>906.0</ele><time>2026-05-02T12:07:19.273Z</time></trkpt><trkpt lat="44.2728607" lon="8.1824558"><ele>906.0</ele><time>2026-05-02T12:07:20.264Z</time></trkpt><trkpt lat="44.2728784" lon="8.1825661"><ele>906.0</ele><time>2026-05-02T12:07:21.277Z</time></trkpt><trkpt lat="44.2729135" lon="8.182677"><ele>906.0</ele><time>2026-05-02T12:07:22.268Z</time></trkpt><trkpt lat="44.2729598" lon="8.182788"><ele>906.0</ele><time>2026-05-02T12:07:23.273Z</time></trkpt><trkpt lat="44.273005" lon="8.1828917"><ele>905.4285714285713</ele><time>2026-05-02T12:07:24.268Z</time></trkpt><trkpt lat="44.2730376" lon="8.1829954"><ele>904.8571428571429</ele><time>2026-05-02T12:07:25.296Z</time></trkpt><trkpt lat="44.273066" lon="8.1830967"><ele>904.2857142857142</ele><time>2026-05-02T12:07:26.27Z</time></trkpt><trkpt lat="44.2730918" lon="8.1831989"><ele>903.7142857142857</ele><time>2026-05-02T12:07:27.275Z</time></trkpt><trkpt lat="44.2731038" lon="8.1832947"><ele>903.1428571428571</ele><time>2026-05-02T12:07:28.284Z</time></trkpt><trkpt lat="44.2731152" lon="8.1833863"><ele>902.5714285714286</ele><time>2026-05-02T12:07:29.283Z</time></trkpt><trkpt lat="44.2731399" lon="8.1834725"><ele>902.0</ele><time>2026-05-02T12:07:30.282Z</time></trkpt><trkpt lat="44.2732276" lon="8.1836049"><ele>902.0</ele><time>2026-05-02T12:07:32.282Z</time></trkpt><trkpt lat="44.2732881" lon="8.183656"><ele>902.0</ele><time>2026-05-02T12:07:33.28Z</time></trkpt><trkpt lat="44.2733553" lon="8.1836893"><ele>902.0</ele><time>2026-05-02T12:07:34.28Z</time></trkpt><trkpt lat="44.2734555" lon="8.1837697"><ele>902.0</ele><time>2026-05-02T12:07:36.284Z</time></trkpt><trkpt lat="44.2734874" lon="8.1838753"><ele>902.0</ele><time>2026-05-02T12:07:38.281Z</time></trkpt><trkpt lat="44.2734824" lon="8.1840321"><ele>900.1666666666667</ele><time>2026-05-02T12:07:40.276Z</time></trkpt><trkpt lat="44.2734848" lon="8.1841388"><ele>898.3333333333334</ele><time>2026-05-02T12:07:41.283Z</time></trkpt><trkpt lat="44.2734817" lon="8.1842476"><ele>896.5</ele><time>2026-05-02T12:07:42.279Z</time></trkpt><trkpt lat="44.2734906" lon="8.1843604"><ele>894.6666666666667</ele><time>2026-05-02T12:07:43.283Z</time></trkpt><trkpt lat="44.2735205" lon="8.184461"><ele>892.8333333333334</ele><time>2026-05-02T12:07:44.283Z</time></trkpt><trkpt lat="44.2735658" lon="8.1845428"><ele>891.0</ele><time>2026-05-02T12:07:45.28Z</time></trkpt><trkpt lat="44.2736267" lon="8.1846291"><ele>891.0</ele><time>2026-05-02T12:07:46.281Z</time></trkpt><trkpt lat="44.273687" lon="8.1847204"><ele>891.0</ele><time>2026-05-02T12:07:47.28Z</time></trkpt><trkpt lat="44.2737437" lon="8.1848171"><ele>891.0</ele><time>2026-05-02T12:07:48.28Z</time></trkpt><trkpt lat="44.2737938" lon="8.184916"><ele>891.0</ele><time>2026-05-02T12:07:49.277Z</time></trkpt><trkpt lat="44.2738466" lon="8.1850104"><ele>891.0</ele><time>2026-05-02T12:07:50.28Z</time></trkpt><trkpt lat="44.2738951" lon="8.1851007"><ele>891.0</ele><time>2026-05-02T12:07:51.28Z</time></trkpt><trkpt lat="44.2739452" lon="8.185177"><ele>889.5</ele><time>2026-05-02T12:07:52.282Z</time></trkpt><trkpt lat="44.2739942" lon="8.1852459"><ele>888.0</ele><time>2026-05-02T12:07:53.28Z</time></trkpt><trkpt lat="44.2740668" lon="8.1853534"><ele>886.5</ele><time>2026-05-02T12:07:55.287Z</time></trkpt><trkpt lat="44.2740781" lon="8.1854466"><ele>885.0</ele><time>2026-05-02T12:07:57.287Z</time></trkpt><trkpt lat="44.2740062" lon="8.1854731"><ele>883.5</ele><time>2026-05-02T12:07:59.301Z</time></trkpt><trkpt lat="44.2739178" lon="8.1853836"><ele>882.0</ele><time>2026-05-02T12:08:01.288Z</time></trkpt><trkpt lat="44.2738674" lon="8.1852928"><ele>881.1666666666666</ele><time>2026-05-02T12:08:02.286Z</time></trkpt><trkpt lat="44.273807" lon="8.1851966"><ele>880.3333333333333</ele><time>2026-05-02T12:08:03.278Z</time></trkpt><trkpt lat="44.2737484" lon="8.1851096"><ele>879.5</ele><time>2026-05-02T12:08:04.281Z</time></trkpt><trkpt lat="44.2736816" lon="8.1850412"><ele>878.6666666666666</ele><time>2026-05-02T12:08:05.276Z</time></trkpt><trkpt lat="44.2736194" lon="8.1849866"><ele>877.8333333333333</ele><time>2026-05-02T12:08:06.285Z</time></trkpt><trkpt lat="44.273553" lon="8.1849347"><ele>877.0</ele><time>2026-05-02T12:08:07.274Z</time></trkpt><trkpt lat="44.2734877" lon="8.1848817"><ele>875.8333333333333</ele><time>2026-05-02T12:08:08.276Z</time></trkpt><trkpt lat="44.2734122" lon="8.1848343"><ele>874.6666666666666</ele><time>2026-05-02T12:08:09.273Z</time></trkpt><trkpt lat="44.2733381" lon="8.1847943"><ele>873.5</ele><time>2026-05-02T12:08:10.287Z</time></trkpt><trkpt lat="44.2732647" lon="8.1847527"><ele>872.3333333333333</ele><time>2026-05-02T12:08:11.278Z</time></trkpt><trkpt lat="44.2731987" lon="8.1847216"><ele>871.1666666666666</ele><time>2026-05-02T12:08:12.277Z</time></trkpt><trkpt lat="44.2730981" lon="8.184718"><ele>870.0</ele><time>2026-05-02T12:08:14.277Z</time></trkpt><trkpt lat="44.2730137" lon="8.1847713"><ele>870.0</ele><time>2026-05-02T12:08:16.28Z</time></trkpt><trkpt lat="44.272921" lon="8.1848377"><ele>870.0</ele><time>2026-05-02T12:08:18.283Z</time></trkpt><trkpt lat="44.2728138" lon="8.1848299"><ele>870.0</ele><time>2026-05-02T12:08:20.286Z</time></trkpt><trkpt lat="44.2727174" lon="8.1847583"><ele>870.0</ele><time>2026-05-02T12:08:22.28Z</time></trkpt><trkpt lat="44.2726193" lon="8.1846663"><ele>870.0</ele><time>2026-05-02T12:08:24.278Z</time></trkpt><trkpt lat="44.2725661" lon="8.1846189"><ele>870.0</ele><time>2026-05-02T12:08:25.282Z</time></trkpt><trkpt lat="44.2724802" lon="8.1845215"><ele>870.0</ele><time>2026-05-02T12:08:27.282Z</time></trkpt><trkpt lat="44.2723995" lon="8.1844345"><ele>870.0</ele><time>2026-05-02T12:08:29.278Z</time></trkpt><trkpt lat="44.272323" lon="8.1844075"><ele>870.0</ele><time>2026-05-02T12:08:31.275Z</time></trkpt><trkpt lat="44.2722697" lon="8.1844779"><ele>870.0</ele><time>2026-05-02T12:08:34.281Z</time></trkpt><trkpt lat="44.2722611" lon="8.1846187"><ele>868.6</ele><time>2026-05-02T12:08:36.282Z</time></trkpt><trkpt lat="44.2722674" lon="8.1847328"><ele>867.2</ele><time>2026-05-02T12:08:37.283Z</time></trkpt><trkpt lat="44.2722781" lon="8.1848742"><ele>865.8</ele><time>2026-05-02T12:08:38.281Z</time></trkpt><trkpt lat="44.2722775" lon="8.1850108"><ele>864.4</ele><time>2026-05-02T12:08:39.277Z</time></trkpt><trkpt lat="44.2722738" lon="8.1851469"><ele>863.0</ele><time>2026-05-02T12:08:40.283Z</time></trkpt><trkpt lat="44.2722656" lon="8.1852755"><ele>858.4</ele><time>2026-05-02T12:08:41.282Z</time></trkpt><trkpt lat="44.272258" lon="8.1854081"><ele>853.8</ele><time>2026-05-02T12:08:42.281Z</time></trkpt><trkpt lat="44.2722504" lon="8.1855405"><ele>849.2</ele><time>2026-05-02T12:08:43.278Z</time></trkpt><trkpt lat="44.2722433" lon="8.1856674"><ele>844.6</ele><time>2026-05-02T12:08:44.276Z</time></trkpt><trkpt lat="44.2722369" lon="8.1857946"><ele>840.0</ele><time>2026-05-02T12:08:45.276Z</time></trkpt><trkpt lat="44.2722388" lon="8.1859176"><ele>839.3333333333334</ele><time>2026-05-02T12:08:46.284Z</time></trkpt><trkpt lat="44.2722528" lon="8.1860413"><ele>838.6666666666667</ele><time>2026-05-02T12:08:47.273Z</time></trkpt><trkpt lat="44.2722749" lon="8.1861593"><ele>838.0</ele><time>2026-05-02T12:08:48.271Z</time></trkpt><trkpt lat="44.2723013" lon="8.1862658"><ele>837.3333333333334</ele><time>2026-05-02T12:08:49.266Z</time></trkpt><trkpt lat="44.2723337" lon="8.1863706"><ele>836.6666666666667</ele><time>2026-05-02T12:08:50.267Z</time></trkpt><trkpt lat="44.2723692" lon="8.1864746"><ele>836.0</ele><time>2026-05-02T12:08:51.269Z</time></trkpt><trkpt lat="44.2724096" lon="8.1865678"><ele>834.8</ele><time>2026-05-02T12:08:52.268Z</time></trkpt><trkpt lat="44.2724507" lon="8.1866623"><ele>833.5999999999999</ele><time>2026-05-02T12:08:53.272Z</time></trkpt><trkpt lat="44.2725408" lon="8.1867604"><ele>832.4</ele><time>2026-05-02T12:08:55.264Z</time></trkpt><trkpt lat="44.272452" lon="8.1867995"><ele>831.2</ele><time>2026-05-02T12:09:00.282Z</time></trkpt><trkpt lat="44.2723387" lon="8.1867044"><ele>830.0</ele><time>2026-05-02T12:09:02.284Z</time></trkpt><trkpt lat="44.2722695" lon="8.1866614"><ele>830.0</ele><time>2026-05-02T12:09:03.281Z</time></trkpt><trkpt lat="44.2721946" lon="8.186635"><ele>830.0</ele><time>2026-05-02T12:09:04.285Z</time></trkpt><trkpt lat="44.2721259" lon="8.1866253"><ele>830.0</ele><time>2026-05-02T12:09:05.281Z</time></trkpt><trkpt lat="44.2720538" lon="8.1866035"><ele>830.0</ele><time>2026-05-02T12:09:06.277Z</time></trkpt><trkpt lat="44.2719871" lon="8.1865711"><ele>830.0</ele><time>2026-05-02T12:09:07.279Z</time></trkpt><trkpt lat="44.271933" lon="8.1865081"><ele>830.0</ele><time>2026-05-02T12:09:08.272Z</time></trkpt><trkpt lat="44.2718828" lon="8.186428"><ele>830.0</ele><time>2026-05-02T12:09:09.279Z</time></trkpt><trkpt lat="44.2718323" lon="8.1863489"><ele>831.0000000000001</ele><time>2026-05-02T12:09:10.273Z</time></trkpt><trkpt lat="44.2717752" lon="8.1862701"><ele>832.0</ele><time>2026-05-02T12:09:11.281Z</time></trkpt><trkpt lat="44.2717042" lon="8.1862011"><ele>833.0</ele><time>2026-05-02T12:09:12.276Z</time></trkpt><trkpt lat="44.271631" lon="8.1861357"><ele>834.0</ele><time>2026-05-02T12:09:13.276Z</time></trkpt><trkpt lat="44.2715681" lon="8.1860812"><ele>835.0000000000001</ele><time>2026-05-02T12:09:14.273Z</time></trkpt><trkpt lat="44.2715136" lon="8.1860222"><ele>836.0</ele><time>2026-05-02T12:09:15.278Z</time></trkpt><trkpt lat="44.2714772" lon="8.18595"><ele>836.0</ele><time>2026-05-02T12:09:16.271Z</time></trkpt><trkpt lat="44.2714451" lon="8.185787"><ele>836.0</ele><time>2026-05-02T12:09:18.268Z</time></trkpt><trkpt lat="44.2714395" lon="8.1856987"><ele>836.0</ele><time>2026-05-02T12:09:19.275Z</time></trkpt><trkpt lat="44.2714414" lon="8.1855554"><ele>836.0</ele><time>2026-05-02T12:09:21.281Z</time></trkpt><trkpt lat="44.2713835" lon="8.1856468"><ele>836.0</ele><time>2026-05-02T12:09:25.277Z</time></trkpt><trkpt lat="44.2713702" lon="8.1857677"><ele>829.4</ele><time>2026-05-02T12:09:26.272Z</time></trkpt><trkpt lat="44.2713511" lon="8.1859155"><ele>822.8</ele><time>2026-05-02T12:09:27.266Z</time></trkpt><trkpt lat="44.2713434" lon="8.1860475"><ele>816.1999999999999</ele><time>2026-05-02T12:09:28.284Z</time></trkpt><trkpt lat="44.2713504" lon="8.1861724"><ele>809.5999999999999</ele><time>2026-05-02T12:09:29.268Z</time></trkpt><trkpt lat="44.2713872" lon="8.1862906"><ele>803.0</ele><time>2026-05-02T12:09:30.263Z</time></trkpt><trkpt lat="44.2714335" lon="8.1864024"><ele>802.3333333333334</ele><time>2026-05-02T12:09:31.263Z</time></trkpt><trkpt lat="44.2714701" lon="8.1865081"><ele>801.6666666666667</ele><time>2026-05-02T12:09:32.262Z</time></trkpt><trkpt lat="44.2714933" lon="8.1866151"><ele>801.0</ele><time>2026-05-02T12:09:33.272Z</time></trkpt><trkpt lat="44.2714823" lon="8.1867081"><ele>800.3333333333333</ele><time>2026-05-02T12:09:34.275Z</time></trkpt><trkpt lat="44.2714324" lon="8.1867787"><ele>799.6666666666666</ele><time>2026-05-02T12:09:35.262Z</time></trkpt><trkpt lat="44.2713684" lon="8.1868358"><ele>799.0</ele><time>2026-05-02T12:09:36.271Z</time></trkpt><trkpt lat="44.2712944" lon="8.1869094"><ele>798.9999999999999</ele><time>2026-05-02T12:09:37.265Z</time></trkpt><trkpt lat="44.2712424" lon="8.1869877"><ele>799.0</ele><time>2026-05-02T12:09:38.268Z</time></trkpt><trkpt lat="44.2712141" lon="8.1870745"><ele>799.0</ele><time>2026-05-02T12:09:39.276Z</time></trkpt><trkpt lat="44.2712238" lon="8.1871668"><ele>799.0</ele><time>2026-05-02T12:09:40.278Z</time></trkpt><trkpt lat="44.2712645" lon="8.1872772"><ele>798.9999999999999</ele><time>2026-05-02T12:09:41.275Z</time></trkpt><trkpt lat="44.2713265" lon="8.1874063"><ele>799.0</ele><time>2026-05-02T12:09:42.273Z</time></trkpt><trkpt lat="44.2713868" lon="8.1875295"><ele>798.6666666666666</ele><time>2026-05-02T12:09:43.27Z</time></trkpt><trkpt lat="44.2714408" lon="8.1876474"><ele>798.3333333333333</ele><time>2026-05-02T12:09:44.273Z</time></trkpt><trkpt lat="44.2715006" lon="8.1877398"><ele>798.0</ele><time>2026-05-02T12:09:45.27Z</time></trkpt><trkpt lat="44.2715538" lon="8.1877999"><ele>797.6666666666667</ele><time>2026-05-02T12:09:46.272Z</time></trkpt><trkpt lat="44.2714999" lon="8.187882"><ele>797.3333333333334</ele><time>2026-05-02T12:09:49.272Z</time></trkpt><trkpt lat="44.2714395" lon="8.1878566"><ele>797.0</ele><time>2026-05-02T12:09:50.267Z</time></trkpt><trkpt lat="44.2713769" lon="8.1877952"><ele>797.0</ele><time>2026-05-02T12:09:51.27Z</time></trkpt><trkpt lat="44.2713283" lon="8.1877313"><ele>797.0</ele><time>2026-05-02T12:09:52.262Z</time></trkpt><trkpt lat="44.2712325" lon="8.1877141"><ele>797.0</ele><time>2026-05-02T12:09:54.267Z</time></trkpt><trkpt lat="44.2712321" lon="8.1878349"><ele>797.0</ele><time>2026-05-02T12:09:56.273Z</time></trkpt><trkpt lat="44.271292" lon="8.1879482"><ele>797.0</ele><time>2026-05-02T12:09:57.258Z</time></trkpt><trkpt lat="44.2713586" lon="8.1880558"><ele>797.0</ele><time>2026-05-02T12:09:58.275Z</time></trkpt><trkpt lat="44.2714204" lon="8.1881444"><ele>797.0</ele><time>2026-05-02T12:09:59.269Z</time></trkpt><trkpt lat="44.2714813" lon="8.1882234"><ele>797.0</ele><time>2026-05-02T12:10:00.266Z</time></trkpt><trkpt lat="44.2714706" lon="8.188319"><ele>797.0</ele><time>2026-05-02T12:10:02.269Z</time></trkpt><trkpt lat="44.2713526" lon="8.1882679"><ele>797.0</ele><time>2026-05-02T12:10:04.267Z</time></trkpt><trkpt lat="44.2712824" lon="8.1881923"><ele>797.0</ele><time>2026-05-02T12:10:05.27Z</time></trkpt><trkpt lat="44.2711981" lon="8.1880996"><ele>797.0</ele><time>2026-05-02T12:10:06.266Z</time></trkpt><trkpt lat="44.2711151" lon="8.1880124"><ele>797.0</ele><time>2026-05-02T12:10:07.27Z</time></trkpt><trkpt lat="44.2710187" lon="8.1879578"><ele>797.0</ele><time>2026-05-02T12:10:08.27Z</time></trkpt><trkpt lat="44.2709082" lon="8.1879362"><ele>797.0</ele><time>2026-05-02T12:10:09.266Z</time></trkpt><trkpt lat="44.2707988" lon="8.1879461"><ele>797.0000000000001</ele><time>2026-05-02T12:10:10.258Z</time></trkpt><trkpt lat="44.2706984" lon="8.1879511"><ele>797.0</ele><time>2026-05-02T12:10:11.272Z</time></trkpt><trkpt lat="44.2706307" lon="8.1879291"><ele>797.0</ele><time>2026-05-02T12:10:12.269Z</time></trkpt><trkpt lat="44.2705686" lon="8.1878873"><ele>797.0</ele><time>2026-05-02T12:10:13.262Z</time></trkpt><trkpt lat="44.2704966" lon="8.18784"><ele>797.0000000000001</ele><time>2026-05-02T12:10:14.26Z</time></trkpt><trkpt lat="44.2704334" lon="8.1877943"><ele>797.0</ele><time>2026-05-02T12:10:15.267Z</time></trkpt><trkpt lat="44.2703675" lon="8.1877691"><ele>790.8</ele><time>2026-05-02T12:10:16.269Z</time></trkpt><trkpt lat="44.2703079" lon="8.1878513"><ele>784.6</ele><time>2026-05-02T12:10:18.268Z</time></trkpt><trkpt lat="44.2703366" lon="8.1879376"><ele>778.4</ele><time>2026-05-02T12:10:19.266Z</time></trkpt><trkpt lat="44.2703917" lon="8.1880208"><ele>772.1999999999999</ele><time>2026-05-02T12:10:20.269Z</time></trkpt><trkpt lat="44.2704829" lon="8.1881327"><ele>766.0</ele><time>2026-05-02T12:10:21.252Z</time></trkpt><trkpt lat="44.2705823" lon="8.1882444"><ele>768.4</ele><time>2026-05-02T12:10:22.261Z</time></trkpt><trkpt lat="44.2706924" lon="8.1883418"><ele>770.8</ele><time>2026-05-02T12:10:23.261Z</time></trkpt><trkpt lat="44.2707922" lon="8.1884119"><ele>773.1999999999999</ele><time>2026-05-02T12:10:24.267Z</time></trkpt><trkpt lat="44.2708694" lon="8.1884864"><ele>775.5999999999999</ele><time>2026-05-02T12:10:25.256Z</time></trkpt><trkpt lat="44.2709388" lon="8.1885632"><ele>778.0</ele><time>2026-05-02T12:10:26.266Z</time></trkpt><trkpt lat="44.2709781" lon="8.188673"><ele>778.0</ele><time>2026-05-02T12:10:27.272Z</time></trkpt><trkpt lat="44.2709928" lon="8.1888085"><ele>778.0</ele><time>2026-05-02T12:10:28.272Z</time></trkpt><trkpt lat="44.2709923" lon="8.1889582"><ele>778.0</ele><time>2026-05-02T12:10:29.254Z</time></trkpt><trkpt lat="44.2709973" lon="8.1890874"><ele>778.0</ele><time>2026-05-02T12:10:30.283Z</time></trkpt><trkpt lat="44.2710019" lon="8.1891812"><ele>778.0</ele><time>2026-05-02T12:10:31.27Z</time></trkpt><trkpt lat="44.2709151" lon="8.1891969"><ele>778.0</ele><time>2026-05-02T12:10:34.271Z</time></trkpt><trkpt lat="44.2708737" lon="8.1890906"><ele>778.0</ele><time>2026-05-02T12:10:35.26Z</time></trkpt><trkpt lat="44.2708368" lon="8.1889694"><ele>778.0</ele><time>2026-05-02T12:10:36.27Z</time></trkpt><trkpt lat="44.2707521" lon="8.1888611"><ele>778.0</ele><time>2026-05-02T12:10:38.268Z</time></trkpt><trkpt lat="44.2706821" lon="8.1888839"><ele>778.0</ele><time>2026-05-02T12:10:39.253Z</time></trkpt><trkpt lat="44.2706033" lon="8.1889268"><ele>774.1666666666666</ele><time>2026-05-02T12:10:40.256Z</time></trkpt><trkpt lat="44.2705191" lon="8.1889398"><ele>770.3333333333333</ele><time>2026-05-02T12:10:41.261Z</time></trkpt><trkpt lat="44.270442" lon="8.1889097"><ele>766.5</ele><time>2026-05-02T12:10:42.255Z</time></trkpt><trkpt lat="44.2703809" lon="8.1888389"><ele>762.6666666666666</ele><time>2026-05-02T12:10:43.268Z</time></trkpt><trkpt lat="44.2703352" lon="8.1887249"><ele>758.8333333333333</ele><time>2026-05-02T12:10:44.253Z</time></trkpt><trkpt lat="44.2702978" lon="8.188623"><ele>755.0</ele><time>2026-05-02T12:10:45.257Z</time></trkpt><trkpt lat="44.2702368" lon="8.1885617"><ele>755.0</ele><time>2026-05-02T12:10:46.254Z</time></trkpt><trkpt lat="44.2701488" lon="8.1885309"><ele>755.0</ele><time>2026-05-02T12:10:47.254Z</time></trkpt><trkpt lat="44.2700491" lon="8.1885066"><ele>755.0</ele><time>2026-05-02T12:10:48.253Z</time></trkpt><trkpt lat="44.2699727" lon="8.1884822"><ele>755.0</ele><time>2026-05-02T12:10:49.249Z</time></trkpt><trkpt lat="44.2699046" lon="8.1884391"><ele>755.0</ele><time>2026-05-02T12:10:50.257Z</time></trkpt><trkpt lat="44.2698317" lon="8.1884107"><ele>755.0</ele><time>2026-05-02T12:10:51.264Z</time></trkpt><trkpt lat="44.269782" lon="8.1885051"><ele>755.0</ele><time>2026-05-02T12:10:53.265Z</time></trkpt><trkpt lat="44.2698458" lon="8.1885772"><ele>755.0</ele><time>2026-05-02T12:10:54.26Z</time></trkpt><trkpt lat="44.2699508" lon="8.1886485"><ele>755.0</ele><time>2026-05-02T12:10:55.256Z</time></trkpt><trkpt lat="44.27007" lon="8.1887255"><ele>755.0</ele><time>2026-05-02T12:10:56.253Z</time></trkpt><trkpt lat="44.2701712" lon="8.1887932"><ele>755.0</ele><time>2026-05-02T12:10:57.259Z</time></trkpt><trkpt lat="44.2702476" lon="8.188864"><ele>755.0</ele><time>2026-05-02T12:10:58.284Z</time></trkpt><trkpt lat="44.2703007" lon="8.1889691"><ele>755.0</ele><time>2026-05-02T12:10:59.254Z</time></trkpt><trkpt lat="44.2703389" lon="8.1891184"><ele>755.0</ele><time>2026-05-02T12:11:00.255Z</time></trkpt><trkpt lat="44.2703615" lon="8.1892626"><ele>755.0</ele><time>2026-05-02T12:11:01.264Z</time></trkpt><trkpt lat="44.27039" lon="8.1893986"><ele>755.0</ele><time>2026-05-02T12:11:02.255Z</time></trkpt><trkpt lat="44.2704454" lon="8.1895267"><ele>751.6</ele><time>2026-05-02T12:11:03.256Z</time></trkpt><trkpt lat="44.2705117" lon="8.1896494"><ele>748.2</ele><time>2026-05-02T12:11:04.251Z</time></trkpt><trkpt lat="44.2705665" lon="8.1897795"><ele>744.8</ele><time>2026-05-02T12:11:05.253Z</time></trkpt><trkpt lat="44.2706098" lon="8.1899069"><ele>741.4</ele><time>2026-05-02T12:11:06.253Z</time></trkpt><trkpt lat="44.2706466" lon="8.1900289"><ele>738.0</ele><time>2026-05-02T12:11:07.259Z</time></trkpt><trkpt lat="44.2706887" lon="8.1901401"><ele>738.0</ele><time>2026-05-02T12:11:08.253Z</time></trkpt><trkpt lat="44.270734" lon="8.1902347"><ele>738.0</ele><time>2026-05-02T12:11:09.266Z</time></trkpt><trkpt lat="44.2708457" lon="8.1902797"><ele>738.0</ele><time>2026-05-02T12:11:11.263Z</time></trkpt><trkpt lat="44.2709155" lon="8.1902432"><ele>738.0</ele><time>2026-05-02T12:11:12.258Z</time></trkpt><trkpt lat="44.2710005" lon="8.190279"><ele>738.0</ele><time>2026-05-02T12:11:14.263Z</time></trkpt><trkpt lat="44.2710124" lon="8.1903703"><ele>738.0</ele><time>2026-05-02T12:11:15.26Z</time></trkpt><trkpt lat="44.2710221" lon="8.1904766"><ele>738.0</ele><time>2026-05-02T12:11:16.255Z</time></trkpt><trkpt lat="44.2710498" lon="8.1905666"><ele>738.0</ele><time>2026-05-02T12:11:17.265Z</time></trkpt><trkpt lat="44.2710945" lon="8.1906374"><ele>738.0</ele><time>2026-05-02T12:11:18.266Z</time></trkpt><trkpt lat="44.2711608" lon="8.1907141"><ele>738.0</ele><time>2026-05-02T12:11:19.262Z</time></trkpt><trkpt lat="44.2712363" lon="8.1907929"><ele>738.0</ele><time>2026-05-02T12:11:20.26Z</time></trkpt><trkpt lat="44.2713121" lon="8.1908723"><ele>738.0</ele><time>2026-05-02T12:11:21.262Z</time></trkpt><trkpt lat="44.2713884" lon="8.1909607"><ele>737.5999999999999</ele><time>2026-05-02T12:11:22.258Z</time></trkpt><trkpt lat="44.2714503" lon="8.1910535"><ele>737.1999999999999</ele><time>2026-05-02T12:11:23.261Z</time></trkpt><trkpt lat="44.2715146" lon="8.1911529"><ele>736.8</ele><time>2026-05-02T12:11:24.259Z</time></trkpt><trkpt lat="44.2715767" lon="8.1912481"><ele>736.4</ele><time>2026-05-02T12:11:25.264Z</time></trkpt><trkpt lat="44.2716501" lon="8.1913303"><ele>736.0</ele><time>2026-05-02T12:11:26.259Z</time></trkpt><trkpt lat="44.2717183" lon="8.1913997"><ele>736.0</ele><time>2026-05-02T12:11:27.264Z</time></trkpt><trkpt lat="44.2717845" lon="8.1914697"><ele>736.0</ele><time>2026-05-02T12:11:28.277Z</time></trkpt><trkpt lat="44.2718396" lon="8.1915391"><ele>736.0</ele><time>2026-05-02T12:11:29.267Z</time></trkpt><trkpt lat="44.2718738" lon="8.1916219"><ele>736.0</ele><time>2026-05-02T12:11:30.259Z</time></trkpt><trkpt lat="44.271905" lon="8.1917271"><ele>736.0</ele><time>2026-05-02T12:11:31.259Z</time></trkpt><trkpt lat="44.2719211" lon="8.1918548"><ele>736.0</ele><time>2026-05-02T12:11:32.272Z</time></trkpt><trkpt lat="44.2719269" lon="8.1919941"><ele>732.8</ele><time>2026-05-02T12:11:33.259Z</time></trkpt><trkpt lat="44.2719278" lon="8.1921281"><ele>729.5999999999999</ele><time>2026-05-02T12:11:34.262Z</time></trkpt><trkpt lat="44.2719153" lon="8.1922762"><ele>726.4</ele><time>2026-05-02T12:11:35.256Z</time></trkpt><trkpt lat="44.2719022" lon="8.192431"><ele>723.2</ele><time>2026-05-02T12:11:36.263Z</time></trkpt><trkpt lat="44.2718971" lon="8.1925797"><ele>720.0</ele><time>2026-05-02T12:11:37.269Z</time></trkpt><trkpt lat="44.2719139" lon="8.1927182"><ele>718.25</ele><time>2026-05-02T12:11:38.263Z</time></trkpt><trkpt lat="44.271943" lon="8.1928842"><ele>716.5</ele><time>2026-05-02T12:11:39.264Z</time></trkpt><trkpt lat="44.2719924" lon="8.1930472"><ele>714.75</ele><time>2026-05-02T12:11:40.259Z</time></trkpt><trkpt lat="44.2720344" lon="8.1932133"><ele>713.0</ele><time>2026-05-02T12:11:41.255Z</time></trkpt><trkpt lat="44.272086" lon="8.1933859"><ele>712.25</ele><time>2026-05-02T12:11:42.251Z</time></trkpt><trkpt lat="44.2721423" lon="8.1935589"><ele>711.5</ele><time>2026-05-02T12:11:43.255Z</time></trkpt><trkpt lat="44.2722134" lon="8.1937263"><ele>710.75</ele><time>2026-05-02T12:11:44.255Z</time></trkpt><trkpt lat="44.2723057" lon="8.1938975"><ele>710.0</ele><time>2026-05-02T12:11:45.25Z</time></trkpt><trkpt lat="44.2723969" lon="8.194076"><ele>710.0</ele><time>2026-05-02T12:11:46.249Z</time></trkpt><trkpt lat="44.272492" lon="8.1942606"><ele>710.0</ele><time>2026-05-02T12:11:47.247Z</time></trkpt><trkpt lat="44.2725796" lon="8.1944523"><ele>710.0</ele><time>2026-05-02T12:11:48.249Z</time></trkpt><trkpt lat="44.2726492" lon="8.1946253"><ele>710.0</ele><time>2026-05-02T12:11:49.253Z</time></trkpt><trkpt lat="44.2727277" lon="8.1947593"><ele>710.0</ele><time>2026-05-02T12:11:50.252Z</time></trkpt><trkpt lat="44.272823" lon="8.1948786"><ele>710.0</ele><time>2026-05-02T12:11:51.256Z</time></trkpt><trkpt lat="44.2729316" lon="8.1949613"><ele>710.0</ele><time>2026-05-02T12:11:52.248Z</time></trkpt><trkpt lat="44.2730539" lon="8.1949798"><ele>708.0</ele><time>2026-05-02T12:11:53.251Z</time></trkpt><trkpt lat="44.2731588" lon="8.1950017"><ele>706.0</ele><time>2026-05-02T12:11:54.254Z</time></trkpt><trkpt lat="44.2732557" lon="8.1949945"><ele>704.0</ele><time>2026-05-02T12:11:55.255Z</time></trkpt><trkpt lat="44.2733764" lon="8.194966"><ele>702.0</ele><time>2026-05-02T12:11:56.259Z</time></trkpt><trkpt lat="44.2734964" lon="8.1949322"><ele>700.0</ele><time>2026-05-02T12:11:57.251Z</time></trkpt><trkpt lat="44.2736234" lon="8.1949112"><ele>700.0</ele><time>2026-05-02T12:11:58.263Z</time></trkpt><trkpt lat="44.2737408" lon="8.1948993"><ele>700.0</ele><time>2026-05-02T12:11:59.259Z</time></trkpt><trkpt lat="44.2738588" lon="8.1949248"><ele>700.0</ele><time>2026-05-02T12:12:00.254Z</time></trkpt><trkpt lat="44.273993" lon="8.1949652"><ele>700.0</ele><time>2026-05-02T12:12:01.255Z</time></trkpt><trkpt lat="44.274127" lon="8.1949949"><ele>700.0</ele><time>2026-05-02T12:12:02.251Z</time></trkpt><trkpt lat="44.2742571" lon="8.195026"><ele>700.0</ele><time>2026-05-02T12:12:03.266Z</time></trkpt><trkpt lat="44.2743804" lon="8.1950664"><ele>700.0</ele><time>2026-05-02T12:12:04.247Z</time></trkpt><trkpt lat="44.2745002" lon="8.1951221"><ele>700.0</ele><time>2026-05-02T12:12:05.262Z</time></trkpt><trkpt lat="44.274598" lon="8.1952369"><ele>700.0</ele><time>2026-05-02T12:12:06.254Z</time></trkpt><trkpt lat="44.2746716" lon="8.1954035"><ele>700.0</ele><time>2026-05-02T12:12:07.255Z</time></trkpt><trkpt lat="44.2747133" lon="8.1956442"><ele>700.0</ele><time>2026-05-02T12:12:08.246Z</time></trkpt><trkpt lat="44.2747668" lon="8.1958827"><ele>699.6666666666667</ele><time>2026-05-02T12:12:09.252Z</time></trkpt><trkpt lat="44.2748114" lon="8.196109"><ele>699.3333333333334</ele><time>2026-05-02T12:12:10.249Z</time></trkpt><trkpt lat="44.2748633" lon="8.1963336"><ele>699.0</ele><time>2026-05-02T12:12:11.255Z</time></trkpt><trkpt lat="44.2749072" lon="8.1965314"><ele>697.0</ele><time>2026-05-02T12:12:12.251Z</time></trkpt><trkpt lat="44.2749585" lon="8.1967119"><ele>695.0</ele><time>2026-05-02T12:12:13.258Z</time></trkpt><trkpt lat="44.2750142" lon="8.1968756"><ele>693.0</ele><time>2026-05-02T12:12:14.251Z</time></trkpt><trkpt lat="44.2750731" lon="8.1970116"><ele>691.0</ele><time>2026-05-02T12:12:15.256Z</time></trkpt><trkpt lat="44.275139" lon="8.1971415"><ele>691.0</ele><time>2026-05-02T12:12:16.253Z</time></trkpt><trkpt lat="44.2752103" lon="8.1972573"><ele>691.0</ele><time>2026-05-02T12:12:17.262Z</time></trkpt><trkpt lat="44.2752772" lon="8.1973484"><ele>691.0</ele><time>2026-05-02T12:12:18.253Z</time></trkpt><trkpt lat="44.275328" lon="8.1974297"><ele>691.0</ele><time>2026-05-02T12:12:19.256Z</time></trkpt><trkpt lat="44.275366" lon="8.1975009"><ele>691.0</ele><time>2026-05-02T12:12:20.256Z</time></trkpt><trkpt lat="44.2753885" lon="8.197628"><ele>691.0</ele><time>2026-05-02T12:12:22.257Z</time></trkpt><trkpt lat="44.2753513" lon="8.1977938"><ele>690.1666666666667</ele><time>2026-05-02T12:12:24.247Z</time></trkpt><trkpt lat="44.275354" lon="8.1979017"><ele>689.3333333333334</ele><time>2026-05-02T12:12:25.257Z</time></trkpt><trkpt lat="44.2753839" lon="8.1980164"><ele>688.5</ele><time>2026-05-02T12:12:26.253Z</time></trkpt><trkpt lat="44.2754304" lon="8.1981204"><ele>687.6666666666666</ele><time>2026-05-02T12:12:27.256Z</time></trkpt><trkpt lat="44.2754853" lon="8.1982238"><ele>686.8333333333333</ele><time>2026-05-02T12:12:28.268Z</time></trkpt><trkpt lat="44.2755509" lon="8.198309"><ele>686.0</ele><time>2026-05-02T12:12:29.261Z</time></trkpt><trkpt lat="44.2756268" lon="8.1983817"><ele>686.0</ele><time>2026-05-02T12:12:30.266Z</time></trkpt><trkpt lat="44.2757196" lon="8.1984389"><ele>686.0</ele><time>2026-05-02T12:12:31.255Z</time></trkpt><trkpt lat="44.2758346" lon="8.1984737"><ele>686.0</ele><time>2026-05-02T12:12:32.263Z</time></trkpt><trkpt lat="44.2759629" lon="8.1984736"><ele>686.0</ele><time>2026-05-02T12:12:33.252Z</time></trkpt><trkpt lat="44.2760878" lon="8.1984372"><ele>686.0</ele><time>2026-05-02T12:12:34.266Z</time></trkpt><trkpt lat="44.2762056" lon="8.1983798"><ele>686.0</ele><time>2026-05-02T12:12:35.251Z</time></trkpt><trkpt lat="44.2763043" lon="8.1983101"><ele>686.0</ele><time>2026-05-02T12:12:36.255Z</time></trkpt><trkpt lat="44.2763931" lon="8.1982167"><ele>686.0</ele><time>2026-05-02T12:12:37.254Z</time></trkpt><trkpt lat="44.2764721" lon="8.1981133"><ele>683.8</ele><time>2026-05-02T12:12:38.254Z</time></trkpt><trkpt lat="44.276538" lon="8.1980206"><ele>681.5999999999999</ele><time>2026-05-02T12:12:39.248Z</time></trkpt><trkpt lat="44.2765965" lon="8.1979363"><ele>679.4</ele><time>2026-05-02T12:12:40.256Z</time></trkpt><trkpt lat="44.2766337" lon="8.1978218"><ele>677.2</ele><time>2026-05-02T12:12:42.256Z</time></trkpt><trkpt lat="44.2766954" lon="8.197722"><ele>675.0</ele><time>2026-05-02T12:12:50.255Z</time></trkpt><trkpt lat="44.2767053" lon="8.1975985"><ele>675.0</ele><time>2026-05-02T12:12:53.253Z</time></trkpt><trkpt lat="44.2766564" lon="8.1975175"><ele>675.0</ele><time>2026-05-02T12:12:55.259Z</time></trkpt><trkpt lat="44.2765913" lon="8.1974095"><ele>675.0</ele><time>2026-05-02T12:12:57.256Z</time></trkpt><trkpt lat="44.2765237" lon="8.1972973"><ele>675.0</ele><time>2026-05-02T12:12:59.254Z</time></trkpt><trkpt lat="44.2764509" lon="8.1971647"><ele>675.0</ele><time>2026-05-02T12:13:01.256Z</time></trkpt><trkpt lat="44.2764182" lon="8.197088"><ele>676.5</ele><time>2026-05-02T12:13:02.252Z</time></trkpt><trkpt lat="44.2764161" lon="8.1969981"><ele>678.0</ele><time>2026-05-02T12:13:03.256Z</time></trkpt><trkpt lat="44.2764453" lon="8.196918"><ele>679.5</ele><time>2026-05-02T12:13:04.256Z</time></trkpt><trkpt lat="44.2765165" lon="8.1968468"><ele>681.0</ele><time>2026-05-02T12:13:05.275Z</time></trkpt><trkpt lat="44.2766074" lon="8.1967862"><ele>682.5</ele><time>2026-05-02T12:13:06.262Z</time></trkpt><trkpt lat="44.2767304" lon="8.1967515"><ele>684.0</ele><time>2026-05-02T12:13:07.253Z</time></trkpt><trkpt lat="44.2768536" lon="8.1967508"><ele>684.0</ele><time>2026-05-02T12:13:08.246Z</time></trkpt><trkpt lat="44.2769841" lon="8.1967835"><ele>684.0</ele><time>2026-05-02T12:13:09.257Z</time></trkpt><trkpt lat="44.2771332" lon="8.1968438"><ele>684.0</ele><time>2026-05-02T12:13:10.246Z</time></trkpt><trkpt lat="44.2772717" lon="8.1969052"><ele>684.0</ele><time>2026-05-02T12:13:11.251Z</time></trkpt><trkpt lat="44.2774149" lon="8.196974"><ele>687.0</ele><time>2026-05-02T12:13:12.245Z</time></trkpt><trkpt lat="44.2775778" lon="8.1970523"><ele>690.0</ele><time>2026-05-02T12:13:13.252Z</time></trkpt><trkpt lat="44.2777344" lon="8.1971403"><ele>693.0</ele><time>2026-05-02T12:13:14.25Z</time></trkpt><trkpt lat="44.2778851" lon="8.197224"><ele>693.0</ele><time>2026-05-02T12:13:15.262Z</time></trkpt><trkpt lat="44.2780178" lon="8.1973253"><ele>693.0</ele><time>2026-05-02T12:13:16.256Z</time></trkpt><trkpt lat="44.2781515" lon="8.1973984"><ele>693.0</ele><time>2026-05-02T12:13:17.259Z</time></trkpt><trkpt lat="44.2782902" lon="8.1974799"><ele>693.0</ele><time>2026-05-02T12:13:18.255Z</time></trkpt><trkpt lat="44.2784392" lon="8.1975601"><ele>687.25</ele><time>2026-05-02T12:13:19.264Z</time></trkpt><trkpt lat="44.2785863" lon="8.1975969"><ele>681.5</ele><time>2026-05-02T12:13:20.27Z</time></trkpt><trkpt lat="44.2787422" lon="8.1975887"><ele>675.75</ele><time>2026-05-02T12:13:21.265Z</time></trkpt><trkpt lat="44.2788774" lon="8.1975676"><ele>670.0</ele><time>2026-05-02T12:13:22.268Z</time></trkpt><trkpt lat="44.2790201" lon="8.1975357"><ele>668.6666666666667</ele><time>2026-05-02T12:13:23.266Z</time></trkpt><trkpt lat="44.279175" lon="8.197512"><ele>667.3333333333334</ele><time>2026-05-02T12:13:24.272Z</time></trkpt><trkpt lat="44.2793298" lon="8.1974979"><ele>666.0</ele><time>2026-05-02T12:13:25.273Z</time></trkpt><trkpt lat="44.2794898" lon="8.1975043"><ele>666.0</ele><time>2026-05-02T12:13:26.268Z</time></trkpt><trkpt lat="44.2796441" lon="8.197536"><ele>666.0</ele><time>2026-05-02T12:13:27.269Z</time></trkpt><trkpt lat="44.2797866" lon="8.1975807"><ele>666.0</ele><time>2026-05-02T12:13:28.282Z</time></trkpt><trkpt lat="44.2799237" lon="8.1976445"><ele>666.0</ele><time>2026-05-02T12:13:29.269Z</time></trkpt><trkpt lat="44.2800493" lon="8.1977207"><ele>666.75</ele><time>2026-05-02T12:13:30.27Z</time></trkpt><trkpt lat="44.2801616" lon="8.1978036"><ele>667.5</ele><time>2026-05-02T12:13:31.271Z</time></trkpt><trkpt lat="44.2802809" lon="8.1979215"><ele>668.25</ele><time>2026-05-02T12:13:32.275Z</time></trkpt><trkpt lat="44.2803781" lon="8.1980726"><ele>669.0</ele><time>2026-05-02T12:13:33.271Z</time></trkpt><trkpt lat="44.2804286" lon="8.1982643"><ele>667.0</ele><time>2026-05-02T12:13:34.26Z</time></trkpt><trkpt lat="44.2804705" lon="8.1984526"><ele>665.0</ele><time>2026-05-02T12:13:35.242Z</time></trkpt><trkpt lat="44.2804829" lon="8.1986454"><ele>663.0</ele><time>2026-05-02T12:13:36.27Z</time></trkpt><trkpt lat="44.2804667" lon="8.1988543"><ele>661.0</ele><time>2026-05-02T12:13:37.26Z</time></trkpt><trkpt lat="44.2804205" lon="8.1990748"><ele>661.0</ele><time>2026-05-02T12:13:38.257Z</time></trkpt><trkpt lat="44.2803789" lon="8.1992988"><ele>661.0</ele><time>2026-05-02T12:13:39.257Z</time></trkpt><trkpt lat="44.2803504" lon="8.1995104"><ele>661.0</ele><time>2026-05-02T12:13:40.263Z</time></trkpt><trkpt lat="44.2803344" lon="8.1997082"><ele>660.25</ele><time>2026-05-02T12:13:41.261Z</time></trkpt><trkpt lat="44.2803176" lon="8.199897"><ele>659.5</ele><time>2026-05-02T12:13:42.262Z</time></trkpt><trkpt lat="44.2803101" lon="8.2000945"><ele>658.75</ele><time>2026-05-02T12:13:43.26Z</time></trkpt><trkpt lat="44.2803236" lon="8.2002625"><ele>658.0</ele><time>2026-05-02T12:13:44.266Z</time></trkpt><trkpt lat="44.2804152" lon="8.2003973"><ele>658.0</ele><time>2026-05-02T12:13:45.269Z</time></trkpt><trkpt lat="44.2805285" lon="8.2005305"><ele>658.0</ele><time>2026-05-02T12:13:46.259Z</time></trkpt><trkpt lat="44.2806477" lon="8.200645"><ele>658.0</ele><time>2026-05-02T12:13:47.269Z</time></trkpt><trkpt lat="44.2807759" lon="8.2007645"><ele>658.0</ele><time>2026-05-02T12:13:48.268Z</time></trkpt><trkpt lat="44.2808915" lon="8.2008906"><ele>658.25</ele><time>2026-05-02T12:13:49.271Z</time></trkpt><trkpt lat="44.2809974" lon="8.2010053"><ele>658.5</ele><time>2026-05-02T12:13:50.265Z</time></trkpt><trkpt lat="44.2811139" lon="8.2011326"><ele>658.75</ele><time>2026-05-02T12:13:51.27Z</time></trkpt><trkpt lat="44.2812442" lon="8.2012628"><ele>659.0</ele><time>2026-05-02T12:13:52.269Z</time></trkpt><trkpt lat="44.2813839" lon="8.201407"><ele>658.6666666666666</ele><time>2026-05-02T12:13:53.269Z</time></trkpt><trkpt lat="44.2815226" lon="8.2015387"><ele>658.3333333333334</ele><time>2026-05-02T12:13:54.264Z</time></trkpt><trkpt lat="44.2816542" lon="8.2016562"><ele>658.0</ele><time>2026-05-02T12:13:55.267Z</time></trkpt><trkpt lat="44.2817757" lon="8.2017526"><ele>658.0</ele><time>2026-05-02T12:13:56.257Z</time></trkpt><trkpt lat="44.2819206" lon="8.2018296"><ele>658.0</ele><time>2026-05-02T12:13:57.259Z</time></trkpt><trkpt lat="44.2820822" lon="8.201904"><ele>658.0</ele><time>2026-05-02T12:13:58.279Z</time></trkpt><trkpt lat="44.282249" lon="8.2019848"><ele>659.0</ele><time>2026-05-02T12:13:59.265Z</time></trkpt><trkpt lat="44.2824215" lon="8.2020776"><ele>660.0</ele><time>2026-05-02T12:14:00.259Z</time></trkpt><trkpt lat="44.2825818" lon="8.2021629"><ele>661.0</ele><time>2026-05-02T12:14:01.272Z</time></trkpt><trkpt lat="44.2827408" lon="8.2022437"><ele>661.0</ele><time>2026-05-02T12:14:02.265Z</time></trkpt><trkpt lat="44.2828811" lon="8.2023223"><ele>661.0</ele><time>2026-05-02T12:14:03.275Z</time></trkpt><trkpt lat="44.2830265" lon="8.202423"><ele>661.0</ele><time>2026-05-02T12:14:04.266Z</time></trkpt><trkpt lat="44.2831641" lon="8.2025274"><ele>658.6666666666667</ele><time>2026-05-02T12:14:05.266Z</time></trkpt><trkpt lat="44.2833202" lon="8.2026377"><ele>656.3333333333334</ele><time>2026-05-02T12:14:06.265Z</time></trkpt><trkpt lat="44.2834536" lon="8.2027453"><ele>654.0</ele><time>2026-05-02T12:14:07.281Z</time></trkpt><trkpt lat="44.2835767" lon="8.2028347"><ele>654.0</ele><time>2026-05-02T12:14:08.26Z</time></trkpt><trkpt lat="44.2836985" lon="8.2029262"><ele>654.0</ele><time>2026-05-02T12:14:09.261Z</time></trkpt><trkpt lat="44.2838151" lon="8.202981"><ele>654.0</ele><time>2026-05-02T12:14:10.254Z</time></trkpt><trkpt lat="44.2839328" lon="8.2030133"><ele>654.0</ele><time>2026-05-02T12:14:11.265Z</time></trkpt><trkpt lat="44.284061" lon="8.2030277"><ele>654.5</ele><time>2026-05-02T12:14:12.256Z</time></trkpt><trkpt lat="44.2841867" lon="8.2030229"><ele>655.0</ele><time>2026-05-02T12:14:13.257Z</time></trkpt><trkpt lat="44.284307" lon="8.2030059"><ele>655.5</ele><time>2026-05-02T12:14:14.264Z</time></trkpt><trkpt lat="44.2844248" lon="8.2029868"><ele>656.0</ele><time>2026-05-02T12:14:15.267Z</time></trkpt><trkpt lat="44.284532" lon="8.2029786"><ele>656.0</ele><time>2026-05-02T12:14:16.268Z</time></trkpt><trkpt lat="44.2846407" lon="8.2029943"><ele>656.0</ele><time>2026-05-02T12:14:17.265Z</time></trkpt><trkpt lat="44.2847365" lon="8.2030158"><ele>656.0</ele><time>2026-05-02T12:14:18.274Z</time></trkpt><trkpt lat="44.2848295" lon="8.2030651"><ele>656.0</ele><time>2026-05-02T12:14:19.269Z</time></trkpt><trkpt lat="44.2849109" lon="8.2031601"><ele>656.0</ele><time>2026-05-02T12:14:20.27Z</time></trkpt><trkpt lat="44.284973" lon="8.2032936"><ele>653.4</ele><time>2026-05-02T12:14:21.258Z</time></trkpt><trkpt lat="44.2850238" lon="8.2034441"><ele>650.8</ele><time>2026-05-02T12:14:22.26Z</time></trkpt><trkpt lat="44.285074" lon="8.2035842"><ele>648.1999999999999</ele><time>2026-05-02T12:14:23.257Z</time></trkpt><trkpt lat="44.2851099" lon="8.2037206"><ele>645.5999999999999</ele><time>2026-05-02T12:14:24.264Z</time></trkpt><trkpt lat="44.2851421" lon="8.203858"><ele>643.0</ele><time>2026-05-02T12:14:25.266Z</time></trkpt><trkpt lat="44.2851744" lon="8.2039966"><ele>643.2</ele><time>2026-05-02T12:14:26.27Z</time></trkpt><trkpt lat="44.2852252" lon="8.2041345"><ele>643.4</ele><time>2026-05-02T12:14:27.272Z</time></trkpt><trkpt lat="44.2852941" lon="8.2042524"><ele>643.6</ele><time>2026-05-02T12:14:28.28Z</time></trkpt><trkpt lat="44.2853875" lon="8.2043096"><ele>643.8000000000001</ele><time>2026-05-02T12:14:29.264Z</time></trkpt><trkpt lat="44.2854928" lon="8.2043166"><ele>644.0</ele><time>2026-05-02T12:14:30.26Z</time></trkpt><trkpt lat="44.2856216" lon="8.2042936"><ele>645.0</ele><time>2026-05-02T12:14:31.258Z</time></trkpt><trkpt lat="44.285768" lon="8.2042657"><ele>646.0</ele><time>2026-05-02T12:14:32.258Z</time></trkpt><trkpt lat="44.2859218" lon="8.2042421"><ele>647.0</ele><time>2026-05-02T12:14:33.252Z</time></trkpt><trkpt lat="44.2860823" lon="8.2042117"><ele>647.0</ele><time>2026-05-02T12:14:34.262Z</time></trkpt><trkpt lat="44.2862641" lon="8.2041672"><ele>647.0</ele><time>2026-05-02T12:14:35.244Z</time></trkpt><trkpt lat="44.2864457" lon="8.2041238"><ele>647.0</ele><time>2026-05-02T12:14:36.253Z</time></trkpt><trkpt lat="44.2866188" lon="8.2040979"><ele>644.6666666666666</ele><time>2026-05-02T12:14:37.25Z</time></trkpt><trkpt lat="44.2867968" lon="8.204074"><ele>642.3333333333334</ele><time>2026-05-02T12:14:38.267Z</time></trkpt><trkpt lat="44.2869476" lon="8.2040266"><ele>640.0</ele><time>2026-05-02T12:14:39.248Z</time></trkpt><trkpt lat="44.2870872" lon="8.203965"><ele>640.0</ele><time>2026-05-02T12:14:40.251Z</time></trkpt><trkpt lat="44.2872086" lon="8.203855"><ele>640.0</ele><time>2026-05-02T12:14:41.258Z</time></trkpt><trkpt lat="44.2873005" lon="8.2037155"><ele>640.0</ele><time>2026-05-02T12:14:42.258Z</time></trkpt><trkpt lat="44.2873845" lon="8.2035963"><ele>640.0</ele><time>2026-05-02T12:14:43.26Z</time></trkpt><trkpt lat="44.2874665" lon="8.2035299"><ele>641.25</ele><time>2026-05-02T12:14:44.262Z</time></trkpt><trkpt lat="44.2875861" lon="8.2034968"><ele>642.5</ele><time>2026-05-02T12:14:45.252Z</time></trkpt><trkpt lat="44.2877166" lon="8.2034627"><ele>643.75</ele><time>2026-05-02T12:14:46.255Z</time></trkpt><trkpt lat="44.2878588" lon="8.2034363"><ele>645.0</ele><time>2026-05-02T12:14:47.247Z</time></trkpt><trkpt lat="44.2879908" lon="8.2034155"><ele>645.75</ele><time>2026-05-02T12:14:48.248Z</time></trkpt><trkpt lat="44.2881287" lon="8.2034135"><ele>646.5</ele><time>2026-05-02T12:14:49.248Z</time></trkpt><trkpt lat="44.2882604" lon="8.2033866"><ele>647.25</ele><time>2026-05-02T12:14:50.25Z</time></trkpt><trkpt lat="44.2884007" lon="8.2033413"><ele>648.0</ele><time>2026-05-02T12:14:51.251Z</time></trkpt><trkpt lat="44.2885222" lon="8.2032451"><ele>646.5</ele><time>2026-05-02T12:14:52.264Z</time></trkpt><trkpt lat="44.2886347" lon="8.2031372"><ele>645.0</ele><time>2026-05-02T12:14:53.263Z</time></trkpt><trkpt lat="44.288745" lon="8.2030273"><ele>643.5</ele><time>2026-05-02T12:14:54.263Z</time></trkpt><trkpt lat="44.288854" lon="8.2029109"><ele>642.0</ele><time>2026-05-02T12:14:55.264Z</time></trkpt><trkpt lat="44.2889699" lon="8.2027874"><ele>642.0</ele><time>2026-05-02T12:14:56.263Z</time></trkpt><trkpt lat="44.2890693" lon="8.2026748"><ele>642.0</ele><time>2026-05-02T12:14:57.26Z</time></trkpt><trkpt lat="44.2891537" lon="8.202575"><ele>642.0</ele><time>2026-05-02T12:14:58.267Z</time></trkpt><trkpt lat="44.289237" lon="8.202481"><ele>642.0</ele><time>2026-05-02T12:14:59.259Z</time></trkpt><trkpt lat="44.2893386" lon="8.2023995"><ele>640.5</ele><time>2026-05-02T12:15:00.261Z</time></trkpt><trkpt lat="44.2894489" lon="8.2023201"><ele>639.0</ele><time>2026-05-02T12:15:01.243Z</time></trkpt><trkpt lat="44.2895567" lon="8.2022751"><ele>637.5</ele><time>2026-05-02T12:15:02.245Z</time></trkpt><trkpt lat="44.2896813" lon="8.2022295"><ele>636.0</ele><time>2026-05-02T12:15:03.244Z</time></trkpt><trkpt lat="44.28981" lon="8.2021912"><ele>636.0</ele><time>2026-05-02T12:15:04.241Z</time></trkpt><trkpt lat="44.2899312" lon="8.2021365"><ele>636.0</ele><time>2026-05-02T12:15:05.251Z</time></trkpt><trkpt lat="44.2900512" lon="8.2020872"><ele>636.0</ele><time>2026-05-02T12:15:06.246Z</time></trkpt><trkpt lat="44.2901629" lon="8.2020434"><ele>636.0</ele><time>2026-05-02T12:15:07.247Z</time></trkpt><trkpt lat="44.2902605" lon="8.2020176"><ele>636.0</ele><time>2026-05-02T12:15:08.241Z</time></trkpt><trkpt lat="44.2903403" lon="8.2019987"><ele>636.0</ele><time>2026-05-02T12:15:09.264Z</time></trkpt><trkpt lat="44.2904103" lon="8.2019837"><ele>636.0</ele><time>2026-05-02T12:15:11.245Z</time></trkpt><trkpt lat="44.2904816" lon="8.2018982"><ele>636.0</ele><time>2026-05-02T12:15:21.25Z</time></trkpt><trkpt lat="44.2905742" lon="8.201847"><ele>636.0</ele><time>2026-05-02T12:15:23.253Z</time></trkpt><trkpt lat="44.2906605" lon="8.2018145"><ele>636.0</ele><time>2026-05-02T12:15:25.248Z</time></trkpt><trkpt lat="44.2907428" lon="8.2017803"><ele>641.0</ele><time>2026-05-02T12:15:27.253Z</time></trkpt></trkseg></trk></gpx>